<?xml version='1.0' encoding='UTF-8'?><gpx version="1.1" creator="JPX - https://github.com/jenetics/jpx" xmlns="http://www.topografix.com/GPX/1/1"><trk><trkseg><trkpt lat="43.770228403207405" lon="10.90075168725451"><ele>81.0</ele><time>2026-04-12T07:29:06.376Z</time></trkpt><trkpt lat="43.77022626933688" lon="10.90064113240151"><ele>81.0</ele><time>2026-04-12T07:29:10.376Z</time></trkpt><trkpt lat="43.77030535698505" lon="10.900619979991527"><ele>81.0</ele><time>2026-04-12T07:29:13.376Z</time></trkpt><trkpt lat="43.770333370225494" lon="10.900514109072175"><ele>81.0</ele><time>2026-04-12T07:29:17.376Z</time></trkpt><trkpt lat="43.77029506234389" lon="10.900404807770114"><ele>81.0</ele><time>2026-04-12T07:29:20.376Z</time></trkpt><trkpt lat="43.7702556848206" lon="10.90030240063149"><ele>81.0</ele><time>2026-04-12T07:29:23.376Z</time></trkpt><trkpt lat="43.77020954428271" lon="10.900204264435743"><ele>81.0</ele><time>2026-04-12T07:29:26.376Z</time></trkpt><trkpt lat="43.77015825093066" lon="10.900108976428157"><ele>81.0</ele><time>2026-04-12T07:29:29.376Z</time></trkpt><trkpt lat="43.77012035156159" lon="10.8999963727555"><ele>81.0</ele><time>2026-04-12T07:29:32.376Z</time></trkpt><trkpt lat="43.7700701718341" lon="10.899900692964936"><ele>81.0</ele><time>2026-04-12T07:29:35.376Z</time></trkpt><trkpt lat="43.77001810383955" lon="10.899802465297523"><ele>81.0</ele><time>2026-04-12T07:29:38.376Z</time></trkpt><trkpt lat="43.76997763244956" lon="10.899695466844577"><ele>81.0</ele><time>2026-04-12T07:29:41.376Z</time></trkpt><trkpt lat="43.769926941151894" lon="10.899594258211486"><ele>81.71428571428572</ele><time>2026-04-12T07:29:44.376Z</time></trkpt><trkpt lat="43.76989606943818" lon="10.899516055738502"><ele>82.42857142857143</ele><time>2026-04-12T07:29:46.376Z</time></trkpt><trkpt lat="43.76984658503833" lon="10.899416881014432"><ele>83.14285714285714</ele><time>2026-04-12T07:29:49.376Z</time></trkpt><trkpt lat="43.76979968233749" lon="10.899308292165369"><ele>83.85714285714286</ele><time>2026-04-12T07:29:52.376Z</time></trkpt><trkpt lat="43.76977089319298" lon="10.89922968258872"><ele>84.57142857142857</ele><time>2026-04-12T07:29:54.376Z</time></trkpt><trkpt lat="43.76975274869676" lon="10.89914311604874"><ele>85.28571428571429</ele><time>2026-04-12T07:29:56.376Z</time></trkpt><trkpt lat="43.76974101270547" lon="10.89904526398469"><ele>86.0</ele><time>2026-04-12T07:29:58.376Z</time></trkpt><trkpt lat="43.76973033138155" lon="10.898942409077243"><ele>86.0</ele><time>2026-04-12T07:30:00.376Z</time></trkpt><trkpt lat="43.76971702931211" lon="10.898829801980046"><ele>86.0</ele><time>2026-04-12T07:30:02.376Z</time></trkpt><trkpt lat="43.76970916346311" lon="10.898713218919896"><ele>86.0</ele><time>2026-04-12T07:30:04.376Z</time></trkpt><trkpt lat="43.76969977144597" lon="10.898589259656571"><ele>86.0</ele><time>2026-04-12T07:30:06.376Z</time></trkpt><trkpt lat="43.7696845640904" lon="10.898467507394304"><ele>86.0</ele><time>2026-04-12T07:30:08.376Z</time></trkpt><trkpt lat="43.769674123858394" lon="10.898343443605203"><ele>86.0</ele><time>2026-04-12T07:30:10.376Z</time></trkpt><trkpt lat="43.76966408167413" lon="10.898226306641877"><ele>85.83333333333334</ele><time>2026-04-12T07:30:12.376Z</time></trkpt><trkpt lat="43.769655319806674" lon="10.898110230474336"><ele>85.66666666666667</ele><time>2026-04-12T07:30:14.376Z</time></trkpt><trkpt lat="43.76965416654914" lon="10.89799226036504"><ele>85.5</ele><time>2026-04-12T07:30:16.376Z</time></trkpt><trkpt lat="43.769656978765646" lon="10.897873670475196"><ele>85.33333333333333</ele><time>2026-04-12T07:30:18.376Z</time></trkpt><trkpt lat="43.7696638219305" lon="10.897765651007985"><ele>85.16666666666666</ele><time>2026-04-12T07:30:20.376Z</time></trkpt><trkpt lat="43.76966973963203" lon="10.897654271605784"><ele>85.0</ele><time>2026-04-12T07:30:22.376Z</time></trkpt><trkpt lat="43.76967367584782" lon="10.897541354207894"><ele>85.0</ele><time>2026-04-12T07:30:24.376Z</time></trkpt><trkpt lat="43.769680663062104" lon="10.897430683873734"><ele>85.0</ele><time>2026-04-12T07:30:26.376Z</time></trkpt><trkpt lat="43.76969217430908" lon="10.897313359069466"><ele>85.0</ele><time>2026-04-12T07:30:28.376Z</time></trkpt><trkpt lat="43.76970991083345" lon="10.897200712933484"><ele>85.0</ele><time>2026-04-12T07:30:30.376Z</time></trkpt><trkpt lat="43.769721061574" lon="10.897080707513345"><ele>85.0</ele><time>2026-04-12T07:30:32.376Z</time></trkpt><trkpt lat="43.7697424141818" lon="10.896961001310991"><ele>85.0</ele><time>2026-04-12T07:30:34.376Z</time></trkpt><trkpt lat="43.76977767401594" lon="10.896830216086986"><ele>84.8</ele><time>2026-04-12T07:30:36.376Z</time></trkpt><trkpt lat="43.7698057322748" lon="10.896698690878932"><ele>84.6</ele><time>2026-04-12T07:30:38.376Z</time></trkpt><trkpt lat="43.7698398087592" lon="10.896550523082857"><ele>84.4</ele><time>2026-04-12T07:30:40.374Z</time></trkpt><trkpt lat="43.76987168085652" lon="10.896409554167317"><ele>84.2</ele><time>2026-04-12T07:30:42.374Z</time></trkpt><trkpt lat="43.769892311259255" lon="10.896258307540474"><ele>84.0</ele><time>2026-04-12T07:30:44.374Z</time></trkpt><trkpt lat="43.769908933359076" lon="10.896095542734125"><ele>84.0</ele><time>2026-04-12T07:30:46.374Z</time></trkpt><trkpt lat="43.7699158581036" lon="10.89600834372532"><ele>84.0</ele><time>2026-04-12T07:30:47.374Z</time></trkpt><trkpt lat="43.7699336118576" lon="10.895841071710034"><ele>84.0</ele><time>2026-04-12T07:30:49.374Z</time></trkpt><trkpt lat="43.769941229894435" lon="10.895752342012473"><ele>84.0</ele><time>2026-04-12T07:30:50.374Z</time></trkpt><trkpt lat="43.769957088951706" lon="10.895579468985325"><ele>84.0</ele><time>2026-04-12T07:30:52.374Z</time></trkpt><trkpt lat="43.76996728580127" lon="10.89549288796817"><ele>84.0</ele><time>2026-04-12T07:30:53.374Z</time></trkpt><trkpt lat="43.76998733558709" lon="10.895322262840821"><ele>83.75</ele><time>2026-04-12T07:30:55.374Z</time></trkpt><trkpt lat="43.77001904071541" lon="10.895159022663583"><ele>83.5</ele><time>2026-04-12T07:30:57.374Z</time></trkpt><trkpt lat="43.77007485276092" lon="10.895021268426543"><ele>83.25</ele><time>2026-04-12T07:30:59.374Z</time></trkpt><trkpt lat="43.77017462016467" lon="10.89491780975239"><ele>83.0</ele><time>2026-04-12T07:31:01.374Z</time></trkpt><trkpt lat="43.77025063974613" lon="10.894815881312446"><ele>82.0</ele><time>2026-04-12T07:31:03.374Z</time></trkpt><trkpt lat="43.77033590709021" lon="10.894743276199554"><ele>81.0</ele><time>2026-04-12T07:31:05.374Z</time></trkpt><trkpt lat="43.77040949114452" lon="10.89465080818584"><ele>80.0</ele><time>2026-04-12T07:31:07.374Z</time></trkpt><trkpt lat="43.77049118148209" lon="10.894572471451063"><ele>79.0</ele><time>2026-04-12T07:31:09.374Z</time></trkpt><trkpt lat="43.770584351860705" lon="10.894509630452342"><ele>78.0</ele><time>2026-04-12T07:31:11.374Z</time></trkpt><trkpt lat="43.77067945523748" lon="10.89445652828649"><ele>78.0</ele><time>2026-04-12T07:31:13.374Z</time></trkpt><trkpt lat="43.770778406168525" lon="10.894399718399196"><ele>78.0</ele><time>2026-04-12T07:31:15.374Z</time></trkpt><trkpt lat="43.77088348778818" lon="10.894345268126337"><ele>78.0</ele><time>2026-04-12T07:31:17.374Z</time></trkpt><trkpt lat="43.77099549998497" lon="10.894305216296617"><ele>78.0</ele><time>2026-04-12T07:31:19.374Z</time></trkpt><trkpt lat="43.771106856013056" lon="10.894273450119274"><ele>78.0</ele><time>2026-04-12T07:31:21.374Z</time></trkpt><trkpt lat="43.77121891212336" lon="10.89423688776555"><ele>79.0</ele><time>2026-04-12T07:31:23.374Z</time></trkpt><trkpt lat="43.77132429691527" lon="10.894183752192511"><ele>80.0</ele><time>2026-04-12T07:31:25.374Z</time></trkpt><trkpt lat="43.77143330089516" lon="10.894146401847166"><ele>81.0</ele><time>2026-04-12T07:31:27.374Z</time></trkpt><trkpt lat="43.7715405253788" lon="10.894107469767022"><ele>82.0</ele><time>2026-04-12T07:31:29.375Z</time></trkpt><trkpt lat="43.77164885352811" lon="10.89407478979105"><ele>83.0</ele><time>2026-04-12T07:31:31.375Z</time></trkpt><trkpt lat="43.77174184488149" lon="10.894042497741761"><ele>83.0</ele><time>2026-04-12T07:31:33.375Z</time></trkpt><trkpt lat="43.77182917827831" lon="10.89401171264032"><ele>83.0</ele><time>2026-04-12T07:31:35.375Z</time></trkpt><trkpt lat="43.7719182270384" lon="10.893979467917566"><ele>83.0</ele><time>2026-04-12T07:31:37.375Z</time></trkpt><trkpt lat="43.7720104876159" lon="10.893952292435815"><ele>83.0</ele><time>2026-04-12T07:31:39.375Z</time></trkpt><trkpt lat="43.77210403978143" lon="10.89391898643567"><ele>83.0</ele><time>2026-04-12T07:31:41.375Z</time></trkpt><trkpt lat="43.772200831818445" lon="10.893885673137506"><ele>82.4</ele><time>2026-04-12T07:31:43.375Z</time></trkpt><trkpt lat="43.77229858683413" lon="10.893846999261926"><ele>81.80000000000001</ele><time>2026-04-12T07:31:45.375Z</time></trkpt><trkpt lat="43.772402193911795" lon="10.89381075292122"><ele>81.2</ele><time>2026-04-12T07:31:47.375Z</time></trkpt><trkpt lat="43.772504352949" lon="10.893769240295244"><ele>80.6</ele><time>2026-04-12T07:31:49.375Z</time></trkpt><trkpt lat="43.77262436980258" lon="10.893722587816583"><ele>80.0</ele><time>2026-04-12T07:31:51.375Z</time></trkpt><trkpt lat="43.77268897828027" lon="10.893701852757022"><ele>79.14285714285714</ele><time>2026-04-12T07:31:52.375Z</time></trkpt><trkpt lat="43.7727539759056" lon="10.893681051251523"><ele>78.28571428571429</ele><time>2026-04-12T07:31:53.375Z</time></trkpt><trkpt lat="43.77282054887914" lon="10.893658707075003"><ele>77.42857142857143</ele><time>2026-04-12T07:31:54.375Z</time></trkpt><trkpt lat="43.77288663243813" lon="10.893635460457604"><ele>76.57142857142857</ele><time>2026-04-12T07:31:55.375Z</time></trkpt><trkpt lat="43.77295307455842" lon="10.893611706719094"><ele>75.71428571428571</ele><time>2026-04-12T07:31:56.375Z</time></trkpt><trkpt lat="43.77302009551981" lon="10.893590487006167"><ele>74.85714285714286</ele><time>2026-04-12T07:31:57.375Z</time></trkpt><trkpt lat="43.77308823086463" lon="10.893569881112018"><ele>74.0</ele><time>2026-04-12T07:31:58.375Z</time></trkpt><trkpt lat="43.77315730267779" lon="10.893543946912676"><ele>74.0</ele><time>2026-04-12T07:31:59.375Z</time></trkpt><trkpt lat="43.773223287471424" lon="10.893516893303094"><ele>74.0</ele><time>2026-04-12T07:32:00.375Z</time></trkpt><trkpt lat="43.77329181426495" lon="10.893495532614415"><ele>74.0</ele><time>2026-04-12T07:32:01.375Z</time></trkpt><trkpt lat="43.77335464920884" lon="10.893469995400661"><ele>74.0</ele><time>2026-04-12T07:32:02.375Z</time></trkpt><trkpt lat="43.7734187135529" lon="10.893447146593724"><ele>74.0</ele><time>2026-04-12T07:32:03.375Z</time></trkpt><trkpt lat="43.77348289945751" lon="10.893430768842016"><ele>74.0</ele><time>2026-04-12T07:32:04.375Z</time></trkpt><trkpt lat="43.77354814521178" lon="10.893414268850961"><ele>74.0</ele><time>2026-04-12T07:32:05.375Z</time></trkpt><trkpt lat="43.77366974708148" lon="10.893414922938835"><ele>74.8</ele><time>2026-04-12T07:32:07.375Z</time></trkpt><trkpt lat="43.77373121682567" lon="10.893391274675547"><ele>75.60000000000001</ele><time>2026-04-12T07:32:08.375Z</time></trkpt><trkpt lat="43.773843424141326" lon="10.893389391114754"><ele>76.4</ele><time>2026-04-12T07:32:10.375Z</time></trkpt><trkpt lat="43.77395347885116" lon="10.893387882829137"><ele>77.2</ele><time>2026-04-12T07:32:12.375Z</time></trkpt><trkpt lat="43.774041768368015" lon="10.893373435441578"><ele>78.0</ele><time>2026-04-12T07:32:14.375Z</time></trkpt><trkpt lat="43.774077130997036" lon="10.8932169906752"><ele>78.0</ele><time>2026-04-12T07:32:15.375Z</time></trkpt><trkpt lat="43.77414064361539" lon="10.893122171733205"><ele>78.0</ele><time>2026-04-12T07:32:17.375Z</time></trkpt><trkpt lat="43.77418415666723" lon="10.893022957133631"><ele>78.0</ele><time>2026-04-12T07:32:19.375Z</time></trkpt><trkpt lat="43.77425092530078" lon="10.892953324959521"><ele>78.0</ele><time>2026-04-12T07:32:21.375Z</time></trkpt><trkpt lat="43.77429147920603" lon="10.892854339812704"><ele>78.0</ele><time>2026-04-12T07:32:23.375Z</time></trkpt><trkpt lat="43.77429595028437" lon="10.892726417965502"><ele>78.0</ele><time>2026-04-12T07:32:25.375Z</time></trkpt><trkpt lat="43.77428510987817" lon="10.892587659102068"><ele>78.16666666666667</ele><time>2026-04-12T07:32:27.375Z</time></trkpt><trkpt lat="43.77427836249402" lon="10.892419361523698"><ele>78.33333333333333</ele><time>2026-04-12T07:32:29.375Z</time></trkpt><trkpt lat="43.774288015218616" lon="10.892330990784634"><ele>78.5</ele><time>2026-04-12T07:32:30.375Z</time></trkpt><trkpt lat="43.77430746729644" lon="10.892231607796662"><ele>78.66666666666666</ele><time>2026-04-12T07:32:31.375Z</time></trkpt><trkpt lat="43.77434004279559" lon="10.89212911058974"><ele>78.83333333333333</ele><time>2026-04-12T07:32:32.375Z</time></trkpt><trkpt lat="43.77437516360446" lon="10.892028212682987"><ele>79.0</ele><time>2026-04-12T07:32:33.375Z</time></trkpt><trkpt lat="43.77441753382851" lon="10.891922697497893"><ele>78.60000000000001</ele><time>2026-04-12T07:32:34.375Z</time></trkpt><trkpt lat="43.774462046950575" lon="10.891818853683223"><ele>78.2</ele><time>2026-04-12T07:32:35.375Z</time></trkpt><trkpt lat="43.774508708399175" lon="10.891709998701506"><ele>77.80000000000001</ele><time>2026-04-12T07:32:36.375Z</time></trkpt><trkpt lat="43.77456092218051" lon="10.891598132200754"><ele>77.4</ele><time>2026-04-12T07:32:37.375Z</time></trkpt><trkpt lat="43.774606926586955" lon="10.891495739561131"><ele>77.0</ele><time>2026-04-12T07:32:38.375Z</time></trkpt><trkpt lat="43.77465936624843" lon="10.891376609393493"><ele>76.33333333333334</ele><time>2026-04-12T07:32:39.375Z</time></trkpt><trkpt lat="43.77470212544479" lon="10.891279470827213"><ele>75.66666666666667</ele><time>2026-04-12T07:32:40.375Z</time></trkpt><trkpt lat="43.774746286721026" lon="10.891179147101267"><ele>75.0</ele><time>2026-04-12T07:32:41.375Z</time></trkpt><trkpt lat="43.77479204805826" lon="10.891075188448932"><ele>74.33333333333333</ele><time>2026-04-12T07:32:42.375Z</time></trkpt><trkpt lat="43.7748365156981" lon="10.890973845137689"><ele>73.66666666666666</ele><time>2026-04-12T07:32:43.375Z</time></trkpt><trkpt lat="43.7748644225623" lon="10.89086414015385"><ele>73.0</ele><time>2026-04-12T07:32:44.375Z</time></trkpt><trkpt lat="43.774919436533004" lon="10.890780532741683"><ele>72.16666666666666</ele><time>2026-04-12T07:32:45.374Z</time></trkpt><trkpt lat="43.77496165382239" lon="10.89067943887024"><ele>71.33333333333333</ele><time>2026-04-12T07:32:46.374Z</time></trkpt><trkpt lat="43.77498919844211" lon="10.890568866469177"><ele>70.5</ele><time>2026-04-12T07:32:47.374Z</time></trkpt><trkpt lat="43.7750411724872" lon="10.89048754977286"><ele>69.66666666666667</ele><time>2026-04-12T07:32:48.374Z</time></trkpt><trkpt lat="43.77508368686201" lon="10.89038487098689"><ele>68.83333333333334</ele><time>2026-04-12T07:32:49.374Z</time></trkpt><trkpt lat="43.775121030774955" lon="10.890294374180158"><ele>68.0</ele><time>2026-04-12T07:32:50.374Z</time></trkpt><trkpt lat="43.775157849052505" lon="10.890205151148097"><ele>67.71428571428571</ele><time>2026-04-12T07:32:51.374Z</time></trkpt><trkpt lat="43.77519500781346" lon="10.890115103015948"><ele>67.42857142857143</ele><time>2026-04-12T07:32:52.374Z</time></trkpt><trkpt lat="43.77523113710839" lon="10.890027549625778"><ele>67.14285714285714</ele><time>2026-04-12T07:32:53.374Z</time></trkpt><trkpt lat="43.77526800344741" lon="10.889938210144324"><ele>66.85714285714286</ele><time>2026-04-12T07:32:54.374Z</time></trkpt><trkpt lat="43.775305193634935" lon="10.88985041607305"><ele>66.57142857142857</ele><time>2026-04-12T07:32:55.374Z</time></trkpt><trkpt lat="43.77534076893132" lon="10.889766490622138"><ele>66.28571428571428</ele><time>2026-04-12T07:32:56.374Z</time></trkpt><trkpt lat="43.775377559313675" lon="10.88967969864764"><ele>66.0</ele><time>2026-04-12T07:32:57.374Z</time></trkpt><trkpt lat="43.77541300291657" lon="10.88959608385049"><ele>66.0</ele><time>2026-04-12T07:32:58.374Z</time></trkpt><trkpt lat="43.77544797487542" lon="10.889508346693345"><ele>66.0</ele><time>2026-04-12T07:32:59.374Z</time></trkpt><trkpt lat="43.77548105638678" lon="10.889424305580595"><ele>66.0</ele><time>2026-04-12T07:33:00.374Z</time></trkpt><trkpt lat="43.775513393951464" lon="10.889342210481132"><ele>66.0</ele><time>2026-04-12T07:33:01.374Z</time></trkpt><trkpt lat="43.77555033750764" lon="10.889259686619807"><ele>66.0</ele><time>2026-04-12T07:33:02.374Z</time></trkpt><trkpt lat="43.77559092510579" lon="10.889182827738866"><ele>66.0</ele><time>2026-04-12T07:33:03.374Z</time></trkpt><trkpt lat="43.775639215016774" lon="10.889115107568102"><ele>66.0</ele><time>2026-04-12T07:33:04.374Z</time></trkpt><trkpt lat="43.77568868386134" lon="10.889044061316302"><ele>66.0</ele><time>2026-04-12T07:33:05.374Z</time></trkpt><trkpt lat="43.77573662756039" lon="10.888975205411603"><ele>66.0</ele><time>2026-04-12T07:33:06.374Z</time></trkpt><trkpt lat="43.7757874257407" lon="10.888902211612875"><ele>66.0</ele><time>2026-04-12T07:33:07.374Z</time></trkpt><trkpt lat="43.77583858759352" lon="10.888828383822144"><ele>66.0</ele><time>2026-04-12T07:33:08.374Z</time></trkpt><trkpt lat="43.77589195637875" lon="10.888751371353074"><ele>66.0</ele><time>2026-04-12T07:33:09.374Z</time></trkpt><trkpt lat="43.77594655201577" lon="10.888672588536135"><ele>66.0</ele><time>2026-04-12T07:33:10.374Z</time></trkpt><trkpt lat="43.776000951715" lon="10.888591894950544"><ele>64.83333333333333</ele><time>2026-04-12T07:33:11.374Z</time></trkpt><trkpt lat="43.77604825816656" lon="10.88852030284595"><ele>63.66666666666667</ele><time>2026-04-12T07:33:12.374Z</time></trkpt><trkpt lat="43.77613462876872" lon="10.88838959226922"><ele>62.5</ele><time>2026-04-12T07:33:14.374Z</time></trkpt><trkpt lat="43.7761814222338" lon="10.888317059845763"><ele>61.333333333333336</ele><time>2026-04-12T07:33:15.374Z</time></trkpt><trkpt lat="43.77622896940748" lon="10.888241757660538"><ele>60.16666666666667</ele><time>2026-04-12T07:33:16.374Z</time></trkpt><trkpt lat="43.77628187778534" lon="10.888187118701406"><ele>59.0</ele><time>2026-04-12T07:33:17.374Z</time></trkpt><trkpt lat="43.77634626095627" lon="10.88812927965634"><ele>59.00000000000001</ele><time>2026-04-12T07:33:18.374Z</time></trkpt><trkpt lat="43.77641262937204" lon="10.888073550354049"><ele>59.0</ele><time>2026-04-12T07:33:19.374Z</time></trkpt><trkpt lat="43.77648476509548" lon="10.888014074000063"><ele>59.0</ele><time>2026-04-12T07:33:20.374Z</time></trkpt><trkpt lat="43.77655404350996" lon="10.887956953517142"><ele>59.0</ele><time>2026-04-12T07:33:21.374Z</time></trkpt><trkpt lat="43.77662006401219" lon="10.887903675828007"><ele>59.00000000000001</ele><time>2026-04-12T07:33:22.374Z</time></trkpt><trkpt lat="43.776686526338395" lon="10.887853428228405"><ele>59.0</ele><time>2026-04-12T07:33:23.374Z</time></trkpt><trkpt lat="43.77675451558948" lon="10.887814728072282"><ele>59.0</ele><time>2026-04-12T07:33:24.374Z</time></trkpt><trkpt lat="43.77682090746656" lon="10.88778185654416"><ele>59.0</ele><time>2026-04-12T07:33:25.374Z</time></trkpt><trkpt lat="43.77688831969187" lon="10.887749855222433"><ele>59.0</ele><time>2026-04-12T07:33:26.374Z</time></trkpt><trkpt lat="43.77695467584395" lon="10.887720053813347"><ele>59.0</ele><time>2026-04-12T07:33:27.374Z</time></trkpt><trkpt lat="43.77701830650976" lon="10.887693015661226"><ele>59.0</ele><time>2026-04-12T07:33:28.374Z</time></trkpt><trkpt lat="43.77708452890317" lon="10.88766196289939"><ele>59.0</ele><time>2026-04-12T07:33:29.374Z</time></trkpt><trkpt lat="43.77714732651103" lon="10.887629635237053"><ele>59.0</ele><time>2026-04-12T07:33:30.374Z</time></trkpt><trkpt lat="43.77720717858102" lon="10.887596399178038"><ele>59.2</ele><time>2026-04-12T07:33:31.374Z</time></trkpt><trkpt lat="43.77726589628849" lon="10.887563793039083"><ele>59.400000000000006</ele><time>2026-04-12T07:33:32.374Z</time></trkpt><trkpt lat="43.7773200319507" lon="10.887517660422724"><ele>59.6</ele><time>2026-04-12T07:33:33.374Z</time></trkpt><trkpt lat="43.77742785084324" lon="10.887467382285708"><ele>59.8</ele><time>2026-04-12T07:33:35.374Z</time></trkpt><trkpt lat="43.777534846378124" lon="10.887421398077855"><ele>60.0</ele><time>2026-04-12T07:33:37.374Z</time></trkpt><trkpt lat="43.77763816179603" lon="10.887380701448498"><ele>60.2</ele><time>2026-04-12T07:33:39.374Z</time></trkpt><trkpt lat="43.777739128145114" lon="10.887346080898821"><ele>60.4</ele><time>2026-04-12T07:33:41.374Z</time></trkpt><trkpt lat="43.77783789035541" lon="10.88734842962225"><ele>60.599999999999994</ele><time>2026-04-12T07:33:43.374Z</time></trkpt><trkpt lat="43.777944224876755" lon="10.887324158363679"><ele>60.8</ele><time>2026-04-12T07:33:45.374Z</time></trkpt><trkpt lat="43.77805389275618" lon="10.887336894345458"><ele>61.0</ele><time>2026-04-12T07:33:47.374Z</time></trkpt><trkpt lat="43.77816601663122" lon="10.887352285620027"><ele>61.0</ele><time>2026-04-12T07:33:49.374Z</time></trkpt><trkpt lat="43.77828176880948" lon="10.887358927661001"><ele>60.99999999999999</ele><time>2026-04-12T07:33:51.374Z</time></trkpt><trkpt lat="43.77839647130959" lon="10.88737079732663"><ele>60.99999999999999</ele><time>2026-04-12T07:33:53.374Z</time></trkpt><trkpt lat="43.77850783774752" lon="10.887384973133964"><ele>61.0</ele><time>2026-04-12T07:33:55.374Z</time></trkpt><trkpt lat="43.77861120167528" lon="10.88739114887255"><ele>61.0</ele><time>2026-04-12T07:33:57.374Z</time></trkpt><trkpt lat="43.778708809509496" lon="10.887399262017267"><ele>61.33333333333333</ele><time>2026-04-12T07:33:59.374Z</time></trkpt><trkpt lat="43.778792769311835" lon="10.887415871416799"><ele>61.666666666666664</ele><time>2026-04-12T07:34:01.374Z</time></trkpt><trkpt lat="43.778883494326465" lon="10.887423971125672"><ele>62.0</ele><time>2026-04-12T07:34:04.374Z</time></trkpt><trkpt lat="43.77894664407245" lon="10.8874362237771"><ele>62.33333333333333</ele><time>2026-04-12T07:34:06.374Z</time></trkpt><trkpt lat="43.779040045954034" lon="10.887437882821308"><ele>62.666666666666664</ele><time>2026-04-12T07:34:09.374Z</time></trkpt><trkpt lat="43.779105007598986" lon="10.88744488346785"><ele>63.0</ele><time>2026-04-12T07:34:11.374Z</time></trkpt><trkpt lat="43.779169142581345" lon="10.887447701055523"><ele>63.0</ele><time>2026-04-12T07:34:13.374Z</time></trkpt><trkpt lat="43.77926238717486" lon="10.887492854991157"><ele>63.0</ele><time>2026-04-12T07:34:16.374Z</time></trkpt><trkpt lat="43.77932881277144" lon="10.887510247639376"><ele>63.0</ele><time>2026-04-12T07:34:18.374Z</time></trkpt><trkpt lat="43.779396362525134" lon="10.887508530276826"><ele>63.0</ele><time>2026-04-12T07:34:20.374Z</time></trkpt><trkpt lat="43.779453978642" lon="10.887569669426847"><ele>63.0</ele><time>2026-04-12T07:34:22.374Z</time></trkpt><trkpt lat="43.77951898849871" lon="10.887627523698868"><ele>63.0</ele><time>2026-04-12T07:34:25.374Z</time></trkpt><trkpt lat="43.7795973114308" lon="10.88763582432068"><ele>62.285714285714285</ele><time>2026-04-12T07:34:28.374Z</time></trkpt><trkpt lat="43.779662600506676" lon="10.887634727313129"><ele>61.57142857142857</ele><time>2026-04-12T07:34:32.374Z</time></trkpt><trkpt lat="43.77972214390224" lon="10.887604704092254"><ele>60.85714285714286</ele><time>2026-04-12T07:34:39.374Z</time></trkpt><trkpt lat="43.77976641306922" lon="10.887512638006116"><ele>60.142857142857146</ele><time>2026-04-12T07:34:43.374Z</time></trkpt><trkpt lat="43.779805950787875" lon="10.88744194196178"><ele>59.42857142857143</ele><time>2026-04-12T07:34:46.374Z</time></trkpt><trkpt lat="43.77984926226227" lon="10.88737785297541"><ele>58.71428571428572</ele><time>2026-04-12T07:34:49.374Z</time></trkpt><trkpt lat="43.77989307905189" lon="10.88729558086968"><ele>58.00000000000001</ele><time>2026-04-12T07:34:52.373Z</time></trkpt><trkpt lat="43.77997348440695" lon="10.887307132437249"><ele>57.71428571428572</ele><time>2026-04-12T07:34:55.373Z</time></trkpt><trkpt lat="43.78004447906849" lon="10.88733575294311"><ele>57.42857142857143</ele><time>2026-04-12T07:34:58.373Z</time></trkpt><trkpt lat="43.78011245142923" lon="10.887361570271272"><ele>57.142857142857146</ele><time>2026-04-12T07:35:01.373Z</time></trkpt><trkpt lat="43.78018884902969" lon="10.887376435647804"><ele>56.85714285714286</ele><time>2026-04-12T07:35:04.373Z</time></trkpt><trkpt lat="43.7802598625707" lon="10.887394686364061"><ele>56.57142857142857</ele><time>2026-04-12T07:35:07.373Z</time></trkpt><trkpt lat="43.7803274889625" lon="10.887407457704468"><ele>56.285714285714285</ele><time>2026-04-12T07:35:10.373Z</time></trkpt><trkpt lat="43.780396169442916" lon="10.887431548763816"><ele>56.0</ele><time>2026-04-12T07:35:13.373Z</time></trkpt><trkpt lat="43.78046052027611" lon="10.887448781279204"><ele>54.142857142857146</ele><time>2026-04-12T07:35:16.373Z</time></trkpt><trkpt lat="43.7805291001349" lon="10.887474381780795"><ele>52.285714285714285</ele><time>2026-04-12T07:35:20.373Z</time></trkpt><trkpt lat="43.78059366150051" lon="10.887475544637173"><ele>50.42857142857143</ele><time>2026-04-12T07:35:24.373Z</time></trkpt><trkpt lat="43.78066447500389" lon="10.887478882443139"><ele>48.57142857142857</ele><time>2026-04-12T07:35:28.373Z</time></trkpt><trkpt lat="43.780734856744026" lon="10.887498897440597"><ele>46.714285714285715</ele><time>2026-04-12T07:35:31.373Z</time></trkpt><trkpt lat="43.78080100977803" lon="10.88751432588613"><ele>44.85714285714286</ele><time>2026-04-12T07:35:34.373Z</time></trkpt><trkpt lat="43.780865475621255" lon="10.887528366496964"><ele>43.0</ele><time>2026-04-12T07:35:37.373Z</time></trkpt><trkpt lat="43.78093039090966" lon="10.887542407052566"><ele>43.00000000000001</ele><time>2026-04-12T07:35:40.373Z</time></trkpt><trkpt lat="43.780996267321804" lon="10.887560498708144"><ele>43.0</ele><time>2026-04-12T07:35:43.373Z</time></trkpt><trkpt lat="43.781070433672845" lon="10.887577647415393"><ele>43.0</ele><time>2026-04-12T07:35:46.373Z</time></trkpt><trkpt lat="43.78115096596319" lon="10.887596220457924"><ele>43.0</ele><time>2026-04-12T07:35:49.373Z</time></trkpt><trkpt lat="43.781218145730946" lon="10.88761312553802"><ele>43.0</ele><time>2026-04-12T07:35:52.373Z</time></trkpt><trkpt lat="43.78129476364866" lon="10.887628912556996"><ele>43.00000000000001</ele><time>2026-04-12T07:35:55.373Z</time></trkpt><trkpt lat="43.781370688816054" lon="10.887630873197558"><ele>43.0</ele><time>2026-04-12T07:35:59.373Z</time></trkpt><trkpt lat="43.781456410072096" lon="10.88763913510832"><ele>41.16666666666667</ele><time>2026-04-12T07:36:02.373Z</time></trkpt><trkpt lat="43.781541153690014" lon="10.88766454272744"><ele>39.333333333333336</ele><time>2026-04-12T07:36:05.373Z</time></trkpt><trkpt lat="43.781621690825666" lon="10.887683550470587"><ele>37.5</ele><time>2026-04-12T07:36:08.373Z</time></trkpt><trkpt lat="43.78170408626396" lon="10.887696195706546"><ele>35.666666666666664</ele><time>2026-04-12T07:36:11.373Z</time></trkpt><trkpt lat="43.78179225750047" lon="10.887720216440874"><ele>33.83333333333333</ele><time>2026-04-12T07:36:14.373Z</time></trkpt><trkpt lat="43.78188490857461" lon="10.887727419514011"><ele>32.0</ele><time>2026-04-12T07:36:17.373Z</time></trkpt><trkpt lat="43.78195327443966" lon="10.887728902937733"><ele>31.57142857142857</ele><time>2026-04-12T07:36:19.373Z</time></trkpt><trkpt lat="43.78202068420695" lon="10.887724907412613"><ele>31.14285714285714</ele><time>2026-04-12T07:36:21.373Z</time></trkpt><trkpt lat="43.78207750512137" lon="10.88776431057227"><ele>30.714285714285715</ele><time>2026-04-12T07:36:24.374Z</time></trkpt><trkpt lat="43.78215922136891" lon="10.887718186086467"><ele>30.285714285714285</ele><time>2026-04-12T07:36:28.374Z</time></trkpt><trkpt lat="43.78224710565111" lon="10.887713314921669"><ele>29.857142857142858</ele><time>2026-04-12T07:36:31.374Z</time></trkpt><trkpt lat="43.78231709964808" lon="10.887709120622581"><ele>29.42857142857143</ele><time>2026-04-12T07:36:34.374Z</time></trkpt><trkpt lat="43.78238422545068" lon="10.887715450968283"><ele>29.000000000000004</ele><time>2026-04-12T07:36:49.374Z</time></trkpt><trkpt lat="43.782448482796354" lon="10.887722014403002"><ele>29.000000000000004</ele><time>2026-04-12T07:37:02.373Z</time></trkpt><trkpt lat="43.78251349391475" lon="10.887703318754337"><ele>29.0</ele><time>2026-04-12T07:37:22.373Z</time></trkpt><trkpt lat="43.7825929387083" lon="10.887703698860058"><ele>29.000000000000004</ele><time>2026-04-12T07:37:26.373Z</time></trkpt><trkpt lat="43.782682409231995" lon="10.88771538148145"><ele>29.000000000000004</ele><time>2026-04-12T07:37:29.373Z</time></trkpt><trkpt lat="43.78275129462448" lon="10.887724404480338"><ele>29.0</ele><time>2026-04-12T07:37:31.373Z</time></trkpt><trkpt lat="43.78282055946792" lon="10.887730243512564"><ele>29.000000000000004</ele><time>2026-04-12T07:37:33.373Z</time></trkpt><trkpt lat="43.78289553290581" lon="10.88773506422828"><ele>29.000000000000004</ele><time>2026-04-12T07:37:35.373Z</time></trkpt><trkpt lat="43.78297111627656" lon="10.88773604138187"><ele>28.666666666666664</ele><time>2026-04-12T07:37:37.373Z</time></trkpt><trkpt lat="43.78304386223597" lon="10.8877322176786"><ele>28.333333333333332</ele><time>2026-04-12T07:37:39.373Z</time></trkpt><trkpt lat="43.78312101377836" lon="10.887724366024354"><ele>28.0</ele><time>2026-04-12T07:37:41.373Z</time></trkpt><trkpt lat="43.78319744745262" lon="10.887699729252848"><ele>27.666666666666664</ele><time>2026-04-12T07:37:43.373Z</time></trkpt><trkpt lat="43.78327176335" lon="10.88767741854247"><ele>27.333333333333332</ele><time>2026-04-12T07:37:45.373Z</time></trkpt><trkpt lat="43.7833476260114" lon="10.887654029199117"><ele>27.0</ele><time>2026-04-12T07:37:47.373Z</time></trkpt><trkpt lat="43.78342250941715" lon="10.887630845750714"><ele>27.0</ele><time>2026-04-12T07:37:49.373Z</time></trkpt><trkpt lat="43.78349772120956" lon="10.88760499845162"><ele>27.0</ele><time>2026-04-12T07:37:51.373Z</time></trkpt><trkpt lat="43.78356899535881" lon="10.887580217756312"><ele>27.0</ele><time>2026-04-12T07:37:53.373Z</time></trkpt><trkpt lat="43.78364784840154" lon="10.887549490756976"><ele>27.0</ele><time>2026-04-12T07:37:55.373Z</time></trkpt><trkpt lat="43.783721531938184" lon="10.887520134866845"><ele>27.0</ele><time>2026-04-12T07:37:57.373Z</time></trkpt><trkpt lat="43.78379865280975" lon="10.88748968087269"><ele>27.0</ele><time>2026-04-12T07:37:59.373Z</time></trkpt><trkpt lat="43.78388001235555" lon="10.887460583830292"><ele>27.285714285714285</ele><time>2026-04-12T07:38:01.373Z</time></trkpt><trkpt lat="43.7839550917431" lon="10.887426337126028"><ele>27.57142857142857</ele><time>2026-04-12T07:38:03.373Z</time></trkpt><trkpt lat="43.784024227834166" lon="10.88739698439459"><ele>27.85714285714286</ele><time>2026-04-12T07:38:05.373Z</time></trkpt><trkpt lat="43.78409868415891" lon="10.887372671318195"><ele>28.142857142857146</ele><time>2026-04-12T07:38:07.373Z</time></trkpt><trkpt lat="43.78416711020312" lon="10.887339355038307"><ele>28.42857142857143</ele><time>2026-04-12T07:38:09.373Z</time></trkpt><trkpt lat="43.784234182545724" lon="10.887302319410988"><ele>28.71428571428572</ele><time>2026-04-12T07:38:11.373Z</time></trkpt><trkpt lat="43.78430666023994" lon="10.887283555168867"><ele>29.000000000000004</ele><time>2026-04-12T07:38:13.373Z</time></trkpt><trkpt lat="43.784369456795645" lon="10.887246299391139"><ele>29.71428571428572</ele><time>2026-04-12T07:38:15.373Z</time></trkpt><trkpt lat="43.78444075139245" lon="10.887210660833388"><ele>30.42857142857143</ele><time>2026-04-12T07:38:17.373Z</time></trkpt><trkpt lat="43.78450842526517" lon="10.887172483646538"><ele>31.142857142857142</ele><time>2026-04-12T07:38:19.373Z</time></trkpt><trkpt lat="43.78457534828945" lon="10.887134926992902"><ele>31.857142857142858</ele><time>2026-04-12T07:38:21.373Z</time></trkpt><trkpt lat="43.784643576342134" lon="10.887095379017703"><ele>32.57142857142857</ele><time>2026-04-12T07:38:23.373Z</time></trkpt><trkpt lat="43.78471682130197" lon="10.887059074087858"><ele>33.285714285714285</ele><time>2026-04-12T07:38:25.373Z</time></trkpt><trkpt lat="43.784781979081785" lon="10.887031178912293"><ele>34.0</ele><time>2026-04-12T07:38:27.373Z</time></trkpt><trkpt lat="43.784846284879784" lon="10.886989044792873"><ele>34.0</ele><time>2026-04-12T07:38:29.373Z</time></trkpt><trkpt lat="43.784913155946604" lon="10.88694218427773"><ele>34.0</ele><time>2026-04-12T07:38:31.373Z</time></trkpt><trkpt lat="43.78498530095018" lon="10.886913232133601"><ele>34.0</ele><time>2026-04-12T07:38:33.373Z</time></trkpt><trkpt lat="43.78506528850562" lon="10.8868923733126"><ele>34.0</ele><time>2026-04-12T07:38:35.373Z</time></trkpt><trkpt lat="43.78514160928209" lon="10.886875093129186"><ele>34.0</ele><time>2026-04-12T07:38:37.373Z</time></trkpt><trkpt lat="43.785212422603195" lon="10.886857954326398"><ele>34.0</ele><time>2026-04-12T07:38:39.373Z</time></trkpt><trkpt lat="43.78529601864034" lon="10.886839310422125"><ele>34.16666666666667</ele><time>2026-04-12T07:38:41.373Z</time></trkpt><trkpt lat="43.785381792661646" lon="10.886825559821366"><ele>34.333333333333336</ele><time>2026-04-12T07:38:43.373Z</time></trkpt><trkpt lat="43.78546488653836" lon="10.886808286293888"><ele>34.5</ele><time>2026-04-12T07:38:45.373Z</time></trkpt><trkpt lat="43.78555153859001" lon="10.886787729277817"><ele>34.666666666666664</ele><time>2026-04-12T07:38:47.373Z</time></trkpt><trkpt lat="43.78562934848787" lon="10.886772300808875"><ele>34.83333333333333</ele><time>2026-04-12T07:38:49.373Z</time></trkpt><trkpt lat="43.78570904065296" lon="10.886763842260315"><ele>35.0</ele><time>2026-04-12T07:38:51.373Z</time></trkpt><trkpt lat="43.78578173637801" lon="10.886757881125673"><ele>34.33333333333333</ele><time>2026-04-12T07:38:53.373Z</time></trkpt><trkpt lat="43.785868085308664" lon="10.88674582606242"><ele>33.666666666666664</ele><time>2026-04-12T07:38:55.373Z</time></trkpt><trkpt lat="43.78594142106298" lon="10.88673480193813"><ele>33.0</ele><time>2026-04-12T07:38:57.373Z</time></trkpt><trkpt lat="43.786024479797035" lon="10.886729672854122"><ele>32.333333333333336</ele><time>2026-04-12T07:38:59.373Z</time></trkpt><trkpt lat="43.786111140689954" lon="10.886721162904815"><ele>31.666666666666668</ele><time>2026-04-12T07:39:01.372Z</time></trkpt><trkpt lat="43.78619866991568" lon="10.88672018182413"><ele>31.0</ele><time>2026-04-12T07:39:03.372Z</time></trkpt><trkpt lat="43.78628788649224" lon="10.88672934044055"><ele>31.000000000000004</ele><time>2026-04-12T07:39:05.372Z</time></trkpt><trkpt lat="43.786374691311046" lon="10.886743484894524"><ele>31.0</ele><time>2026-04-12T07:39:07.372Z</time></trkpt><trkpt lat="43.7864598658376" lon="10.886767286380593"><ele>31.0</ele><time>2026-04-12T07:39:09.372Z</time></trkpt><trkpt lat="43.7865425705188" lon="10.886791659013943"><ele>31.0</ele><time>2026-04-12T07:39:11.372Z</time></trkpt><trkpt lat="43.78662161376339" lon="10.886809392063993"><ele>31.000000000000004</ele><time>2026-04-12T07:39:13.372Z</time></trkpt><trkpt lat="43.78669485122554" lon="10.88682525858471"><ele>31.0</ele><time>2026-04-12T07:39:15.372Z</time></trkpt><trkpt lat="43.78677487797183" lon="10.886803642714607"><ele>31.0</ele><time>2026-04-12T07:39:18.372Z</time></trkpt><trkpt lat="43.78683384001632" lon="10.8867503474822"><ele>31.000000000000004</ele><time>2026-04-12T07:39:20.372Z</time></trkpt><trkpt lat="43.786888742241445" lon="10.886681073606345"><ele>31.0</ele><time>2026-04-12T07:39:22.372Z</time></trkpt><trkpt lat="43.78694194263448" lon="10.886614773832536"><ele>31.0</ele><time>2026-04-12T07:39:24.372Z</time></trkpt><trkpt lat="43.78699933947947" lon="10.886541490833418"><ele>31.000000000000004</ele><time>2026-04-12T07:39:26.372Z</time></trkpt><trkpt lat="43.787052140192124" lon="10.886468408739518"><ele>31.0</ele><time>2026-04-12T07:39:37.372Z</time></trkpt><trkpt lat="43.78709451116955" lon="10.886401864115877"><ele>31.0</ele><time>2026-04-12T07:39:49.372Z</time></trkpt><trkpt lat="43.7871579800213" lon="10.886302236730598"><ele>30.666666666666668</ele><time>2026-04-12T07:40:23.372Z</time></trkpt><trkpt lat="43.78720938705374" lon="10.886243949242186"><ele>30.333333333333336</ele><time>2026-04-12T07:40:26.372Z</time></trkpt><trkpt lat="43.78727930271491" lon="10.886163218491355"><ele>30.0</ele><time>2026-04-12T07:40:29.372Z</time></trkpt><trkpt lat="43.78733533542076" lon="10.886091734391478"><ele>29.666666666666664</ele><time>2026-04-12T07:40:31.372Z</time></trkpt><trkpt lat="43.78739517012272" lon="10.886014918888263"><ele>29.333333333333332</ele><time>2026-04-12T07:40:33.372Z</time></trkpt><trkpt lat="43.78744928669532" lon="10.885931156729026"><ele>29.0</ele><time>2026-04-12T07:40:35.372Z</time></trkpt><trkpt lat="43.78749962025593" lon="10.885854767701638"><ele>28.833333333333332</ele><time>2026-04-12T07:40:37.372Z</time></trkpt><trkpt lat="43.78756130162876" lon="10.885779602398602"><ele>28.666666666666664</ele><time>2026-04-12T07:40:39.372Z</time></trkpt><trkpt lat="43.78761405068929" lon="10.88570334710961"><ele>28.5</ele><time>2026-04-12T07:40:41.372Z</time></trkpt><trkpt lat="43.787674466466555" lon="10.885629176612865"><ele>28.333333333333336</ele><time>2026-04-12T07:40:43.372Z</time></trkpt><trkpt lat="43.78773194962409" lon="10.885550458720003"><ele>28.166666666666668</ele><time>2026-04-12T07:40:45.372Z</time></trkpt><trkpt lat="43.7877884571554" lon="10.885474596552973"><ele>28.0</ele><time>2026-04-12T07:40:47.372Z</time></trkpt><trkpt lat="43.78784932641529" lon="10.885390314880802"><ele>28.000000000000004</ele><time>2026-04-12T07:40:49.372Z</time></trkpt><trkpt lat="43.787906331704704" lon="10.885314924365671"><ele>28.0</ele><time>2026-04-12T07:40:51.372Z</time></trkpt><trkpt lat="43.787962927345674" lon="10.885236507802295"><ele>28.0</ele><time>2026-04-12T07:40:53.372Z</time></trkpt><trkpt lat="43.78802340201833" lon="10.885159883955772"><ele>28.0</ele><time>2026-04-12T07:40:55.372Z</time></trkpt><trkpt lat="43.78808162859226" lon="10.885077932626531"><ele>28.000000000000004</ele><time>2026-04-12T07:40:57.372Z</time></trkpt><trkpt lat="43.78813700403488" lon="10.885006852267178"><ele>28.0</ele><time>2026-04-12T07:40:59.372Z</time></trkpt><trkpt lat="43.788184958271046" lon="10.884932421784962"><ele>28.000000000000004</ele><time>2026-04-12T07:41:01.372Z</time></trkpt><trkpt lat="43.78824344840234" lon="10.884873828501057"><ele>28.0</ele><time>2026-04-12T07:41:03.372Z</time></trkpt><trkpt lat="43.78824111560646" lon="10.88470419585719"><ele>28.0</ele><time>2026-04-12T07:41:06.372Z</time></trkpt><trkpt lat="43.78820602482255" lon="10.884607996122714"><ele>28.0</ele><time>2026-04-12T07:41:08.372Z</time></trkpt><trkpt lat="43.78816982807194" lon="10.884508764433317"><ele>28.000000000000004</ele><time>2026-04-12T07:41:10.372Z</time></trkpt><trkpt lat="43.78813469235179" lon="10.884412424763038"><ele>28.0</ele><time>2026-04-12T07:41:12.372Z</time></trkpt><trkpt lat="43.788100651473776" lon="10.884318864136693"><ele>28.333333333333336</ele><time>2026-04-12T07:41:14.372Z</time></trkpt><trkpt lat="43.788067232666116" lon="10.8842210323082"><ele>28.666666666666668</ele><time>2026-04-12T07:41:16.372Z</time></trkpt><trkpt lat="43.78803637458543" lon="10.884120748814217"><ele>29.0</ele><time>2026-04-12T07:41:18.372Z</time></trkpt><trkpt lat="43.788004230599974" lon="10.884018403772606"><ele>29.333333333333336</ele><time>2026-04-12T07:41:20.372Z</time></trkpt><trkpt lat="43.78802979845296" lon="10.883892361029426"><ele>29.666666666666668</ele><time>2026-04-12T07:41:22.372Z</time></trkpt><trkpt lat="43.7880874462685" lon="10.88379646804972"><ele>30.0</ele><time>2026-04-12T07:41:24.372Z</time></trkpt><trkpt lat="43.788145313846876" lon="10.883712027462689"><ele>30.0</ele><time>2026-04-12T07:41:26.372Z</time></trkpt><trkpt lat="43.78820456927844" lon="10.883634773651812"><ele>30.0</ele><time>2026-04-12T07:41:28.372Z</time></trkpt><trkpt lat="43.78825962478972" lon="10.883560416012562"><ele>30.0</ele><time>2026-04-12T07:41:30.372Z</time></trkpt><trkpt lat="43.78832790341957" lon="10.883504496534204"><ele>30.0</ele><time>2026-04-12T07:41:32.372Z</time></trkpt><trkpt lat="43.78838339690838" lon="10.8834324459993"><ele>30.0</ele><time>2026-04-12T07:41:34.372Z</time></trkpt><trkpt lat="43.7884376070915" lon="10.883358376494787"><ele>30.0</ele><time>2026-04-12T07:41:36.372Z</time></trkpt><trkpt lat="43.78849113111248" lon="10.883282707301005"><ele>30.42857142857143</ele><time>2026-04-12T07:41:38.372Z</time></trkpt><trkpt lat="43.788532529987755" lon="10.88319582823882"><ele>30.857142857142854</ele><time>2026-04-12T07:41:40.372Z</time></trkpt><trkpt lat="43.78858752574118" lon="10.883121948506025"><ele>31.285714285714285</ele><time>2026-04-12T07:41:42.372Z</time></trkpt><trkpt lat="43.788638422889846" lon="10.883049476429132"><ele>31.714285714285715</ele><time>2026-04-12T07:41:44.372Z</time></trkpt><trkpt lat="43.78868579102549" lon="10.882973780785663"><ele>32.142857142857146</ele><time>2026-04-12T07:41:46.372Z</time></trkpt><trkpt lat="43.788736454184516" lon="10.882897355044436"><ele>32.57142857142857</ele><time>2026-04-12T07:41:48.372Z</time></trkpt><trkpt lat="43.78878295709105" lon="10.882825623053574"><ele>33.0</ele><time>2026-04-12T07:41:50.372Z</time></trkpt><trkpt lat="43.788827535573326" lon="10.882754404033143"><ele>33.0</ele><time>2026-04-12T07:41:52.372Z</time></trkpt><trkpt lat="43.78889585971357" lon="10.88265892879532"><ele>33.0</ele><time>2026-04-12T07:41:55.372Z</time></trkpt><trkpt lat="43.78895794162582" lon="10.882559751519635"><ele>33.0</ele><time>2026-04-12T07:41:58.372Z</time></trkpt><trkpt lat="43.7890223678392" lon="10.882467498620102"><ele>33.0</ele><time>2026-04-12T07:42:01.372Z</time></trkpt><trkpt lat="43.7890648952166" lon="10.882400007386215"><ele>33.0</ele><time>2026-04-12T07:42:03.372Z</time></trkpt><trkpt lat="43.78910718270653" lon="10.88233461418554"><ele>33.0</ele><time>2026-04-12T07:42:05.372Z</time></trkpt><trkpt lat="43.7891673987555" lon="10.882231401253351"><ele>33.333333333333336</ele><time>2026-04-12T07:42:08.372Z</time></trkpt><trkpt lat="43.78922251482352" lon="10.882150345407142"><ele>33.666666666666664</ele><time>2026-04-12T07:42:11.372Z</time></trkpt><trkpt lat="43.78927902317936" lon="10.882058594421846"><ele>34.0</ele><time>2026-04-12T07:42:14.372Z</time></trkpt><trkpt lat="43.78933840133735" lon="10.881976422523161"><ele>34.33333333333333</ele><time>2026-04-12T07:42:17.372Z</time></trkpt><trkpt lat="43.78939405561645" lon="10.881891425260505"><ele>34.666666666666664</ele><time>2026-04-12T07:42:20.372Z</time></trkpt><trkpt lat="43.78944655278296" lon="10.881810164902552"><ele>35.0</ele><time>2026-04-12T07:42:23.372Z</time></trkpt><trkpt lat="43.789505901803324" lon="10.881736238663091"><ele>36.0</ele><time>2026-04-12T07:42:26.372Z</time></trkpt><trkpt lat="43.7895537267166" lon="10.881644353420006"><ele>37.0</ele><time>2026-04-12T07:42:29.372Z</time></trkpt><trkpt lat="43.789599627071404" lon="10.881549406579344"><ele>38.0</ele><time>2026-04-12T07:42:32.372Z</time></trkpt><trkpt lat="43.78963882964677" lon="10.881449766721483"><ele>39.0</ele><time>2026-04-12T07:42:35.372Z</time></trkpt><trkpt lat="43.789679118622274" lon="10.881343037015496"><ele>40.0</ele><time>2026-04-12T07:42:38.372Z</time></trkpt><trkpt lat="43.78972005150018" lon="10.88122768642824"><ele>41.0</ele><time>2026-04-12T07:42:41.372Z</time></trkpt><trkpt lat="43.789754445934584" lon="10.881120352493621"><ele>41.0</ele><time>2026-04-12T07:42:44.372Z</time></trkpt><trkpt lat="43.78978071354817" lon="10.881003388155241"><ele>41.0</ele><time>2026-04-12T07:42:47.372Z</time></trkpt><trkpt lat="43.789815069261486" lon="10.88089421496538"><ele>41.0</ele><time>2026-04-12T07:42:50.372Z</time></trkpt><trkpt lat="43.789848801396325" lon="10.880785089159644"><ele>41.0</ele><time>2026-04-12T07:42:53.372Z</time></trkpt><trkpt lat="43.789879561317825" lon="10.880683098475942"><ele>41.0</ele><time>2026-04-12T07:42:56.372Z</time></trkpt><trkpt lat="43.78990157784763" lon="10.880592365642329"><ele>41.0</ele><time>2026-04-12T07:42:59.372Z</time></trkpt><trkpt lat="43.78993045828628" lon="10.880503865739788"><ele>42.166666666666664</ele><time>2026-04-12T07:43:02.372Z</time></trkpt><trkpt lat="43.789960856341665" lon="10.880411135740287"><ele>43.33333333333333</ele><time>2026-04-12T07:43:05.372Z</time></trkpt><trkpt lat="43.78998533851622" lon="10.880308678637684"><ele>44.5</ele><time>2026-04-12T07:43:08.372Z</time></trkpt><trkpt lat="43.79001339881908" lon="10.880208413355028"><ele>45.666666666666664</ele><time>2026-04-12T07:43:11.372Z</time></trkpt><trkpt lat="43.7900369112458" lon="10.880104170110663"><ele>46.833333333333336</ele><time>2026-04-12T07:43:14.371Z</time></trkpt><trkpt lat="43.790061820388686" lon="10.880000101883551"><ele>48.0</ele><time>2026-04-12T07:43:17.371Z</time></trkpt><trkpt lat="43.79008431554231" lon="10.879890246616892"><ele>49.666666666666664</ele><time>2026-04-12T07:43:20.371Z</time></trkpt><trkpt lat="43.790105728628454" lon="10.879770318947717"><ele>51.33333333333333</ele><time>2026-04-12T07:43:23.371Z</time></trkpt><trkpt lat="43.790126569901425" lon="10.879654615631807"><ele>53.0</ele><time>2026-04-12T07:43:26.371Z</time></trkpt><trkpt lat="43.79017687184788" lon="10.8795689568947"><ele>54.666666666666664</ele><time>2026-04-12T07:43:29.371Z</time></trkpt><trkpt lat="43.79026596115724" lon="10.879534785176368"><ele>56.33333333333333</ele><time>2026-04-12T07:43:32.371Z</time></trkpt><trkpt lat="43.790355501067864" lon="10.87952258380462"><ele>58.0</ele><time>2026-04-12T07:43:35.371Z</time></trkpt><trkpt lat="43.79044163071506" lon="10.879506335287028"><ele>58.49999999999999</ele><time>2026-04-12T07:43:38.371Z</time></trkpt><trkpt lat="43.790528562597494" lon="10.879470953343763"><ele>59.0</ele><time>2026-04-12T07:43:41.371Z</time></trkpt><trkpt lat="43.790615008496104" lon="10.87944085210127"><ele>59.5</ele><time>2026-04-12T07:43:44.371Z</time></trkpt><trkpt lat="43.790701693922074" lon="10.879390647785963"><ele>60.0</ele><time>2026-04-12T07:43:47.371Z</time></trkpt><trkpt lat="43.79076561789504" lon="10.879358285338478"><ele>60.49999999999999</ele><time>2026-04-12T07:43:49.371Z</time></trkpt><trkpt lat="43.790839702101024" lon="10.879327326906978"><ele>61.0</ele><time>2026-04-12T07:43:51.371Z</time></trkpt><trkpt lat="43.79092768450742" lon="10.879297510891602"><ele>61.199999999999996</ele><time>2026-04-12T07:43:53.371Z</time></trkpt><trkpt lat="43.79102702452745" lon="10.879279095543605"><ele>61.39999999999999</ele><time>2026-04-12T07:43:55.371Z</time></trkpt><trkpt lat="43.791132502013944" lon="10.879261645877756"><ele>61.6</ele><time>2026-04-12T07:43:57.371Z</time></trkpt><trkpt lat="43.79125097064063" lon="10.879249755468452"><ele>61.8</ele><time>2026-04-12T07:43:59.371Z</time></trkpt><trkpt lat="43.79137338053701" lon="10.879236119641352"><ele>62.0</ele><time>2026-04-12T07:44:01.371Z</time></trkpt><trkpt lat="43.791497200401125" lon="10.879218084761996"><ele>61.42857142857143</ele><time>2026-04-12T07:44:03.371Z</time></trkpt><trkpt lat="43.791622130336116" lon="10.879203656824389"><ele>60.85714285714286</ele><time>2026-04-12T07:44:05.371Z</time></trkpt><trkpt lat="43.79168758395757" lon="10.879197652734689"><ele>60.28571428571429</ele><time>2026-04-12T07:44:06.371Z</time></trkpt><trkpt lat="43.79175313545633" lon="10.879188324010084"><ele>59.71428571428572</ele><time>2026-04-12T07:44:07.371Z</time></trkpt><trkpt lat="43.791817880254285" lon="10.879179631715633"><ele>59.142857142857146</ele><time>2026-04-12T07:44:08.371Z</time></trkpt><trkpt lat="43.791880542369434" lon="10.87916602616785"><ele>58.571428571428584</ele><time>2026-04-12T07:44:09.371Z</time></trkpt><trkpt lat="43.791942368949535" lon="10.879149385185853"><ele>58.00000000000001</ele><time>2026-04-12T07:44:10.371Z</time></trkpt><trkpt lat="43.792060453933715" lon="10.879115321481363"><ele>56.8</ele><time>2026-04-12T07:44:12.371Z</time></trkpt><trkpt lat="43.792182145677145" lon="10.87907221571249"><ele>55.599999999999994</ele><time>2026-04-12T07:44:14.371Z</time></trkpt><trkpt lat="43.79229826389984" lon="10.879018003244733"><ele>54.400000000000006</ele><time>2026-04-12T07:44:16.371Z</time></trkpt><trkpt lat="43.79235808221477" lon="10.878989695462177"><ele>53.2</ele><time>2026-04-12T07:44:17.371Z</time></trkpt><trkpt lat="43.7924666572669" lon="10.878929375977929"><ele>52.0</ele><time>2026-04-12T07:44:19.371Z</time></trkpt><trkpt lat="43.79258086141787" lon="10.87888672589092"><ele>51.2</ele><time>2026-04-12T07:44:21.371Z</time></trkpt><trkpt lat="43.79268962307931" lon="10.878839408915962"><ele>50.400000000000006</ele><time>2026-04-12T07:44:23.371Z</time></trkpt><trkpt lat="43.792801445813716" lon="10.878805098701616"><ele>49.599999999999994</ele><time>2026-04-12T07:44:25.371Z</time></trkpt><trkpt lat="43.792913034646176" lon="10.878778395169995"><ele>48.8</ele><time>2026-04-12T07:44:27.371Z</time></trkpt><trkpt lat="43.793019110147235" lon="10.878769462857434"><ele>48.0</ele><time>2026-04-12T07:44:29.371Z</time></trkpt><trkpt lat="43.793125130834134" lon="10.878773240537301"><ele>48.0</ele><time>2026-04-12T07:44:31.371Z</time></trkpt><trkpt lat="43.79322535586944" lon="10.878775576683028"><ele>48.0</ele><time>2026-04-12T07:44:33.371Z</time></trkpt><trkpt lat="43.793319863762875" lon="10.878770083306005"><ele>48.0</ele><time>2026-04-12T07:44:35.371Z</time></trkpt><trkpt lat="43.793409616429315" lon="10.878767700022296"><ele>48.0</ele><time>2026-04-12T07:44:37.371Z</time></trkpt><trkpt lat="43.7934964342649" lon="10.878768988211174"><ele>48.0</ele><time>2026-04-12T07:44:39.371Z</time></trkpt><trkpt lat="43.79358326069196" lon="10.878769428581084"><ele>48.2</ele><time>2026-04-12T07:44:41.371Z</time></trkpt><trkpt lat="43.79366595831076" lon="10.87875850284742"><ele>48.4</ele><time>2026-04-12T07:44:43.371Z</time></trkpt><trkpt lat="43.7937438950429" lon="10.878777384715779"><ele>48.6</ele><time>2026-04-12T07:44:45.371Z</time></trkpt><trkpt lat="43.79382145667754" lon="10.878636729011287"><ele>48.800000000000004</ele><time>2026-04-12T07:44:47.371Z</time></trkpt><trkpt lat="43.79383994798809" lon="10.878505677162675"><ele>49.0</ele><time>2026-04-12T07:44:49.371Z</time></trkpt><trkpt lat="43.793888564331496" lon="10.87837237374371"><ele>49.57142857142857</ele><time>2026-04-12T07:44:51.371Z</time></trkpt><trkpt lat="43.79394062877086" lon="10.878320783098944"><ele>50.14285714285714</ele><time>2026-04-12T07:44:52.371Z</time></trkpt><trkpt lat="43.79397013207897" lon="10.878242564704609"><ele>50.714285714285715</ele><time>2026-04-12T07:44:53.371Z</time></trkpt><trkpt lat="43.79400067644508" lon="10.878161631484279"><ele>51.285714285714285</ele><time>2026-04-12T07:44:54.371Z</time></trkpt><trkpt lat="43.79402093563957" lon="10.878067488202221"><ele>51.857142857142854</ele><time>2026-04-12T07:44:55.371Z</time></trkpt><trkpt lat="43.79405438838921" lon="10.877977452051477"><ele>52.42857142857143</ele><time>2026-04-12T07:44:56.371Z</time></trkpt><trkpt lat="43.7940896675285" lon="10.877885024984518"><ele>53.0</ele><time>2026-04-12T07:44:57.371Z</time></trkpt><trkpt lat="43.79412836038813" lon="10.87778601732372"><ele>53.00000000000001</ele><time>2026-04-12T07:44:58.371Z</time></trkpt><trkpt lat="43.79416736659059" lon="10.877685401936048"><ele>53.0</ele><time>2026-04-12T07:44:59.371Z</time></trkpt><trkpt lat="43.79420707417729" lon="10.877587931730975"><ele>53.0</ele><time>2026-04-12T07:45:00.371Z</time></trkpt><trkpt lat="43.79424801261607" lon="10.877482422592864"><ele>53.0</ele><time>2026-04-12T07:45:01.371Z</time></trkpt><trkpt lat="43.794288020844476" lon="10.87737274199756"><ele>53.00000000000001</ele><time>2026-04-12T07:45:02.371Z</time></trkpt><trkpt lat="43.794330253557824" lon="10.877262939672711"><ele>53.0</ele><time>2026-04-12T07:45:03.371Z</time></trkpt><trkpt lat="43.79437568405451" lon="10.877152240457558"><ele>52.4</ele><time>2026-04-12T07:45:04.371Z</time></trkpt><trkpt lat="43.794420825887094" lon="10.877038323167472"><ele>51.8</ele><time>2026-04-12T07:45:05.371Z</time></trkpt><trkpt lat="43.794466918130695" lon="10.876918801341212"><ele>51.2</ele><time>2026-04-12T07:45:06.371Z</time></trkpt><trkpt lat="43.79451253338067" lon="10.87680306508263"><ele>50.6</ele><time>2026-04-12T07:45:07.371Z</time></trkpt><trkpt lat="43.79455471013218" lon="10.876693280266965"><ele>50.0</ele><time>2026-04-12T07:45:08.371Z</time></trkpt><trkpt lat="43.794593131766" lon="10.87658535771674"><ele>49.50000000000001</ele><time>2026-04-12T07:45:09.371Z</time></trkpt><trkpt lat="43.79463008888371" lon="10.876482589353579"><ele>49.0</ele><time>2026-04-12T07:45:10.371Z</time></trkpt><trkpt lat="43.79466591642054" lon="10.87638457509685"><ele>48.5</ele><time>2026-04-12T07:45:11.371Z</time></trkpt><trkpt lat="43.794700070711094" lon="10.876292360392412"><ele>48.0</ele><time>2026-04-12T07:45:12.371Z</time></trkpt><trkpt lat="43.79473021798593" lon="10.876212837103322"><ele>47.5</ele><time>2026-04-12T07:45:13.371Z</time></trkpt><trkpt lat="43.79478021652418" lon="10.876066160108257"><ele>47.0</ele><time>2026-04-12T07:45:15.371Z</time></trkpt><trkpt lat="43.79482616287188" lon="10.875947231858165"><ele>47.5</ele><time>2026-04-12T07:45:17.371Z</time></trkpt><trkpt lat="43.794865673082114" lon="10.87584309452031"><ele>48.0</ele><time>2026-04-12T07:45:19.37Z</time></trkpt><trkpt lat="43.794902108683786" lon="10.875749711093137"><ele>48.5</ele><time>2026-04-12T07:45:21.37Z</time></trkpt><trkpt lat="43.79493433273214" lon="10.875663951759934"><ele>49.0</ele><time>2026-04-12T07:45:23.37Z</time></trkpt><trkpt lat="43.79497229736388" lon="10.875574115141859"><ele>49.50000000000001</ele><time>2026-04-12T07:45:25.37Z</time></trkpt><trkpt lat="43.79500946575262" lon="10.875487313833537"><ele>50.0</ele><time>2026-04-12T07:45:27.37Z</time></trkpt><trkpt lat="43.79503951424324" lon="10.875393539971023"><ele>50.00000000000001</ele><time>2026-04-12T07:45:29.37Z</time></trkpt><trkpt lat="43.795078640951196" lon="10.875304304816481"><ele>50.0</ele><time>2026-04-12T07:45:31.37Z</time></trkpt><trkpt lat="43.79511188376735" lon="10.875210792717793"><ele>50.0</ele><time>2026-04-12T07:45:33.37Z</time></trkpt><trkpt lat="43.7951502506189" lon="10.87512786817549"><ele>50.0</ele><time>2026-04-12T07:45:35.37Z</time></trkpt><trkpt lat="43.79519007414291" lon="10.875040118809627"><ele>50.0</ele><time>2026-04-12T07:45:37.37Z</time></trkpt><trkpt lat="43.79523511484764" lon="10.874966120976309"><ele>50.00000000000001</ele><time>2026-04-12T07:45:39.37Z</time></trkpt><trkpt lat="43.79529725533268" lon="10.874942597895618"><ele>50.0</ele><time>2026-04-12T07:45:41.37Z</time></trkpt><trkpt lat="43.795386642242775" lon="10.874906072818057"><ele>51.2</ele><time>2026-04-12T07:45:44.37Z</time></trkpt><trkpt lat="43.79546029759395" lon="10.874896417583228"><ele>52.4</ele><time>2026-04-12T07:45:46.37Z</time></trkpt><trkpt lat="43.795518708097944" lon="10.874833265590006"><ele>53.599999999999994</ele><time>2026-04-12T07:45:48.37Z</time></trkpt><trkpt lat="43.79541505130113" lon="10.874645893691154"><ele>54.8</ele><time>2026-04-12T07:45:51.37Z</time></trkpt><trkpt lat="43.79534183789368" lon="10.874572397422746"><ele>56.0</ele><time>2026-04-12T07:45:54.37Z</time></trkpt><trkpt lat="43.795295083974636" lon="10.874508929263015"><ele>56.0</ele><time>2026-04-12T07:45:57.37Z</time></trkpt><trkpt lat="43.79534542530719" lon="10.874329946463567"><ele>55.99999999999999</ele><time>2026-04-12T07:45:58.37Z</time></trkpt><trkpt lat="43.795341562382774" lon="10.874206152652429"><ele>55.99999999999999</ele><time>2026-04-12T07:46:01.37Z</time></trkpt><trkpt lat="43.7953669938242" lon="10.874110032173121"><ele>56.0</ele><time>2026-04-12T07:46:03.37Z</time></trkpt><trkpt lat="43.79532225029172" lon="10.873990788978611"><ele>56.0</ele><time>2026-04-12T07:46:05.37Z</time></trkpt><trkpt lat="43.79530209100282" lon="10.87390257830694"><ele>56.16666666666667</ele><time>2026-04-12T07:46:07.37Z</time></trkpt><trkpt lat="43.79528067708029" lon="10.873820534640435"><ele>56.333333333333336</ele><time>2026-04-12T07:46:09.37Z</time></trkpt><trkpt lat="43.79525830786669" lon="10.873734830891683"><ele>56.5</ele><time>2026-04-12T07:46:11.37Z</time></trkpt><trkpt lat="43.79523602487399" lon="10.873639588605965"><ele>56.66666666666667</ele><time>2026-04-12T07:46:13.37Z</time></trkpt><trkpt lat="43.795213699259065" lon="10.873529339349025"><ele>56.833333333333336</ele><time>2026-04-12T07:46:15.37Z</time></trkpt><trkpt lat="43.79518912338904" lon="10.873407977705021"><ele>57.0</ele><time>2026-04-12T07:46:17.37Z</time></trkpt><trkpt lat="43.79516418993164" lon="10.873284850248202"><ele>57.0</ele><time>2026-04-12T07:46:19.37Z</time></trkpt><trkpt lat="43.79513625276464" lon="10.873154689944633"><ele>57.0</ele><time>2026-04-12T07:46:21.37Z</time></trkpt><trkpt lat="43.79510560080187" lon="10.873025039100686"><ele>57.0</ele><time>2026-04-12T07:46:23.37Z</time></trkpt><trkpt lat="43.795067073849026" lon="10.872887944114463"><ele>57.0</ele><time>2026-04-12T07:46:25.37Z</time></trkpt><trkpt lat="43.79502692440228" lon="10.872756518530782"><ele>57.0</ele><time>2026-04-12T07:46:27.37Z</time></trkpt><trkpt lat="43.79498090341261" lon="10.872616127723743"><ele>56.2</ele><time>2026-04-12T07:46:29.37Z</time></trkpt><trkpt lat="43.79493941431604" lon="10.872489331140647"><ele>55.400000000000006</ele><time>2026-04-12T07:46:31.37Z</time></trkpt><trkpt lat="43.79489879270772" lon="10.872367098816554"><ele>54.599999999999994</ele><time>2026-04-12T07:46:33.37Z</time></trkpt><trkpt lat="43.794845234301825" lon="10.872242780730298"><ele>53.8</ele><time>2026-04-12T07:46:35.37Z</time></trkpt><trkpt lat="43.794781725348734" lon="10.872124755022414"><ele>53.0</ele><time>2026-04-12T07:46:37.37Z</time></trkpt><trkpt lat="43.79470487211979" lon="10.872021455624637"><ele>53.00000000000001</ele><time>2026-04-12T07:46:39.37Z</time></trkpt><trkpt lat="43.794621273211625" lon="10.87193008903965"><ele>53.0</ele><time>2026-04-12T07:46:41.37Z</time></trkpt><trkpt lat="43.79460022433374" lon="10.871845077573287"><ele>53.0</ele><time>2026-04-12T07:46:42.37Z</time></trkpt><trkpt lat="43.794551214857535" lon="10.871706484575972"><ele>53.0</ele><time>2026-04-12T07:46:44.37Z</time></trkpt><trkpt lat="43.79457331026457" lon="10.871619127561663"><ele>53.00000000000001</ele><time>2026-04-12T07:46:45.37Z</time></trkpt><trkpt lat="43.794617955215095" lon="10.871534881997174"><ele>53.0</ele><time>2026-04-12T07:46:46.37Z</time></trkpt><trkpt lat="43.79466684223291" lon="10.871454146706665"><ele>52.66666666666667</ele><time>2026-04-12T07:46:47.37Z</time></trkpt><trkpt lat="43.794713339425314" lon="10.871365360337942"><ele>52.333333333333336</ele><time>2026-04-12T07:46:48.37Z</time></trkpt><trkpt lat="43.79475181568903" lon="10.871272569128838"><ele>52.0</ele><time>2026-04-12T07:46:49.37Z</time></trkpt><trkpt lat="43.794795321370955" lon="10.871181231560472"><ele>51.66666666666667</ele><time>2026-04-12T07:46:50.37Z</time></trkpt><trkpt lat="43.79484140264782" lon="10.871083897396133"><ele>51.333333333333336</ele><time>2026-04-12T07:46:51.37Z</time></trkpt><trkpt lat="43.79488552746199" lon="10.87099837884711"><ele>51.0</ele><time>2026-04-12T07:46:52.37Z</time></trkpt><trkpt lat="43.79493152011793" lon="10.870896039729173"><ele>50.0</ele><time>2026-04-12T07:46:53.37Z</time></trkpt><trkpt lat="43.7949666234788" lon="10.870803434949641"><ele>49.0</ele><time>2026-04-12T07:46:54.37Z</time></trkpt><trkpt lat="43.79502675156276" lon="10.870717240108506"><ele>48.0</ele><time>2026-04-12T07:46:55.37Z</time></trkpt><trkpt lat="43.79506939304583" lon="10.870626144808206"><ele>47.0</ele><time>2026-04-12T07:46:56.37Z</time></trkpt><trkpt lat="43.79509843307483" lon="10.870522398823958"><ele>46.0</ele><time>2026-04-12T07:46:57.37Z</time></trkpt><trkpt lat="43.7951583378216" lon="10.870435981262233"><ele>45.0</ele><time>2026-04-12T07:46:58.37Z</time></trkpt><trkpt lat="43.79518777503264" lon="10.870334824459915"><ele>45.0</ele><time>2026-04-12T07:46:59.37Z</time></trkpt><trkpt lat="43.79523147684322" lon="10.870236272892399"><ele>45.0</ele><time>2026-04-12T07:47:00.37Z</time></trkpt><trkpt lat="43.79527253918288" lon="10.870147384589849"><ele>45.0</ele><time>2026-04-12T07:47:01.37Z</time></trkpt><trkpt lat="43.7953103472889" lon="10.870055101383342"><ele>45.0</ele><time>2026-04-12T07:47:02.37Z</time></trkpt><trkpt lat="43.795341127453206" lon="10.86996547916884"><ele>45.0</ele><time>2026-04-12T07:47:03.37Z</time></trkpt><trkpt lat="43.79536829920399" lon="10.869871178542818"><ele>45.0</ele><time>2026-04-12T07:47:04.37Z</time></trkpt><trkpt lat="43.795388486423334" lon="10.869778014298321"><ele>45.0</ele><time>2026-04-12T07:47:05.37Z</time></trkpt><trkpt lat="43.79542446771867" lon="10.86968893863132"><ele>45.0</ele><time>2026-04-12T07:47:06.37Z</time></trkpt><trkpt lat="43.79544425295051" lon="10.869596607478222"><ele>45.0</ele><time>2026-04-12T07:47:07.37Z</time></trkpt><trkpt lat="43.79546409082376" lon="10.869501937873197"><ele>45.0</ele><time>2026-04-12T07:47:08.37Z</time></trkpt><trkpt lat="43.79548343655554" lon="10.869409616848689"><ele>45.0</ele><time>2026-04-12T07:47:09.37Z</time></trkpt><trkpt lat="43.79550214362135" lon="10.869320343578218"><ele>45.0</ele><time>2026-04-12T07:47:10.37Z</time></trkpt><trkpt lat="43.7955048480688" lon="10.869226851480462"><ele>45.0</ele><time>2026-04-12T07:47:11.37Z</time></trkpt><trkpt lat="43.795523745052684" lon="10.869142861285374"><ele>45.0</ele><time>2026-04-12T07:47:12.37Z</time></trkpt><trkpt lat="43.79554618718592" lon="10.869057150677689"><ele>45.0</ele><time>2026-04-12T07:47:13.37Z</time></trkpt><trkpt lat="43.79559129038976" lon="10.868904269926803"><ele>45.0</ele><time>2026-04-12T07:47:15.37Z</time></trkpt><trkpt lat="43.79564448595642" lon="10.86876077793766"><ele>45.0</ele><time>2026-04-12T07:47:17.37Z</time></trkpt><trkpt lat="43.79570334077493" lon="10.868616006892248"><ele>45.0</ele><time>2026-04-12T07:47:19.37Z</time></trkpt><trkpt lat="43.79575370870104" lon="10.868460483280785"><ele>44.857142857142854</ele><time>2026-04-12T07:47:21.37Z</time></trkpt><trkpt lat="43.79577446226057" lon="10.868374495782026"><ele>44.714285714285715</ele><time>2026-04-12T07:47:22.37Z</time></trkpt><trkpt lat="43.79579036955579" lon="10.868289475589913"><ele>44.57142857142857</ele><time>2026-04-12T07:47:23.37Z</time></trkpt><trkpt lat="43.79580545264973" lon="10.868200816826265"><ele>44.42857142857143</ele><time>2026-04-12T07:47:24.37Z</time></trkpt><trkpt lat="43.79581966594882" lon="10.86811090873409"><ele>44.285714285714285</ele><time>2026-04-12T07:47:25.37Z</time></trkpt><trkpt lat="43.79584656776207" lon="10.86802459244843"><ele>44.142857142857146</ele><time>2026-04-12T07:47:26.37Z</time></trkpt><trkpt lat="43.79585860483851" lon="10.867934919500849"><ele>44.0</ele><time>2026-04-12T07:47:27.37Z</time></trkpt><trkpt lat="43.795870449367186" lon="10.867846681396054"><ele>44.0</ele><time>2026-04-12T07:47:28.37Z</time></trkpt><trkpt lat="43.79586918569666" lon="10.867756714137283"><ele>44.0</ele><time>2026-04-12T07:47:29.37Z</time></trkpt><trkpt lat="43.79588216418719" lon="10.867669267567306"><ele>44.0</ele><time>2026-04-12T07:47:30.37Z</time></trkpt><trkpt lat="43.79591241824389" lon="10.867590430490848"><ele>44.0</ele><time>2026-04-12T07:47:31.37Z</time></trkpt><trkpt lat="43.79591658870203" lon="10.867501838499015"><ele>44.0</ele><time>2026-04-12T07:47:32.37Z</time></trkpt><trkpt lat="43.795988279197836" lon="10.867367424001367"><ele>44.0</ele><time>2026-04-12T07:47:34.37Z</time></trkpt><trkpt lat="43.79605251174663" lon="10.86723326726382"><ele>43.83333333333333</ele><time>2026-04-12T07:47:36.37Z</time></trkpt><trkpt lat="43.7961033715148" lon="10.867088137878303"><ele>43.666666666666664</ele><time>2026-04-12T07:47:38.37Z</time></trkpt><trkpt lat="43.79616621671426" lon="10.866945409809542"><ele>43.5</ele><time>2026-04-12T07:47:40.37Z</time></trkpt><trkpt lat="43.796211751742774" lon="10.86688184536203"><ele>43.333333333333336</ele><time>2026-04-12T07:47:41.37Z</time></trkpt><trkpt lat="43.79622832873098" lon="10.86679520884899"><ele>43.16666666666667</ele><time>2026-04-12T07:47:42.37Z</time></trkpt><trkpt lat="43.796259570074476" lon="10.866717178777895"><ele>43.0</ele><time>2026-04-12T07:47:43.37Z</time></trkpt><trkpt lat="43.796290104063566" lon="10.866638283266049"><ele>43.00000000000001</ele><time>2026-04-12T07:47:44.37Z</time></trkpt><trkpt lat="43.796320528738974" lon="10.866559673283627"><ele>43.0</ele><time>2026-04-12T07:47:45.37Z</time></trkpt><trkpt lat="43.796352186320846" lon="10.86648093557871"><ele>43.0</ele><time>2026-04-12T07:47:46.37Z</time></trkpt><trkpt lat="43.796381977270165" lon="10.866399878169055"><ele>43.0</ele><time>2026-04-12T07:47:47.37Z</time></trkpt><trkpt lat="43.796427913730234" lon="10.866327640333324"><ele>43.0</ele><time>2026-04-12T07:47:48.37Z</time></trkpt><trkpt lat="43.796446398064575" lon="10.866232927468463"><ele>43.00000000000001</ele><time>2026-04-12T07:47:49.37Z</time></trkpt><trkpt lat="43.79649336333771" lon="10.866160293706587"><ele>43.0</ele><time>2026-04-12T07:47:50.37Z</time></trkpt><trkpt lat="43.79652704493181" lon="10.866077903409403"><ele>43.0</ele><time>2026-04-12T07:47:51.37Z</time></trkpt><trkpt lat="43.7965489276828" lon="10.865986250526179"><ele>43.0</ele><time>2026-04-12T07:47:52.37Z</time></trkpt><trkpt lat="43.796588580537716" lon="10.865914338916497"><ele>43.0</ele><time>2026-04-12T07:47:53.37Z</time></trkpt><trkpt lat="43.796668348227115" lon="10.865830667327552"><ele>43.0</ele><time>2026-04-12T07:47:55.37Z</time></trkpt><trkpt lat="43.79669341426015" lon="10.865674900144352"><ele>43.0</ele><time>2026-04-12T07:47:57.37Z</time></trkpt><trkpt lat="43.79667425029796" lon="10.865525528137336"><ele>42.4</ele><time>2026-04-12T07:47:59.37Z</time></trkpt><trkpt lat="43.79665575822472" lon="10.865377669024385"><ele>41.8</ele><time>2026-04-12T07:48:01.37Z</time></trkpt><trkpt lat="43.79663565390247" lon="10.86522851685378"><ele>41.2</ele><time>2026-04-12T07:48:03.37Z</time></trkpt><trkpt lat="43.796594732994706" lon="10.865078998969317"><ele>40.6</ele><time>2026-04-12T07:48:05.37Z</time></trkpt><trkpt lat="43.796537903169266" lon="10.86494566002182"><ele>40.0</ele><time>2026-04-12T07:48:07.37Z</time></trkpt><trkpt lat="43.79645209183359" lon="10.864835570721173"><ele>40.0</ele><time>2026-04-12T07:48:09.37Z</time></trkpt><trkpt lat="43.79641043818789" lon="10.86469032804274"><ele>40.0</ele><time>2026-04-12T07:48:11.37Z</time></trkpt><trkpt lat="43.796381349476086" lon="10.864539712065078"><ele>40.0</ele><time>2026-04-12T07:48:13.37Z</time></trkpt><trkpt lat="43.79630402431122" lon="10.864420242271143"><ele>40.0</ele><time>2026-04-12T07:48:15.37Z</time></trkpt><trkpt lat="43.79626004464629" lon="10.864285845701135"><ele>40.0</ele><time>2026-04-12T07:48:17.37Z</time></trkpt><trkpt lat="43.79628487192707" lon="10.864130981228614"><ele>39.4</ele><time>2026-04-12T07:48:19.37Z</time></trkpt><trkpt lat="43.79628264973748" lon="10.863988327550372"><ele>38.8</ele><time>2026-04-12T07:48:21.37Z</time></trkpt><trkpt lat="43.796262617658044" lon="10.863865311085162"><ele>38.2</ele><time>2026-04-12T07:48:23.37Z</time></trkpt><trkpt lat="43.796209419820265" lon="10.86373553320309"><ele>37.6</ele><time>2026-04-12T07:48:25.37Z</time></trkpt><trkpt lat="43.79616318914099" lon="10.863632543291683"><ele>37.0</ele><time>2026-04-12T07:48:27.37Z</time></trkpt><trkpt lat="43.796112116010356" lon="10.86351876562504"><ele>36.16666666666667</ele><time>2026-04-12T07:48:29.37Z</time></trkpt><trkpt lat="43.79605758346332" lon="10.863397281326357"><ele>35.333333333333336</ele><time>2026-04-12T07:48:31.37Z</time></trkpt><trkpt lat="43.79601348481329" lon="10.863301546971796"><ele>34.5</ele><time>2026-04-12T07:48:33.37Z</time></trkpt><trkpt lat="43.79597209906911" lon="10.863212230761054"><ele>33.666666666666664</ele><time>2026-04-12T07:48:35.37Z</time></trkpt><trkpt lat="43.795929444546616" lon="10.863082956152804"><ele>32.83333333333333</ele><time>2026-04-12T07:48:38.37Z</time></trkpt><trkpt lat="43.795868940509884" lon="10.86301566887739"><ele>32.0</ele><time>2026-04-12T07:48:40.37Z</time></trkpt><trkpt lat="43.79581823525063" lon="10.862911229541133"><ele>32.0</ele><time>2026-04-12T07:48:42.37Z</time></trkpt><trkpt lat="43.795775089562724" lon="10.862826521141995"><ele>32.0</ele><time>2026-04-12T07:48:44.37Z</time></trkpt><trkpt lat="43.79573088830458" lon="10.86273822725236"><ele>32.0</ele><time>2026-04-12T07:48:46.37Z</time></trkpt><trkpt lat="43.7956669999021" lon="10.862615205884444"><ele>32.0</ele><time>2026-04-12T07:48:48.37Z</time></trkpt><trkpt lat="43.79560480366433" lon="10.862509065066586"><ele>32.0</ele><time>2026-04-12T07:48:50.37Z</time></trkpt><trkpt lat="43.79556337107512" lon="10.862391956136612"><ele>30.666666666666664</ele><time>2026-04-12T07:48:52.37Z</time></trkpt><trkpt lat="43.795566950371736" lon="10.862304246833487"><ele>29.333333333333332</ele><time>2026-04-12T07:48:54.37Z</time></trkpt><trkpt lat="43.79561766676783" lon="10.862237164526633"><ele>28.0</ele><time>2026-04-12T07:48:56.37Z</time></trkpt><trkpt lat="43.795682097937416" lon="10.862177933345802"><ele>26.666666666666664</ele><time>2026-04-12T07:48:58.37Z</time></trkpt><trkpt lat="43.79576459225137" lon="10.862092995305387"><ele>25.333333333333332</ele><time>2026-04-12T07:49:00.37Z</time></trkpt><trkpt lat="43.795852940286274" lon="10.862000322123926"><ele>24.0</ele><time>2026-04-12T07:49:02.37Z</time></trkpt><trkpt lat="43.795942037670045" lon="10.861909481912848"><ele>24.2</ele><time>2026-04-12T07:49:04.37Z</time></trkpt><trkpt lat="43.796037433644386" lon="10.861814341133197"><ele>24.4</ele><time>2026-04-12T07:49:06.37Z</time></trkpt><trkpt lat="43.79613083447593" lon="10.861723580804252"><ele>24.6</ele><time>2026-04-12T07:49:08.37Z</time></trkpt><trkpt lat="43.79621632007463" lon="10.861642335607092"><ele>24.8</ele><time>2026-04-12T07:49:10.37Z</time></trkpt><trkpt lat="43.7963020857929" lon="10.8615582881942"><ele>25.0</ele><time>2026-04-12T07:49:12.37Z</time></trkpt><trkpt lat="43.79638255033925" lon="10.861468724956671"><ele>25.0</ele><time>2026-04-12T07:49:14.37Z</time></trkpt><trkpt lat="43.79641983507475" lon="10.861323926318864"><ele>25.0</ele><time>2026-04-12T07:49:16.37Z</time></trkpt><trkpt lat="43.79635233253728" lon="10.861168837638116"><ele>25.0</ele><time>2026-04-12T07:49:18.37Z</time></trkpt><trkpt lat="43.7962979357869" lon="10.861065944486606"><ele>25.0</ele><time>2026-04-12T07:49:20.37Z</time></trkpt><trkpt lat="43.79624449203649" lon="10.860972511541327"><ele>25.0</ele><time>2026-04-12T07:49:22.37Z</time></trkpt><trkpt lat="43.79619885440291" lon="10.860894392847348"><ele>24.833333333333336</ele><time>2026-04-12T07:49:24.37Z</time></trkpt><trkpt lat="43.796156431877996" lon="10.860821777487738"><ele>24.666666666666668</ele><time>2026-04-12T07:49:26.37Z</time></trkpt><trkpt lat="43.796101204088636" lon="10.860727243234694"><ele>24.5</ele><time>2026-04-12T07:49:29.37Z</time></trkpt><trkpt lat="43.796054351033334" lon="10.860643846986369"><ele>24.333333333333336</ele><time>2026-04-12T07:49:32.369Z</time></trkpt><trkpt lat="43.79601579223646" lon="10.860572072376122"><ele>24.166666666666668</ele><time>2026-04-12T07:49:34.369Z</time></trkpt><trkpt lat="43.795962500927395" lon="10.8604644250367"><ele>24.0</ele><time>2026-04-12T07:49:37.369Z</time></trkpt><trkpt lat="43.795924652642064" lon="10.860381926067179"><ele>23.999999999999996</ele><time>2026-04-12T07:49:39.369Z</time></trkpt><trkpt lat="43.79589146122517" lon="10.860298476473016"><ele>24.0</ele><time>2026-04-12T07:49:41.369Z</time></trkpt><trkpt lat="43.79585720415398" lon="10.860213837048304"><ele>24.0</ele><time>2026-04-12T07:49:43.369Z</time></trkpt><trkpt lat="43.79582520228951" lon="10.860131355543915"><ele>24.0</ele><time>2026-04-12T07:49:45.369Z</time></trkpt><trkpt lat="43.79581748853224" lon="10.860018391532456"><ele>24.0</ele><time>2026-04-12T07:49:48.369Z</time></trkpt><trkpt lat="43.79586928601946" lon="10.859919429887714"><ele>23.999999999999996</ele><time>2026-04-12T07:49:51.369Z</time></trkpt><trkpt lat="43.79592932990125" lon="10.859892866627503"><ele>24.0</ele><time>2026-04-12T07:49:54.369Z</time></trkpt><trkpt lat="43.795992589923344" lon="10.859838362485398"><ele>25.57142857142857</ele><time>2026-04-12T07:49:57.369Z</time></trkpt><trkpt lat="43.79605230920125" lon="10.859786908997672"><ele>27.142857142857142</ele><time>2026-04-12T07:50:00.369Z</time></trkpt><trkpt lat="43.79611216491449" lon="10.859733147735522"><ele>28.714285714285715</ele><time>2026-04-12T07:50:03.369Z</time></trkpt><trkpt lat="43.79617468906398" lon="10.859674710868338"><ele>30.285714285714285</ele><time>2026-04-12T07:50:06.369Z</time></trkpt><trkpt lat="43.79623123352661" lon="10.85962186281502"><ele>31.857142857142858</ele><time>2026-04-12T07:50:09.369Z</time></trkpt><trkpt lat="43.79629679637204" lon="10.85956058594607"><ele>33.42857142857143</ele><time>2026-04-12T07:50:12.369Z</time></trkpt><trkpt lat="43.79634969800345" lon="10.859511142541768"><ele>35.0</ele><time>2026-04-12T07:50:15.369Z</time></trkpt><trkpt lat="43.796419537560816" lon="10.859445868608441"><ele>35.0</ele><time>2026-04-12T07:50:19.369Z</time></trkpt><trkpt lat="43.79646584732165" lon="10.859373969194992"><ele>35.0</ele><time>2026-04-12T07:50:22.369Z</time></trkpt><trkpt lat="43.796530991536144" lon="10.859327022807866"><ele>35.0</ele><time>2026-04-12T07:50:25.369Z</time></trkpt><trkpt lat="43.79657952236943" lon="10.859265933771791"><ele>35.0</ele><time>2026-04-12T07:50:28.369Z</time></trkpt><trkpt lat="43.79663858260266" lon="10.859195186205481"><ele>35.0</ele><time>2026-04-12T07:50:31.369Z</time></trkpt><trkpt lat="43.79670012246113" lon="10.859134958388395"><ele>35.0</ele><time>2026-04-12T07:50:34.369Z</time></trkpt><trkpt lat="43.796764526743914" lon="10.859080202672404"><ele>35.0</ele><time>2026-04-12T07:50:37.369Z</time></trkpt><trkpt lat="43.79682280351912" lon="10.859014985899918"><ele>36.0</ele><time>2026-04-12T07:50:40.369Z</time></trkpt><trkpt lat="43.79689978695829" lon="10.858967844912849"><ele>37.0</ele><time>2026-04-12T07:50:43.369Z</time></trkpt><trkpt lat="43.79697349322128" lon="10.858905328372098"><ele>38.0</ele><time>2026-04-12T07:50:46.369Z</time></trkpt><trkpt lat="43.79704767898853" lon="10.858841456541251"><ele>39.0</ele><time>2026-04-12T07:50:49.369Z</time></trkpt><trkpt lat="43.797116843006684" lon="10.858781908352597"><ele>40.0</ele><time>2026-04-12T07:50:52.369Z</time></trkpt><trkpt lat="43.7971880957841" lon="10.858716554660777"><ele>41.0</ele><time>2026-04-12T07:50:55.369Z</time></trkpt><trkpt lat="43.79725698944231" lon="10.858652438042919"><ele>41.0</ele><time>2026-04-12T07:50:58.369Z</time></trkpt><trkpt lat="43.7973258361276" lon="10.858587405402076"><ele>41.0</ele><time>2026-04-12T07:51:01.369Z</time></trkpt><trkpt lat="43.79739219947211" lon="10.85852471848501"><ele>41.0</ele><time>2026-04-12T07:51:04.369Z</time></trkpt><trkpt lat="43.79746251308194" lon="10.858459894735317"><ele>41.0</ele><time>2026-04-12T07:51:07.369Z</time></trkpt><trkpt lat="43.79751797703602" lon="10.858392697373548"><ele>41.0</ele><time>2026-04-12T07:51:10.369Z</time></trkpt><trkpt lat="43.79760362108112" lon="10.858368018422935"><ele>41.0</ele><time>2026-04-12T07:51:13.369Z</time></trkpt><trkpt lat="43.797685560267766" lon="10.858380985297556"><ele>40.8</ele><time>2026-04-12T07:51:16.369Z</time></trkpt><trkpt lat="43.79777357673502" lon="10.858338250969917"><ele>40.599999999999994</ele><time>2026-04-12T07:51:19.369Z</time></trkpt><trkpt lat="43.79783576120244" lon="10.858267926439249"><ele>40.4</ele><time>2026-04-12T07:51:21.369Z</time></trkpt><trkpt lat="43.797906924995274" lon="10.85818516875601"><ele>40.2</ele><time>2026-04-12T07:51:23.369Z</time></trkpt><trkpt lat="43.79800027885278" lon="10.858102065932123"><ele>40.0</ele><time>2026-04-12T07:51:25.369Z</time></trkpt><trkpt lat="43.798098281563476" lon="10.857994295144985"><ele>40.0</ele><time>2026-04-12T07:51:27.369Z</time></trkpt><trkpt lat="43.79814486132104" lon="10.857913689218865"><ele>40.0</ele><time>2026-04-12T07:51:28.369Z</time></trkpt><trkpt lat="43.798205687622946" lon="10.857850574580876"><ele>40.0</ele><time>2026-04-12T07:51:29.369Z</time></trkpt><trkpt lat="43.79826500160563" lon="10.857786437964855"><ele>40.0</ele><time>2026-04-12T07:51:30.369Z</time></trkpt><trkpt lat="43.798325366085066" lon="10.857717145067463"><ele>40.0</ele><time>2026-04-12T07:51:31.369Z</time></trkpt><trkpt lat="43.798398604443705" lon="10.857663609060669"><ele>40.0</ele><time>2026-04-12T07:51:32.369Z</time></trkpt><trkpt lat="43.79846451915875" lon="10.857590085325501"><ele>38.833333333333336</ele><time>2026-04-12T07:51:33.369Z</time></trkpt><trkpt lat="43.79853081109269" lon="10.85751610151519"><ele>37.66666666666667</ele><time>2026-04-12T07:51:34.369Z</time></trkpt><trkpt lat="43.79859680463705" lon="10.857442450691087"><ele>36.5</ele><time>2026-04-12T07:51:35.369Z</time></trkpt><trkpt lat="43.7986499175496" lon="10.857355480434146"><ele>35.333333333333336</ele><time>2026-04-12T07:51:36.368Z</time></trkpt><trkpt lat="43.79871350236851" lon="10.857288936761062"><ele>34.166666666666664</ele><time>2026-04-12T07:51:37.368Z</time></trkpt><trkpt lat="43.79877688651009" lon="10.857213774510972"><ele>33.0</ele><time>2026-04-12T07:51:38.368Z</time></trkpt><trkpt lat="43.798851669365256" lon="10.857158271635708"><ele>33.0</ele><time>2026-04-12T07:51:39.368Z</time></trkpt><trkpt lat="43.798912626015536" lon="10.857090515810405"><ele>33.0</ele><time>2026-04-12T07:51:40.368Z</time></trkpt><trkpt lat="43.798970998486254" lon="10.857025632402221"><ele>33.0</ele><time>2026-04-12T07:51:41.368Z</time></trkpt><trkpt lat="43.79902670346539" lon="10.856963713980024"><ele>33.0</ele><time>2026-04-12T07:51:42.368Z</time></trkpt><trkpt lat="43.79908476830736" lon="10.856899172503722"><ele>33.0</ele><time>2026-04-12T07:51:43.368Z</time></trkpt><trkpt lat="43.799147375714234" lon="10.856829581787526"><ele>33.0</ele><time>2026-04-12T07:51:44.368Z</time></trkpt><trkpt lat="43.799209977195424" lon="10.856759523475109"><ele>32.285714285714285</ele><time>2026-04-12T07:51:45.368Z</time></trkpt><trkpt lat="43.79926950811135" lon="10.856692358010642"><ele>31.571428571428573</ele><time>2026-04-12T07:51:46.368Z</time></trkpt><trkpt lat="43.799319907636644" lon="10.856608179349317"><ele>30.857142857142858</ele><time>2026-04-12T07:51:47.368Z</time></trkpt><trkpt lat="43.79938165619855" lon="10.856538921951287"><ele>30.142857142857142</ele><time>2026-04-12T07:51:48.368Z</time></trkpt><trkpt lat="43.7994476317704" lon="10.856494893945127"><ele>29.42857142857143</ele><time>2026-04-12T07:51:49.368Z</time></trkpt><trkpt lat="43.79950158644678" lon="10.85643870662391"><ele>28.714285714285715</ele><time>2026-04-12T07:51:50.368Z</time></trkpt><trkpt lat="43.799549691257035" lon="10.856362129515434"><ele>28.0</ele><time>2026-04-12T07:51:51.368Z</time></trkpt><trkpt lat="43.79960937659478" lon="10.856307158873157"><ele>27.4</ele><time>2026-04-12T07:51:52.368Z</time></trkpt><trkpt lat="43.79967499528764" lon="10.85624778888894"><ele>26.799999999999997</ele><time>2026-04-12T07:51:53.368Z</time></trkpt><trkpt lat="43.79973679047779" lon="10.856194728846123"><ele>26.2</ele><time>2026-04-12T07:51:54.368Z</time></trkpt><trkpt lat="43.79983486271372" lon="10.856120034080973"><ele>25.6</ele><time>2026-04-12T07:51:56.368Z</time></trkpt><trkpt lat="43.79991487349743" lon="10.856049877796579"><ele>25.0</ele><time>2026-04-12T07:51:58.368Z</time></trkpt><trkpt lat="43.8000137305781" lon="10.855989573583473"><ele>25.0</ele><time>2026-04-12T07:52:00.368Z</time></trkpt><trkpt lat="43.80010012977748" lon="10.855903002719181"><ele>25.0</ele><time>2026-04-12T07:52:02.368Z</time></trkpt><trkpt lat="43.80018947630222" lon="10.855829010977061"><ele>25.0</ele><time>2026-04-12T07:52:04.368Z</time></trkpt><trkpt lat="43.800281667457405" lon="10.855750880580086"><ele>25.0</ele><time>2026-04-12T07:52:06.368Z</time></trkpt><trkpt lat="43.80035964025496" lon="10.855644785704008"><ele>25.0</ele><time>2026-04-12T07:52:08.368Z</time></trkpt><trkpt lat="43.80044710109294" lon="10.855551302323214"><ele>25.000000000000004</ele><time>2026-04-12T07:52:10.368Z</time></trkpt><trkpt lat="43.80051574027077" lon="10.855447932338452"><ele>25.0</ele><time>2026-04-12T07:52:12.368Z</time></trkpt><trkpt lat="43.80057315614652" lon="10.855359915687965"><ele>25.0</ele><time>2026-04-12T07:52:14.368Z</time></trkpt><trkpt lat="43.8006248328206" lon="10.855280696989201"><ele>25.0</ele><time>2026-04-12T07:52:16.368Z</time></trkpt><trkpt lat="43.8006718500291" lon="10.85520899257787"><ele>25.000000000000004</ele><time>2026-04-12T07:52:18.368Z</time></trkpt><trkpt lat="43.80073334835034" lon="10.855115606223999"><ele>25.0</ele><time>2026-04-12T07:52:21.368Z</time></trkpt><trkpt lat="43.80078072185794" lon="10.85501171929422"><ele>25.571428571428573</ele><time>2026-04-12T07:52:24.368Z</time></trkpt><trkpt lat="43.800844132357746" lon="10.854947244202348"><ele>26.142857142857146</ele><time>2026-04-12T07:52:27.368Z</time></trkpt><trkpt lat="43.80089406899475" lon="10.85487034437731"><ele>26.714285714285715</ele><time>2026-04-12T07:52:30.368Z</time></trkpt><trkpt lat="43.800938723144284" lon="10.854801579311617"><ele>27.28571428571429</ele><time>2026-04-12T07:52:33.368Z</time></trkpt><trkpt lat="43.80098672304816" lon="10.854727661940432"><ele>27.857142857142858</ele><time>2026-04-12T07:52:36.368Z</time></trkpt><trkpt lat="43.801035967036604" lon="10.854651828757294"><ele>28.428571428571434</ele><time>2026-04-12T07:52:39.368Z</time></trkpt><trkpt lat="43.80108539879896" lon="10.854575706411527"><ele>29.000000000000004</ele><time>2026-04-12T07:52:42.368Z</time></trkpt><trkpt lat="43.80113613657091" lon="10.854498424623728"><ele>29.71428571428572</ele><time>2026-04-12T07:52:45.368Z</time></trkpt><trkpt lat="43.80117501343749" lon="10.854413333995533"><ele>30.42857142857143</ele><time>2026-04-12T07:52:48.368Z</time></trkpt><trkpt lat="43.80122302667557" lon="10.854337777904862"><ele>31.142857142857142</ele><time>2026-04-12T07:52:51.368Z</time></trkpt><trkpt lat="43.80126945563434" lon="10.854269854399453"><ele>31.857142857142858</ele><time>2026-04-12T07:52:54.368Z</time></trkpt><trkpt lat="43.801316606049475" lon="10.854196691369392"><ele>32.57142857142857</ele><time>2026-04-12T07:52:57.368Z</time></trkpt><trkpt lat="43.80135518736473" lon="10.854123401772503"><ele>33.285714285714285</ele><time>2026-04-12T07:53:00.368Z</time></trkpt><trkpt lat="43.80141353412435" lon="10.854078022517626"><ele>34.0</ele><time>2026-04-12T07:53:03.369Z</time></trkpt><trkpt lat="43.80146687281269" lon="10.85402460735868"><ele>34.285714285714285</ele><time>2026-04-12T07:53:06.369Z</time></trkpt><trkpt lat="43.8015238673576" lon="10.853979353448977"><ele>34.57142857142857</ele><time>2026-04-12T07:53:09.369Z</time></trkpt><trkpt lat="43.801583327317196" lon="10.853922250805494"><ele>34.85714285714286</ele><time>2026-04-12T07:53:13.369Z</time></trkpt><trkpt lat="43.80164410676542" lon="10.85395750175796"><ele>35.14285714285714</ele><time>2026-04-12T07:53:16.369Z</time></trkpt><trkpt lat="43.801719486246455" lon="10.853923455121611"><ele>35.42857142857143</ele><time>2026-04-12T07:53:19.369Z</time></trkpt><trkpt lat="43.80179109942887" lon="10.853922491025031"><ele>35.714285714285715</ele><time>2026-04-12T07:53:21.369Z</time></trkpt><trkpt lat="43.80186345328847" lon="10.853933933926566"><ele>36.0</ele><time>2026-04-12T07:53:23.369Z</time></trkpt><trkpt lat="43.801937858958766" lon="10.853939024181235"><ele>36.0</ele><time>2026-04-12T07:53:25.369Z</time></trkpt><trkpt lat="43.80201576176081" lon="10.853951225264654"><ele>36.0</ele><time>2026-04-12T07:53:27.369Z</time></trkpt><trkpt lat="43.802094861588955" lon="10.85395352374152"><ele>36.0</ele><time>2026-04-12T07:53:29.369Z</time></trkpt><trkpt lat="43.802178885905704" lon="10.853969601101557"><ele>36.0</ele><time>2026-04-12T07:53:31.369Z</time></trkpt><trkpt lat="43.80225845397747" lon="10.853969173579182"><ele>36.0</ele><time>2026-04-12T07:53:33.369Z</time></trkpt><trkpt lat="43.80234315285582" lon="10.853979473148122"><ele>36.0</ele><time>2026-04-12T07:53:35.369Z</time></trkpt><trkpt lat="43.80242540247644" lon="10.853981197503858"><ele>36.0</ele><time>2026-04-12T07:53:37.369Z</time></trkpt><trkpt lat="43.80251250670395" lon="10.853974813036555"><ele>36.0</ele><time>2026-04-12T07:53:39.369Z</time></trkpt><trkpt lat="43.802596380845685" lon="10.853964850449737"><ele>36.0</ele><time>2026-04-12T07:53:41.368Z</time></trkpt><trkpt lat="43.80268068385505" lon="10.853936425175586"><ele>36.0</ele><time>2026-04-12T07:53:43.368Z</time></trkpt><trkpt lat="43.802768040611404" lon="10.853916096225616"><ele>36.0</ele><time>2026-04-12T07:53:45.368Z</time></trkpt><trkpt lat="43.8028489259342" lon="10.853868395752597"><ele>36.0</ele><time>2026-04-12T07:53:47.368Z</time></trkpt><trkpt lat="43.80292215473836" lon="10.853796583645673"><ele>36.0</ele><time>2026-04-12T07:53:49.368Z</time></trkpt><trkpt lat="43.80299076001851" lon="10.85373324006694"><ele>36.0</ele><time>2026-04-12T07:53:51.368Z</time></trkpt><trkpt lat="43.80305345714578" lon="10.853650655630707"><ele>36.0</ele><time>2026-04-12T07:53:53.368Z</time></trkpt><trkpt lat="43.80311508404432" lon="10.853561407581175"><ele>36.0</ele><time>2026-04-12T07:53:55.368Z</time></trkpt><trkpt lat="43.8031678533322" lon="10.853462211103357"><ele>36.0</ele><time>2026-04-12T07:53:57.368Z</time></trkpt><trkpt lat="43.8032953062028" lon="10.853410890419255"><ele>36.0</ele><time>2026-04-12T07:53:59.368Z</time></trkpt><trkpt lat="43.803317439952664" lon="10.853305028828999"><ele>36.0</ele><time>2026-04-12T07:54:02.368Z</time></trkpt><trkpt lat="43.803352745690326" lon="10.853178382083096"><ele>36.0</ele><time>2026-04-12T07:54:05.368Z</time></trkpt><trkpt lat="43.80337522826963" lon="10.853051260596024"><ele>36.0</ele><time>2026-04-12T07:54:07.368Z</time></trkpt><trkpt lat="43.80339897115575" lon="10.852919664951184"><ele>36.0</ele><time>2026-04-12T07:54:09.368Z</time></trkpt><trkpt lat="43.80342744268574" lon="10.852782373896451"><ele>36.0</ele><time>2026-04-12T07:54:11.368Z</time></trkpt><trkpt lat="43.80345697767579" lon="10.852643508649635"><ele>36.0</ele><time>2026-04-12T07:54:13.368Z</time></trkpt><trkpt lat="43.803493282053" lon="10.852506147513996"><ele>36.0</ele><time>2026-04-12T07:54:15.368Z</time></trkpt><trkpt lat="43.80351385477362" lon="10.852364825759238"><ele>36.0</ele><time>2026-04-12T07:54:17.368Z</time></trkpt><trkpt lat="43.803511252578296" lon="10.852215268318458"><ele>36.0</ele><time>2026-04-12T07:54:19.368Z</time></trkpt><trkpt lat="43.80349554203703" lon="10.85207081679876"><ele>35.6</ele><time>2026-04-12T07:54:21.368Z</time></trkpt><trkpt lat="43.80346389872716" lon="10.851924867866867"><ele>35.2</ele><time>2026-04-12T07:54:23.368Z</time></trkpt><trkpt lat="43.80343076954719" lon="10.851783643524021"><ele>34.8</ele><time>2026-04-12T07:54:25.368Z</time></trkpt><trkpt lat="43.803394879073444" lon="10.851645233949144"><ele>34.4</ele><time>2026-04-12T07:54:27.368Z</time></trkpt><trkpt lat="43.803353025875374" lon="10.85150848900419"><ele>34.0</ele><time>2026-04-12T07:54:29.368Z</time></trkpt><trkpt lat="43.803312181319534" lon="10.851370787466761"><ele>33.6</ele><time>2026-04-12T07:54:31.368Z</time></trkpt><trkpt lat="43.803274756341075" lon="10.851233153265323"><ele>33.2</ele><time>2026-04-12T07:54:33.368Z</time></trkpt><trkpt lat="43.80324759706243" lon="10.85109035271908"><ele>32.800000000000004</ele><time>2026-04-12T07:54:35.368Z</time></trkpt><trkpt lat="43.80322643435773" lon="10.850947358217825"><ele>32.4</ele><time>2026-04-12T07:54:37.368Z</time></trkpt><trkpt lat="43.80320448081855" lon="10.850797690041967"><ele>32.0</ele><time>2026-04-12T07:54:39.368Z</time></trkpt><trkpt lat="43.80318626474063" lon="10.850644826882496"><ele>31.999999999999996</ele><time>2026-04-12T07:54:41.368Z</time></trkpt><trkpt lat="43.8031686792163" lon="10.850487384581989"><ele>32.0</ele><time>2026-04-12T07:54:43.368Z</time></trkpt><trkpt lat="43.80315097598436" lon="10.850324432086262"><ele>32.0</ele><time>2026-04-12T07:54:45.368Z</time></trkpt><trkpt lat="43.8031380822324" lon="10.850235934343143"><ele>32.0</ele><time>2026-04-12T07:54:46.368Z</time></trkpt><trkpt lat="43.80312234118761" lon="10.850143894319688"><ele>31.999999999999996</ele><time>2026-04-12T07:54:47.368Z</time></trkpt><trkpt lat="43.80310984364207" lon="10.850046071939532"><ele>32.0</ele><time>2026-04-12T07:54:48.368Z</time></trkpt><trkpt lat="43.80309739446211" lon="10.84994092224433"><ele>31.499999999999996</ele><time>2026-04-12T07:54:49.368Z</time></trkpt><trkpt lat="43.803083304502344" lon="10.849833530216916"><ele>31.0</ele><time>2026-04-12T07:54:50.368Z</time></trkpt><trkpt lat="43.80306753303049" lon="10.849721559426671"><ele>30.5</ele><time>2026-04-12T07:54:51.368Z</time></trkpt><trkpt lat="43.8030542775863" lon="10.849606019394416"><ele>30.0</ele><time>2026-04-12T07:54:52.368Z</time></trkpt><trkpt lat="43.803040179977046" lon="10.84948632891546"><ele>29.499999999999996</ele><time>2026-04-12T07:54:53.368Z</time></trkpt><trkpt lat="43.80302445138003" lon="10.849361031975736"><ele>29.0</ele><time>2026-04-12T07:54:54.368Z</time></trkpt><trkpt lat="43.803005971694695" lon="10.849240115203452"><ele>28.2</ele><time>2026-04-12T07:54:55.368Z</time></trkpt><trkpt lat="43.802988046662655" lon="10.84912233040008"><ele>27.4</ele><time>2026-04-12T07:54:56.368Z</time></trkpt><trkpt lat="43.802972890231366" lon="10.848998457252167"><ele>26.6</ele><time>2026-04-12T07:54:57.368Z</time></trkpt><trkpt lat="43.802959004809495" lon="10.848872978569277"><ele>25.8</ele><time>2026-04-12T07:54:58.368Z</time></trkpt><trkpt lat="43.80294328000589" lon="10.848749240657433"><ele>25.0</ele><time>2026-04-12T07:54:59.368Z</time></trkpt><trkpt lat="43.80292723750485" lon="10.848626099746877"><ele>25.000000000000004</ele><time>2026-04-12T07:55:00.368Z</time></trkpt><trkpt lat="43.802912311622535" lon="10.84850316631173"><ele>25.0</ele><time>2026-04-12T07:55:01.368Z</time></trkpt><trkpt lat="43.80289488177467" lon="10.848381718849902"><ele>25.0</ele><time>2026-04-12T07:55:02.368Z</time></trkpt><trkpt lat="43.80287862282067" lon="10.848263805253518"><ele>25.0</ele><time>2026-04-12T07:55:03.368Z</time></trkpt><trkpt lat="43.80286372651204" lon="10.848145395926695"><ele>25.000000000000004</ele><time>2026-04-12T07:55:04.368Z</time></trkpt><trkpt lat="43.80284968125759" lon="10.848030410677966"><ele>25.0</ele><time>2026-04-12T07:55:05.368Z</time></trkpt><trkpt lat="43.80283845627255" lon="10.847929448899935"><ele>24.500000000000004</ele><time>2026-04-12T07:55:06.368Z</time></trkpt><trkpt lat="43.802829060939665" lon="10.847835910949957"><ele>24.0</ele><time>2026-04-12T07:55:07.368Z</time></trkpt><trkpt lat="43.80283404055758" lon="10.847689184765548"><ele>23.5</ele><time>2026-04-12T07:55:09.368Z</time></trkpt><trkpt lat="43.80284284305919" lon="10.847572037407536"><ele>23.0</ele><time>2026-04-12T07:55:11.368Z</time></trkpt><trkpt lat="43.80292475777486" lon="10.847526734060233"><ele>22.5</ele><time>2026-04-12T07:55:13.368Z</time></trkpt><trkpt lat="43.80294003145863" lon="10.847418916545086"><ele>22.0</ele><time>2026-04-12T07:55:16.368Z</time></trkpt><trkpt lat="43.8028520007231" lon="10.847369900912037"><ele>22.0</ele><time>2026-04-12T07:55:17.368Z</time></trkpt><trkpt lat="43.802894371692176" lon="10.847272769900362"><ele>22.0</ele><time>2026-04-12T07:55:19.368Z</time></trkpt><trkpt lat="43.80286090387585" lon="10.847166813565446"><ele>22.0</ele><time>2026-04-12T07:55:21.368Z</time></trkpt><trkpt lat="43.80283431839228" lon="10.847035766658507"><ele>22.0</ele><time>2026-04-12T07:55:23.368Z</time></trkpt><trkpt lat="43.802796391839586" lon="10.846912961637083"><ele>22.0</ele><time>2026-04-12T07:55:25.368Z</time></trkpt><trkpt lat="43.80275050933741" lon="10.846781854046617"><ele>21.8</ele><time>2026-04-12T07:55:27.368Z</time></trkpt><trkpt lat="43.80270275311246" lon="10.846652037805681"><ele>21.6</ele><time>2026-04-12T07:55:29.368Z</time></trkpt><trkpt lat="43.80265575092064" lon="10.846524271328263"><ele>21.400000000000002</ele><time>2026-04-12T07:55:31.368Z</time></trkpt><trkpt lat="43.802607878175735" lon="10.846395734187787"><ele>21.200000000000003</ele><time>2026-04-12T07:55:33.368Z</time></trkpt><trkpt lat="43.80255933493993" lon="10.846265995679358"><ele>21.0</ele><time>2026-04-12T07:55:35.368Z</time></trkpt><trkpt lat="43.8025104882869" lon="10.84613544628423"><ele>20.8</ele><time>2026-04-12T07:55:37.368Z</time></trkpt><trkpt lat="43.80244780364506" lon="10.846016370668412"><ele>20.6</ele><time>2026-04-12T07:55:39.368Z</time></trkpt><trkpt lat="43.80241111798106" lon="10.845869865375224"><ele>20.4</ele><time>2026-04-12T07:55:41.368Z</time></trkpt><trkpt lat="43.802362428047836" lon="10.845739734868197"><ele>20.2</ele><time>2026-04-12T07:55:43.368Z</time></trkpt><trkpt lat="43.80231167777505" lon="10.845604097702319"><ele>20.0</ele><time>2026-04-12T07:55:45.368Z</time></trkpt><trkpt lat="43.8022624840576" lon="10.845472620724971"><ele>19.6</ele><time>2026-04-12T07:55:47.367Z</time></trkpt><trkpt lat="43.80221158260923" lon="10.845340790471358"><ele>19.2</ele><time>2026-04-12T07:55:49.367Z</time></trkpt><trkpt lat="43.80215892710895" lon="10.845209456344513"><ele>18.8</ele><time>2026-04-12T07:55:51.367Z</time></trkpt><trkpt lat="43.80211187580507" lon="10.845091849456438"><ele>18.4</ele><time>2026-04-12T07:55:53.367Z</time></trkpt><trkpt lat="43.80206516722281" lon="10.844970176579748"><ele>18.0</ele><time>2026-04-12T07:55:55.367Z</time></trkpt><trkpt lat="43.80201993616491" lon="10.844852929187239"><ele>17.8</ele><time>2026-04-12T07:55:57.367Z</time></trkpt><trkpt lat="43.801972082199505" lon="10.844733681678807"><ele>17.6</ele><time>2026-04-12T07:55:59.367Z</time></trkpt><trkpt lat="43.80192574065816" lon="10.844618203060381"><ele>17.4</ele><time>2026-04-12T07:56:01.367Z</time></trkpt><trkpt lat="43.8018852909552" lon="10.84451579376283"><ele>17.2</ele><time>2026-04-12T07:56:03.367Z</time></trkpt><trkpt lat="43.80184793215652" lon="10.844416722068232"><ele>17.0</ele><time>2026-04-12T07:56:05.367Z</time></trkpt><trkpt lat="43.801804986954956" lon="10.844302835729659"><ele>17.2</ele><time>2026-04-12T07:56:07.367Z</time></trkpt><trkpt lat="43.80174827754795" lon="10.844194117644921"><ele>17.4</ele><time>2026-04-12T07:56:09.367Z</time></trkpt><trkpt lat="43.8017120848551" lon="10.84405646817729"><ele>17.6</ele><time>2026-04-12T07:56:11.367Z</time></trkpt><trkpt lat="43.80166052214567" lon="10.843919728966718"><ele>17.8</ele><time>2026-04-12T07:56:13.367Z</time></trkpt><trkpt lat="43.80160878879216" lon="10.843782537502777"><ele>18.0</ele><time>2026-04-12T07:56:15.367Z</time></trkpt><trkpt lat="43.80155726532991" lon="10.843645902477347"><ele>18.0</ele><time>2026-04-12T07:56:17.367Z</time></trkpt><trkpt lat="43.801505540602705" lon="10.84350873377481"><ele>18.0</ele><time>2026-04-12T07:56:19.367Z</time></trkpt><trkpt lat="43.801465062660036" lon="10.84341716778361"><ele>18.0</ele><time>2026-04-12T07:56:21.367Z</time></trkpt><trkpt lat="43.80141397683503" lon="10.843316571260303"><ele>18.0</ele><time>2026-04-12T07:56:25.367Z</time></trkpt><trkpt lat="43.8013840890887" lon="10.84323069377685"><ele>18.0</ele><time>2026-04-12T07:56:27.367Z</time></trkpt><trkpt lat="43.80135109260941" lon="10.843137009646107"><ele>18.0</ele><time>2026-04-12T07:56:29.367Z</time></trkpt><trkpt lat="43.80130839501537" lon="10.843033377247483"><ele>17.8</ele><time>2026-04-12T07:56:31.367Z</time></trkpt><trkpt lat="43.80126191840419" lon="10.842914800517262"><ele>17.6</ele><time>2026-04-12T07:56:33.367Z</time></trkpt><trkpt lat="43.80122053865654" lon="10.842796910197611"><ele>17.4</ele><time>2026-04-12T07:56:35.367Z</time></trkpt><trkpt lat="43.80118434312927" lon="10.842664574353039"><ele>17.2</ele><time>2026-04-12T07:56:37.367Z</time></trkpt><trkpt lat="43.80112918508654" lon="10.842558275434012"><ele>17.0</ele><time>2026-04-12T07:56:39.367Z</time></trkpt><trkpt lat="43.801078250310866" lon="10.842440976414206"><ele>16.8</ele><time>2026-04-12T07:56:41.367Z</time></trkpt><trkpt lat="43.801031892556686" lon="10.842322184999537"><ele>16.6</ele><time>2026-04-12T07:56:43.367Z</time></trkpt><trkpt lat="43.800998111711834" lon="10.842198999303431"><ele>16.400000000000002</ele><time>2026-04-12T07:56:45.367Z</time></trkpt><trkpt lat="43.80101710284756" lon="10.842080102033234"><ele>16.2</ele><time>2026-04-12T07:56:47.367Z</time></trkpt><trkpt lat="43.80111210513983" lon="10.842073897586445"><ele>16.0</ele><time>2026-04-12T07:56:49.367Z</time></trkpt><trkpt lat="43.80119876203887" lon="10.842066641113652"><ele>15.999999999999998</ele><time>2026-04-12T07:56:51.367Z</time></trkpt><trkpt lat="43.80127740986666" lon="10.842058462270531"><ele>16.0</ele><time>2026-04-12T07:56:53.367Z</time></trkpt><trkpt lat="43.80135615577856" lon="10.842051169160168"><ele>16.0</ele><time>2026-04-12T07:56:55.367Z</time></trkpt><trkpt lat="43.80142771417926" lon="10.84204454167528"><ele>16.0</ele><time>2026-04-12T07:56:57.367Z</time></trkpt><trkpt lat="43.801517108210916" lon="10.842033190799112"><ele>15.999999999999998</ele><time>2026-04-12T07:57:00.367Z</time></trkpt><trkpt lat="43.801587232026016" lon="10.842020417292389"><ele>16.0</ele><time>2026-04-12T07:57:02.367Z</time></trkpt><trkpt lat="43.80166292623981" lon="10.841977670873788"><ele>16.0</ele><time>2026-04-12T07:57:04.367Z</time></trkpt><trkpt lat="43.80175564888829" lon="10.841925727107416"><ele>16.0</ele><time>2026-04-12T07:57:06.367Z</time></trkpt><trkpt lat="43.80185346099429" lon="10.841853869443213"><ele>16.0</ele><time>2026-04-12T07:57:08.367Z</time></trkpt><trkpt lat="43.801954178174725" lon="10.841784948590151"><ele>16.0</ele><time>2026-04-12T07:57:10.367Z</time></trkpt><trkpt lat="43.80205319683109" lon="10.8417221710666"><ele>16.0</ele><time>2026-04-12T07:57:12.367Z</time></trkpt><trkpt lat="43.80214607637383" lon="10.841659957780829"><ele>16.400000000000002</ele><time>2026-04-12T07:57:14.367Z</time></trkpt><trkpt lat="43.802238193780596" lon="10.841600458515469"><ele>16.8</ele><time>2026-04-12T07:57:16.367Z</time></trkpt><trkpt lat="43.80232673435286" lon="10.841552910477338"><ele>17.200000000000003</ele><time>2026-04-12T07:57:18.367Z</time></trkpt><trkpt lat="43.802403530735276" lon="10.8415021177948"><ele>17.6</ele><time>2026-04-12T07:57:20.367Z</time></trkpt><trkpt lat="43.80242644154369" lon="10.841320106536225"><ele>18.0</ele><time>2026-04-12T07:57:22.367Z</time></trkpt><trkpt lat="43.802440711530984" lon="10.841182890814078"><ele>18.0</ele><time>2026-04-12T07:57:24.367Z</time></trkpt><trkpt lat="43.80247392756868" lon="10.841052830668179"><ele>18.0</ele><time>2026-04-12T07:57:26.367Z</time></trkpt><trkpt lat="43.80250769987876" lon="10.840927288068762"><ele>18.0</ele><time>2026-04-12T07:57:28.367Z</time></trkpt><trkpt lat="43.80257547439051" lon="10.840846812531606"><ele>18.0</ele><time>2026-04-12T07:57:30.367Z</time></trkpt><trkpt lat="43.80264813231722" lon="10.840797691435077"><ele>18.0</ele><time>2026-04-12T07:57:32.367Z</time></trkpt><trkpt lat="43.80270704927446" lon="10.840747525584257"><ele>18.0</ele><time>2026-04-12T07:57:34.367Z</time></trkpt><trkpt lat="43.80276378783047" lon="10.840692102641288"><ele>18.666666666666668</ele><time>2026-04-12T07:57:36.367Z</time></trkpt><trkpt lat="43.802750672625024" lon="10.840586341241192"><ele>19.333333333333332</ele><time>2026-04-12T07:57:38.367Z</time></trkpt><trkpt lat="43.80273788275557" lon="10.840487034076258"><ele>20.0</ele><time>2026-04-12T07:57:40.367Z</time></trkpt><trkpt lat="43.80273478751026" lon="10.840361799438524"><ele>20.666666666666664</ele><time>2026-04-12T07:57:43.367Z</time></trkpt><trkpt lat="43.80278743817235" lon="10.840297921531217"><ele>21.333333333333332</ele><time>2026-04-12T07:57:45.367Z</time></trkpt><trkpt lat="43.80284989617205" lon="10.840260770326667"><ele>22.0</ele><time>2026-04-12T07:57:47.367Z</time></trkpt><trkpt lat="43.80292101130486" lon="10.840281322014581"><ele>22.0</ele><time>2026-04-12T07:57:49.367Z</time></trkpt><trkpt lat="43.80299378219091" lon="10.840310722102616"><ele>22.0</ele><time>2026-04-12T07:57:51.367Z</time></trkpt><trkpt lat="43.803062847053994" lon="10.840323140088218"><ele>22.0</ele><time>2026-04-12T07:57:53.367Z</time></trkpt><trkpt lat="43.80313443449965" lon="10.840318532078715"><ele>22.0</ele><time>2026-04-12T07:57:55.367Z</time></trkpt><trkpt lat="43.80320477284211" lon="10.840306675298114"><ele>22.0</ele><time>2026-04-12T07:57:57.367Z</time></trkpt><trkpt lat="43.803281729912236" lon="10.84028594471906"><ele>22.0</ele><time>2026-04-12T07:57:59.367Z</time></trkpt><trkpt lat="43.803345524169494" lon="10.840227477950423"><ele>22.0</ele><time>2026-04-12T07:58:01.367Z</time></trkpt><trkpt lat="43.803412676413636" lon="10.840158295686821"><ele>22.333333333333332</ele><time>2026-04-12T07:58:04.367Z</time></trkpt><trkpt lat="43.80347406122331" lon="10.84008421684554"><ele>22.666666666666664</ele><time>2026-04-12T07:58:07.367Z</time></trkpt><trkpt lat="43.803545083914706" lon="10.83999353839293"><ele>23.0</ele><time>2026-04-12T07:58:10.367Z</time></trkpt><trkpt lat="43.80360431764576" lon="10.839928331353828"><ele>23.333333333333332</ele><time>2026-04-12T07:58:12.367Z</time></trkpt><trkpt lat="43.80368376107042" lon="10.839899061927557"><ele>23.666666666666668</ele><time>2026-04-12T07:58:14.367Z</time></trkpt><trkpt lat="43.80377340627973" lon="10.839878098976277"><ele>24.0</ele><time>2026-04-12T07:58:16.367Z</time></trkpt><trkpt lat="43.80386674669712" lon="10.839892121636632"><ele>24.6</ele><time>2026-04-12T07:58:18.367Z</time></trkpt><trkpt lat="43.803965705445904" lon="10.839897582908034"><ele>25.2</ele><time>2026-04-12T07:58:20.367Z</time></trkpt><trkpt lat="43.804057895845524" lon="10.83990491632373"><ele>25.800000000000004</ele><time>2026-04-12T07:58:22.367Z</time></trkpt><trkpt lat="43.804158645200744" lon="10.839907034589938"><ele>26.400000000000002</ele><time>2026-04-12T07:58:24.367Z</time></trkpt><trkpt lat="43.80426018771388" lon="10.839929299078106"><ele>27.0</ele><time>2026-04-12T07:58:26.367Z</time></trkpt><trkpt lat="43.80435780557588" lon="10.839930380418329"><ele>28.25</ele><time>2026-04-12T07:58:28.367Z</time></trkpt><trkpt lat="43.80442235540425" lon="10.839931095452583"><ele>29.5</ele><time>2026-04-12T07:58:32.367Z</time></trkpt><trkpt lat="43.80453562905275" lon="10.839535698568723"><ele>30.75</ele><time>2026-04-12T07:58:54.367Z</time></trkpt><trkpt lat="43.804516271693565" lon="10.839632326259212"><ele>32.0</ele><time>2026-04-12T07:59:11.367Z</time></trkpt><trkpt lat="43.80448744582763" lon="10.839712055547492"><ele>31.999999999999996</ele><time>2026-04-12T07:59:16.367Z</time></trkpt><trkpt lat="43.804452119695846" lon="10.839808806087294"><ele>32.0</ele><time>2026-04-12T07:59:20.367Z</time></trkpt><trkpt lat="43.80446091572658" lon="10.839922913995512"><ele>32.0</ele><time>2026-04-12T07:59:24.367Z</time></trkpt><trkpt lat="43.804548859342106" lon="10.839932496773944"><ele>32.0</ele><time>2026-04-12T07:59:27.367Z</time></trkpt><trkpt lat="43.804617645451806" lon="10.839934601612878"><ele>31.999999999999996</ele><time>2026-04-12T07:59:29.367Z</time></trkpt><trkpt lat="43.80469188454669" lon="10.83991998851962"><ele>32.0</ele><time>2026-04-12T07:59:31.367Z</time></trkpt><trkpt lat="43.80476058483206" lon="10.839933836103201"><ele>31.999999999999996</ele><time>2026-04-12T07:59:33.367Z</time></trkpt><trkpt lat="43.80482720326546" lon="10.839999682656659"><ele>32.0</ele><time>2026-04-12T07:59:35.367Z</time></trkpt><trkpt lat="43.804892628528215" lon="10.840046653124611"><ele>32.0</ele><time>2026-04-12T07:59:37.367Z</time></trkpt><trkpt lat="43.80496179685856" lon="10.84010141956504"><ele>32.0</ele><time>2026-04-12T07:59:39.367Z</time></trkpt><trkpt lat="43.805028614941" lon="10.840157315006067"><ele>31.999999999999996</ele><time>2026-04-12T07:59:41.367Z</time></trkpt><trkpt lat="43.805096629789354" lon="10.840219320385966"><ele>32.0</ele><time>2026-04-12T07:59:43.367Z</time></trkpt><trkpt lat="43.805163622878226" lon="10.840280394305054"><ele>32.166666666666664</ele><time>2026-04-12T07:59:45.367Z</time></trkpt><trkpt lat="43.80523416275381" lon="10.84034485867442"><ele>32.33333333333333</ele><time>2026-04-12T07:59:47.367Z</time></trkpt><trkpt lat="43.80530292663326" lon="10.840404301365227"><ele>32.5</ele><time>2026-04-12T07:59:49.367Z</time></trkpt><trkpt lat="43.80537529421103" lon="10.840462183155672"><ele>32.666666666666664</ele><time>2026-04-12T07:59:51.367Z</time></trkpt><trkpt lat="43.80544977990853" lon="10.840502786284057"><ele>32.833333333333336</ele><time>2026-04-12T07:59:53.367Z</time></trkpt><trkpt lat="43.80551194231357" lon="10.840543063215666"><ele>33.0</ele><time>2026-04-12T07:59:55.367Z</time></trkpt><trkpt lat="43.80556594844836" lon="10.840603298736387"><ele>33.0</ele><time>2026-04-12T07:59:57.367Z</time></trkpt><trkpt lat="43.80563164406971" lon="10.840652667376558"><ele>33.0</ele><time>2026-04-12T07:59:59.366Z</time></trkpt><trkpt lat="43.805694438431715" lon="10.840686152265508"><ele>33.0</ele><time>2026-04-12T08:00:01.366Z</time></trkpt><trkpt lat="43.80575269331348" lon="10.840736080399992"><ele>33.0</ele><time>2026-04-12T08:00:03.366Z</time></trkpt><trkpt lat="43.80581985723053" lon="10.840785777909511"><ele>33.0</ele><time>2026-04-12T08:00:05.366Z</time></trkpt><trkpt lat="43.805881792881394" lon="10.840839067991391"><ele>33.0</ele><time>2026-04-12T08:00:07.366Z</time></trkpt><trkpt lat="43.80594452875226" lon="10.840908343736947"><ele>33.0</ele><time>2026-04-12T08:00:09.366Z</time></trkpt><trkpt lat="43.806015167698035" lon="10.840966484295897"><ele>32.714285714285715</ele><time>2026-04-12T08:00:11.366Z</time></trkpt><trkpt lat="43.80607286129795" lon="10.841031942994213"><ele>32.42857142857143</ele><time>2026-04-12T08:00:13.366Z</time></trkpt><trkpt lat="43.8061464090621" lon="10.841074872334355"><ele>32.142857142857146</ele><time>2026-04-12T08:00:15.366Z</time></trkpt><trkpt lat="43.80621066092917" lon="10.841135050512513"><ele>31.857142857142858</ele><time>2026-04-12T08:00:17.366Z</time></trkpt><trkpt lat="43.80627216494045" lon="10.841192132331264"><ele>31.571428571428577</ele><time>2026-04-12T08:00:19.366Z</time></trkpt><trkpt lat="43.80634955337717" lon="10.841206384506739"><ele>31.28571428571429</ele><time>2026-04-12T08:00:21.366Z</time></trkpt><trkpt lat="43.806413645078294" lon="10.841200715572029"><ele>31.0</ele><time>2026-04-12T08:00:23.366Z</time></trkpt><trkpt lat="43.806474240644995" lon="10.841175635688016"><ele>31.0</ele><time>2026-04-12T08:00:25.366Z</time></trkpt><trkpt lat="43.80654262207673" lon="10.841151063723055"><ele>31.000000000000004</ele><time>2026-04-12T08:00:27.366Z</time></trkpt><trkpt lat="43.806605278094885" lon="10.84113221830096"><ele>31.0</ele><time>2026-04-12T08:00:29.366Z</time></trkpt><trkpt lat="43.80667338058535" lon="10.84111225712876"><ele>31.0</ele><time>2026-04-12T08:00:31.366Z</time></trkpt><trkpt lat="43.806744816395565" lon="10.841106052003719"><ele>31.000000000000004</ele><time>2026-04-12T08:00:34.366Z</time></trkpt><trkpt lat="43.806805706722784" lon="10.841058939369326"><ele>31.0</ele><time>2026-04-12T08:00:37.366Z</time></trkpt><trkpt lat="43.806895827259744" lon="10.841071399951629"><ele>31.0</ele><time>2026-04-12T08:00:40.366Z</time></trkpt><trkpt lat="43.80696787023537" lon="10.84111220530748"><ele>31.833333333333336</ele><time>2026-04-12T08:00:43.366Z</time></trkpt><trkpt lat="43.807057914025975" lon="10.841159225382746"><ele>32.66666666666667</ele><time>2026-04-12T08:00:46.366Z</time></trkpt><trkpt lat="43.807140890846775" lon="10.841222188582195"><ele>33.5</ele><time>2026-04-12T08:00:49.366Z</time></trkpt><trkpt lat="43.807190898255634" lon="10.841277101104431"><ele>34.333333333333336</ele><time>2026-04-12T08:00:51.366Z</time></trkpt><trkpt lat="43.807266765600644" lon="10.841305498766511"><ele>35.166666666666664</ele><time>2026-04-12T08:01:02.366Z</time></trkpt><trkpt lat="43.8073509552088" lon="10.841287933768303"><ele>36.0</ele><time>2026-04-12T08:01:06.366Z</time></trkpt><trkpt lat="43.80746074947748" lon="10.840883410244373"><ele>36.166666666666664</ele><time>2026-04-12T08:01:09.366Z</time></trkpt><trkpt lat="43.80750483582486" lon="10.840804788651464"><ele>36.333333333333336</ele><time>2026-04-12T08:01:12.366Z</time></trkpt><trkpt lat="43.80754076975571" lon="10.840704240826142"><ele>36.5</ele><time>2026-04-12T08:01:14.366Z</time></trkpt><trkpt lat="43.80757876782479" lon="10.840619528464474"><ele>36.66666666666667</ele><time>2026-04-12T08:01:18.366Z</time></trkpt><trkpt lat="43.80762173095151" lon="10.840516425124155"><ele>36.833333333333336</ele><time>2026-04-12T08:01:22.366Z</time></trkpt><trkpt lat="43.80765376793762" lon="10.840430643704282"><ele>37.0</ele><time>2026-04-12T08:01:25.366Z</time></trkpt><trkpt lat="43.80769422895615" lon="10.840348036927113"><ele>37.0</ele><time>2026-04-12T08:01:28.366Z</time></trkpt><trkpt lat="43.8076779763606" lon="10.840210732833965"><ele>37.0</ele><time>2026-04-12T08:01:31.366Z</time></trkpt><trkpt lat="43.80765407467177" lon="10.840118384982908"><ele>37.0</ele><time>2026-04-12T08:01:33.366Z</time></trkpt><trkpt lat="43.80762162637112" lon="10.840022509404582"><ele>37.0</ele><time>2026-04-12T08:01:36.366Z</time></trkpt><trkpt lat="43.80759335386887" lon="10.839926643639286"><ele>37.0</ele><time>2026-04-12T08:01:39.366Z</time></trkpt><trkpt lat="43.80756146607926" lon="10.839818043029496"><ele>37.0</ele><time>2026-04-12T08:01:42.366Z</time></trkpt><trkpt lat="43.80757605570164" lon="10.839726816837699"><ele>37.333333333333336</ele><time>2026-04-12T08:01:44.366Z</time></trkpt><trkpt lat="43.807552342187016" lon="10.839609036389344"><ele>37.66666666666667</ele><time>2026-04-12T08:01:47.366Z</time></trkpt><trkpt lat="43.80751187352403" lon="10.839510404004976"><ele>38.0</ele><time>2026-04-12T08:01:51.366Z</time></trkpt><trkpt lat="43.80748534862742" lon="10.839412040242461"><ele>38.333333333333336</ele><time>2026-04-12T08:01:56.366Z</time></trkpt><trkpt lat="43.80744945533067" lon="10.83931849607248"><ele>38.666666666666664</ele><time>2026-04-12T08:02:00.366Z</time></trkpt><trkpt lat="43.807397639048325" lon="10.83925121542537"><ele>39.0</ele><time>2026-04-12T08:02:04.366Z</time></trkpt><trkpt lat="43.807345876792326" lon="10.839194235797963"><ele>39.142857142857146</ele><time>2026-04-12T08:02:07.366Z</time></trkpt><trkpt lat="43.807279924956596" lon="10.839136757747477"><ele>39.285714285714285</ele><time>2026-04-12T08:02:11.366Z</time></trkpt><trkpt lat="43.80722485864928" lon="10.839090877584237"><ele>39.42857142857143</ele><time>2026-04-12T08:02:15.366Z</time></trkpt><trkpt lat="43.807167211530505" lon="10.838990741779538"><ele>39.57142857142857</ele><time>2026-04-12T08:02:18.366Z</time></trkpt><trkpt lat="43.80711847827845" lon="10.838935223137021"><ele>39.714285714285715</ele><time>2026-04-12T08:02:21.366Z</time></trkpt><trkpt lat="43.807058918954695" lon="10.838903599497272"><ele>39.857142857142854</ele><time>2026-04-12T08:02:25.366Z</time></trkpt><trkpt lat="43.80701149344735" lon="10.838816554226673"><ele>40.0</ele><time>2026-04-12T08:02:30.366Z</time></trkpt><trkpt lat="43.80699596121623" lon="10.838728912995403"><ele>40.0</ele><time>2026-04-12T08:02:34.366Z</time></trkpt><trkpt lat="43.80699809968399" lon="10.838640327312413"><ele>40.0</ele><time>2026-04-12T08:02:37.366Z</time></trkpt><trkpt lat="43.80702238378547" lon="10.838546856608572"><ele>40.0</ele><time>2026-04-12T08:02:41.366Z</time></trkpt><trkpt lat="43.80703495327275" lon="10.838446288789056"><ele>40.0</ele><time>2026-04-12T08:02:44.366Z</time></trkpt><trkpt lat="43.80700848445423" lon="10.838328142083505"><ele>40.0</ele><time>2026-04-12T08:02:47.366Z</time></trkpt><trkpt lat="43.807008607868944" lon="10.838232495753115"><ele>40.0</ele><time>2026-04-12T08:02:50.366Z</time></trkpt><trkpt lat="43.80700800802055" lon="10.838143307876852"><ele>40.0</ele><time>2026-04-12T08:02:54.366Z</time></trkpt><trkpt lat="43.80698505084773" lon="10.838052050106148"><ele>39.833333333333336</ele><time>2026-04-12T08:02:57.366Z</time></trkpt><trkpt lat="43.806965800379004" lon="10.837947340076486"><ele>39.66666666666667</ele><time>2026-04-12T08:03:00.366Z</time></trkpt><trkpt lat="43.80694089705762" lon="10.83785105535319"><ele>39.5</ele><time>2026-04-12T08:03:03.366Z</time></trkpt><trkpt lat="43.80692174861087" lon="10.837750840292648"><ele>39.333333333333336</ele><time>2026-04-12T08:03:07.366Z</time></trkpt><trkpt lat="43.80688113724181" lon="10.83765678114205"><ele>39.166666666666664</ele><time>2026-04-12T08:03:11.366Z</time></trkpt><trkpt lat="43.80686468802325" lon="10.83755331701326"><ele>39.0</ele><time>2026-04-12T08:03:15.366Z</time></trkpt><trkpt lat="43.80682169150782" lon="10.837470543906923"><ele>39.0</ele><time>2026-04-12T08:03:18.366Z</time></trkpt><trkpt lat="43.80676226039481" lon="10.837380792054963"><ele>39.0</ele><time>2026-04-12T08:03:22.366Z</time></trkpt><trkpt lat="43.8067202926459" lon="10.837296551861966"><ele>39.0</ele><time>2026-04-12T08:03:25.366Z</time></trkpt><trkpt lat="43.80668688407237" lon="10.837219337110941"><ele>39.0</ele><time>2026-04-12T08:03:28.366Z</time></trkpt><trkpt lat="43.80664918894453" lon="10.837136010115257"><ele>39.0</ele><time>2026-04-12T08:03:32.366Z</time></trkpt><trkpt lat="43.80657806641197" lon="10.837070738874626"><ele>39.0</ele><time>2026-04-12T08:03:36.366Z</time></trkpt><trkpt lat="43.806548978965516" lon="10.836962925150749"><ele>39.0</ele><time>2026-04-12T08:03:39.366Z</time></trkpt><trkpt lat="43.80649265616564" lon="10.836863601197127"><ele>39.0</ele><time>2026-04-12T08:03:42.366Z</time></trkpt><trkpt lat="43.80641666147159" lon="10.836793157333005"><ele>39.0</ele><time>2026-04-12T08:03:45.366Z</time></trkpt><trkpt lat="43.80636673267014" lon="10.836733137455989"><ele>39.0</ele><time>2026-04-12T08:03:47.366Z</time></trkpt><trkpt lat="43.80631030217833" lon="10.836682370671877"><ele>39.0</ele><time>2026-04-12T08:03:50.366Z</time></trkpt><trkpt lat="43.80625617067218" lon="10.836622840103225"><ele>39.0</ele><time>2026-04-12T08:03:54.366Z</time></trkpt><trkpt lat="43.80617953219257" lon="10.83658820373653"><ele>38.85714285714286</ele><time>2026-04-12T08:03:58.366Z</time></trkpt><trkpt lat="43.80611083776024" lon="10.836635931779815"><ele>38.71428571428571</ele><time>2026-04-12T08:04:02.366Z</time></trkpt><trkpt lat="43.80605566933587" lon="10.836679093479503"><ele>38.57142857142857</ele><time>2026-04-12T08:04:06.366Z</time></trkpt><trkpt lat="43.806010702825134" lon="10.83660604128576"><ele>38.42857142857143</ele><time>2026-04-12T08:04:10.366Z</time></trkpt><trkpt lat="43.805957872520935" lon="10.83654515600348"><ele>38.28571428571429</ele><time>2026-04-12T08:04:13.365Z</time></trkpt><trkpt lat="43.80592603487402" lon="10.836459982999807"><ele>38.14285714285714</ele><time>2026-04-12T08:04:16.365Z</time></trkpt><trkpt lat="43.80590247072639" lon="10.836376386715228"><ele>38.0</ele><time>2026-04-12T08:04:18.365Z</time></trkpt><trkpt lat="43.80588768071794" lon="10.836261013071892"><ele>38.0</ele><time>2026-04-12T08:04:21.365Z</time></trkpt><trkpt lat="43.805935963425" lon="10.836177197142574"><ele>38.0</ele><time>2026-04-12T08:04:25.365Z</time></trkpt><trkpt lat="43.80594818894646" lon="10.836069668949724"><ele>38.0</ele><time>2026-04-12T08:04:27.365Z</time></trkpt><trkpt lat="43.805954610848836" lon="10.835952352439865"><ele>38.0</ele><time>2026-04-12T08:04:29.365Z</time></trkpt><trkpt lat="43.805975983674" lon="10.835819291555048"><ele>38.0</ele><time>2026-04-12T08:04:31.365Z</time></trkpt><trkpt lat="43.80597732139562" lon="10.835697599702378"><ele>38.0</ele><time>2026-04-12T08:04:33.365Z</time></trkpt><trkpt lat="43.80597874562064" lon="10.835573921259849"><ele>36.8</ele><time>2026-04-12T08:04:35.365Z</time></trkpt><trkpt lat="43.80600631177941" lon="10.835445221728248"><ele>35.599999999999994</ele><time>2026-04-12T08:04:37.365Z</time></trkpt><trkpt lat="43.80603592123113" lon="10.835337786455288"><ele>34.400000000000006</ele><time>2026-04-12T08:04:39.365Z</time></trkpt><trkpt lat="43.80607896415544" lon="10.835200905321313"><ele>33.2</ele><time>2026-04-12T08:04:41.365Z</time></trkpt><trkpt lat="43.80609870862217" lon="10.835068777915279"><ele>32.0</ele><time>2026-04-12T08:04:43.365Z</time></trkpt><trkpt lat="43.80611501503725" lon="10.83494970361969"><ele>31.666666666666664</ele><time>2026-04-12T08:04:45.365Z</time></trkpt><trkpt lat="43.80614488962261" lon="10.834866421163094"><ele>31.333333333333332</ele><time>2026-04-12T08:04:47.365Z</time></trkpt><trkpt lat="43.806201654296046" lon="10.834777284663783"><ele>31.0</ele><time>2026-04-12T08:04:49.365Z</time></trkpt><trkpt lat="43.80626834970233" lon="10.83471983066271"><ele>30.666666666666664</ele><time>2026-04-12T08:04:51.365Z</time></trkpt><trkpt lat="43.80633846764699" lon="10.8346222252837"><ele>30.333333333333332</ele><time>2026-04-12T08:04:53.365Z</time></trkpt><trkpt lat="43.80639297959704" lon="10.834538516584407"><ele>30.0</ele><time>2026-04-12T08:04:55.365Z</time></trkpt><trkpt lat="43.80643034926486" lon="10.834431462132434"><ele>30.0</ele><time>2026-04-12T08:04:57.365Z</time></trkpt><trkpt lat="43.80644745500373" lon="10.834327183121921"><ele>30.0</ele><time>2026-04-12T08:04:59.365Z</time></trkpt><trkpt lat="43.80648918766751" lon="10.834237666513015"><ele>30.0</ele><time>2026-04-12T08:05:01.365Z</time></trkpt><trkpt lat="43.80654154635957" lon="10.8341426148881"><ele>30.0</ele><time>2026-04-12T08:05:03.365Z</time></trkpt><trkpt lat="43.806579178000625" lon="10.834061099531997"><ele>30.0</ele><time>2026-04-12T08:05:05.365Z</time></trkpt><trkpt lat="43.80661537943708" lon="10.833971901346926"><ele>30.0</ele><time>2026-04-12T08:05:07.365Z</time></trkpt><trkpt lat="43.8066664060051" lon="10.83385563365921"><ele>29.833333333333332</ele><time>2026-04-12T08:05:10.365Z</time></trkpt><trkpt lat="43.80671066715303" lon="10.833792362733"><ele>29.666666666666664</ele><time>2026-04-12T08:05:12.365Z</time></trkpt><trkpt lat="43.80680738984237" lon="10.833774932935684"><ele>29.5</ele><time>2026-04-12T08:05:15.365Z</time></trkpt><trkpt lat="43.80689236585333" lon="10.83379702433405"><ele>29.333333333333332</ele><time>2026-04-12T08:05:18.365Z</time></trkpt><trkpt lat="43.80695543101737" lon="10.833816743799698"><ele>29.166666666666664</ele><time>2026-04-12T08:05:20.365Z</time></trkpt><trkpt lat="43.80704521957377" lon="10.833815268819308"><ele>29.0</ele><time>2026-04-12T08:05:23.365Z</time></trkpt><trkpt lat="43.807117449613536" lon="10.8338074030391"><ele>27.499999999999996</ele><time>2026-04-12T08:05:27.365Z</time></trkpt><trkpt lat="43.80718384191702" lon="10.833753673547111"><ele>26.0</ele><time>2026-04-12T08:05:29.365Z</time></trkpt><trkpt lat="43.807228741812025" lon="10.833682242331557"><ele>24.5</ele><time>2026-04-12T08:05:32.365Z</time></trkpt><trkpt lat="43.80723108892619" lon="10.833561868865376"><ele>23.0</ele><time>2026-04-12T08:05:35.365Z</time></trkpt><trkpt lat="43.80723080967722" lon="10.833444290049629"><ele>21.5</ele><time>2026-04-12T08:05:38.365Z</time></trkpt><trkpt lat="43.80725461445792" lon="10.833359752089466"><ele>20.0</ele><time>2026-04-12T08:05:41.365Z</time></trkpt><trkpt lat="43.807317070647755" lon="10.833312936410023"><ele>19.333333333333336</ele><time>2026-04-12T08:05:44.365Z</time></trkpt><trkpt lat="43.807383292880466" lon="10.833298049998673"><ele>18.666666666666668</ele><time>2026-04-12T08:05:46.365Z</time></trkpt><trkpt lat="43.80745489867086" lon="10.833242936288597"><ele>18.0</ele><time>2026-04-12T08:05:49.365Z</time></trkpt><trkpt lat="43.80751071415549" lon="10.833183818794906"><ele>17.333333333333332</ele><time>2026-04-12T08:05:51.365Z</time></trkpt><trkpt lat="43.807582948263786" lon="10.833091702047952"><ele>16.666666666666664</ele><time>2026-04-12T08:05:54.365Z</time></trkpt><trkpt lat="43.80764121461568" lon="10.833037839856638"><ele>16.0</ele><time>2026-04-12T08:05:56.365Z</time></trkpt><trkpt lat="43.80770160378568" lon="10.83298896021186"><ele>15.857142857142856</ele><time>2026-04-12T08:05:58.365Z</time></trkpt><trkpt lat="43.807753564353185" lon="10.832937352111479"><ele>15.714285714285712</ele><time>2026-04-12T08:06:00.365Z</time></trkpt><trkpt lat="43.80775712565472" lon="10.832808509014583"><ele>15.571428571428571</ele><time>2026-04-12T08:06:03.365Z</time></trkpt><trkpt lat="43.80774466842842" lon="10.832722317700467"><ele>15.428571428571427</ele><time>2026-04-12T08:06:05.365Z</time></trkpt><trkpt lat="43.80774185063507" lon="10.832632388419796"><ele>15.285714285714285</ele><time>2026-04-12T08:06:07.365Z</time></trkpt><trkpt lat="43.807772619931754" lon="10.832548339653359"><ele>15.142857142857142</ele><time>2026-04-12T08:06:09.365Z</time></trkpt><trkpt lat="43.80783644606099" lon="10.832485664184874"><ele>15.0</ele><time>2026-04-12T08:06:11.365Z</time></trkpt><trkpt lat="43.80790812428294" lon="10.832449287134436"><ele>14.666666666666666</ele><time>2026-04-12T08:06:13.365Z</time></trkpt><trkpt lat="43.80797971783731" lon="10.832413583299997"><ele>14.333333333333332</ele><time>2026-04-12T08:06:15.365Z</time></trkpt><trkpt lat="43.80805197871285" lon="10.832384994312111"><ele>14.0</ele><time>2026-04-12T08:06:17.364Z</time></trkpt><trkpt lat="43.80812641255586" lon="10.832363023536079"><ele>13.666666666666666</ele><time>2026-04-12T08:06:19.364Z</time></trkpt><trkpt lat="43.808203918318" lon="10.832346272669367"><ele>13.333333333333332</ele><time>2026-04-12T08:06:21.364Z</time></trkpt><trkpt lat="43.80827698240442" lon="10.832333927737217"><ele>13.0</ele><time>2026-04-12T08:06:23.364Z</time></trkpt><trkpt lat="43.8083514649954" lon="10.832323585667629"><ele>12.999999999999998</ele><time>2026-04-12T08:06:25.364Z</time></trkpt><trkpt lat="43.808426125641894" lon="10.83230979736728"><ele>13.0</ele><time>2026-04-12T08:06:27.364Z</time></trkpt><trkpt lat="43.808505428905555" lon="10.8323031318004"><ele>13.0</ele><time>2026-04-12T08:06:29.364Z</time></trkpt><trkpt lat="43.8085751897155" lon="10.832303727303456"><ele>13.0</ele><time>2026-04-12T08:06:31.364Z</time></trkpt><trkpt lat="43.80865223366348" lon="10.832302757446236"><ele>12.999999999999998</ele><time>2026-04-12T08:06:33.364Z</time></trkpt><trkpt lat="43.80873376312326" lon="10.832298940479047"><ele>13.0</ele><time>2026-04-12T08:06:35.364Z</time></trkpt><trkpt lat="43.80881835892936" lon="10.832296689783737"><ele>13.166666666666666</ele><time>2026-04-12T08:06:37.364Z</time></trkpt><trkpt lat="43.80890243578682" lon="10.832294518200962"><ele>13.333333333333332</ele><time>2026-04-12T08:06:39.364Z</time></trkpt><trkpt lat="43.808982069370444" lon="10.832294185477318"><ele>13.5</ele><time>2026-04-12T08:06:41.364Z</time></trkpt><trkpt lat="43.80905503231895" lon="10.832291094060393"><ele>13.666666666666668</ele><time>2026-04-12T08:06:43.364Z</time></trkpt><trkpt lat="43.80912227444222" lon="10.832294243547295"><ele>13.833333333333334</ele><time>2026-04-12T08:06:46.364Z</time></trkpt><trkpt lat="43.809201901091555" lon="10.832308594549373"><ele>14.0</ele><time>2026-04-12T08:06:50.364Z</time></trkpt><trkpt lat="43.80929264542146" lon="10.832330333271987"><ele>14.285714285714285</ele><time>2026-04-12T08:06:53.364Z</time></trkpt><trkpt lat="43.809362782267904" lon="10.832346348830198"><ele>14.571428571428571</ele><time>2026-04-12T08:06:55.364Z</time></trkpt><trkpt lat="43.809428920717295" lon="10.832361865470647"><ele>14.857142857142858</ele><time>2026-04-12T08:06:57.364Z</time></trkpt><trkpt lat="43.8094991112069" lon="10.83237618595093"><ele>15.142857142857142</ele><time>2026-04-12T08:06:59.364Z</time></trkpt><trkpt lat="43.80957468878023" lon="10.832391298310542"><ele>15.428571428571427</ele><time>2026-04-12T08:07:01.364Z</time></trkpt><trkpt lat="43.809651510093445" lon="10.832406745920471"><ele>15.714285714285714</ele><time>2026-04-12T08:07:03.364Z</time></trkpt><trkpt lat="43.809731502615115" lon="10.832426541670939"><ele>16.0</ele><time>2026-04-12T08:07:05.364Z</time></trkpt><trkpt lat="43.80980090313837" lon="10.832443357755489"><ele>16.0</ele><time>2026-04-12T08:07:07.364Z</time></trkpt><trkpt lat="43.809869591554296" lon="10.83245712101148"><ele>15.999999999999998</ele><time>2026-04-12T08:07:09.364Z</time></trkpt><trkpt lat="43.80993529618031" lon="10.832469182694776"><ele>16.0</ele><time>2026-04-12T08:07:11.364Z</time></trkpt><trkpt lat="43.81000306560716" lon="10.832484171621706"><ele>16.0</ele><time>2026-04-12T08:07:13.364Z</time></trkpt><trkpt lat="43.81007416576528" lon="10.832498363292856"><ele>15.999999999999998</ele><time>2026-04-12T08:07:15.364Z</time></trkpt><trkpt lat="43.81014544684631" lon="10.832522566019382"><ele>16.0</ele><time>2026-04-12T08:07:17.364Z</time></trkpt><trkpt lat="43.81021459749556" lon="10.83256383590959"><ele>16.0</ele><time>2026-04-12T08:07:19.364Z</time></trkpt><trkpt lat="43.81027499782165" lon="10.832624057880643"><ele>15.857142857142856</ele><time>2026-04-12T08:07:21.364Z</time></trkpt><trkpt lat="43.81032665612262" lon="10.832692501498846"><ele>15.714285714285712</ele><time>2026-04-12T08:07:23.364Z</time></trkpt><trkpt lat="43.810379381280896" lon="10.832755856817142"><ele>15.571428571428571</ele><time>2026-04-12T08:07:25.364Z</time></trkpt><trkpt lat="43.810428008762216" lon="10.832824065623113"><ele>15.428571428571427</ele><time>2026-04-12T08:07:27.364Z</time></trkpt><trkpt lat="43.810475001766044" lon="10.832892487293714"><ele>15.285714285714285</ele><time>2026-04-12T08:07:29.364Z</time></trkpt><trkpt lat="43.81052555717034" lon="10.832955907701928"><ele>15.142857142857142</ele><time>2026-04-12T08:07:31.364Z</time></trkpt><trkpt lat="43.81057527193415" lon="10.833022784832863"><ele>15.0</ele><time>2026-04-12T08:07:33.364Z</time></trkpt><trkpt lat="43.81063535315822" lon="10.833102893002216"><ele>15.0</ele><time>2026-04-12T08:07:36.364Z</time></trkpt><trkpt lat="43.81069329554127" lon="10.833181507186271"><ele>15.0</ele><time>2026-04-12T08:07:39.364Z</time></trkpt><trkpt lat="43.81075434461437" lon="10.833253734031887"><ele>15.0</ele><time>2026-04-12T08:07:42.364Z</time></trkpt><trkpt lat="43.81081437052921" lon="10.833336838870464"><ele>15.0</ele><time>2026-04-12T08:07:45.364Z</time></trkpt><trkpt lat="43.810872264296016" lon="10.83341223955167"><ele>15.0</ele><time>2026-04-12T08:07:48.364Z</time></trkpt><trkpt lat="43.8109293714452" lon="10.83348715663229"><ele>15.0</ele><time>2026-04-12T08:07:51.364Z</time></trkpt><trkpt lat="43.81097514048829" lon="10.83355023358104"><ele>15.0</ele><time>2026-04-12T08:07:53.364Z</time></trkpt><trkpt lat="43.811023156158356" lon="10.833610873628793"><ele>15.0</ele><time>2026-04-12T08:07:55.364Z</time></trkpt><trkpt lat="43.8110829862373" lon="10.833690799669114"><ele>15.0</ele><time>2026-04-12T08:07:58.364Z</time></trkpt><trkpt lat="43.811149311394" lon="10.833776574613477"><ele>15.0</ele><time>2026-04-12T08:08:01.364Z</time></trkpt><trkpt lat="43.81119893337682" lon="10.833841970997723"><ele>15.0</ele><time>2026-04-12T08:08:28.364Z</time></trkpt><trkpt lat="43.81125585007116" lon="10.833922272353563"><ele>15.0</ele><time>2026-04-12T08:08:31.364Z</time></trkpt><trkpt lat="43.811321920575075" lon="10.834011699752011"><ele>15.0</ele><time>2026-04-12T08:08:34.364Z</time></trkpt><trkpt lat="43.811382881613" lon="10.834059838087374"><ele>15.0</ele><time>2026-04-12T08:08:37.364Z</time></trkpt><trkpt lat="43.81143291370137" lon="10.833960939207106"><ele>15.0</ele><time>2026-04-12T08:08:41.364Z</time></trkpt><trkpt lat="43.811472153050396" lon="10.833855166865046"><ele>15.0</ele><time>2026-04-12T08:08:44.364Z</time></trkpt><trkpt lat="43.81150525753804" lon="10.833776728780476"><ele>15.0</ele><time>2026-04-12T08:08:47.364Z</time></trkpt><trkpt lat="43.81154286250739" lon="10.833685409099367"><ele>15.0</ele><time>2026-04-12T08:08:50.364Z</time></trkpt><trkpt lat="43.81158611588479" lon="10.833584276993504"><ele>14.833333333333334</ele><time>2026-04-12T08:08:53.364Z</time></trkpt><trkpt lat="43.811634146842955" lon="10.833471681146388"><ele>14.666666666666668</ele><time>2026-04-12T08:08:56.364Z</time></trkpt><trkpt lat="43.81166855455719" lon="10.833391098531743"><ele>14.5</ele><time>2026-04-12T08:08:58.364Z</time></trkpt><trkpt lat="43.811705059817704" lon="10.833307348546052"><ele>14.333333333333334</ele><time>2026-04-12T08:09:00.364Z</time></trkpt><trkpt lat="43.81173851941852" lon="10.833220648040848"><ele>14.166666666666668</ele><time>2026-04-12T08:09:02.364Z</time></trkpt><trkpt lat="43.81177379192687" lon="10.833134715953742"><ele>14.0</ele><time>2026-04-12T08:09:04.364Z</time></trkpt><trkpt lat="43.81181113089227" lon="10.833043617206837"><ele>14.428571428571429</ele><time>2026-04-12T08:09:06.364Z</time></trkpt><trkpt lat="43.81184248424523" lon="10.83296089807114"><ele>14.857142857142858</ele><time>2026-04-12T08:09:08.364Z</time></trkpt><trkpt lat="43.81187008468922" lon="10.832866250528399"><ele>15.285714285714285</ele><time>2026-04-12T08:09:10.364Z</time></trkpt><trkpt lat="43.81190088576552" lon="10.832780225476712"><ele>15.714285714285714</ele><time>2026-04-12T08:09:12.364Z</time></trkpt><trkpt lat="43.81193104340328" lon="10.832694818360102"><ele>16.142857142857142</ele><time>2026-04-12T08:09:14.364Z</time></trkpt><trkpt lat="43.811963424519135" lon="10.832615050066885"><ele>16.57142857142857</ele><time>2026-04-12T08:09:16.364Z</time></trkpt><trkpt lat="43.812031910232825" lon="10.832516416391625"><ele>17.0</ele><time>2026-04-12T08:09:19.364Z</time></trkpt><trkpt lat="43.812127908897686" lon="10.832517398815149"><ele>17.0</ele><time>2026-04-12T08:09:22.364Z</time></trkpt><trkpt lat="43.81219030527143" lon="10.832583673669776"><ele>17.0</ele><time>2026-04-12T08:09:24.364Z</time></trkpt><trkpt lat="43.81225018962568" lon="10.832640312886667"><ele>17.0</ele><time>2026-04-12T08:09:26.364Z</time></trkpt><trkpt lat="43.81231610562303" lon="10.83268047980011"><ele>17.0</ele><time>2026-04-12T08:09:28.364Z</time></trkpt><trkpt lat="43.81238325484342" lon="10.83273660133448"><ele>17.0</ele><time>2026-04-12T08:09:30.364Z</time></trkpt><trkpt lat="43.812452918673834" lon="10.832785632232474"><ele>17.0</ele><time>2026-04-12T08:09:32.364Z</time></trkpt><trkpt lat="43.81252061024073" lon="10.832839295726387"><ele>16.999999999999996</ele><time>2026-04-12T08:09:34.364Z</time></trkpt><trkpt lat="43.8125839247313" lon="10.832888362848065"><ele>17.0</ele><time>2026-04-12T08:09:36.364Z</time></trkpt><trkpt lat="43.81264709196492" lon="10.832936602668726"><ele>17.0</ele><time>2026-04-12T08:09:38.364Z</time></trkpt><trkpt lat="43.81271368480922" lon="10.832988859850346"><ele>17.0</ele><time>2026-04-12T08:09:40.364Z</time></trkpt><trkpt lat="43.81277101852159" lon="10.833038018637756"><ele>17.0</ele><time>2026-04-12T08:09:42.364Z</time></trkpt><trkpt lat="43.812832634420104" lon="10.833085094675726"><ele>16.999999999999996</ele><time>2026-04-12T08:09:44.364Z</time></trkpt><trkpt lat="43.81289653702915" lon="10.833133204400335"><ele>17.0</ele><time>2026-04-12T08:09:46.364Z</time></trkpt><trkpt lat="43.812954589877506" lon="10.83317995032538"><ele>17.428571428571427</ele><time>2026-04-12T08:09:48.364Z</time></trkpt><trkpt lat="43.813013262625766" lon="10.833224688120346"><ele>17.857142857142858</ele><time>2026-04-12T08:09:50.364Z</time></trkpt><trkpt lat="43.81306998181569" lon="10.833272588322515"><ele>18.285714285714285</ele><time>2026-04-12T08:09:52.364Z</time></trkpt><trkpt lat="43.8131272283896" lon="10.833312425701054"><ele>18.714285714285715</ele><time>2026-04-12T08:09:54.364Z</time></trkpt><trkpt lat="43.81318688421929" lon="10.833361203115066"><ele>19.142857142857142</ele><time>2026-04-12T08:09:56.364Z</time></trkpt><trkpt lat="43.81324689175901" lon="10.83340901281075"><ele>19.57142857142857</ele><time>2026-04-12T08:09:58.364Z</time></trkpt><trkpt lat="43.81330573582459" lon="10.83345388939491"><ele>20.0</ele><time>2026-04-12T08:10:00.364Z</time></trkpt><trkpt lat="43.81336936081217" lon="10.833499345563101"><ele>20.0</ele><time>2026-04-12T08:10:02.364Z</time></trkpt><trkpt lat="43.8134293451617" lon="10.833550842140198"><ele>20.0</ele><time>2026-04-12T08:10:04.364Z</time></trkpt><trkpt lat="43.813492096756335" lon="10.833602526620368"><ele>20.0</ele><time>2026-04-12T08:10:06.364Z</time></trkpt><trkpt lat="43.81355245047436" lon="10.833655292115896"><ele>20.0</ele><time>2026-04-12T08:10:08.364Z</time></trkpt><trkpt lat="43.81361682745839" lon="10.833705148591877"><ele>20.0</ele><time>2026-04-12T08:10:10.364Z</time></trkpt><trkpt lat="43.81368356097146" lon="10.833756677822345"><ele>20.0</ele><time>2026-04-12T08:10:12.364Z</time></trkpt><trkpt lat="43.81374445720575" lon="10.833804823640012"><ele>20.0</ele><time>2026-04-12T08:10:14.364Z</time></trkpt><trkpt lat="43.81381333864078" lon="10.833855585903978"><ele>20.857142857142858</ele><time>2026-04-12T08:10:16.364Z</time></trkpt><trkpt lat="43.81387389594768" lon="10.83390334420506"><ele>21.714285714285715</ele><time>2026-04-12T08:10:18.364Z</time></trkpt><trkpt lat="43.81393339580401" lon="10.833951494441587"><ele>22.57142857142857</ele><time>2026-04-12T08:10:20.364Z</time></trkpt><trkpt lat="43.813991857472786" lon="10.83399902208762"><ele>23.42857142857143</ele><time>2026-04-12T08:10:22.364Z</time></trkpt><trkpt lat="43.81404944149048" lon="10.834040362523025"><ele>24.28571428571429</ele><time>2026-04-12T08:10:24.364Z</time></trkpt><trkpt lat="43.81410619852196" lon="10.834088875719111"><ele>25.142857142857142</ele><time>2026-04-12T08:10:26.364Z</time></trkpt><trkpt lat="43.81416436305252" lon="10.834137610683232"><ele>26.0</ele><time>2026-04-12T08:10:28.363Z</time></trkpt><trkpt lat="43.814243750218715" lon="10.834204902147874"><ele>25.999999999999996</ele><time>2026-04-12T08:10:31.363Z</time></trkpt><trkpt lat="43.8143056147466" lon="10.834255879421725"><ele>26.0</ele><time>2026-04-12T08:10:34.363Z</time></trkpt><trkpt lat="43.81437404736729" lon="10.834268261159313"><ele>26.0</ele><time>2026-04-12T08:10:46.363Z</time></trkpt><trkpt lat="43.81444389913962" lon="10.834333051705935"><ele>26.0</ele><time>2026-04-12T08:10:49.363Z</time></trkpt><trkpt lat="43.81450942088034" lon="10.834388947939503"><ele>25.999999999999996</ele><time>2026-04-12T08:10:51.363Z</time></trkpt><trkpt lat="43.81457556868278" lon="10.834442266686436"><ele>26.0</ele><time>2026-04-12T08:10:53.363Z</time></trkpt><trkpt lat="43.81464748841383" lon="10.834502138577985"><ele>25.4</ele><time>2026-04-12T08:10:55.363Z</time></trkpt><trkpt lat="43.81471432971038" lon="10.834562061978641"><ele>24.8</ele><time>2026-04-12T08:10:57.363Z</time></trkpt><trkpt lat="43.81479642099115" lon="10.834607334454772"><ele>24.2</ele><time>2026-04-12T08:10:59.363Z</time></trkpt><trkpt lat="43.81487814029111" lon="10.834679426625446"><ele>23.599999999999998</ele><time>2026-04-12T08:11:01.363Z</time></trkpt><trkpt lat="43.814954873860245" lon="10.834745978809927"><ele>23.0</ele><time>2026-04-12T08:11:03.363Z</time></trkpt><trkpt lat="43.81503922871106" lon="10.834811746270791"><ele>23.0</ele><time>2026-04-12T08:11:05.363Z</time></trkpt><trkpt lat="43.8151206809614" lon="10.834871698722813"><ele>23.0</ele><time>2026-04-12T08:11:07.363Z</time></trkpt><trkpt lat="43.81520452791671" lon="10.834927553184835"><ele>23.0</ele><time>2026-04-12T08:11:09.363Z</time></trkpt><trkpt lat="43.81528667576028" lon="10.834989213838835"><ele>23.0</ele><time>2026-04-12T08:11:11.363Z</time></trkpt><trkpt lat="43.81535448387845" lon="10.835046316322979"><ele>23.0</ele><time>2026-04-12T08:11:13.363Z</time></trkpt><trkpt lat="43.815431747089065" lon="10.83509802526237"><ele>23.0</ele><time>2026-04-12T08:11:15.363Z</time></trkpt><trkpt lat="43.81550119913831" lon="10.835156225348847"><ele>22.833333333333336</ele><time>2026-04-12T08:11:17.363Z</time></trkpt><trkpt lat="43.81557698820954" lon="10.835223322628506"><ele>22.666666666666668</ele><time>2026-04-12T08:11:19.363Z</time></trkpt><trkpt lat="43.81565148637505" lon="10.835275671545297"><ele>22.5</ele><time>2026-04-12T08:11:21.363Z</time></trkpt><trkpt lat="43.81573004876661" lon="10.835335824957276"><ele>22.333333333333332</ele><time>2026-04-12T08:11:23.363Z</time></trkpt><trkpt lat="43.81579876561454" lon="10.835404070822419"><ele>22.166666666666664</ele><time>2026-04-12T08:11:25.363Z</time></trkpt><trkpt lat="43.815885212466995" lon="10.83547018095575"><ele>22.0</ele><time>2026-04-12T08:11:27.363Z</time></trkpt><trkpt lat="43.815963259916614" lon="10.835521523708035"><ele>22.0</ele><time>2026-04-12T08:11:29.363Z</time></trkpt><trkpt lat="43.81604007708482" lon="10.835592392477762"><ele>22.0</ele><time>2026-04-12T08:11:31.363Z</time></trkpt><trkpt lat="43.816119547554386" lon="10.835652627739334"><ele>22.0</ele><time>2026-04-12T08:11:33.363Z</time></trkpt><trkpt lat="43.816212001052286" lon="10.835722080958968"><ele>22.0</ele><time>2026-04-12T08:11:35.363Z</time></trkpt><trkpt lat="43.81628605668499" lon="10.83578194487903"><ele>22.0</ele><time>2026-04-12T08:11:37.363Z</time></trkpt><trkpt lat="43.816373260481114" lon="10.835859912441785"><ele>22.0</ele><time>2026-04-12T08:11:39.363Z</time></trkpt><trkpt lat="43.816481991549125" lon="10.835931926898981"><ele>22.0</ele><time>2026-04-12T08:11:41.363Z</time></trkpt><trkpt lat="43.81658236681018" lon="10.836022302449642"><ele>22.0</ele><time>2026-04-12T08:11:43.363Z</time></trkpt><trkpt lat="43.8166438319843" lon="10.83606372848907"><ele>22.0</ele><time>2026-04-12T08:11:44.363Z</time></trkpt><trkpt lat="43.81673979203097" lon="10.836128459438477"><ele>22.0</ele><time>2026-04-12T08:11:46.363Z</time></trkpt><trkpt lat="43.81681527836124" lon="10.836189083909995"><ele>21.0</ele><time>2026-04-12T08:11:47.363Z</time></trkpt><trkpt lat="43.81690451094695" lon="10.83626395983985"><ele>20.0</ele><time>2026-04-12T08:11:48.363Z</time></trkpt><trkpt lat="43.817003858512386" lon="10.83635088848677"><ele>19.0</ele><time>2026-04-12T08:11:49.363Z</time></trkpt><trkpt lat="43.817069317983055" lon="10.836380208214333"><ele>18.0</ele><time>2026-04-12T08:11:52.363Z</time></trkpt><trkpt lat="43.81714656200665" lon="10.836458613788054"><ele>17.0</ele><time>2026-04-12T08:11:54.363Z</time></trkpt><trkpt lat="43.81721785565688" lon="10.836494572547164"><ele>17.0</ele><time>2026-04-12T08:11:56.363Z</time></trkpt><trkpt lat="43.81729540959238" lon="10.836542626798478"><ele>17.0</ele><time>2026-04-12T08:11:59.363Z</time></trkpt><trkpt lat="43.81735681680844" lon="10.836508945953335"><ele>17.0</ele><time>2026-04-12T08:12:03.363Z</time></trkpt><trkpt lat="43.81742914197498" lon="10.836422621893973"><ele>17.0</ele><time>2026-04-12T08:12:06.363Z</time></trkpt><trkpt lat="43.817497540873774" lon="10.836345315209046"><ele>17.0</ele><time>2026-04-12T08:12:08.363Z</time></trkpt><trkpt lat="43.81758032835871" lon="10.836274160570738"><ele>17.0</ele><time>2026-04-12T08:12:10.363Z</time></trkpt><trkpt lat="43.817661923393416" lon="10.836189244357262"><ele>17.2</ele><time>2026-04-12T08:12:12.363Z</time></trkpt><trkpt lat="43.8177365793887" lon="10.836112407512246"><ele>17.4</ele><time>2026-04-12T08:12:14.363Z</time></trkpt><trkpt lat="43.81780571379834" lon="10.836024918210027"><ele>17.6</ele><time>2026-04-12T08:12:16.363Z</time></trkpt><trkpt lat="43.81787938282599" lon="10.835952070288657"><ele>17.8</ele><time>2026-04-12T08:12:18.363Z</time></trkpt><trkpt lat="43.81795139627169" lon="10.835863355404607"><ele>18.0</ele><time>2026-04-12T08:12:20.363Z</time></trkpt><trkpt lat="43.81803756294074" lon="10.835802631338193"><ele>17.6</ele><time>2026-04-12T08:12:22.363Z</time></trkpt><trkpt lat="43.81811730710691" lon="10.835721460965493"><ele>17.200000000000003</ele><time>2026-04-12T08:12:24.363Z</time></trkpt><trkpt lat="43.81818010593995" lon="10.83563073385955"><ele>16.8</ele><time>2026-04-12T08:12:26.363Z</time></trkpt><trkpt lat="43.81826639814267" lon="10.835572270343057"><ele>16.400000000000002</ele><time>2026-04-12T08:12:28.363Z</time></trkpt><trkpt lat="43.818342678809" lon="10.835495938703755"><ele>16.0</ele><time>2026-04-12T08:12:30.363Z</time></trkpt><trkpt lat="43.818416838627385" lon="10.835421729353744"><ele>16.0</ele><time>2026-04-12T08:12:32.363Z</time></trkpt><trkpt lat="43.818493827810194" lon="10.83534468866729"><ele>16.0</ele><time>2026-04-12T08:12:34.362Z</time></trkpt><trkpt lat="43.818570069790404" lon="10.83526773622154"><ele>16.0</ele><time>2026-04-12T08:12:36.362Z</time></trkpt><trkpt lat="43.81864407312624" lon="10.835192303522557"><ele>16.0</ele><time>2026-04-12T08:12:38.362Z</time></trkpt><trkpt lat="43.81872210315129" lon="10.835113427485235"><ele>16.0</ele><time>2026-04-12T08:12:40.362Z</time></trkpt><trkpt lat="43.81878982281581" lon="10.835043503414939"><ele>16.166666666666664</ele><time>2026-04-12T08:12:42.362Z</time></trkpt><trkpt lat="43.81885202655034" lon="10.83495708901415"><ele>16.333333333333332</ele><time>2026-04-12T08:12:44.362Z</time></trkpt><trkpt lat="43.818928374341695" lon="10.834886129090238"><ele>16.5</ele><time>2026-04-12T08:12:46.362Z</time></trkpt><trkpt lat="43.81900054472834" lon="10.83481808699626"><ele>16.666666666666668</ele><time>2026-04-12T08:12:48.362Z</time></trkpt><trkpt lat="43.819070802239644" lon="10.83474394547099"><ele>16.833333333333336</ele><time>2026-04-12T08:12:50.362Z</time></trkpt><trkpt lat="43.81914215408247" lon="10.834672157073175"><ele>17.0</ele><time>2026-04-12T08:12:52.362Z</time></trkpt><trkpt lat="43.819219500866616" lon="10.834599838183074"><ele>17.0</ele><time>2026-04-12T08:12:54.362Z</time></trkpt><trkpt lat="43.81928606252424" lon="10.834503491411162"><ele>17.0</ele><time>2026-04-12T08:12:56.362Z</time></trkpt><trkpt lat="43.81936981191095" lon="10.83444701261127"><ele>17.0</ele><time>2026-04-12T08:12:58.362Z</time></trkpt><trkpt lat="43.81944392908653" lon="10.834372653009094"><ele>17.0</ele><time>2026-04-12T08:13:00.362Z</time></trkpt><trkpt lat="43.81951391635313" lon="10.834302436847121"><ele>17.0</ele><time>2026-04-12T08:13:02.362Z</time></trkpt><trkpt lat="43.81957896079781" lon="10.834237179299485"><ele>17.0</ele><time>2026-04-12T08:13:04.362Z</time></trkpt><trkpt lat="43.819641046263484" lon="10.834174890706308"><ele>17.666666666666668</ele><time>2026-04-12T08:13:06.362Z</time></trkpt><trkpt lat="43.819694544699274" lon="10.834121217199582"><ele>18.333333333333336</ele><time>2026-04-12T08:13:08.362Z</time></trkpt><trkpt lat="43.81977057482745" lon="10.834041826006153"><ele>19.0</ele><time>2026-04-12T08:13:11.362Z</time></trkpt><trkpt lat="43.81982556176402" lon="10.833981880467078"><ele>19.666666666666668</ele><time>2026-04-12T08:13:13.362Z</time></trkpt><trkpt lat="43.819877252025606" lon="10.833921405717449"><ele>20.333333333333332</ele><time>2026-04-12T08:13:16.362Z</time></trkpt><trkpt lat="43.819937250599175" lon="10.833850801794158"><ele>21.0</ele><time>2026-04-12T08:13:21.362Z</time></trkpt><trkpt lat="43.819998113526154" lon="10.833795590994391"><ele>21.0</ele><time>2026-04-12T08:13:24.362Z</time></trkpt><trkpt lat="43.820064262775546" lon="10.833733024876512"><ele>21.0</ele><time>2026-04-12T08:13:27.362Z</time></trkpt><trkpt lat="43.82014452773033" lon="10.833652723887576"><ele>21.0</ele><time>2026-04-12T08:13:30.362Z</time></trkpt><trkpt lat="43.82020362418495" lon="10.833590032630534"><ele>21.0</ele><time>2026-04-12T08:13:32.362Z</time></trkpt><trkpt lat="43.820268752155116" lon="10.833523706194214"><ele>21.0</ele><time>2026-04-12T08:13:34.362Z</time></trkpt><trkpt lat="43.820339818062024" lon="10.8334481229379"><ele>21.0</ele><time>2026-04-12T08:13:36.362Z</time></trkpt><trkpt lat="43.82040961196312" lon="10.833375980997697"><ele>20.833333333333332</ele><time>2026-04-12T08:13:38.362Z</time></trkpt><trkpt lat="43.82048890151612" lon="10.833314575632382"><ele>20.666666666666668</ele><time>2026-04-12T08:13:40.362Z</time></trkpt><trkpt lat="43.82055222145985" lon="10.833226319325496"><ele>20.5</ele><time>2026-04-12T08:13:42.362Z</time></trkpt><trkpt lat="43.820625681687766" lon="10.83315328255364"><ele>20.333333333333336</ele><time>2026-04-12T08:13:44.362Z</time></trkpt><trkpt lat="43.820698049963255" lon="10.833079058471291"><ele>20.166666666666668</ele><time>2026-04-12T08:13:46.362Z</time></trkpt><trkpt lat="43.82076825198103" lon="10.83301181721812"><ele>20.0</ele><time>2026-04-12T08:13:48.362Z</time></trkpt><trkpt lat="43.82083959007705" lon="10.832935303386426"><ele>20.0</ele><time>2026-04-12T08:13:50.362Z</time></trkpt><trkpt lat="43.82090872529838" lon="10.832869627382438"><ele>20.0</ele><time>2026-04-12T08:13:52.362Z</time></trkpt><trkpt lat="43.820977178233555" lon="10.832804128169824"><ele>20.0</ele><time>2026-04-12T08:13:54.362Z</time></trkpt><trkpt lat="43.82104505713687" lon="10.832739096477487"><ele>20.0</ele><time>2026-04-12T08:13:56.362Z</time></trkpt><trkpt lat="43.82110778753923" lon="10.832668254239643"><ele>20.0</ele><time>2026-04-12T08:13:58.362Z</time></trkpt><trkpt lat="43.82117512533361" lon="10.832598989679303"><ele>20.0</ele><time>2026-04-12T08:14:00.362Z</time></trkpt><trkpt lat="43.82124540026927" lon="10.832524313638812"><ele>20.0</ele><time>2026-04-12T08:14:02.362Z</time></trkpt><trkpt lat="43.8213256852133" lon="10.832452072260311"><ele>20.0</ele><time>2026-04-12T08:14:04.362Z</time></trkpt><trkpt lat="43.821398803188565" lon="10.832368695073255"><ele>20.0</ele><time>2026-04-12T08:14:06.362Z</time></trkpt><trkpt lat="43.821475861198884" lon="10.832290329298855"><ele>20.0</ele><time>2026-04-12T08:14:08.362Z</time></trkpt><trkpt lat="43.82154232548228" lon="10.832221020673593"><ele>20.0</ele><time>2026-04-12T08:14:10.362Z</time></trkpt><trkpt lat="43.82150237844114" lon="10.832042209824063"><ele>20.0</ele><time>2026-04-12T08:14:14.362Z</time></trkpt><trkpt lat="43.82144753805522" lon="10.831945305926029"><ele>20.0</ele><time>2026-04-12T08:14:16.362Z</time></trkpt><trkpt lat="43.82138013541824" lon="10.8318609178193"><ele>20.0</ele><time>2026-04-12T08:14:18.362Z</time></trkpt><trkpt lat="43.82131221839732" lon="10.831775885727227"><ele>20.0</ele><time>2026-04-12T08:14:20.363Z</time></trkpt><trkpt lat="43.821241466913925" lon="10.831688898124304"><ele>20.0</ele><time>2026-04-12T08:14:22.363Z</time></trkpt><trkpt lat="43.82116898818125" lon="10.831600200494792"><ele>20.2</ele><time>2026-04-12T08:14:24.363Z</time></trkpt><trkpt lat="43.82109994945953" lon="10.831515712691608"><ele>20.4</ele><time>2026-04-12T08:14:26.363Z</time></trkpt><trkpt lat="43.821028897285494" lon="10.831428760894433"><ele>20.6</ele><time>2026-04-12T08:14:28.363Z</time></trkpt><trkpt lat="43.82095912104449" lon="10.831344434937053"><ele>20.8</ele><time>2026-04-12T08:14:30.363Z</time></trkpt><trkpt lat="43.820884141533554" lon="10.831257557270558"><ele>21.0</ele><time>2026-04-12T08:14:32.363Z</time></trkpt><trkpt lat="43.82081502928831" lon="10.831173429529265"><ele>21.166666666666668</ele><time>2026-04-12T08:14:34.363Z</time></trkpt><trkpt lat="43.820770394276636" lon="10.831080061811814"><ele>21.333333333333332</ele><time>2026-04-12T08:14:36.363Z</time></trkpt><trkpt lat="43.82080540294952" lon="10.830996120395335"><ele>21.5</ele><time>2026-04-12T08:14:38.363Z</time></trkpt><trkpt lat="43.82086932406134" lon="10.83093147280041"><ele>21.666666666666664</ele><time>2026-04-12T08:14:40.362Z</time></trkpt><trkpt lat="43.820936394435755" lon="10.830845107989715"><ele>21.833333333333332</ele><time>2026-04-12T08:14:42.362Z</time></trkpt><trkpt lat="43.82101082560252" lon="10.83076633385917"><ele>22.0</ele><time>2026-04-12T08:14:44.362Z</time></trkpt><trkpt lat="43.82109738205601" lon="10.830704855415151"><ele>22.0</ele><time>2026-04-12T08:14:46.362Z</time></trkpt><trkpt lat="43.82116319507765" lon="10.830613584774381"><ele>22.0</ele><time>2026-04-12T08:14:48.362Z</time></trkpt><trkpt lat="43.82123471862996" lon="10.830535887949555"><ele>22.0</ele><time>2026-04-12T08:14:50.362Z</time></trkpt><trkpt lat="43.82130309156031" lon="10.830465835369354"><ele>22.0</ele><time>2026-04-12T08:14:52.362Z</time></trkpt><trkpt lat="43.821365685616556" lon="10.830400531285083"><ele>22.0</ele><time>2026-04-12T08:14:54.362Z</time></trkpt><trkpt lat="43.821432393885175" lon="10.830333532678763"><ele>22.0</ele><time>2026-04-12T08:14:56.362Z</time></trkpt><trkpt lat="43.82149947215443" lon="10.830265047113526"><ele>22.0</ele><time>2026-04-12T08:14:58.362Z</time></trkpt><trkpt lat="43.82156252198465" lon="10.830195836709278"><ele>22.0</ele><time>2026-04-12T08:15:00.362Z</time></trkpt><trkpt lat="43.821625736815854" lon="10.830129704791686"><ele>22.0</ele><time>2026-04-12T08:15:02.362Z</time></trkpt><trkpt lat="43.8216863878945" lon="10.830071156447028"><ele>22.0</ele><time>2026-04-12T08:15:04.362Z</time></trkpt><trkpt lat="43.82173721006761" lon="10.830014143272377"><ele>22.0</ele><time>2026-04-12T08:15:06.362Z</time></trkpt><trkpt lat="43.821805404754265" lon="10.82996704951263"><ele>22.0</ele><time>2026-04-12T08:15:09.362Z</time></trkpt><trkpt lat="43.821788114727035" lon="10.829792284384476"><ele>22.0</ele><time>2026-04-12T08:15:13.362Z</time></trkpt><trkpt lat="43.821880869253704" lon="10.82972080327785"><ele>22.0</ele><time>2026-04-12T08:15:18.362Z</time></trkpt><trkpt lat="43.82194563629674" lon="10.82963201555676"><ele>22.0</ele><time>2026-04-12T08:15:21.362Z</time></trkpt><trkpt lat="43.82199463853835" lon="10.82956518344433"><ele>22.0</ele><time>2026-04-12T08:15:23.362Z</time></trkpt><trkpt lat="43.822044541304464" lon="10.82949764678634"><ele>22.0</ele><time>2026-04-12T08:15:25.362Z</time></trkpt><trkpt lat="43.822100633900575" lon="10.829426337713725"><ele>22.0</ele><time>2026-04-12T08:15:27.362Z</time></trkpt><trkpt lat="43.82215473261985" lon="10.82935952425395"><ele>22.0</ele><time>2026-04-12T08:15:29.362Z</time></trkpt><trkpt lat="43.82221154658375" lon="10.829291440617917"><ele>22.0</ele><time>2026-04-12T08:15:31.362Z</time></trkpt><trkpt lat="43.822265236183874" lon="10.829227101178281"><ele>22.0</ele><time>2026-04-12T08:15:34.362Z</time></trkpt><trkpt lat="43.82231379727582" lon="10.829385869155868"><ele>22.0</ele><time>2026-04-12T08:15:39.362Z</time></trkpt><trkpt lat="43.8223490176804" lon="10.829463156634953"><ele>22.0</ele><time>2026-04-12T08:15:41.362Z</time></trkpt><trkpt lat="43.82239056024124" lon="10.82955431785704"><ele>22.0</ele><time>2026-04-12T08:15:43.362Z</time></trkpt><trkpt lat="43.82243509581534" lon="10.829652046954662"><ele>22.0</ele><time>2026-04-12T08:15:45.362Z</time></trkpt><trkpt lat="43.82248959878732" lon="10.829778462173683"><ele>22.0</ele><time>2026-04-12T08:15:47.362Z</time></trkpt><trkpt lat="43.82254226203887" lon="10.829903147731068"><ele>22.0</ele><time>2026-04-12T08:15:49.362Z</time></trkpt><trkpt lat="43.8225911496778" lon="10.830018894315133"><ele>22.0</ele><time>2026-04-12T08:15:51.362Z</time></trkpt><trkpt lat="43.82262737887989" lon="10.830104670615409"><ele>22.0</ele><time>2026-04-12T08:15:53.362Z</time></trkpt><trkpt lat="43.822680037944984" lon="10.830224272452176"><ele>21.5</ele><time>2026-04-12T08:15:55.362Z</time></trkpt><trkpt lat="43.822726694435865" lon="10.830325027305042"><ele>21.0</ele><time>2026-04-12T08:15:57.362Z</time></trkpt><trkpt lat="43.82278324582541" lon="10.830425184589494"><ele>20.5</ele><time>2026-04-12T08:15:59.362Z</time></trkpt><trkpt lat="43.82284997011619" lon="10.830509987625529"><ele>20.0</ele><time>2026-04-12T08:16:01.362Z</time></trkpt><trkpt lat="43.82294677667561" lon="10.83052651614947"><ele>19.5</ele><time>2026-04-12T08:16:03.362Z</time></trkpt><trkpt lat="43.82298913372769" lon="10.830623263547945"><ele>19.0</ele><time>2026-04-12T08:16:05.362Z</time></trkpt><trkpt lat="43.82303658291542" lon="10.83073864424036"><ele>19.0</ele><time>2026-04-12T08:16:07.362Z</time></trkpt><trkpt lat="43.82308030611857" lon="10.830810021427885"><ele>19.0</ele><time>2026-04-12T08:16:09.362Z</time></trkpt><trkpt lat="43.82315780398631" lon="10.83069940390972"><ele>19.0</ele><time>2026-04-12T08:16:13.362Z</time></trkpt><trkpt lat="43.82324022299446" lon="10.830621981128537"><ele>19.0</ele><time>2026-04-12T08:16:15.362Z</time></trkpt><trkpt lat="43.82333180092107" lon="10.830523711522094"><ele>19.0</ele><time>2026-04-12T08:16:17.362Z</time></trkpt><trkpt lat="43.823432453536974" lon="10.830443076389983"><ele>18.25</ele><time>2026-04-12T08:16:19.362Z</time></trkpt><trkpt lat="43.82354004550238" lon="10.830371922245888"><ele>17.5</ele><time>2026-04-12T08:16:21.362Z</time></trkpt><trkpt lat="43.823646980550556" lon="10.830309553260937"><ele>16.75</ele><time>2026-04-12T08:16:23.362Z</time></trkpt><trkpt lat="43.82374287811879" lon="10.830218945387367"><ele>16.0</ele><time>2026-04-12T08:16:25.362Z</time></trkpt><trkpt lat="43.82384435011947" lon="10.830140150139195"><ele>16.0</ele><time>2026-04-12T08:16:27.362Z</time></trkpt><trkpt lat="43.823944242396514" lon="10.830069320567148"><ele>16.0</ele><time>2026-04-12T08:16:29.362Z</time></trkpt><trkpt lat="43.824041914030275" lon="10.830000214270157"><ele>16.0</ele><time>2026-04-12T08:16:31.362Z</time></trkpt><trkpt lat="43.82414206056942" lon="10.82994076076028"><ele>16.0</ele><time>2026-04-12T08:16:33.362Z</time></trkpt><trkpt lat="43.82424373425628" lon="10.829864833314227"><ele>16.0</ele><time>2026-04-12T08:16:35.362Z</time></trkpt><trkpt lat="43.82434601094842" lon="10.829788455585714"><ele>16.400000000000002</ele><time>2026-04-12T08:16:37.362Z</time></trkpt><trkpt lat="43.82444164032653" lon="10.829717030067634"><ele>16.8</ele><time>2026-04-12T08:16:39.362Z</time></trkpt><trkpt lat="43.82453999700371" lon="10.829642234382124"><ele>17.200000000000003</ele><time>2026-04-12T08:16:41.362Z</time></trkpt><trkpt lat="43.824632731479824" lon="10.829571714157968"><ele>17.6</ele><time>2026-04-12T08:16:43.362Z</time></trkpt><trkpt lat="43.82472687354824" lon="10.829500123428943"><ele>18.0</ele><time>2026-04-12T08:16:45.362Z</time></trkpt><trkpt lat="43.82481716778094" lon="10.82943145884023"><ele>18.0</ele><time>2026-04-12T08:16:47.361Z</time></trkpt><trkpt lat="43.82490451361971" lon="10.829365036447529"><ele>18.0</ele><time>2026-04-12T08:16:49.361Z</time></trkpt><trkpt lat="43.824986585451555" lon="10.829302624605297"><ele>18.0</ele><time>2026-04-12T08:16:51.361Z</time></trkpt><trkpt lat="43.82505922134075" lon="10.829247388393185"><ele>18.0</ele><time>2026-04-12T08:16:53.361Z</time></trkpt><trkpt lat="43.825136336897906" lon="10.829188745605139"><ele>18.0</ele><time>2026-04-12T08:16:56.361Z</time></trkpt><trkpt lat="43.82522097297264" lon="10.829112182636608"><ele>17.4</ele><time>2026-04-12T08:17:00.361Z</time></trkpt><trkpt lat="43.82530917267681" lon="10.829042516250908"><ele>16.8</ele><time>2026-04-12T08:17:02.361Z</time></trkpt><trkpt lat="43.8254027320917" lon="10.828968800286791"><ele>16.2</ele><time>2026-04-12T08:17:04.361Z</time></trkpt><trkpt lat="43.825503917341166" lon="10.828891976411624"><ele>15.6</ele><time>2026-04-12T08:17:06.361Z</time></trkpt><trkpt lat="43.825602651960374" lon="10.828810902817358"><ele>15.0</ele><time>2026-04-12T08:17:08.361Z</time></trkpt><trkpt lat="43.82571209073632" lon="10.828731463284905"><ele>15.0</ele><time>2026-04-12T08:17:10.361Z</time></trkpt><trkpt lat="43.825821935375046" lon="10.828649988919995"><ele>15.0</ele><time>2026-04-12T08:17:12.361Z</time></trkpt><trkpt lat="43.825936790367706" lon="10.828582980066807"><ele>15.0</ele><time>2026-04-12T08:17:14.361Z</time></trkpt><trkpt lat="43.82598339544413" lon="10.828524054727266"><ele>15.0</ele><time>2026-04-12T08:17:15.361Z</time></trkpt><trkpt lat="43.82610085063375" lon="10.82845926120428"><ele>15.0</ele><time>2026-04-12T08:17:17.361Z</time></trkpt><trkpt lat="43.826205266980445" lon="10.828380520117841"><ele>15.0</ele><time>2026-04-12T08:17:19.361Z</time></trkpt><trkpt lat="43.82630482616999" lon="10.828287932118842"><ele>15.0</ele><time>2026-04-12T08:17:21.361Z</time></trkpt><trkpt lat="43.82641212064477" lon="10.828209467315656"><ele>15.0</ele><time>2026-04-12T08:17:23.361Z</time></trkpt><trkpt lat="43.826515363101386" lon="10.828135061119772"><ele>15.0</ele><time>2026-04-12T08:17:25.361Z</time></trkpt><trkpt lat="43.82661839359569" lon="10.82805220164047"><ele>15.0</ele><time>2026-04-12T08:17:27.361Z</time></trkpt><trkpt lat="43.82673025057565" lon="10.82798582240224"><ele>15.0</ele><time>2026-04-12T08:17:29.361Z</time></trkpt><trkpt lat="43.826832997615895" lon="10.827909242697988"><ele>15.0</ele><time>2026-04-12T08:17:31.361Z</time></trkpt><trkpt lat="43.82693663234734" lon="10.827832001431455"><ele>15.0</ele><time>2026-04-12T08:17:33.361Z</time></trkpt><trkpt lat="43.82703811708483" lon="10.827757405937218"><ele>15.0</ele><time>2026-04-12T08:17:35.361Z</time></trkpt><trkpt lat="43.82713907134876" lon="10.827683648650002"><ele>15.0</ele><time>2026-04-12T08:17:37.361Z</time></trkpt><trkpt lat="43.827240086509235" lon="10.82760984696592"><ele>15.0</ele><time>2026-04-12T08:17:39.361Z</time></trkpt><trkpt lat="43.82733528168276" lon="10.827539950185457"><ele>15.0</ele><time>2026-04-12T08:17:41.361Z</time></trkpt><trkpt lat="43.827423716708054" lon="10.827474182867904"><ele>15.0</ele><time>2026-04-12T08:17:43.361Z</time></trkpt><trkpt lat="43.82749321477276" lon="10.827422498402171"><ele>14.8</ele><time>2026-04-12T08:17:45.361Z</time></trkpt><trkpt lat="43.82755543312565" lon="10.827376229015092"><ele>14.6</ele><time>2026-04-12T08:17:47.361Z</time></trkpt><trkpt lat="43.827625789706175" lon="10.827323910241482"><ele>14.399999999999999</ele><time>2026-04-12T08:17:49.361Z</time></trkpt><trkpt lat="43.82773114919421" lon="10.827244084631568"><ele>14.2</ele><time>2026-04-12T08:17:51.361Z</time></trkpt><trkpt lat="43.8278381964694" lon="10.827160517041163"><ele>14.0</ele><time>2026-04-12T08:17:53.361Z</time></trkpt><trkpt lat="43.827945826851874" lon="10.827076494357328"><ele>13.75</ele><time>2026-04-12T08:17:55.361Z</time></trkpt><trkpt lat="43.82804874638898" lon="10.826998771855145"><ele>13.5</ele><time>2026-04-12T08:17:57.361Z</time></trkpt><trkpt lat="43.82815261131619" lon="10.826920331927022"><ele>13.25</ele><time>2026-04-12T08:17:59.361Z</time></trkpt><trkpt lat="43.828249462031835" lon="10.82684797536396"><ele>13.0</ele><time>2026-04-12T08:18:01.361Z</time></trkpt><trkpt lat="43.82834878785216" lon="10.826773957087202"><ele>13.0</ele><time>2026-04-12T08:18:03.361Z</time></trkpt><trkpt lat="43.82844706006242" lon="10.82670072417997"><ele>13.0</ele><time>2026-04-12T08:18:05.361Z</time></trkpt><trkpt lat="43.82854705428697" lon="10.826604617311306"><ele>13.0</ele><time>2026-04-12T08:18:07.361Z</time></trkpt><trkpt lat="43.828649624347925" lon="10.82653765801481"><ele>13.0</ele><time>2026-04-12T08:18:09.361Z</time></trkpt><trkpt lat="43.828751751313014" lon="10.82646281766935"><ele>12.75</ele><time>2026-04-12T08:18:11.361Z</time></trkpt><trkpt lat="43.828853451412364" lon="10.826379416727173"><ele>12.5</ele><time>2026-04-12T08:18:13.361Z</time></trkpt><trkpt lat="43.828957574978645" lon="10.826301715754589"><ele>12.25</ele><time>2026-04-12T08:18:15.361Z</time></trkpt><trkpt lat="43.82905739101591" lon="10.82622507541542"><ele>12.0</ele><time>2026-04-12T08:18:17.361Z</time></trkpt><trkpt lat="43.8291583310681" lon="10.826144305666876"><ele>12.0</ele><time>2026-04-12T08:18:19.361Z</time></trkpt><trkpt lat="43.82926223136117" lon="10.82606830753912"><ele>12.0</ele><time>2026-04-12T08:18:21.361Z</time></trkpt><trkpt lat="43.82935979816017" lon="10.825995064585422"><ele>12.0</ele><time>2026-04-12T08:18:23.361Z</time></trkpt><trkpt lat="43.829460821233795" lon="10.825921295066477"><ele>12.0</ele><time>2026-04-12T08:18:25.361Z</time></trkpt><trkpt lat="43.82955938574956" lon="10.825843429322997"><ele>12.6</ele><time>2026-04-12T08:18:27.361Z</time></trkpt><trkpt lat="43.829653263119305" lon="10.825769692600135"><ele>13.2</ele><time>2026-04-12T08:18:29.361Z</time></trkpt><trkpt lat="43.829741044932646" lon="10.82570465325318"><ele>13.8</ele><time>2026-04-12T08:18:31.361Z</time></trkpt><trkpt lat="43.82982564477528" lon="10.825640015993901"><ele>14.4</ele><time>2026-04-12T08:18:33.361Z</time></trkpt><trkpt lat="43.82990870751289" lon="10.825575007723888"><ele>15.0</ele><time>2026-04-12T08:18:35.361Z</time></trkpt><trkpt lat="43.82997111598097" lon="10.825524954788241"><ele>15.0</ele><time>2026-04-12T08:18:37.361Z</time></trkpt><trkpt lat="43.83003224223039" lon="10.825500786302296"><ele>15.0</ele><time>2026-04-12T08:18:52.36Z</time></trkpt><trkpt lat="43.83008565616279" lon="10.82545199976251"><ele>15.0</ele><time>2026-04-12T08:19:07.36Z</time></trkpt><trkpt lat="43.83018051214617" lon="10.825638373142098"><ele>15.0</ele><time>2026-04-12T08:19:09.36Z</time></trkpt><trkpt lat="43.830220014500355" lon="10.825733938265047"><ele>15.0</ele><time>2026-04-12T08:19:11.36Z</time></trkpt><trkpt lat="43.83026492472429" lon="10.825827415058704"><ele>15.0</ele><time>2026-04-12T08:19:13.36Z</time></trkpt><trkpt lat="43.83031250496742" lon="10.82592148372297"><ele>15.0</ele><time>2026-04-12T08:19:15.36Z</time></trkpt><trkpt lat="43.8303604537087" lon="10.826019466986292"><ele>15.0</ele><time>2026-04-12T08:19:17.36Z</time></trkpt><trkpt lat="43.830410891782165" lon="10.826117234240648"><ele>15.0</ele><time>2026-04-12T08:19:19.36Z</time></trkpt><trkpt lat="43.83045717950779" lon="10.826207473101398"><ele>15.0</ele><time>2026-04-12T08:19:21.36Z</time></trkpt><trkpt lat="43.83050103751601" lon="10.826302768422055"><ele>15.0</ele><time>2026-04-12T08:19:23.36Z</time></trkpt><trkpt lat="43.830547819380484" lon="10.826396531256199"><ele>15.0</ele><time>2026-04-12T08:19:25.36Z</time></trkpt><trkpt lat="43.83059803457399" lon="10.82649681059713"><ele>15.0</ele><time>2026-04-12T08:19:27.36Z</time></trkpt><trkpt lat="43.830649571978896" lon="10.82659690729058"><ele>15.0</ele><time>2026-04-12T08:19:29.36Z</time></trkpt><trkpt lat="43.83070113518731" lon="10.826697170189222"><ele>15.0</ele><time>2026-04-12T08:19:31.36Z</time></trkpt><trkpt lat="43.83075744351124" lon="10.826802868206425"><ele>15.0</ele><time>2026-04-12T08:19:33.36Z</time></trkpt><trkpt lat="43.830807510450136" lon="10.826907242439583"><ele>15.2</ele><time>2026-04-12T08:19:35.36Z</time></trkpt><trkpt lat="43.830857677644175" lon="10.827015801868338"><ele>15.4</ele><time>2026-04-12T08:19:37.36Z</time></trkpt><trkpt lat="43.830913276603454" lon="10.827109167708528"><ele>15.600000000000001</ele><time>2026-04-12T08:19:39.36Z</time></trkpt><trkpt lat="43.83096926971783" lon="10.827216061091168"><ele>15.8</ele><time>2026-04-12T08:19:41.36Z</time></trkpt><trkpt lat="43.83101866680613" lon="10.827323712052126"><ele>16.0</ele><time>2026-04-12T08:19:43.36Z</time></trkpt><trkpt lat="43.83106815982237" lon="10.827422526254768"><ele>15.999999999999998</ele><time>2026-04-12T08:19:45.36Z</time></trkpt><trkpt lat="43.83111397526869" lon="10.827519258184312"><ele>16.0</ele><time>2026-04-12T08:19:47.36Z</time></trkpt><trkpt lat="43.83115474610907" lon="10.827614169056135"><ele>16.0</ele><time>2026-04-12T08:19:49.36Z</time></trkpt><trkpt lat="43.83120860255391" lon="10.827714594452855"><ele>16.0</ele><time>2026-04-12T08:19:51.36Z</time></trkpt><trkpt lat="43.83125527980679" lon="10.827826608074785"><ele>15.999999999999998</ele><time>2026-04-12T08:19:53.36Z</time></trkpt><trkpt lat="43.8313080025211" lon="10.82793528537797"><ele>16.0</ele><time>2026-04-12T08:19:55.36Z</time></trkpt><trkpt lat="43.8314000500853" lon="10.827984556251266"><ele>15.8</ele><time>2026-04-12T08:19:57.36Z</time></trkpt><trkpt lat="43.83149924730922" lon="10.827968056731585"><ele>15.600000000000001</ele><time>2026-04-12T08:19:59.36Z</time></trkpt><trkpt lat="43.831600631246395" lon="10.827947160542497"><ele>15.4</ele><time>2026-04-12T08:20:01.36Z</time></trkpt><trkpt lat="43.83170271389979" lon="10.827909548748897"><ele>15.2</ele><time>2026-04-12T08:20:03.36Z</time></trkpt><trkpt lat="43.83180278394151" lon="10.827873511311346"><ele>15.0</ele><time>2026-04-12T08:20:05.36Z</time></trkpt><trkpt lat="43.83190430899939" lon="10.827827817220923"><ele>15.0</ele><time>2026-04-12T08:20:07.36Z</time></trkpt><trkpt lat="43.83200173354603" lon="10.827770114082998"><ele>15.0</ele><time>2026-04-12T08:20:09.36Z</time></trkpt><trkpt lat="43.83210359943878" lon="10.827731112514304"><ele>15.0</ele><time>2026-04-12T08:20:11.36Z</time></trkpt><trkpt lat="43.83220280296533" lon="10.827678671064847"><ele>15.0</ele><time>2026-04-12T08:20:13.36Z</time></trkpt><trkpt lat="43.83230162940759" lon="10.827626429059777"><ele>15.0</ele><time>2026-04-12T08:20:15.36Z</time></trkpt><trkpt lat="43.83239369058097" lon="10.827558913225351"><ele>14.8</ele><time>2026-04-12T08:20:17.36Z</time></trkpt><trkpt lat="43.83249078625671" lon="10.827509980301427"><ele>14.6</ele><time>2026-04-12T08:20:19.36Z</time></trkpt><trkpt lat="43.83259195529455" lon="10.82746024616617"><ele>14.399999999999999</ele><time>2026-04-12T08:20:21.36Z</time></trkpt><trkpt lat="43.83269198945553" lon="10.827409137212674"><ele>14.2</ele><time>2026-04-12T08:20:23.36Z</time></trkpt><trkpt lat="43.83279206887397" lon="10.827356183142992"><ele>14.0</ele><time>2026-04-12T08:20:25.36Z</time></trkpt><trkpt lat="43.832892615366866" lon="10.827298101485166"><ele>14.399999999999999</ele><time>2026-04-12T08:20:27.36Z</time></trkpt><trkpt lat="43.83299567739758" lon="10.827245061317958"><ele>14.799999999999999</ele><time>2026-04-12T08:20:29.36Z</time></trkpt><trkpt lat="43.8331022556965" lon="10.827193486419594"><ele>15.200000000000001</ele><time>2026-04-12T08:20:31.36Z</time></trkpt><trkpt lat="43.83320400289373" lon="10.82713423015828"><ele>15.600000000000001</ele><time>2026-04-12T08:20:33.36Z</time></trkpt><trkpt lat="43.83330626412458" lon="10.827080501414558"><ele>16.0</ele><time>2026-04-12T08:20:35.36Z</time></trkpt><trkpt lat="43.833408719627876" lon="10.827024838595946"><ele>16.0</ele><time>2026-04-12T08:20:37.36Z</time></trkpt><trkpt lat="43.83350987265039" lon="10.826970352727189"><ele>16.0</ele><time>2026-04-12T08:20:39.36Z</time></trkpt><trkpt lat="43.8336145204342" lon="10.826917511361227"><ele>16.0</ele><time>2026-04-12T08:20:41.36Z</time></trkpt><trkpt lat="43.83371486689738" lon="10.826862724921314"><ele>16.0</ele><time>2026-04-12T08:20:43.36Z</time></trkpt><trkpt lat="43.83381497791828" lon="10.826811662189941"><ele>16.0</ele><time>2026-04-12T08:20:45.36Z</time></trkpt><trkpt lat="43.83391275085069" lon="10.826760929406923"><ele>16.2</ele><time>2026-04-12T08:20:47.36Z</time></trkpt><trkpt lat="43.834011056211565" lon="10.826712666696844"><ele>16.400000000000002</ele><time>2026-04-12T08:20:49.36Z</time></trkpt><trkpt lat="43.83410888518995" lon="10.826662299513206"><ele>16.6</ele><time>2026-04-12T08:20:51.36Z</time></trkpt><trkpt lat="43.83420349198449" lon="10.826604551626012"><ele>16.8</ele><time>2026-04-12T08:20:53.36Z</time></trkpt><trkpt lat="43.834298885314055" lon="10.826543500850843"><ele>17.0</ele><time>2026-04-12T08:20:55.36Z</time></trkpt><trkpt lat="43.8343931026807" lon="10.826477553845066"><ele>17.0</ele><time>2026-04-12T08:20:57.36Z</time></trkpt><trkpt lat="43.834492442846035" lon="10.826416304453202"><ele>17.0</ele><time>2026-04-12T08:20:59.359Z</time></trkpt><trkpt lat="43.8345841354827" lon="10.826350170191493"><ele>17.0</ele><time>2026-04-12T08:21:01.359Z</time></trkpt><trkpt lat="43.8346760809123" lon="10.826282669035306"><ele>17.0</ele><time>2026-04-12T08:21:03.359Z</time></trkpt><trkpt lat="43.834771019215765" lon="10.826217288996721"><ele>17.0</ele><time>2026-04-12T08:21:05.359Z</time></trkpt><trkpt lat="43.834863555013285" lon="10.826155257035198"><ele>17.0</ele><time>2026-04-12T08:21:07.359Z</time></trkpt><trkpt lat="43.83495893903545" lon="10.826089046166416"><ele>17.0</ele><time>2026-04-12T08:21:09.359Z</time></trkpt><trkpt lat="43.835048856537334" lon="10.826006971924475"><ele>17.0</ele><time>2026-04-12T08:21:11.359Z</time></trkpt><trkpt lat="43.83512032237745" lon="10.825912464753964"><ele>17.0</ele><time>2026-04-12T08:21:13.359Z</time></trkpt><trkpt lat="43.835179181553386" lon="10.825822350154125"><ele>17.0</ele><time>2026-04-12T08:21:15.359Z</time></trkpt><trkpt lat="43.83522788362428" lon="10.825722480613736"><ele>17.0</ele><time>2026-04-12T08:21:17.359Z</time></trkpt><trkpt lat="43.83528388824804" lon="10.825630454701448"><ele>17.0</ele><time>2026-04-12T08:21:19.359Z</time></trkpt><trkpt lat="43.835334685452565" lon="10.825537177136793"><ele>17.0</ele><time>2026-04-12T08:21:21.359Z</time></trkpt><trkpt lat="43.835390894488725" lon="10.82544434352603"><ele>17.0</ele><time>2026-04-12T08:21:23.359Z</time></trkpt><trkpt lat="43.83544544491889" lon="10.825348485477223"><ele>17.0</ele><time>2026-04-12T08:21:25.359Z</time></trkpt><trkpt lat="43.83551119116385" lon="10.825239246860228"><ele>17.0</ele><time>2026-04-12T08:21:27.359Z</time></trkpt><trkpt lat="43.835586834478924" lon="10.825111821042956"><ele>16.999999999999996</ele><time>2026-04-12T08:21:29.359Z</time></trkpt><trkpt lat="43.83562785389147" lon="10.825042959665868"><ele>17.0</ele><time>2026-04-12T08:21:30.359Z</time></trkpt><trkpt lat="43.835669868517144" lon="10.824972480369139"><ele>17.0</ele><time>2026-04-12T08:21:31.359Z</time></trkpt><trkpt lat="43.835714129670215" lon="10.824900883927397"><ele>17.0</ele><time>2026-04-12T08:21:32.359Z</time></trkpt><trkpt lat="43.83575834200053" lon="10.824826864749602"><ele>17.0</ele><time>2026-04-12T08:21:33.359Z</time></trkpt><trkpt lat="43.835802128173455" lon="10.824750991425555"><ele>16.999999999999996</ele><time>2026-04-12T08:21:34.359Z</time></trkpt><trkpt lat="43.83584539923886" lon="10.824675914773447"><ele>17.0</ele><time>2026-04-12T08:21:35.359Z</time></trkpt><trkpt lat="43.835887129573074" lon="10.824598934510838"><ele>16.999999999999996</ele><time>2026-04-12T08:21:36.359Z</time></trkpt><trkpt lat="43.83593136990077" lon="10.824524099717731"><ele>17.0</ele><time>2026-04-12T08:21:37.359Z</time></trkpt><trkpt lat="43.835974547086806" lon="10.824453675075448"><ele>17.0</ele><time>2026-04-12T08:21:38.359Z</time></trkpt><trkpt lat="43.83601786666697" lon="10.824383183410744"><ele>17.0</ele><time>2026-04-12T08:21:39.359Z</time></trkpt><trkpt lat="43.83605920830841" lon="10.824311092422898"><ele>17.0</ele><time>2026-04-12T08:21:40.359Z</time></trkpt><trkpt lat="43.83609851762918" lon="10.824239590226064"><ele>16.999999999999996</ele><time>2026-04-12T08:21:41.359Z</time></trkpt><trkpt lat="43.83613901550437" lon="10.824170268922115"><ele>17.0</ele><time>2026-04-12T08:21:42.359Z</time></trkpt><trkpt lat="43.83618053279108" lon="10.824102735014932"><ele>16.833333333333336</ele><time>2026-04-12T08:21:43.359Z</time></trkpt><trkpt lat="43.836222401684935" lon="10.824035068402168"><ele>16.666666666666668</ele><time>2026-04-12T08:21:44.359Z</time></trkpt><trkpt lat="43.836264925725544" lon="10.823970275612462"><ele>16.5</ele><time>2026-04-12T08:21:45.359Z</time></trkpt><trkpt lat="43.83630966998633" lon="10.823908615273886"><ele>16.333333333333332</ele><time>2026-04-12T08:21:46.359Z</time></trkpt><trkpt lat="43.83639667093478" lon="10.823789091420009"><ele>16.166666666666664</ele><time>2026-04-12T08:21:48.359Z</time></trkpt><trkpt lat="43.836489159513235" lon="10.823672348009895"><ele>16.0</ele><time>2026-04-12T08:21:50.359Z</time></trkpt><trkpt lat="43.83658384727031" lon="10.823557537593109"><ele>16.0</ele><time>2026-04-12T08:21:52.359Z</time></trkpt><trkpt lat="43.836631922202706" lon="10.8235006905719"><ele>16.0</ele><time>2026-04-12T08:21:53.359Z</time></trkpt><trkpt lat="43.83672466287323" lon="10.823386677365205"><ele>16.0</ele><time>2026-04-12T08:21:55.359Z</time></trkpt><trkpt lat="43.83681055730222" lon="10.823277188685111"><ele>16.0</ele><time>2026-04-12T08:21:57.359Z</time></trkpt><trkpt lat="43.836880688923685" lon="10.823198764327097"><ele>16.0</ele><time>2026-04-12T08:21:59.359Z</time></trkpt><trkpt lat="43.83683954522897" lon="10.823265763689152"><ele>15.999999999999998</ele><time>2026-04-12T08:22:08.359Z</time></trkpt><trkpt lat="43.8367913317028" lon="10.823325957547937"><ele>16.0</ele><time>2026-04-12T08:22:10.359Z</time></trkpt><trkpt lat="43.83675584420533" lon="10.823417302205673"><ele>16.0</ele><time>2026-04-12T08:22:14.359Z</time></trkpt><trkpt lat="43.83685229010147" lon="10.823565256722649"><ele>16.0</ele><time>2026-04-12T08:22:16.359Z</time></trkpt><trkpt lat="43.83688975003169" lon="10.823645602074235"><ele>15.999999999999998</ele><time>2026-04-12T08:22:18.359Z</time></trkpt><trkpt lat="43.836962343009944" lon="10.823708235838762"><ele>16.0</ele><time>2026-04-12T08:22:20.359Z</time></trkpt><trkpt lat="43.8370225635729" lon="10.823777346613007"><ele>15.833333333333332</ele><time>2026-04-12T08:22:22.359Z</time></trkpt><trkpt lat="43.83710175956606" lon="10.823785423077155"><ele>15.666666666666666</ele><time>2026-04-12T08:22:26.359Z</time></trkpt><trkpt lat="43.83716361111374" lon="10.823696990813453"><ele>15.5</ele><time>2026-04-12T08:22:29.359Z</time></trkpt><trkpt lat="43.837210377535406" lon="10.823615940098177"><ele>15.333333333333332</ele><time>2026-04-12T08:22:31.359Z</time></trkpt><trkpt lat="43.83726505377954" lon="10.823532657994752"><ele>15.166666666666666</ele><time>2026-04-12T08:22:33.359Z</time></trkpt><trkpt lat="43.8373188004955" lon="10.82345064155519"><ele>15.0</ele><time>2026-04-12T08:22:35.359Z</time></trkpt><trkpt lat="43.83737199811018" lon="10.823374625558433"><ele>15.333333333333334</ele><time>2026-04-12T08:22:37.359Z</time></trkpt><trkpt lat="43.83742213007209" lon="10.823294453818956"><ele>15.666666666666668</ele><time>2026-04-12T08:22:39.359Z</time></trkpt><trkpt lat="43.837467994108785" lon="10.823216259724338"><ele>16.0</ele><time>2026-04-12T08:22:41.359Z</time></trkpt><trkpt lat="43.837514202669475" lon="10.823147294852353"><ele>16.333333333333336</ele><time>2026-04-12T08:22:43.359Z</time></trkpt><trkpt lat="43.83757741307493" lon="10.823055028412211"><ele>16.666666666666668</ele><time>2026-04-12T08:22:46.359Z</time></trkpt><trkpt lat="43.8375251826734" lon="10.822906316747774"><ele>17.0</ele><time>2026-04-12T08:22:48.359Z</time></trkpt><trkpt lat="43.837480506742814" lon="10.822969868249693"><ele>17.0</ele><time>2026-04-12T08:23:12.358Z</time></trkpt><trkpt lat="43.83742868826926" lon="10.823043579307441"><ele>17.0</ele><time>2026-04-12T08:23:14.358Z</time></trkpt><trkpt lat="43.83736799330147" lon="10.823142823165838"><ele>17.0</ele><time>2026-04-12T08:23:16.358Z</time></trkpt><trkpt lat="43.837426720724956" lon="10.823309904172902"><ele>17.0</ele><time>2026-04-12T08:23:17.358Z</time></trkpt><trkpt lat="43.8373478651356" lon="10.823424852036203"><ele>17.0</ele><time>2026-04-12T08:23:19.358Z</time></trkpt><trkpt lat="43.83730083113627" lon="10.823487901372163"><ele>17.0</ele><time>2026-04-12T08:23:20.358Z</time></trkpt><trkpt lat="43.83707774544407" lon="10.823436081380457"><ele>17.0</ele><time>2026-04-12T08:23:22.358Z</time></trkpt><trkpt lat="43.837007933863326" lon="10.82355088263073"><ele>17.0</ele><time>2026-04-12T08:23:24.358Z</time></trkpt><trkpt lat="43.836962262239794" lon="10.82362643765997"><ele>17.0</ele><time>2026-04-12T08:23:26.358Z</time></trkpt><trkpt lat="43.83689276585475" lon="10.823631369771679"><ele>17.0</ele><time>2026-04-12T08:24:35.358Z</time></trkpt><trkpt lat="43.83680952931355" lon="10.823500551690337"><ele>17.0</ele><time>2026-04-12T08:24:40.358Z</time></trkpt><trkpt lat="43.83676329181842" lon="10.823421826475503"><ele>17.0</ele><time>2026-04-12T08:24:42.358Z</time></trkpt><trkpt lat="43.83675764331013" lon="10.823329208995736"><ele>17.0</ele><time>2026-04-12T08:24:44.358Z</time></trkpt><trkpt lat="43.83682382285187" lon="10.82327371955275"><ele>17.0</ele><time>2026-04-12T08:24:46.358Z</time></trkpt><trkpt lat="43.83688624469132" lon="10.823203138982016"><ele>17.0</ele><time>2026-04-12T08:24:48.358Z</time></trkpt><trkpt lat="43.83694964887059" lon="10.823129433235106"><ele>17.0</ele><time>2026-04-12T08:24:50.358Z</time></trkpt><trkpt lat="43.83701088295416" lon="10.823055836579623"><ele>17.0</ele><time>2026-04-12T08:24:52.358Z</time></trkpt><trkpt lat="43.837073127046864" lon="10.822973058789104"><ele>17.0</ele><time>2026-04-12T08:24:54.358Z</time></trkpt><trkpt lat="43.837132730117744" lon="10.822894882120245"><ele>17.0</ele><time>2026-04-12T08:24:56.358Z</time></trkpt><trkpt lat="43.837201890053905" lon="10.822822330321557"><ele>17.0</ele><time>2026-04-12T08:24:58.358Z</time></trkpt><trkpt lat="43.83726690029087" lon="10.822740143318944"><ele>17.0</ele><time>2026-04-12T08:25:00.358Z</time></trkpt><trkpt lat="43.83733250182486" lon="10.822655396992246"><ele>17.0</ele><time>2026-04-12T08:25:02.358Z</time></trkpt><trkpt lat="43.83740001882367" lon="10.822572619464687"><ele>17.0</ele><time>2026-04-12T08:25:04.358Z</time></trkpt><trkpt lat="43.83746332324169" lon="10.822482723052634"><ele>17.0</ele><time>2026-04-12T08:25:06.358Z</time></trkpt><trkpt lat="43.837532199058344" lon="10.822405328660004"><ele>17.0</ele><time>2026-04-12T08:25:08.358Z</time></trkpt><trkpt lat="43.837595241928966" lon="10.822326743730168"><ele>17.0</ele><time>2026-04-12T08:25:10.358Z</time></trkpt><trkpt lat="43.837656398612005" lon="10.822252306259676"><ele>17.0</ele><time>2026-04-12T08:25:12.358Z</time></trkpt><trkpt lat="43.83771242757922" lon="10.822172430223423"><ele>17.0</ele><time>2026-04-12T08:25:14.358Z</time></trkpt><trkpt lat="43.83777017657101" lon="10.8221005744649"><ele>17.0</ele><time>2026-04-12T08:25:16.358Z</time></trkpt><trkpt lat="43.837827321363285" lon="10.822034596980888"><ele>17.0</ele><time>2026-04-12T08:25:18.358Z</time></trkpt><trkpt lat="43.83787900415631" lon="10.821969997423006"><ele>17.0</ele><time>2026-04-12T08:25:20.358Z</time></trkpt><trkpt lat="43.83794680465052" lon="10.821883739217217"><ele>17.0</ele><time>2026-04-12T08:25:23.358Z</time></trkpt><trkpt lat="43.83799701647966" lon="10.821820448004594"><ele>17.0</ele><time>2026-04-12T08:25:25.358Z</time></trkpt><trkpt lat="43.83805250773167" lon="10.82174400995685"><ele>16.6</ele><time>2026-04-12T08:25:27.358Z</time></trkpt><trkpt lat="43.83811612997106" lon="10.821655197066194"><ele>16.2</ele><time>2026-04-12T08:25:29.358Z</time></trkpt><trkpt lat="43.83816866763138" lon="10.821538394424687"><ele>15.8</ele><time>2026-04-12T08:25:31.358Z</time></trkpt><trkpt lat="43.838225194363034" lon="10.821409451252304"><ele>15.4</ele><time>2026-04-12T08:25:33.358Z</time></trkpt><trkpt lat="43.8382859381704" lon="10.821273802769737"><ele>15.0</ele><time>2026-04-12T08:25:35.358Z</time></trkpt><trkpt lat="43.83833901160205" lon="10.82118621260199"><ele>15.0</ele><time>2026-04-12T08:25:37.358Z</time></trkpt><trkpt lat="43.83839413918343" lon="10.821137312178323"><ele>15.0</ele><time>2026-04-12T08:26:26.358Z</time></trkpt><trkpt lat="43.8385124890034" lon="10.821190552246609"><ele>15.0</ele><time>2026-04-12T08:26:31.358Z</time></trkpt><trkpt lat="43.838554237202096" lon="10.821269342685598"><ele>15.0</ele><time>2026-04-12T08:26:33.358Z</time></trkpt><trkpt lat="43.838608482256056" lon="10.821333344279163"><ele>15.0</ele><time>2026-04-12T08:26:35.358Z</time></trkpt><trkpt lat="43.83861919896827" lon="10.821453265283692"><ele>15.0</ele><time>2026-04-12T08:26:37.358Z</time></trkpt><trkpt lat="43.83872024347798" lon="10.821547577823633"><ele>15.4</ele><time>2026-04-12T08:26:40.358Z</time></trkpt><trkpt lat="43.838804510547824" lon="10.821579277709414"><ele>15.8</ele><time>2026-04-12T08:26:42.358Z</time></trkpt><trkpt lat="43.83888983372635" lon="10.821575756375736"><ele>16.2</ele><time>2026-04-12T08:26:44.358Z</time></trkpt><trkpt lat="43.838975733429145" lon="10.821637606848167"><ele>16.6</ele><time>2026-04-12T08:26:46.358Z</time></trkpt><trkpt lat="43.83906284191567" lon="10.821742133217262"><ele>17.0</ele><time>2026-04-12T08:26:48.358Z</time></trkpt><trkpt lat="43.83914201944116" lon="10.821828548662747"><ele>17.0</ele><time>2026-04-12T08:26:50.358Z</time></trkpt><trkpt lat="43.8392049944662" lon="10.821929514331785"><ele>17.0</ele><time>2026-04-12T08:26:52.358Z</time></trkpt><trkpt lat="43.839287656471825" lon="10.822013596193004"><ele>17.0</ele><time>2026-04-12T08:26:54.358Z</time></trkpt><trkpt lat="43.83936349039002" lon="10.822107498865448"><ele>17.0</ele><time>2026-04-12T08:26:56.358Z</time></trkpt><trkpt lat="43.83943622988583" lon="10.82219523405969"><ele>17.0</ele><time>2026-04-12T08:26:58.358Z</time></trkpt><trkpt lat="43.839513065874975" lon="10.822289231375567"><ele>17.0</ele><time>2026-04-12T08:27:00.358Z</time></trkpt><trkpt lat="43.83959280119792" lon="10.822371649329849"><ele>17.0</ele><time>2026-04-12T08:27:02.358Z</time></trkpt><trkpt lat="43.83966035193704" lon="10.822465840724817"><ele>17.0</ele><time>2026-04-12T08:27:04.358Z</time></trkpt><trkpt lat="43.839734282668736" lon="10.822562450987817"><ele>17.0</ele><time>2026-04-12T08:27:06.358Z</time></trkpt><trkpt lat="43.839806846459865" lon="10.822654053376091"><ele>17.0</ele><time>2026-04-12T08:27:08.358Z</time></trkpt><trkpt lat="43.839888787470194" lon="10.822735125848935"><ele>17.2</ele><time>2026-04-12T08:27:10.358Z</time></trkpt><trkpt lat="43.83996589962165" lon="10.822826468926854"><ele>17.4</ele><time>2026-04-12T08:27:12.358Z</time></trkpt><trkpt lat="43.84004204134" lon="10.82291952450695"><ele>17.6</ele><time>2026-04-12T08:27:14.358Z</time></trkpt><trkpt lat="43.8401164884343" lon="10.823012362859284"><ele>17.8</ele><time>2026-04-12T08:27:16.357Z</time></trkpt><trkpt lat="43.8401894134434" lon="10.823103477216124"><ele>18.0</ele><time>2026-04-12T08:27:18.357Z</time></trkpt><trkpt lat="43.84026582470751" lon="10.823193984416339"><ele>18.0</ele><time>2026-04-12T08:27:20.357Z</time></trkpt><trkpt lat="43.8403442482396" lon="10.823284990340273"><ele>18.0</ele><time>2026-04-12T08:27:22.357Z</time></trkpt><trkpt lat="43.840420529088235" lon="10.823381613596435"><ele>18.0</ele><time>2026-04-12T08:27:24.357Z</time></trkpt><trkpt lat="43.8404989273709" lon="10.823478293044214"><ele>18.0</ele><time>2026-04-12T08:27:26.357Z</time></trkpt><trkpt lat="43.84057874500269" lon="10.823573085591233"><ele>18.0</ele><time>2026-04-12T08:27:28.357Z</time></trkpt><trkpt lat="43.840657836607264" lon="10.82366641264936"><ele>18.0</ele><time>2026-04-12T08:27:30.357Z</time></trkpt><trkpt lat="43.840735010088544" lon="10.82375832598598"><ele>18.0</ele><time>2026-04-12T08:27:32.357Z</time></trkpt><trkpt lat="43.84081733649004" lon="10.823853213353772"><ele>18.0</ele><time>2026-04-12T08:27:34.357Z</time></trkpt><trkpt lat="43.840896754889265" lon="10.82394275653848"><ele>18.0</ele><time>2026-04-12T08:27:36.357Z</time></trkpt><trkpt lat="43.84097515223783" lon="10.824026402029876"><ele>18.0</ele><time>2026-04-12T08:27:38.357Z</time></trkpt><trkpt lat="43.841062564558996" lon="10.824090905327447"><ele>17.8</ele><time>2026-04-12T08:27:40.357Z</time></trkpt><trkpt lat="43.84115823503122" lon="10.824133831583604"><ele>17.6</ele><time>2026-04-12T08:27:42.357Z</time></trkpt><trkpt lat="43.84125351545075" lon="10.824181948494667"><ele>17.4</ele><time>2026-04-12T08:27:44.357Z</time></trkpt><trkpt lat="43.84135250262368" lon="10.824219797554784"><ele>17.2</ele><time>2026-04-12T08:27:46.357Z</time></trkpt><trkpt lat="43.841444594241565" lon="10.824277874960742"><ele>17.0</ele><time>2026-04-12T08:27:48.357Z</time></trkpt><trkpt lat="43.84154016632385" lon="10.824329996729308"><ele>17.4</ele><time>2026-04-12T08:27:50.357Z</time></trkpt><trkpt lat="43.84163490732558" lon="10.82437643690332"><ele>17.799999999999997</ele><time>2026-04-12T08:27:52.357Z</time></trkpt><trkpt lat="43.84172994139782" lon="10.824416962101441"><ele>18.2</ele><time>2026-04-12T08:27:54.357Z</time></trkpt><trkpt lat="43.84183138301392" lon="10.824446428592942"><ele>18.599999999999998</ele><time>2026-04-12T08:27:56.357Z</time></trkpt><trkpt lat="43.841941366450264" lon="10.824458950748975"><ele>19.0</ele><time>2026-04-12T08:27:58.357Z</time></trkpt><trkpt lat="43.84203328425637" lon="10.824487482851495"><ele>19.0</ele><time>2026-04-12T08:28:00.357Z</time></trkpt><trkpt lat="43.84212954960504" lon="10.824518524265574"><ele>19.0</ele><time>2026-04-12T08:28:02.357Z</time></trkpt><trkpt lat="43.84222560794759" lon="10.824539782915888"><ele>19.0</ele><time>2026-04-12T08:28:04.357Z</time></trkpt><trkpt lat="43.84232350375102" lon="10.824578958524334"><ele>19.0</ele><time>2026-04-12T08:28:06.357Z</time></trkpt><trkpt lat="43.84242013370166" lon="10.82462717442418"><ele>19.0</ele><time>2026-04-12T08:28:08.357Z</time></trkpt><trkpt lat="43.842512978056355" lon="10.824690108457121"><ele>19.0</ele><time>2026-04-12T08:28:10.357Z</time></trkpt><trkpt lat="43.84260131682853" lon="10.82476639532214"><ele>19.0</ele><time>2026-04-12T08:28:12.357Z</time></trkpt><trkpt lat="43.84268438555711" lon="10.824855153107393"><ele>19.0</ele><time>2026-04-12T08:28:14.357Z</time></trkpt><trkpt lat="43.842757541469496" lon="10.824955038126543"><ele>19.0</ele><time>2026-04-12T08:28:16.357Z</time></trkpt><trkpt lat="43.84282741695826" lon="10.825062827483244"><ele>19.0</ele><time>2026-04-12T08:28:18.357Z</time></trkpt><trkpt lat="43.84289972273469" lon="10.82516134648974"><ele>19.4</ele><time>2026-04-12T08:28:20.357Z</time></trkpt><trkpt lat="43.84296554742084" lon="10.825271076528896"><ele>19.799999999999997</ele><time>2026-04-12T08:28:22.357Z</time></trkpt><trkpt lat="43.84302953545083" lon="10.825380514397843"><ele>20.200000000000003</ele><time>2026-04-12T08:28:24.357Z</time></trkpt><trkpt lat="43.84307987997343" lon="10.825499575392838"><ele>20.6</ele><time>2026-04-12T08:28:26.357Z</time></trkpt><trkpt lat="43.84318447545273" lon="10.825510185582583"><ele>21.0</ele><time>2026-04-12T08:28:28.357Z</time></trkpt><trkpt lat="43.84325285643252" lon="10.825436952496032"><ele>21.0</ele><time>2026-04-12T08:28:30.357Z</time></trkpt><trkpt lat="43.843281414163684" lon="10.825339331843969"><ele>21.0</ele><time>2026-04-12T08:28:32.357Z</time></trkpt><trkpt lat="43.84332406738696" lon="10.825253621006947"><ele>21.0</ele><time>2026-04-12T08:28:34.357Z</time></trkpt><trkpt lat="43.84336974387677" lon="10.825180640416368"><ele>21.0</ele><time>2026-04-12T08:28:37.357Z</time></trkpt><trkpt lat="43.84335788070575" lon="10.82509048714481"><ele>21.0</ele><time>2026-04-12T08:28:45.357Z</time></trkpt><trkpt lat="43.84332834187386" lon="10.82518789377339"><ele>21.0</ele><time>2026-04-12T08:28:47.357Z</time></trkpt><trkpt lat="43.84328803576039" lon="10.825286610839758"><ele>21.0</ele><time>2026-04-12T08:28:49.357Z</time></trkpt><trkpt lat="43.84334692819406" lon="10.825221938339425"><ele>21.0</ele><time>2026-04-12T08:28:51.357Z</time></trkpt><trkpt lat="43.8432316898843" lon="10.825420650997138"><ele>21.0</ele><time>2026-04-12T08:28:52.357Z</time></trkpt><trkpt lat="43.843185108188635" lon="10.825503493815804"><ele>21.0</ele><time>2026-04-12T08:28:54.357Z</time></trkpt><trkpt lat="43.843108401236044" lon="10.825501049739055"><ele>21.0</ele><time>2026-04-12T08:28:56.357Z</time></trkpt><trkpt lat="43.84305295179485" lon="10.825407570672681"><ele>21.0</ele><time>2026-04-12T08:28:58.357Z</time></trkpt><trkpt lat="43.84300290266858" lon="10.825305883735075"><ele>21.0</ele><time>2026-04-12T08:29:00.357Z</time></trkpt><trkpt lat="43.84294820143784" lon="10.825206186304335"><ele>21.0</ele><time>2026-04-12T08:29:02.357Z</time></trkpt><trkpt lat="43.84288812571987" lon="10.825107975134582"><ele>21.0</ele><time>2026-04-12T08:29:04.357Z</time></trkpt><trkpt lat="43.84282997523212" lon="10.825002865951161"><ele>21.0</ele><time>2026-04-12T08:29:06.357Z</time></trkpt><trkpt lat="43.84291219877221" lon="10.824784437299344"><ele>20.75</ele><time>2026-04-12T08:29:07.357Z</time></trkpt><trkpt lat="43.84273434525758" lon="10.82485687198492"><ele>20.5</ele><time>2026-04-12T08:29:09.357Z</time></trkpt><trkpt lat="43.842660153843504" lon="10.824770532361834"><ele>20.25</ele><time>2026-04-12T08:29:11.357Z</time></trkpt><trkpt lat="43.84257971636458" lon="10.824693879817092"><ele>20.0</ele><time>2026-04-12T08:29:13.357Z</time></trkpt><trkpt lat="43.84249337331883" lon="10.824623819932611"><ele>19.8</ele><time>2026-04-12T08:29:15.357Z</time></trkpt><trkpt lat="43.84240294444752" lon="10.824574421148732"><ele>19.6</ele><time>2026-04-12T08:29:17.357Z</time></trkpt><trkpt lat="43.84231184873091" lon="10.824527917673299"><ele>19.4</ele><time>2026-04-12T08:29:19.357Z</time></trkpt><trkpt lat="43.84221695978681" lon="10.82449693963146"><ele>19.2</ele><time>2026-04-12T08:29:21.357Z</time></trkpt><trkpt lat="43.84212527049972" lon="10.824466472280267"><ele>19.0</ele><time>2026-04-12T08:29:23.356Z</time></trkpt><trkpt lat="43.842056173974164" lon="10.824465414716013"><ele>19.0</ele><time>2026-04-12T08:29:25.356Z</time></trkpt><trkpt lat="43.84202846923194" lon="10.824646892364175"><ele>19.0</ele><time>2026-04-12T08:29:26.356Z</time></trkpt><trkpt lat="43.842007075550704" lon="10.824782647864408"><ele>19.0</ele><time>2026-04-12T08:29:28.356Z</time></trkpt><trkpt lat="43.84198511952528" lon="10.824921053128369"><ele>19.0</ele><time>2026-04-12T08:29:30.356Z</time></trkpt><trkpt lat="43.84196382643616" lon="10.825051478035887"><ele>19.0</ele><time>2026-04-12T08:29:32.356Z</time></trkpt><trkpt lat="43.84194442009231" lon="10.825189797847825"><ele>19.4</ele><time>2026-04-12T08:29:34.356Z</time></trkpt><trkpt lat="43.84191957464582" lon="10.825328817598164"><ele>19.799999999999997</ele><time>2026-04-12T08:29:36.356Z</time></trkpt><trkpt lat="43.84189820680677" lon="10.825464333661108"><ele>20.200000000000003</ele><time>2026-04-12T08:29:38.356Z</time></trkpt><trkpt lat="43.84188263715456" lon="10.825599641859181"><ele>20.6</ele><time>2026-04-12T08:29:40.356Z</time></trkpt><trkpt lat="43.84187118957637" lon="10.825737745635221"><ele>21.0</ele><time>2026-04-12T08:29:42.356Z</time></trkpt><trkpt lat="43.84185529822095" lon="10.825870239713032"><ele>21.200000000000003</ele><time>2026-04-12T08:29:44.356Z</time></trkpt><trkpt lat="43.84183953415268" lon="10.825995496938766"><ele>21.400000000000002</ele><time>2026-04-12T08:29:46.356Z</time></trkpt><trkpt lat="43.841821141064756" lon="10.82612235452828"><ele>21.6</ele><time>2026-04-12T08:29:48.356Z</time></trkpt><trkpt lat="43.84181023796047" lon="10.826246243500545"><ele>21.8</ele><time>2026-04-12T08:29:50.356Z</time></trkpt><trkpt lat="43.84179827309971" lon="10.826370572572591"><ele>22.0</ele><time>2026-04-12T08:29:52.356Z</time></trkpt><trkpt lat="43.84178051537697" lon="10.82650025335394"><ele>22.0</ele><time>2026-04-12T08:29:54.356Z</time></trkpt><trkpt lat="43.84177316708585" lon="10.826637384487032"><ele>22.0</ele><time>2026-04-12T08:29:56.356Z</time></trkpt><trkpt lat="43.841779063855284" lon="10.826771457227439"><ele>22.0</ele><time>2026-04-12T08:29:58.356Z</time></trkpt><trkpt lat="43.84179092251081" lon="10.826902022163772"><ele>22.0</ele><time>2026-04-12T08:30:00.356Z</time></trkpt><trkpt lat="43.84181380018264" lon="10.82702188381035"><ele>22.0</ele><time>2026-04-12T08:30:02.356Z</time></trkpt><trkpt lat="43.84182498136344" lon="10.827123209933182"><ele>22.0</ele><time>2026-04-12T08:30:06.356Z</time></trkpt><trkpt lat="43.84185376958064" lon="10.827250366756335"><ele>22.0</ele><time>2026-04-12T08:30:09.356Z</time></trkpt><trkpt lat="43.84191031717642" lon="10.827343224735316"><ele>22.0</ele><time>2026-04-12T08:30:11.356Z</time></trkpt><trkpt lat="43.84194983258369" lon="10.827462079822391"><ele>22.0</ele><time>2026-04-12T08:30:13.356Z</time></trkpt><trkpt lat="43.84199214789495" lon="10.827585530222702"><ele>22.0</ele><time>2026-04-12T08:30:15.356Z</time></trkpt><trkpt lat="43.84203355040158" lon="10.82770853087364"><ele>22.200000000000003</ele><time>2026-04-12T08:30:17.356Z</time></trkpt><trkpt lat="43.842072131937854" lon="10.827838038547144"><ele>22.4</ele><time>2026-04-12T08:30:19.356Z</time></trkpt><trkpt lat="43.842124174569356" lon="10.827958554109477"><ele>22.6</ele><time>2026-04-12T08:30:21.356Z</time></trkpt><trkpt lat="43.84218764688362" lon="10.828067382756656"><ele>22.799999999999997</ele><time>2026-04-12T08:30:23.356Z</time></trkpt><trkpt lat="43.84225310033802" lon="10.828180542106828"><ele>23.0</ele><time>2026-04-12T08:30:25.356Z</time></trkpt><trkpt lat="43.84233270116099" lon="10.828271789821146"><ele>23.0</ele><time>2026-04-12T08:30:27.356Z</time></trkpt><trkpt lat="43.84241689678011" lon="10.828357011816896"><ele>23.0</ele><time>2026-04-12T08:30:29.356Z</time></trkpt><trkpt lat="43.842500332879624" lon="10.828444101852886"><ele>23.0</ele><time>2026-04-12T08:30:31.356Z</time></trkpt><trkpt lat="43.84258229835055" lon="10.82852939456715"><ele>23.0</ele><time>2026-04-12T08:30:33.356Z</time></trkpt><trkpt lat="43.84266039298054" lon="10.82861180707811"><ele>23.0</ele><time>2026-04-12T08:30:35.356Z</time></trkpt><trkpt lat="43.842737147819044" lon="10.828698283781621"><ele>23.2</ele><time>2026-04-12T08:30:37.356Z</time></trkpt><trkpt lat="43.84281327745498" lon="10.828780865364658"><ele>23.4</ele><time>2026-04-12T08:30:39.356Z</time></trkpt><trkpt lat="43.84290368983809" lon="10.828829891071724"><ele>23.599999999999998</ele><time>2026-04-12T08:30:41.356Z</time></trkpt><trkpt lat="43.84298758891404" lon="10.82877757856534"><ele>23.799999999999997</ele><time>2026-04-12T08:30:43.356Z</time></trkpt><trkpt lat="43.84305826187088" lon="10.828681707687286"><ele>24.0</ele><time>2026-04-12T08:30:45.356Z</time></trkpt><trkpt lat="43.84312238029952" lon="10.82858858646512"><ele>24.0</ele><time>2026-04-12T08:30:47.356Z</time></trkpt><trkpt lat="43.843178380950036" lon="10.828495756422011"><ele>24.0</ele><time>2026-04-12T08:30:49.356Z</time></trkpt><trkpt lat="43.8432381437679" lon="10.828419601611412"><ele>24.0</ele><time>2026-04-12T08:30:51.356Z</time></trkpt><trkpt lat="43.84329216703375" lon="10.82834037024719"><ele>24.0</ele><time>2026-04-12T08:30:53.356Z</time></trkpt><trkpt lat="43.8433418522246" lon="10.828246762232961"><ele>24.0</ele><time>2026-04-12T08:30:55.356Z</time></trkpt><trkpt lat="43.84340132256798" lon="10.828167369515038"><ele>24.0</ele><time>2026-04-12T08:30:57.356Z</time></trkpt><trkpt lat="43.843460639156696" lon="10.828092262920928"><ele>24.333333333333332</ele><time>2026-04-12T08:30:59.356Z</time></trkpt><trkpt lat="43.84351884006804" lon="10.828026271254423"><ele>24.666666666666664</ele><time>2026-04-12T08:31:01.356Z</time></trkpt><trkpt lat="43.84358771736572" lon="10.827998605130132"><ele>25.0</ele><time>2026-04-12T08:31:03.356Z</time></trkpt><trkpt lat="43.84365270311277" lon="10.828081162545624"><ele>25.333333333333332</ele><time>2026-04-12T08:31:05.356Z</time></trkpt><trkpt lat="43.84370521746122" lon="10.828169803705213"><ele>25.666666666666664</ele><time>2026-04-12T08:31:07.356Z</time></trkpt><trkpt lat="43.843764269822174" lon="10.828253734813735"><ele>26.0</ele><time>2026-04-12T08:31:09.356Z</time></trkpt><trkpt lat="43.84383383443099" lon="10.828330155661934"><ele>25.999999999999996</ele><time>2026-04-12T08:31:11.356Z</time></trkpt><trkpt lat="43.843901657909406" lon="10.8284110433528"><ele>26.0</ele><time>2026-04-12T08:31:13.356Z</time></trkpt><trkpt lat="43.843971090570314" lon="10.828487207354135"><ele>26.0</ele><time>2026-04-12T08:31:15.356Z</time></trkpt><trkpt lat="43.844040063513404" lon="10.828569633320695"><ele>26.0</ele><time>2026-04-12T08:31:17.356Z</time></trkpt><trkpt lat="43.84410425894838" lon="10.828657758015876"><ele>25.999999999999996</ele><time>2026-04-12T08:31:19.356Z</time></trkpt><trkpt lat="43.84415718396422" lon="10.82872822167131"><ele>26.0</ele><time>2026-04-12T08:31:21.356Z</time></trkpt><trkpt lat="43.84421014567545" lon="10.828797035234228"><ele>26.166666666666664</ele><time>2026-04-12T08:31:24.356Z</time></trkpt><trkpt lat="43.84427584176859" lon="10.82888857573484"><ele>26.333333333333332</ele><time>2026-04-12T08:31:27.356Z</time></trkpt><trkpt lat="43.84433274008422" lon="10.828959886702972"><ele>26.5</ele><time>2026-04-12T08:31:29.355Z</time></trkpt><trkpt lat="43.84439647748541" lon="10.829040635538231"><ele>26.666666666666664</ele><time>2026-04-12T08:31:31.355Z</time></trkpt><trkpt lat="43.84446904356255" lon="10.829110656908629"><ele>26.833333333333332</ele><time>2026-04-12T08:31:33.355Z</time></trkpt><trkpt lat="43.84453509471434" lon="10.829196883408287"><ele>27.0</ele><time>2026-04-12T08:31:35.355Z</time></trkpt><trkpt lat="43.844604817200214" lon="10.829280207124338"><ele>26.8</ele><time>2026-04-12T08:31:37.355Z</time></trkpt><trkpt lat="43.8446755258196" lon="10.829366849310189"><ele>26.6</ele><time>2026-04-12T08:31:39.355Z</time></trkpt><trkpt lat="43.84473473763028" lon="10.829463844472095"><ele>26.400000000000002</ele><time>2026-04-12T08:31:41.355Z</time></trkpt><trkpt lat="43.84481097406324" lon="10.829532480771833"><ele>26.200000000000003</ele><time>2026-04-12T08:31:43.355Z</time></trkpt><trkpt lat="43.844872086484614" lon="10.829622893480293"><ele>26.0</ele><time>2026-04-12T08:31:45.355Z</time></trkpt><trkpt lat="43.84493172019736" lon="10.829705181279575"><ele>26.0</ele><time>2026-04-12T08:31:47.355Z</time></trkpt><trkpt lat="43.84496858289044" lon="10.829834791048704"><ele>26.0</ele><time>2026-04-12T08:31:50.355Z</time></trkpt><trkpt lat="43.84488627295825" lon="10.829884699973771"><ele>26.0</ele><time>2026-04-12T08:31:52.355Z</time></trkpt><trkpt lat="43.84483414805702" lon="10.829972566975922"><ele>26.0</ele><time>2026-04-12T08:31:54.355Z</time></trkpt><trkpt lat="43.84477189838995" lon="10.830075064908849"><ele>26.0</ele><time>2026-04-12T08:31:56.355Z</time></trkpt><trkpt lat="43.84471942170449" lon="10.830181441874508"><ele>26.0</ele><time>2026-04-12T08:31:58.355Z</time></trkpt><trkpt lat="43.84466480801806" lon="10.830308808253632"><ele>26.0</ele><time>2026-04-12T08:32:00.355Z</time></trkpt><trkpt lat="43.844621653656375" lon="10.830434573578943"><ele>26.0</ele><time>2026-04-12T08:32:02.355Z</time></trkpt><trkpt lat="43.84458427336379" lon="10.830572721874349"><ele>26.0</ele><time>2026-04-12T08:32:04.355Z</time></trkpt><trkpt lat="43.844547727334714" lon="10.830712574790695"><ele>26.0</ele><time>2026-04-12T08:32:06.355Z</time></trkpt><trkpt lat="43.84451000190374" lon="10.83084719468786"><ele>26.0</ele><time>2026-04-12T08:32:08.355Z</time></trkpt><trkpt lat="43.844468683703376" lon="10.830983984535749"><ele>26.0</ele><time>2026-04-12T08:32:10.355Z</time></trkpt><trkpt lat="43.844426190434696" lon="10.831118168372385"><ele>26.0</ele><time>2026-04-12T08:32:12.355Z</time></trkpt><trkpt lat="43.84439603873228" lon="10.831253158526428"><ele>26.0</ele><time>2026-04-12T08:32:14.355Z</time></trkpt><trkpt lat="43.84433748270165" lon="10.831375043922819"><ele>26.0</ele><time>2026-04-12T08:32:16.355Z</time></trkpt><trkpt lat="43.84429244021589" lon="10.831502210923306"><ele>25.8</ele><time>2026-04-12T08:32:18.356Z</time></trkpt><trkpt lat="43.84425009536881" lon="10.831644481235772"><ele>25.6</ele><time>2026-04-12T08:32:20.356Z</time></trkpt><trkpt lat="43.84423152037918" lon="10.83179151265285"><ele>25.4</ele><time>2026-04-12T08:32:22.356Z</time></trkpt><trkpt lat="43.844203770868646" lon="10.83193236424831"><ele>25.2</ele><time>2026-04-12T08:32:24.356Z</time></trkpt><trkpt lat="43.84419089812375" lon="10.83207252051362"><ele>25.0</ele><time>2026-04-12T08:32:26.356Z</time></trkpt><trkpt lat="43.84422523399526" lon="10.832213004297236"><ele>25.2</ele><time>2026-04-12T08:32:28.356Z</time></trkpt><trkpt lat="43.844299968323234" lon="10.832312728256602"><ele>25.4</ele><time>2026-04-12T08:32:30.356Z</time></trkpt><trkpt lat="43.8443926389031" lon="10.832387620411897"><ele>25.6</ele><time>2026-04-12T08:32:32.356Z</time></trkpt><trkpt lat="43.84448129659222" lon="10.832468992223298"><ele>25.8</ele><time>2026-04-12T08:32:34.356Z</time></trkpt><trkpt lat="43.84456565452924" lon="10.832547652482187"><ele>26.0</ele><time>2026-04-12T08:32:36.356Z</time></trkpt><trkpt lat="43.84464442886613" lon="10.832641282010844"><ele>26.0</ele><time>2026-04-12T08:32:38.356Z</time></trkpt><trkpt lat="43.84472933040771" lon="10.832731526300648"><ele>26.0</ele><time>2026-04-12T08:32:40.356Z</time></trkpt><trkpt lat="43.84480346402319" lon="10.832839123454024"><ele>26.0</ele><time>2026-04-12T08:32:42.356Z</time></trkpt><trkpt lat="43.84489198563308" lon="10.832918791545255"><ele>26.0</ele><time>2026-04-12T08:32:44.356Z</time></trkpt><trkpt lat="43.84496611708809" lon="10.833019938638998"><ele>26.0</ele><time>2026-04-12T08:32:46.356Z</time></trkpt><trkpt lat="43.84504694095389" lon="10.833108622856596"><ele>26.0</ele><time>2026-04-12T08:32:48.356Z</time></trkpt><trkpt lat="43.84512268808569" lon="10.833199097226126"><ele>26.0</ele><time>2026-04-12T08:32:50.356Z</time></trkpt><trkpt lat="43.845197902386495" lon="10.83328702720092"><ele>26.0</ele><time>2026-04-12T08:32:52.356Z</time></trkpt><trkpt lat="43.84526980437391" lon="10.833384842046991"><ele>26.0</ele><time>2026-04-12T08:32:54.356Z</time></trkpt><trkpt lat="43.845340988668916" lon="10.833485426610162"><ele>26.0</ele><time>2026-04-12T08:32:56.356Z</time></trkpt><trkpt lat="43.84539534580985" lon="10.83360122993142"><ele>26.4</ele><time>2026-04-12T08:32:58.356Z</time></trkpt><trkpt lat="43.84548501675849" lon="10.83366588055706"><ele>26.8</ele><time>2026-04-12T08:33:00.356Z</time></trkpt><trkpt lat="43.84556699141475" lon="10.833733763439275"><ele>27.199999999999996</ele><time>2026-04-12T08:33:02.356Z</time></trkpt><trkpt lat="43.845654780942894" lon="10.833793024245056"><ele>27.599999999999998</ele><time>2026-04-12T08:33:04.356Z</time></trkpt><trkpt lat="43.84574325278905" lon="10.83385572292556"><ele>28.0</ele><time>2026-04-12T08:33:06.356Z</time></trkpt><trkpt lat="43.84582413955231" lon="10.833921084553086"><ele>28.0</ele><time>2026-04-12T08:33:08.356Z</time></trkpt><trkpt lat="43.84590292751111" lon="10.833989428676826"><ele>27.999999999999996</ele><time>2026-04-12T08:33:10.356Z</time></trkpt><trkpt lat="43.84598814719714" lon="10.83406234341925"><ele>27.999999999999996</ele><time>2026-04-12T08:33:12.356Z</time></trkpt><trkpt lat="43.846074753877076" lon="10.834145520745489"><ele>28.0</ele><time>2026-04-12T08:33:14.356Z</time></trkpt><trkpt lat="43.84615653747399" lon="10.83423396985235"><ele>28.0</ele><time>2026-04-12T08:33:16.356Z</time></trkpt><trkpt lat="43.84623162595432" lon="10.834337462237052"><ele>28.799999999999997</ele><time>2026-04-12T08:33:18.356Z</time></trkpt><trkpt lat="43.846306658971834" lon="10.83443837449343"><ele>29.599999999999998</ele><time>2026-04-12T08:33:20.356Z</time></trkpt><trkpt lat="43.84638142072999" lon="10.834535613608699"><ele>30.400000000000002</ele><time>2026-04-12T08:33:22.356Z</time></trkpt><trkpt lat="43.84646051947266" lon="10.83462453697491"><ele>31.200000000000003</ele><time>2026-04-12T08:33:24.356Z</time></trkpt><trkpt lat="43.84653615615401" lon="10.83472202923291"><ele>32.0</ele><time>2026-04-12T08:33:26.356Z</time></trkpt><trkpt lat="43.84661040095692" lon="10.834822085930083"><ele>32.0</ele><time>2026-04-12T08:33:28.356Z</time></trkpt><trkpt lat="43.846687905727784" lon="10.834919168006648"><ele>32.0</ele><time>2026-04-12T08:33:30.356Z</time></trkpt><trkpt lat="43.84676553772081" lon="10.835011545805116"><ele>32.0</ele><time>2026-04-12T08:33:32.356Z</time></trkpt><trkpt lat="43.84683252378636" lon="10.835123351951026"><ele>32.0</ele><time>2026-04-12T08:33:34.355Z</time></trkpt><trkpt lat="43.84691601342858" lon="10.835201344646569"><ele>32.0</ele><time>2026-04-12T08:33:36.355Z</time></trkpt><trkpt lat="43.84698664964614" lon="10.835291549929527"><ele>32.0</ele><time>2026-04-12T08:33:38.355Z</time></trkpt><trkpt lat="43.84705992669982" lon="10.835392684769358"><ele>32.0</ele><time>2026-04-12T08:33:40.355Z</time></trkpt><trkpt lat="43.84713664086524" lon="10.835482892820078"><ele>32.0</ele><time>2026-04-12T08:33:42.355Z</time></trkpt><trkpt lat="43.8472123388091" lon="10.835576431604181"><ele>32.0</ele><time>2026-04-12T08:33:44.355Z</time></trkpt><trkpt lat="43.847280555621765" lon="10.835689397403385"><ele>32.0</ele><time>2026-04-12T08:33:46.355Z</time></trkpt><trkpt lat="43.84735239458749" lon="10.83577972744622"><ele>31.999999999999996</ele><time>2026-04-12T08:33:48.355Z</time></trkpt><trkpt lat="43.847419401552386" lon="10.835864914588948"><ele>32.0</ele><time>2026-04-12T08:33:50.355Z</time></trkpt><trkpt lat="43.84749184087065" lon="10.835953986216097"><ele>32.0</ele><time>2026-04-12T08:33:52.355Z</time></trkpt><trkpt lat="43.84755647706969" lon="10.836032972784063"><ele>32.0</ele><time>2026-04-12T08:33:54.355Z</time></trkpt><trkpt lat="43.84761359076508" lon="10.836104860648376"><ele>31.999999999999996</ele><time>2026-04-12T08:33:56.355Z</time></trkpt><trkpt lat="43.84766814140625" lon="10.836177326298094"><ele>32.0</ele><time>2026-04-12T08:33:58.355Z</time></trkpt><trkpt lat="43.847727928730876" lon="10.836255383561276"><ele>31.666666666666664</ele><time>2026-04-12T08:34:00.355Z</time></trkpt><trkpt lat="43.8478029726467" lon="10.836349682709391"><ele>31.333333333333332</ele><time>2026-04-12T08:34:02.355Z</time></trkpt><trkpt lat="43.84789571182754" lon="10.836446013614975"><ele>31.0</ele><time>2026-04-12T08:34:04.355Z</time></trkpt><trkpt lat="43.8479395885132" lon="10.836516114417504"><ele>30.666666666666664</ele><time>2026-04-12T08:34:05.355Z</time></trkpt><trkpt lat="43.84798644049768" lon="10.836576047087402"><ele>30.333333333333332</ele><time>2026-04-12T08:34:06.355Z</time></trkpt><trkpt lat="43.84804149321151" lon="10.836635202978316"><ele>30.0</ele><time>2026-04-12T08:34:07.355Z</time></trkpt><trkpt lat="43.84813303034863" lon="10.836716519736585"><ele>30.0</ele><time>2026-04-12T08:34:09.355Z</time></trkpt><trkpt lat="43.84823243889145" lon="10.836782709366993"><ele>30.0</ele><time>2026-04-12T08:34:11.355Z</time></trkpt><trkpt lat="43.84831326842067" lon="10.836837607255802"><ele>30.0</ele><time>2026-04-12T08:34:13.355Z</time></trkpt><trkpt lat="43.84838492774572" lon="10.836890261075432"><ele>30.0</ele><time>2026-04-12T08:34:15.355Z</time></trkpt><trkpt lat="43.8484663760964" lon="10.83690496093949"><ele>30.0</ele><time>2026-04-12T08:34:17.355Z</time></trkpt><trkpt lat="43.84855715492464" lon="10.836875270547804"><ele>30.2</ele><time>2026-04-12T08:34:19.355Z</time></trkpt><trkpt lat="43.84863796595911" lon="10.836836245351693"><ele>30.4</ele><time>2026-04-12T08:34:21.355Z</time></trkpt><trkpt lat="43.84871941757025" lon="10.836793903534927"><ele>30.6</ele><time>2026-04-12T08:34:23.355Z</time></trkpt><trkpt lat="43.84880471650082" lon="10.836752158606961"><ele>30.8</ele><time>2026-04-12T08:34:25.355Z</time></trkpt><trkpt lat="43.84889304437909" lon="10.836727579635497"><ele>31.0</ele><time>2026-04-12T08:34:27.355Z</time></trkpt><trkpt lat="43.84899022442097" lon="10.836734641563796"><ele>31.0</ele><time>2026-04-12T08:34:29.355Z</time></trkpt><trkpt lat="43.84909771381015" lon="10.83673763329987"><ele>31.0</ele><time>2026-04-12T08:34:31.355Z</time></trkpt><trkpt lat="43.84919534955581" lon="10.836807423805892"><ele>31.0</ele><time>2026-04-12T08:34:33.355Z</time></trkpt><trkpt lat="43.84923129335686" lon="10.836945135488364"><ele>31.0</ele><time>2026-04-12T08:34:35.355Z</time></trkpt><trkpt lat="43.84927344474734" lon="10.837062162626639"><ele>31.0</ele><time>2026-04-12T08:34:37.355Z</time></trkpt><trkpt lat="43.84929175469077" lon="10.83718286968864"><ele>31.500000000000004</ele><time>2026-04-12T08:34:39.355Z</time></trkpt><trkpt lat="43.8492996455555" lon="10.837299141289154"><ele>32.0</ele><time>2026-04-12T08:34:41.355Z</time></trkpt><trkpt lat="43.84933144331126" lon="10.837414741590925"><ele>32.5</ele><time>2026-04-12T08:34:43.355Z</time></trkpt><trkpt lat="43.849368496237545" lon="10.837522925323446"><ele>33.0</ele><time>2026-04-12T08:34:45.355Z</time></trkpt><trkpt lat="43.84940549019394" lon="10.83763480190833"><ele>33.5</ele><time>2026-04-12T08:34:47.355Z</time></trkpt><trkpt lat="43.84944278526162" lon="10.837739196201428"><ele>34.0</ele><time>2026-04-12T08:34:49.355Z</time></trkpt><trkpt lat="43.84946369060699" lon="10.837850860841895"><ele>34.16666666666667</ele><time>2026-04-12T08:34:51.355Z</time></trkpt><trkpt lat="43.8495129670315" lon="10.837942298895005"><ele>34.333333333333336</ele><time>2026-04-12T08:34:53.355Z</time></trkpt><trkpt lat="43.84953754945697" lon="10.838056875894127"><ele>34.5</ele><time>2026-04-12T08:34:55.355Z</time></trkpt><trkpt lat="43.849590753000996" lon="10.838152473883273"><ele>34.666666666666664</ele><time>2026-04-12T08:34:57.355Z</time></trkpt><trkpt lat="43.84961133454712" lon="10.83827096848482"><ele>34.83333333333333</ele><time>2026-04-12T08:34:59.355Z</time></trkpt><trkpt lat="43.84963962866438" lon="10.838374792394577"><ele>35.0</ele><time>2026-04-12T08:35:01.355Z</time></trkpt><trkpt lat="43.849679490673715" lon="10.838479306206407"><ele>35.166666666666664</ele><time>2026-04-12T08:35:03.355Z</time></trkpt><trkpt lat="43.849686955712315" lon="10.838599020179146"><ele>35.33333333333333</ele><time>2026-04-12T08:35:05.355Z</time></trkpt><trkpt lat="43.84970775225164" lon="10.838706124362366"><ele>35.5</ele><time>2026-04-12T08:35:07.355Z</time></trkpt><trkpt lat="43.849745073355685" lon="10.838821820600984"><ele>35.666666666666664</ele><time>2026-04-12T08:35:09.355Z</time></trkpt><trkpt lat="43.849750303504855" lon="10.83894262995385"><ele>35.833333333333336</ele><time>2026-04-12T08:35:11.355Z</time></trkpt><trkpt lat="43.84977175801301" lon="10.83906359836941"><ele>36.0</ele><time>2026-04-12T08:35:13.355Z</time></trkpt><trkpt lat="43.849794727365904" lon="10.83918896801994"><ele>36.4</ele><time>2026-04-12T08:35:15.355Z</time></trkpt><trkpt lat="43.84981729068477" lon="10.839312121412602"><ele>36.8</ele><time>2026-04-12T08:35:17.355Z</time></trkpt><trkpt lat="43.84984085412588" lon="10.839440733789358"><ele>37.199999999999996</ele><time>2026-04-12T08:35:19.355Z</time></trkpt><trkpt lat="43.84986448759082" lon="10.839569728215626"><ele>37.6</ele><time>2026-04-12T08:35:21.355Z</time></trkpt><trkpt lat="43.84988741399366" lon="10.839702507033929"><ele>38.0</ele><time>2026-04-12T08:35:23.355Z</time></trkpt><trkpt lat="43.84990927951271" lon="10.839831352835528"><ele>38.0</ele><time>2026-04-12T08:35:25.355Z</time></trkpt><trkpt lat="43.84993028914683" lon="10.839955704012803"><ele>38.0</ele><time>2026-04-12T08:35:27.355Z</time></trkpt><trkpt lat="43.84995185362272" lon="10.840083936193041"><ele>38.0</ele><time>2026-04-12T08:35:29.355Z</time></trkpt><trkpt lat="43.84997273791658" lon="10.840208123611573"><ele>38.0</ele><time>2026-04-12T08:35:31.355Z</time></trkpt><trkpt lat="43.849994144435094" lon="10.840335416358517"><ele>38.0</ele><time>2026-04-12T08:35:33.355Z</time></trkpt><trkpt lat="43.85001496922878" lon="10.840456161219496"><ele>38.0</ele><time>2026-04-12T08:35:35.355Z</time></trkpt><trkpt lat="43.85003616927668" lon="10.840575839447885"><ele>38.0</ele><time>2026-04-12T08:35:37.355Z</time></trkpt><trkpt lat="43.85005643057854" lon="10.840686331157508"><ele>38.0</ele><time>2026-04-12T08:35:39.354Z</time></trkpt><trkpt lat="43.85007275077657" lon="10.840795242271664"><ele>38.0</ele><time>2026-04-12T08:35:41.354Z</time></trkpt><trkpt lat="43.85007777070155" lon="10.840904350952554"><ele>38.0</ele><time>2026-04-12T08:35:43.354Z</time></trkpt><trkpt lat="43.8500737685638" lon="10.841014509735466"><ele>38.0</ele><time>2026-04-12T08:35:45.354Z</time></trkpt><trkpt lat="43.85006314330462" lon="10.841134193597297"><ele>38.166666666666664</ele><time>2026-04-12T08:35:47.354Z</time></trkpt><trkpt lat="43.850069482385464" lon="10.841256620243623"><ele>38.33333333333333</ele><time>2026-04-12T08:35:49.354Z</time></trkpt><trkpt lat="43.85014218719909" lon="10.841352486597108"><ele>38.5</ele><time>2026-04-12T08:35:51.354Z</time></trkpt><trkpt lat="43.85022829502445" lon="10.8413788586566"><ele>38.666666666666664</ele><time>2026-04-12T08:35:53.354Z</time></trkpt><trkpt lat="43.850305375020916" lon="10.841388510798678"><ele>38.833333333333336</ele><time>2026-04-12T08:35:55.354Z</time></trkpt><trkpt lat="43.85038818848702" lon="10.84140850845252"><ele>39.0</ele><time>2026-04-12T08:35:57.354Z</time></trkpt><trkpt lat="43.850468301393875" lon="10.841426873347217"><ele>39.833333333333336</ele><time>2026-04-12T08:35:59.354Z</time></trkpt><trkpt lat="43.85055400633052" lon="10.84144670514701"><ele>40.666666666666664</ele><time>2026-04-12T08:36:01.354Z</time></trkpt><trkpt lat="43.85063682009886" lon="10.841465373923668"><ele>41.5</ele><time>2026-04-12T08:36:03.354Z</time></trkpt><trkpt lat="43.850716930757855" lon="10.841483931652755"><ele>42.33333333333333</ele><time>2026-04-12T08:36:05.354Z</time></trkpt><trkpt lat="43.85078643276154" lon="10.841502144710555"><ele>43.166666666666664</ele><time>2026-04-12T08:36:07.354Z</time></trkpt><trkpt lat="43.8508601350035" lon="10.841516196159423"><ele>44.0</ele><time>2026-04-12T08:36:09.354Z</time></trkpt><trkpt lat="43.85093145683883" lon="10.841538071711154"><ele>44.85714285714286</ele><time>2026-04-12T08:36:11.354Z</time></trkpt><trkpt lat="43.85100274797457" lon="10.841555026431122"><ele>45.714285714285715</ele><time>2026-04-12T08:36:13.354Z</time></trkpt><trkpt lat="43.851072617592095" lon="10.841566376467997"><ele>46.57142857142857</ele><time>2026-04-12T08:36:15.354Z</time></trkpt><trkpt lat="43.851144958369986" lon="10.841580116258644"><ele>47.42857142857143</ele><time>2026-04-12T08:36:17.354Z</time></trkpt><trkpt lat="43.85120838936975" lon="10.841608759409123"><ele>48.285714285714285</ele><time>2026-04-12T08:36:19.354Z</time></trkpt><trkpt lat="43.851277919046154" lon="10.84162469254432"><ele>49.142857142857146</ele><time>2026-04-12T08:36:21.354Z</time></trkpt><trkpt lat="43.85134431837062" lon="10.841641248811916"><ele>50.0</ele><time>2026-04-12T08:36:23.354Z</time></trkpt><trkpt lat="43.85142048915906" lon="10.841673127910287"><ele>50.00000000000001</ele><time>2026-04-12T08:36:26.354Z</time></trkpt><trkpt lat="43.85139874563082" lon="10.841774952525585"><ele>50.0</ele><time>2026-04-12T08:36:29.354Z</time></trkpt><trkpt lat="43.85134346844278" lon="10.841839358498113"><ele>50.0</ele><time>2026-04-12T08:36:31.354Z</time></trkpt><trkpt lat="43.85130023947241" lon="10.841912696859723"><ele>50.0</ele><time>2026-04-12T08:36:33.354Z</time></trkpt><trkpt lat="43.85125691121942" lon="10.841999946232137"><ele>50.00000000000001</ele><time>2026-04-12T08:36:35.354Z</time></trkpt><trkpt lat="43.85122389438473" lon="10.842104266854308"><ele>50.0</ele><time>2026-04-12T08:36:37.354Z</time></trkpt><trkpt lat="43.851201367167874" lon="10.842219142852697"><ele>50.16666666666667</ele><time>2026-04-12T08:36:39.354Z</time></trkpt><trkpt lat="43.85118118145487" lon="10.842333688500982"><ele>50.333333333333336</ele><time>2026-04-12T08:36:41.354Z</time></trkpt><trkpt lat="43.851144629499274" lon="10.84244898976982"><ele>50.5</ele><time>2026-04-12T08:36:43.354Z</time></trkpt><trkpt lat="43.85113840585388" lon="10.842573912426586"><ele>50.66666666666667</ele><time>2026-04-12T08:36:45.354Z</time></trkpt><trkpt lat="43.85111537393576" lon="10.842692371312335"><ele>50.833333333333336</ele><time>2026-04-12T08:36:47.354Z</time></trkpt><trkpt lat="43.85107122742482" lon="10.8428006451661"><ele>51.0</ele><time>2026-04-12T08:36:49.354Z</time></trkpt><trkpt lat="43.85105803174366" lon="10.84292304879349"><ele>51.5</ele><time>2026-04-12T08:36:51.354Z</time></trkpt><trkpt lat="43.85102623840811" lon="10.843036910855691"><ele>52.0</ele><time>2026-04-12T08:36:53.354Z</time></trkpt><trkpt lat="43.851000444135074" lon="10.843154003247792"><ele>52.5</ele><time>2026-04-12T08:36:55.354Z</time></trkpt><trkpt lat="43.85096995112249" lon="10.843267765009841"><ele>53.0</ele><time>2026-04-12T08:36:57.354Z</time></trkpt><trkpt lat="43.85093829660291" lon="10.843391696471484"><ele>53.5</ele><time>2026-04-12T08:36:59.354Z</time></trkpt><trkpt lat="43.850922885154404" lon="10.843506324990349"><ele>54.0</ele><time>2026-04-12T08:37:01.354Z</time></trkpt><trkpt lat="43.85092257419988" lon="10.843618198675351"><ele>53.0</ele><time>2026-04-12T08:37:03.354Z</time></trkpt><trkpt lat="43.85092075187481" lon="10.84373255877117"><ele>52.0</ele><time>2026-04-12T08:37:05.354Z</time></trkpt><trkpt lat="43.850916264233796" lon="10.843844740438989"><ele>51.0</ele><time>2026-04-12T08:37:07.354Z</time></trkpt><trkpt lat="43.85091368497177" lon="10.843940880485098"><ele>50.0</ele><time>2026-04-12T08:37:09.354Z</time></trkpt><trkpt lat="43.850903753469176" lon="10.844066275095324"><ele>49.0</ele><time>2026-04-12T08:37:12.354Z</time></trkpt><trkpt lat="43.85089516874944" lon="10.844166612521686"><ele>48.0</ele><time>2026-04-12T08:37:14.354Z</time></trkpt><trkpt lat="43.85088457862245" lon="10.844277379954832"><ele>48.0</ele><time>2026-04-12T08:37:16.354Z</time></trkpt><trkpt lat="43.8508683484305" lon="10.844389828726072"><ele>48.0</ele><time>2026-04-12T08:37:18.354Z</time></trkpt><trkpt lat="43.85086107223157" lon="10.844503201500263"><ele>48.0</ele><time>2026-04-12T08:37:20.354Z</time></trkpt><trkpt lat="43.85086117592266" lon="10.844620000023834"><ele>48.0</ele><time>2026-04-12T08:37:22.354Z</time></trkpt><trkpt lat="43.8508606343337" lon="10.8447379678509"><ele>48.0</ele><time>2026-04-12T08:37:24.354Z</time></trkpt><trkpt lat="43.85086192396794" lon="10.844856466071768"><ele>48.0</ele><time>2026-04-12T08:37:26.354Z</time></trkpt><trkpt lat="43.85085210230749" lon="10.844971759607198"><ele>48.0</ele><time>2026-04-12T08:37:28.354Z</time></trkpt><trkpt lat="43.850824075579354" lon="10.84510295705661"><ele>48.0</ele><time>2026-04-12T08:37:30.354Z</time></trkpt><trkpt lat="43.85077701199316" lon="10.845221378920852"><ele>48.0</ele><time>2026-04-12T08:37:32.354Z</time></trkpt><trkpt lat="43.850715777384835" lon="10.845325973875948"><ele>48.0</ele><time>2026-04-12T08:37:34.354Z</time></trkpt><trkpt lat="43.85064851845076" lon="10.845427414760932"><ele>48.0</ele><time>2026-04-12T08:37:36.354Z</time></trkpt><trkpt lat="43.85058023346901" lon="10.845529124833368"><ele>48.2</ele><time>2026-04-12T08:37:38.354Z</time></trkpt><trkpt lat="43.85052207289145" lon="10.845643512097086"><ele>48.4</ele><time>2026-04-12T08:37:40.354Z</time></trkpt><trkpt lat="43.85048660235911" lon="10.845772120045206"><ele>48.6</ele><time>2026-04-12T08:37:42.354Z</time></trkpt><trkpt lat="43.8504850859833" lon="10.845911933054177"><ele>48.800000000000004</ele><time>2026-04-12T08:37:44.354Z</time></trkpt><trkpt lat="43.85052556018963" lon="10.846044538220385"><ele>49.0</ele><time>2026-04-12T08:37:46.354Z</time></trkpt><trkpt lat="43.85057899144737" lon="10.846163120347379"><ele>49.33333333333333</ele><time>2026-04-12T08:37:48.354Z</time></trkpt><trkpt lat="43.85062280068627" lon="10.846279721526468"><ele>49.666666666666664</ele><time>2026-04-12T08:37:50.354Z</time></trkpt><trkpt lat="43.85066816615318" lon="10.846394268941838"><ele>50.0</ele><time>2026-04-12T08:37:52.354Z</time></trkpt><trkpt lat="43.85069379411231" lon="10.846504209486724"><ele>50.33333333333333</ele><time>2026-04-12T08:37:54.354Z</time></trkpt><trkpt lat="43.85071658277337" lon="10.846617297221853"><ele>50.666666666666664</ele><time>2026-04-12T08:37:56.354Z</time></trkpt><trkpt lat="43.850735116198756" lon="10.846728266741767"><ele>51.0</ele><time>2026-04-12T08:37:58.354Z</time></trkpt><trkpt lat="43.850756792117664" lon="10.846838710092335"><ele>51.0</ele><time>2026-04-12T08:38:00.354Z</time></trkpt><trkpt lat="43.850777331920575" lon="10.846948665693777"><ele>51.0</ele><time>2026-04-12T08:38:02.354Z</time></trkpt><trkpt lat="43.85079745928491" lon="10.847050603674507"><ele>51.0</ele><time>2026-04-12T08:38:04.354Z</time></trkpt><trkpt lat="43.8508195645909" lon="10.847167138470827"><ele>51.0</ele><time>2026-04-12T08:38:06.354Z</time></trkpt><trkpt lat="43.85079788072283" lon="10.84732354663699"><ele>51.0</ele><time>2026-04-12T08:38:08.354Z</time></trkpt><trkpt lat="43.85075406247615" lon="10.847395965841446"><ele>51.0</ele><time>2026-04-12T08:38:09.354Z</time></trkpt><trkpt lat="43.85068130100162" lon="10.847417299051385"><ele>51.0</ele><time>2026-04-12T08:38:10.354Z</time></trkpt><trkpt lat="43.85061980607066" lon="10.847469787747663"><ele>51.0</ele><time>2026-04-12T08:38:11.354Z</time></trkpt><trkpt lat="43.850550391836734" lon="10.847502564356608"><ele>51.0</ele><time>2026-04-12T08:38:12.354Z</time></trkpt><trkpt lat="43.850487038406726" lon="10.847541533987041"><ele>51.0</ele><time>2026-04-12T08:38:13.354Z</time></trkpt><trkpt lat="43.85042146361674" lon="10.847570586283203"><ele>51.0</ele><time>2026-04-12T08:38:14.354Z</time></trkpt><trkpt lat="43.85035518968519" lon="10.847594859023284"><ele>51.0</ele><time>2026-04-12T08:38:15.354Z</time></trkpt><trkpt lat="43.850289940207325" lon="10.847616616286134"><ele>51.0</ele><time>2026-04-12T08:38:16.354Z</time></trkpt><trkpt lat="43.85022528923395" lon="10.847639555016686"><ele>50.75</ele><time>2026-04-12T08:38:17.354Z</time></trkpt><trkpt lat="43.850105229898844" lon="10.847671218255636"><ele>50.5</ele><time>2026-04-12T08:38:19.354Z</time></trkpt><trkpt lat="43.84999003199006" lon="10.847712967527228"><ele>50.25</ele><time>2026-04-12T08:38:21.354Z</time></trkpt><trkpt lat="43.84988723153574" lon="10.847797173189601"><ele>50.0</ele><time>2026-04-12T08:38:23.354Z</time></trkpt><trkpt lat="43.849796475807345" lon="10.847905581905346"><ele>50.0</ele><time>2026-04-12T08:38:25.354Z</time></trkpt><trkpt lat="43.8497534454782" lon="10.848058470150637"><ele>50.0</ele><time>2026-04-12T08:38:27.354Z</time></trkpt><trkpt lat="43.84977048281891" lon="10.84821127191112"><ele>50.0</ele><time>2026-04-12T08:38:29.354Z</time></trkpt><trkpt lat="43.84981043113599" lon="10.848331650762711"><ele>50.0</ele><time>2026-04-12T08:38:31.354Z</time></trkpt><trkpt lat="43.84984868329628" lon="10.848430260932414"><ele>50.0</ele><time>2026-04-12T08:38:33.354Z</time></trkpt><trkpt lat="43.84988005902714" lon="10.84853002270788"><ele>50.333333333333336</ele><time>2026-04-12T08:38:35.354Z</time></trkpt><trkpt lat="43.849899298256666" lon="10.848653389173343"><ele>50.66666666666667</ele><time>2026-04-12T08:38:37.354Z</time></trkpt><trkpt lat="43.84989354986304" lon="10.848763674045179"><ele>51.0</ele><time>2026-04-12T08:38:39.354Z</time></trkpt><trkpt lat="43.849902481457306" lon="10.848868952275062"><ele>51.33333333333333</ele><time>2026-04-12T08:38:42.354Z</time></trkpt><trkpt lat="43.85003734101605" lon="10.848850845823627"><ele>51.666666666666664</ele><time>2026-04-12T08:38:43.354Z</time></trkpt><trkpt lat="43.85009195755212" lon="10.848804981952448"><ele>52.0</ele><time>2026-04-12T08:38:44.354Z</time></trkpt><trkpt lat="43.8502093992905" lon="10.84873634851649"><ele>52.14285714285714</ele><time>2026-04-12T08:38:46.354Z</time></trkpt><trkpt lat="43.850283506410015" lon="10.848719779371356"><ele>52.28571428571429</ele><time>2026-04-12T08:38:47.354Z</time></trkpt><trkpt lat="43.85036272505169" lon="10.848715085719993"><ele>52.42857142857143</ele><time>2026-04-12T08:38:48.354Z</time></trkpt><trkpt lat="43.85043440353612" lon="10.84873356259515"><ele>52.57142857142857</ele><time>2026-04-12T08:38:49.354Z</time></trkpt><trkpt lat="43.850499203807765" lon="10.848756023889825"><ele>52.71428571428571</ele><time>2026-04-12T08:38:50.354Z</time></trkpt><trkpt lat="43.85056520879216" lon="10.848771247975394"><ele>52.85714285714286</ele><time>2026-04-12T08:38:51.354Z</time></trkpt><trkpt lat="43.85063067245477" lon="10.848777310318864"><ele>53.0</ele><time>2026-04-12T08:38:52.354Z</time></trkpt><trkpt lat="43.8506981083464" lon="10.84878034686356"><ele>53.0</ele><time>2026-04-12T08:38:53.354Z</time></trkpt><trkpt lat="43.85081719881014" lon="10.848766227717357"><ele>53.0</ele><time>2026-04-12T08:38:55.354Z</time></trkpt><trkpt lat="43.85092611350573" lon="10.84874535645729"><ele>53.0</ele><time>2026-04-12T08:38:57.354Z</time></trkpt><trkpt lat="43.85102929890685" lon="10.84872788228517"><ele>53.0</ele><time>2026-04-12T08:38:59.354Z</time></trkpt><trkpt lat="43.85112504355808" lon="10.848710383352191"><ele>53.0</ele><time>2026-04-12T08:39:01.354Z</time></trkpt><trkpt lat="43.85120674444749" lon="10.848699261744764"><ele>53.50000000000001</ele><time>2026-04-12T08:39:03.354Z</time></trkpt><trkpt lat="43.85127604641844" lon="10.848702857143012"><ele>54.0</ele><time>2026-04-12T08:39:05.354Z</time></trkpt><trkpt lat="43.85135984113404" lon="10.848696997886861"><ele>54.5</ele><time>2026-04-12T08:39:08.354Z</time></trkpt><trkpt lat="43.851428264144296" lon="10.848701694364047"><ele>55.0</ele><time>2026-04-12T08:39:11.354Z</time></trkpt><trkpt lat="43.85150466990171" lon="10.848699557282183"><ele>55.50000000000001</ele><time>2026-04-12T08:39:14.354Z</time></trkpt><trkpt lat="43.85159135735457" lon="10.848685117899885"><ele>56.0</ele><time>2026-04-12T08:39:17.354Z</time></trkpt><trkpt lat="43.85166557581776" lon="10.848688626835077"><ele>56.00000000000001</ele><time>2026-04-12T08:39:20.354Z</time></trkpt><trkpt lat="43.85174650301451" lon="10.84867130512917"><ele>56.0</ele><time>2026-04-12T08:39:23.354Z</time></trkpt><trkpt lat="43.85183207800258" lon="10.848662924812988"><ele>56.0</ele><time>2026-04-12T08:39:26.354Z</time></trkpt><trkpt lat="43.851893946342415" lon="10.848633859608913"><ele>56.0</ele><time>2026-04-12T08:39:28.354Z</time></trkpt><trkpt lat="43.8519557026606" lon="10.848609045494637"><ele>56.00000000000001</ele><time>2026-04-12T08:39:30.354Z</time></trkpt><trkpt lat="43.852047074202474" lon="10.848568760503365"><ele>56.0</ele><time>2026-04-12T08:39:33.354Z</time></trkpt><trkpt lat="43.85210667462826" lon="10.848539035153966"><ele>56.333333333333336</ele><time>2026-04-12T08:39:35.354Z</time></trkpt><trkpt lat="43.85216866997862" lon="10.848512002936051"><ele>56.66666666666667</ele><time>2026-04-12T08:39:37.354Z</time></trkpt><trkpt lat="43.85225674558655" lon="10.848463855604383"><ele>57.0</ele><time>2026-04-12T08:39:40.354Z</time></trkpt><trkpt lat="43.852344866492935" lon="10.848428499551629"><ele>57.33333333333333</ele><time>2026-04-12T08:39:43.354Z</time></trkpt><trkpt lat="43.85241527748504" lon="10.848389258368284"><ele>57.666666666666664</ele><time>2026-04-12T08:39:46.354Z</time></trkpt><trkpt lat="43.85247551540487" lon="10.848359227025256"><ele>58.0</ele><time>2026-04-12T08:39:49.354Z</time></trkpt><trkpt lat="43.85254687884062" lon="10.848326272633312"><ele>58.42857142857144</ele><time>2026-04-12T08:39:52.353Z</time></trkpt><trkpt lat="43.85262173971598" lon="10.848306565553013"><ele>58.85714285714286</ele><time>2026-04-12T08:39:55.353Z</time></trkpt><trkpt lat="43.852687780713595" lon="10.848285799894692"><ele>59.285714285714285</ele><time>2026-04-12T08:39:58.353Z</time></trkpt><trkpt lat="43.85275358947328" lon="10.848262192935753"><ele>59.714285714285715</ele><time>2026-04-12T08:40:01.353Z</time></trkpt><trkpt lat="43.852817245150504" lon="10.848252921542429"><ele>60.14285714285714</ele><time>2026-04-12T08:40:04.353Z</time></trkpt><trkpt lat="43.852882327519666" lon="10.848242802826222"><ele>60.57142857142856</ele><time>2026-04-12T08:40:07.353Z</time></trkpt><trkpt lat="43.85295391826231" lon="10.848223757822367"><ele>60.99999999999999</ele><time>2026-04-12T08:40:10.353Z</time></trkpt><trkpt lat="43.853023100037994" lon="10.848214276765363"><ele>62.99999999999999</ele><time>2026-04-12T08:40:13.353Z</time></trkpt><trkpt lat="43.85308699178685" lon="10.848190145851483"><ele>65.0</ele><time>2026-04-12T08:40:16.353Z</time></trkpt><trkpt lat="43.85314967417786" lon="10.848155676275868"><ele>67.0</ele><time>2026-04-12T08:40:19.353Z</time></trkpt><trkpt lat="43.85319877523033" lon="10.848095194060415"><ele>69.0</ele><time>2026-04-12T08:40:22.353Z</time></trkpt><trkpt lat="43.85325402568233" lon="10.848009230264227"><ele>71.0</ele><time>2026-04-12T08:40:26.353Z</time></trkpt><trkpt lat="43.853306619861556" lon="10.847925121264472"><ele>72.99999999999999</ele><time>2026-04-12T08:40:30.353Z</time></trkpt><trkpt lat="43.853363812465" lon="10.847864802045747"><ele>75.0</ele><time>2026-04-12T08:40:34.353Z</time></trkpt><trkpt lat="43.85343142655432" lon="10.847833143358432"><ele>76.71428571428571</ele><time>2026-04-12T08:40:38.353Z</time></trkpt><trkpt lat="43.853491521444305" lon="10.847795073687774"><ele>78.42857142857143</ele><time>2026-04-12T08:40:42.353Z</time></trkpt><trkpt lat="43.85355473512356" lon="10.847764070572513"><ele>80.14285714285714</ele><time>2026-04-12T08:40:46.353Z</time></trkpt><trkpt lat="43.85362748570513" lon="10.84773215637597"><ele>81.85714285714286</ele><time>2026-04-12T08:40:51.353Z</time></trkpt><trkpt lat="43.85369480586362" lon="10.847703427236612"><ele>83.57142857142857</ele><time>2026-04-12T08:40:56.353Z</time></trkpt><trkpt lat="43.85374916203564" lon="10.847657332076071"><ele>85.28571428571428</ele><time>2026-04-12T08:41:00.353Z</time></trkpt><trkpt lat="43.85381560876812" lon="10.847648304883332"><ele>87.0</ele><time>2026-04-12T08:41:04.353Z</time></trkpt><trkpt lat="43.85387755505751" lon="10.847681195847173"><ele>87.0</ele><time>2026-04-12T08:41:08.353Z</time></trkpt><trkpt lat="43.85394276256762" lon="10.847695042122096"><ele>87.0</ele><time>2026-04-12T08:41:12.353Z</time></trkpt><trkpt lat="43.85401193844112" lon="10.847714750217968"><ele>87.0</ele><time>2026-04-12T08:41:16.353Z</time></trkpt><trkpt lat="43.854072383340025" lon="10.847740322754381"><ele>87.0</ele><time>2026-04-12T08:41:20.353Z</time></trkpt><trkpt lat="43.854140677259714" lon="10.847763070791975"><ele>87.0</ele><time>2026-04-12T08:41:24.353Z</time></trkpt><trkpt lat="43.85420712200161" lon="10.847779391510404"><ele>87.0</ele><time>2026-04-12T08:41:28.353Z</time></trkpt><trkpt lat="43.85427135975023" lon="10.847787769788487"><ele>87.0</ele><time>2026-04-12T08:41:32.353Z</time></trkpt><trkpt lat="43.85433736831967" lon="10.847815731149943"><ele>88.83333333333333</ele><time>2026-04-12T08:41:36.353Z</time></trkpt><trkpt lat="43.85441747909398" lon="10.84783030144978"><ele>90.66666666666666</ele><time>2026-04-12T08:41:40.353Z</time></trkpt><trkpt lat="43.85449098401259" lon="10.847838962876478"><ele>92.5</ele><time>2026-04-12T08:41:44.353Z</time></trkpt><trkpt lat="43.85456303924444" lon="10.84787025507483"><ele>94.33333333333333</ele><time>2026-04-12T08:41:48.353Z</time></trkpt><trkpt lat="43.85463683107693" lon="10.847886997429496"><ele>96.16666666666666</ele><time>2026-04-12T08:41:52.353Z</time></trkpt><trkpt lat="43.85470660820696" lon="10.847912039785093"><ele>98.0</ele><time>2026-04-12T08:41:56.353Z</time></trkpt><trkpt lat="43.854782491838705" lon="10.847934442336175"><ele>97.99999999999999</ele><time>2026-04-12T08:42:00.352Z</time></trkpt><trkpt lat="43.85486060445384" lon="10.847961409804807"><ele>98.0</ele><time>2026-04-12T08:42:04.352Z</time></trkpt><trkpt lat="43.854940288578696" lon="10.847990404585866"><ele>98.0</ele><time>2026-04-12T08:42:08.352Z</time></trkpt><trkpt lat="43.85501183434897" lon="10.848024346617782"><ele>98.0</ele><time>2026-04-12T08:42:12.352Z</time></trkpt><trkpt lat="43.85508373621205" lon="10.848069030072022"><ele>97.99999999999999</ele><time>2026-04-12T08:42:16.352Z</time></trkpt><trkpt lat="43.855151638291275" lon="10.848113069148335"><ele>98.0</ele><time>2026-04-12T08:42:20.352Z</time></trkpt><trkpt lat="43.85521459167307" lon="10.848131618328665"><ele>99.83333333333333</ele><time>2026-04-12T08:42:23.352Z</time></trkpt><trkpt lat="43.855295216268864" lon="10.848167065519082"><ele>101.66666666666666</ele><time>2026-04-12T08:42:27.352Z</time></trkpt><trkpt lat="43.85537029608482" lon="10.848197765878234"><ele>103.5</ele><time>2026-04-12T08:42:31.352Z</time></trkpt><trkpt lat="43.855449034140534" lon="10.848223410492576"><ele>105.33333333333334</ele><time>2026-04-12T08:42:35.352Z</time></trkpt><trkpt lat="43.85552787105581" lon="10.848248933521967"><ele>107.16666666666667</ele><time>2026-04-12T08:42:39.352Z</time></trkpt><trkpt lat="43.85559947043896" lon="10.848285967939768"><ele>109.0</ele><time>2026-04-12T08:42:43.352Z</time></trkpt><trkpt lat="43.85566963039974" lon="10.848308811859733"><ele>109.0</ele><time>2026-04-12T08:42:47.352Z</time></trkpt><trkpt lat="43.85574512539914" lon="10.848334552732211"><ele>109.0</ele><time>2026-04-12T08:42:51.352Z</time></trkpt><trkpt lat="43.855820068526675" lon="10.848348267665305"><ele>109.0</ele><time>2026-04-12T08:42:55.352Z</time></trkpt><trkpt lat="43.85588734265364" lon="10.84836231938237"><ele>109.0</ele><time>2026-04-12T08:42:58.352Z</time></trkpt><trkpt lat="43.85596025589558" lon="10.848398986848803"><ele>109.0</ele><time>2026-04-12T08:43:02.352Z</time></trkpt><trkpt lat="43.85603164332884" lon="10.84843991040621"><ele>109.0</ele><time>2026-04-12T08:43:06.352Z</time></trkpt><trkpt lat="43.85610169585111" lon="10.848462505602289"><ele>109.0</ele><time>2026-04-12T08:43:10.352Z</time></trkpt><trkpt lat="43.85616966609588" lon="10.848464930642722"><ele>110.42857142857143</ele><time>2026-04-12T08:43:14.353Z</time></trkpt><trkpt lat="43.85623415909183" lon="10.848449887962444"><ele>111.85714285714286</ele><time>2026-04-12T08:43:18.353Z</time></trkpt><trkpt lat="43.85629787640818" lon="10.848391230594485"><ele>113.28571428571428</ele><time>2026-04-12T08:43:23.353Z</time></trkpt><trkpt lat="43.85636403630625" lon="10.848347105743496"><ele>114.71428571428572</ele><time>2026-04-12T08:43:28.353Z</time></trkpt><trkpt lat="43.85642064066703" lon="10.848277539407123"><ele>116.14285714285714</ele><time>2026-04-12T08:43:33.353Z</time></trkpt><trkpt lat="43.8564542923671" lon="10.848202046951325"><ele>117.57142857142857</ele><time>2026-04-12T08:43:37.353Z</time></trkpt><trkpt lat="43.85646194540492" lon="10.848096812332557"><ele>119.0</ele><time>2026-04-12T08:43:42.353Z</time></trkpt><trkpt lat="43.85647349356895" lon="10.848003316270193"><ele>119.0</ele><time>2026-04-12T08:43:47.353Z</time></trkpt><trkpt lat="43.85647943706726" lon="10.847908803077443"><ele>119.0</ele><time>2026-04-12T08:43:52.353Z</time></trkpt><trkpt lat="43.85649491955902" lon="10.847814561132282"><ele>119.0</ele><time>2026-04-12T08:43:57.353Z</time></trkpt><trkpt lat="43.85649101627305" lon="10.847717786083486"><ele>119.0</ele><time>2026-04-12T08:44:02.353Z</time></trkpt><trkpt lat="43.85650004549466" lon="10.847612724813393"><ele>119.0</ele><time>2026-04-12T08:44:08.352Z</time></trkpt><trkpt lat="43.85650266715373" lon="10.847514468910916"><ele>119.0</ele><time>2026-04-12T08:44:13.352Z</time></trkpt><trkpt lat="43.85650761309558" lon="10.847416072034557"><ele>119.0</ele><time>2026-04-12T08:44:18.352Z</time></trkpt><trkpt lat="43.856504567243846" lon="10.847327947338671"><ele>121.0</ele><time>2026-04-12T08:44:22.352Z</time></trkpt><trkpt lat="43.85650987873076" lon="10.847225947851914"><ele>123.0</ele><time>2026-04-12T08:44:27.352Z</time></trkpt><trkpt lat="43.8565201690119" lon="10.847124980529667"><ele>125.0</ele><time>2026-04-12T08:44:32.352Z</time></trkpt><trkpt lat="43.85654817005712" lon="10.847037191862038"><ele>127.0</ele><time>2026-04-12T08:44:37.352Z</time></trkpt><trkpt lat="43.85659573916879" lon="10.846975474978002"><ele>129.0</ele><time>2026-04-12T08:44:42.352Z</time></trkpt><trkpt lat="43.85664294210322" lon="10.846908886338374"><ele>131.0</ele><time>2026-04-12T08:44:47.352Z</time></trkpt><trkpt lat="43.85670146408614" lon="10.846876108975412"><ele>133.0</ele><time>2026-04-12T08:44:52.352Z</time></trkpt><trkpt lat="43.856755709888986" lon="10.846820989691468"><ele>137.42857142857142</ele><time>2026-04-12T08:44:57.352Z</time></trkpt><trkpt lat="43.85681026931619" lon="10.846767120689794"><ele>141.85714285714286</ele><time>2026-04-12T08:45:02.352Z</time></trkpt><trkpt lat="43.85687192115074" lon="10.846718981938356"><ele>146.28571428571428</ele><time>2026-04-12T08:45:07.352Z</time></trkpt><trkpt lat="43.8569347142955" lon="10.846699082598295"><ele>150.71428571428572</ele><time>2026-04-12T08:45:12.352Z</time></trkpt><trkpt lat="43.8569975317078" lon="10.846659319827797"><ele>155.14285714285714</ele><time>2026-04-12T08:45:17.352Z</time></trkpt><trkpt lat="43.85706746337409" lon="10.846628535874862"><ele>159.57142857142856</ele><time>2026-04-12T08:45:23.352Z</time></trkpt><trkpt lat="43.85712518328886" lon="10.846583923450432"><ele>164.0</ele><time>2026-04-12T08:45:29.352Z</time></trkpt><trkpt lat="43.85718180143208" lon="10.846537297161662"><ele>163.99999999999997</ele><time>2026-04-12T08:45:34.352Z</time></trkpt><trkpt lat="43.857229447393046" lon="10.846460399583124"><ele>164.0</ele><time>2026-04-12T08:45:40.352Z</time></trkpt><trkpt lat="43.8572123976857" lon="10.846362116796108"><ele>164.0</ele><time>2026-04-12T08:45:43.352Z</time></trkpt><trkpt lat="43.85719606698529" lon="10.84626975259224"><ele>164.0</ele><time>2026-04-12T08:45:45.352Z</time></trkpt><trkpt lat="43.85722083281852" lon="10.846158467872545"><ele>164.0</ele><time>2026-04-12T08:45:48.352Z</time></trkpt><trkpt lat="43.85723812364336" lon="10.84607298134317"><ele>163.99999999999997</ele><time>2026-04-12T08:45:51.352Z</time></trkpt><trkpt lat="43.85725327043906" lon="10.845971310656891"><ele>164.0</ele><time>2026-04-12T08:45:55.352Z</time></trkpt><trkpt lat="43.85724315874486" lon="10.8458596859142"><ele>164.28571428571428</ele><time>2026-04-12T08:45:59.352Z</time></trkpt><trkpt lat="43.85723934697997" lon="10.845764428736757"><ele>164.57142857142856</ele><time>2026-04-12T08:46:02.352Z</time></trkpt><trkpt lat="43.85724666488971" lon="10.845663213995316"><ele>164.85714285714283</ele><time>2026-04-12T08:46:05.352Z</time></trkpt><trkpt lat="43.85725645948902" lon="10.845561051801477"><ele>165.14285714285714</ele><time>2026-04-12T08:46:08.351Z</time></trkpt><trkpt lat="43.85727105409524" lon="10.845460950857513"><ele>165.42857142857144</ele><time>2026-04-12T08:46:11.351Z</time></trkpt><trkpt lat="43.85729607063096" lon="10.845366719698632"><ele>165.7142857142857</ele><time>2026-04-12T08:46:14.351Z</time></trkpt><trkpt lat="43.85733643981184" lon="10.845278618073921"><ele>166.0</ele><time>2026-04-12T08:46:17.351Z</time></trkpt><trkpt lat="43.85737971828741" lon="10.845194042049265"><ele>166.42857142857142</ele><time>2026-04-12T08:46:20.351Z</time></trkpt><trkpt lat="43.85743122196297" lon="10.845120009719865"><ele>166.85714285714286</ele><time>2026-04-12T08:46:23.351Z</time></trkpt><trkpt lat="43.85747651224474" lon="10.84505001720759"><ele>167.28571428571428</ele><time>2026-04-12T08:46:26.351Z</time></trkpt><trkpt lat="43.85752978561546" lon="10.8449753918277"><ele>167.71428571428572</ele><time>2026-04-12T08:46:30.351Z</time></trkpt><trkpt lat="43.857578481919305" lon="10.844917712706343"><ele>168.14285714285714</ele><time>2026-04-12T08:46:33.351Z</time></trkpt><trkpt lat="43.857630893608075" lon="10.844859041847105"><ele>168.57142857142858</ele><time>2026-04-12T08:46:36.351Z</time></trkpt><trkpt lat="43.85767825821353" lon="10.84478441422373"><ele>169.0</ele><time>2026-04-12T08:46:39.351Z</time></trkpt><trkpt lat="43.85773297562163" lon="10.84473166641731"><ele>169.0</ele><time>2026-04-12T08:46:42.351Z</time></trkpt><trkpt lat="43.85779335015889" lon="10.844677332435854"><ele>169.0</ele><time>2026-04-12T08:46:46.351Z</time></trkpt><trkpt lat="43.857857742021785" lon="10.84463865754259"><ele>169.0</ele><time>2026-04-12T08:46:51.351Z</time></trkpt><trkpt lat="43.857914797821934" lon="10.844594405800402"><ele>169.0</ele><time>2026-04-12T08:46:54.351Z</time></trkpt><trkpt lat="43.85799502668129" lon="10.844553575177219"><ele>169.0</ele><time>2026-04-12T08:46:57.351Z</time></trkpt><trkpt lat="43.85808416171638" lon="10.844505957270682"><ele>169.0</ele><time>2026-04-12T08:47:00.351Z</time></trkpt><trkpt lat="43.85815240111642" lon="10.844488009782118"><ele>169.0</ele><time>2026-04-12T08:47:02.351Z</time></trkpt><trkpt lat="43.85822778497143" lon="10.844467094116613"><ele>169.0</ele><time>2026-04-12T08:47:04.351Z</time></trkpt><trkpt lat="43.85831391431735" lon="10.84445107837103"><ele>169.0</ele><time>2026-04-12T08:47:06.351Z</time></trkpt><trkpt lat="43.85839075220835" lon="10.844443473554104"><ele>169.0</ele><time>2026-04-12T08:47:08.351Z</time></trkpt><trkpt lat="43.858462052286264" lon="10.844420532659285"><ele>169.0</ele><time>2026-04-12T08:47:10.351Z</time></trkpt><trkpt lat="43.85853963368975" lon="10.844397213963646"><ele>169.0</ele><time>2026-04-12T08:47:12.351Z</time></trkpt><trkpt lat="43.85860550063787" lon="10.844376205624613"><ele>168.28571428571428</ele><time>2026-04-12T08:47:14.351Z</time></trkpt><trkpt lat="43.85867647644682" lon="10.844351276665016"><ele>167.57142857142856</ele><time>2026-04-12T08:47:16.351Z</time></trkpt><trkpt lat="43.85875367764084" lon="10.844351549473243"><ele>166.85714285714283</ele><time>2026-04-12T08:47:19.351Z</time></trkpt><trkpt lat="43.85882007842255" lon="10.844319919883564"><ele>166.14285714285714</ele><time>2026-04-12T08:47:22.351Z</time></trkpt><trkpt lat="43.85888353614252" lon="10.844303841673653"><ele>165.42857142857142</ele><time>2026-04-12T08:47:25.351Z</time></trkpt><trkpt lat="43.85895357910703" lon="10.844311422033837"><ele>164.7142857142857</ele><time>2026-04-12T08:47:27.351Z</time></trkpt><trkpt lat="43.85901045151482" lon="10.844371807363197"><ele>164.0</ele><time>2026-04-12T08:47:32.351Z</time></trkpt><trkpt lat="43.85896094564155" lon="10.844543838299494"><ele>164.0</ele><time>2026-04-12T08:47:41.351Z</time></trkpt><trkpt lat="43.85893862889573" lon="10.84463867970074"><ele>164.0</ele><time>2026-04-12T08:47:45.351Z</time></trkpt><trkpt lat="43.858925802271166" lon="10.84472513169877"><ele>164.0</ele><time>2026-04-12T08:47:49.351Z</time></trkpt><trkpt lat="43.85890178731601" lon="10.844815800121394"><ele>164.0</ele><time>2026-04-12T08:47:53.351Z</time></trkpt><trkpt lat="43.8588850803597" lon="10.844903064759672"><ele>164.0</ele><time>2026-04-12T08:47:57.351Z</time></trkpt><trkpt lat="43.85870438987695" lon="10.844909675075478"><ele>163.99999999999997</ele><time>2026-04-12T08:48:09.351Z</time></trkpt><trkpt lat="43.858632954858095" lon="10.844912934599781"><ele>164.0</ele><time>2026-04-12T08:48:13.351Z</time></trkpt><trkpt lat="43.85856333881783" lon="10.844923297428435"><ele>164.0</ele><time>2026-04-12T08:48:17.35Z</time></trkpt><trkpt lat="43.85849697411192" lon="10.844893714117163"><ele>164.0</ele><time>2026-04-12T08:48:20.35Z</time></trkpt><trkpt lat="43.85843913152062" lon="10.84493763130392"><ele>164.0</ele><time>2026-04-12T08:48:24.35Z</time></trkpt><trkpt lat="43.858368501317464" lon="10.844951272580104"><ele>163.99999999999997</ele><time>2026-04-12T08:48:28.35Z</time></trkpt><trkpt lat="43.858292200484875" lon="10.844967001822331"><ele>164.0</ele><time>2026-04-12T08:48:33.35Z</time></trkpt><trkpt lat="43.85832504641579" lon="10.845246541743293"><ele>165.57142857142856</ele><time>2026-04-12T08:48:46.35Z</time></trkpt><trkpt lat="43.85833929678685" lon="10.84536160084203"><ele>167.14285714285714</ele><time>2026-04-12T08:48:51.35Z</time></trkpt><trkpt lat="43.85834942220816" lon="10.845472208010861"><ele>168.71428571428572</ele><time>2026-04-12T08:48:56.35Z</time></trkpt><trkpt lat="43.85835984186554" lon="10.845566078706451"><ele>170.28571428571428</ele><time>2026-04-12T08:49:01.35Z</time></trkpt><trkpt lat="43.85837088475616" lon="10.84565250231177"><ele>171.85714285714286</ele><time>2026-04-12T08:49:05.35Z</time></trkpt><trkpt lat="43.85839781657544" lon="10.845731549178785"><ele>173.42857142857142</ele><time>2026-04-12T08:49:10.35Z</time></trkpt><trkpt lat="43.85846469733053" lon="10.845755838897954"><ele>175.0</ele><time>2026-04-12T08:49:16.35Z</time></trkpt><trkpt lat="43.858526950260824" lon="10.845791968806314"><ele>175.0</ele><time>2026-04-12T08:49:22.35Z</time></trkpt><trkpt lat="43.85859443533883" lon="10.845837862792965"><ele>175.0</ele><time>2026-04-12T08:49:27.35Z</time></trkpt><trkpt lat="43.858658110221654" lon="10.845861937025361"><ele>175.0</ele><time>2026-04-12T08:49:32.35Z</time></trkpt><trkpt lat="43.85868274575959" lon="10.845952066567758"><ele>175.0</ele><time>2026-04-12T08:49:37.35Z</time></trkpt><trkpt lat="43.858742892754094" lon="10.84602585741533"><ele>175.0</ele><time>2026-04-12T08:52:03.35Z</time></trkpt><trkpt lat="43.858785861157514" lon="10.845934777485317"><ele>175.0</ele><time>2026-04-12T08:52:08.35Z</time></trkpt><trkpt lat="43.85881593271996" lon="10.845827000972077"><ele>175.0</ele><time>2026-04-12T08:52:11.35Z</time></trkpt><trkpt lat="43.85884311869981" lon="10.845741145777227"><ele>175.0</ele><time>2026-04-12T08:52:14.35Z</time></trkpt><trkpt lat="43.85885190210285" lon="10.84562704258595"><ele>175.0</ele><time>2026-04-12T08:52:17.35Z</time></trkpt><trkpt lat="43.858857832928805" lon="10.845524046467435"><ele>175.0</ele><time>2026-04-12T08:52:20.35Z</time></trkpt><trkpt lat="43.85901751050577" lon="10.845579519142017"><ele>175.0</ele><time>2026-04-12T08:52:32.349Z</time></trkpt><trkpt lat="43.8590817187045" lon="10.845630668969218"><ele>175.0</ele><time>2026-04-12T08:52:35.349Z</time></trkpt><trkpt lat="43.85913313338745" lon="10.845701621450473"><ele>175.0</ele><time>2026-04-12T08:52:38.349Z</time></trkpt><trkpt lat="43.85917674102822" lon="10.845772557565141"><ele>175.0</ele><time>2026-04-12T08:52:41.349Z</time></trkpt><trkpt lat="43.85922378781559" lon="10.845845040133302"><ele>175.0</ele><time>2026-04-12T08:52:44.349Z</time></trkpt><trkpt lat="43.85927111349759" lon="10.845942720637142"><ele>175.0</ele><time>2026-04-12T08:52:47.349Z</time></trkpt><trkpt lat="43.859285037705504" lon="10.846028150249342"><ele>175.0</ele><time>2026-04-12T08:52:50.349Z</time></trkpt><trkpt lat="43.85930406264547" lon="10.846122526684503"><ele>175.0</ele><time>2026-04-12T08:52:54.349Z</time></trkpt><trkpt lat="43.85932318548622" lon="10.846216219056567"><ele>171.57142857142858</ele><time>2026-04-12T08:52:57.349Z</time></trkpt><trkpt lat="43.85934040293991" lon="10.846302935117896"><ele>168.14285714285714</ele><time>2026-04-12T08:53:00.349Z</time></trkpt><trkpt lat="43.859362877061635" lon="10.84639575195828"><ele>164.71428571428572</ele><time>2026-04-12T08:53:03.349Z</time></trkpt><trkpt lat="43.85938020440567" lon="10.846483694555591"><ele>161.28571428571428</ele><time>2026-04-12T08:53:06.349Z</time></trkpt><trkpt lat="43.859400928898665" lon="10.846588984668948"><ele>157.85714285714286</ele><time>2026-04-12T08:53:09.349Z</time></trkpt><trkpt lat="43.859437451268874" lon="10.84667458595727"><ele>154.42857142857144</ele><time>2026-04-12T08:53:12.349Z</time></trkpt><trkpt lat="43.85946331609661" lon="10.846787393765883"><ele>151.0</ele><time>2026-04-12T08:53:16.349Z</time></trkpt><trkpt lat="43.85948995348351" lon="10.846898518848725"><ele>151.00000000000003</ele><time>2026-04-12T08:53:21.349Z</time></trkpt><trkpt lat="43.85951373896469" lon="10.846983492710335"><ele>151.0</ele><time>2026-04-12T08:53:25.349Z</time></trkpt><trkpt lat="43.85945120558068" lon="10.84701831851647"><ele>151.0</ele><time>2026-04-12T08:53:50.349Z</time></trkpt><trkpt lat="43.859471399042064" lon="10.846935464326254"><ele>151.0</ele><time>2026-04-12T08:53:55.349Z</time></trkpt><trkpt lat="43.85951888313116" lon="10.846847224320134"><ele>151.0</ele><time>2026-04-12T08:54:01.349Z</time></trkpt><trkpt lat="43.8595177110477" lon="10.846713332511555"><ele>151.00000000000003</ele><time>2026-04-12T08:54:04.349Z</time></trkpt><trkpt lat="43.85951521731524" lon="10.846606889366598"><ele>151.0</ele><time>2026-04-12T08:54:07.349Z</time></trkpt><trkpt lat="43.859516881537466" lon="10.846495198498523"><ele>151.0</ele><time>2026-04-12T08:54:11.349Z</time></trkpt><trkpt lat="43.85953562583316" lon="10.846401285282683"><ele>151.0</ele><time>2026-04-12T08:54:14.349Z</time></trkpt><trkpt lat="43.859548127397815" lon="10.846308784901122"><ele>151.0</ele><time>2026-04-12T08:54:17.349Z</time></trkpt><trkpt lat="43.859573833368664" lon="10.846196554542356"><ele>151.0</ele><time>2026-04-12T08:54:20.349Z</time></trkpt><trkpt lat="43.859589070151266" lon="10.846060946365512"><ele>151.0</ele><time>2026-04-12T08:54:23.349Z</time></trkpt><trkpt lat="43.85960410145822" lon="10.845965818711843"><ele>151.0</ele><time>2026-04-12T08:54:25.349Z</time></trkpt><trkpt lat="43.859589177409546" lon="10.846058185462038"><ele>151.0</ele><time>2026-04-12T08:54:38.348Z</time></trkpt><trkpt lat="43.859572576572496" lon="10.846173387690243"><ele>151.0</ele><time>2026-04-12T08:54:41.348Z</time></trkpt><trkpt lat="43.85955669651226" lon="10.846272814477487"><ele>151.0</ele><time>2026-04-12T08:54:44.348Z</time></trkpt><trkpt lat="43.85954008352891" lon="10.846373826701699"><ele>151.0</ele><time>2026-04-12T08:54:47.348Z</time></trkpt><trkpt lat="43.85953220553126" lon="10.846479802200044"><ele>151.0</ele><time>2026-04-12T08:54:50.348Z</time></trkpt><trkpt lat="43.85952513718726" lon="10.84658245228302"><ele>151.0</ele><time>2026-04-12T08:54:53.348Z</time></trkpt><trkpt lat="43.85952667232115" lon="10.846696245315055"><ele>151.0</ele><time>2026-04-12T08:54:56.348Z</time></trkpt><trkpt lat="43.85952751943146" lon="10.846821934082909"><ele>151.0</ele><time>2026-04-12T08:54:59.348Z</time></trkpt><trkpt lat="43.8595304464266" lon="10.846692350577417"><ele>151.0</ele><time>2026-04-12T08:55:07.348Z</time></trkpt><trkpt lat="43.85954142062226" lon="10.846563264905207"><ele>151.0</ele><time>2026-04-12T08:55:09.348Z</time></trkpt><trkpt lat="43.85955031738188" lon="10.846458615764043"><ele>151.0</ele><time>2026-04-12T08:55:10.348Z</time></trkpt><trkpt lat="43.85955928795289" lon="10.8463546310456"><ele>151.0</ele><time>2026-04-12T08:55:11.348Z</time></trkpt><trkpt lat="43.85956922550602" lon="10.846258996639856"><ele>151.0</ele><time>2026-04-12T08:55:12.348Z</time></trkpt><trkpt lat="43.85958344150965" lon="10.846168330837145"><ele>151.0</ele><time>2026-04-12T08:55:13.348Z</time></trkpt><trkpt lat="43.85960915376167" lon="10.84602265393112"><ele>151.0</ele><time>2026-04-12T08:55:15.348Z</time></trkpt><trkpt lat="43.85962070804837" lon="10.845921993081841"><ele>151.0</ele><time>2026-04-12T08:55:17.348Z</time></trkpt><trkpt lat="43.859624149415524" lon="10.845825570822106"><ele>151.0</ele><time>2026-04-12T08:55:20.348Z</time></trkpt><trkpt lat="43.85960960009392" lon="10.845734038250894"><ele>151.0</ele><time>2026-04-12T08:55:23.348Z</time></trkpt><trkpt lat="43.85954857549466" lon="10.845666984087893"><ele>150.8</ele><time>2026-04-12T08:55:28.348Z</time></trkpt><trkpt lat="43.85949964632729" lon="10.845585735074277"><ele>150.6</ele><time>2026-04-12T08:55:30.348Z</time></trkpt><trkpt lat="43.85942198895873" lon="10.845456249078344"><ele>150.4</ele><time>2026-04-12T08:55:32.348Z</time></trkpt><trkpt lat="43.859365467018776" lon="10.84535098757302"><ele>150.2</ele><time>2026-04-12T08:55:33.348Z</time></trkpt><trkpt lat="43.85930551712323" lon="10.845218349619909"><ele>150.0</ele><time>2026-04-12T08:55:35.348Z</time></trkpt><trkpt lat="43.859262693494266" lon="10.84513774568601"><ele>146.33333333333334</ele><time>2026-04-12T08:55:37.348Z</time></trkpt><trkpt lat="43.85922420510986" lon="10.845007500005238"><ele>142.66666666666669</ele><time>2026-04-12T08:55:39.348Z</time></trkpt><trkpt lat="43.8591968863305" lon="10.844887216350644"><ele>139.0</ele><time>2026-04-12T08:55:41.348Z</time></trkpt><trkpt lat="43.8595947535034" lon="10.84441681479626"><ele>139.0</ele><time>2026-04-12T08:55:42.348Z</time></trkpt><trkpt lat="43.859666746306324" lon="10.844432464797919"><ele>139.0</ele><time>2026-04-12T08:55:47.348Z</time></trkpt><trkpt lat="43.85969076015451" lon="10.84452264732294"><ele>139.0</ele><time>2026-04-12T08:55:49.348Z</time></trkpt><trkpt lat="43.85971826613458" lon="10.844617397658642"><ele>139.0</ele><time>2026-04-12T08:55:51.348Z</time></trkpt><trkpt lat="43.85975109730729" lon="10.844692130746758"><ele>139.0</ele><time>2026-04-12T08:55:53.348Z</time></trkpt><trkpt lat="43.85978144773327" lon="10.844791746443486"><ele>139.0</ele><time>2026-04-12T08:55:55.348Z</time></trkpt><trkpt lat="43.8598222198392" lon="10.84488599662255"><ele>139.0</ele><time>2026-04-12T08:55:57.348Z</time></trkpt><trkpt lat="43.859865900690195" lon="10.844985496850985"><ele>139.0</ele><time>2026-04-12T08:55:59.348Z</time></trkpt><trkpt lat="43.859911771848004" lon="10.845064721253893"><ele>139.0</ele><time>2026-04-12T08:56:01.348Z</time></trkpt><trkpt lat="43.859965789966424" lon="10.845131984682114"><ele>139.0</ele><time>2026-04-12T08:56:03.348Z</time></trkpt><trkpt lat="43.86002241114489" lon="10.845190192941164"><ele>139.0</ele><time>2026-04-12T08:56:05.348Z</time></trkpt><trkpt lat="43.860097673257265" lon="10.845249440330749"><ele>139.0</ele><time>2026-04-12T08:56:08.348Z</time></trkpt><trkpt lat="43.86015306621632" lon="10.84530485989509"><ele>139.0</ele><time>2026-04-12T08:56:10.348Z</time></trkpt><trkpt lat="43.86020337605075" lon="10.8453626540181"><ele>139.0</ele><time>2026-04-12T08:56:12.348Z</time></trkpt><trkpt lat="43.860240632196756" lon="10.845438820275197"><ele>138.83333333333334</ele><time>2026-04-12T08:56:14.348Z</time></trkpt><trkpt lat="43.8602680007995" lon="10.845527568612287"><ele>138.66666666666669</ele><time>2026-04-12T08:56:16.348Z</time></trkpt><trkpt lat="43.860295781301254" lon="10.845619252470993"><ele>138.5</ele><time>2026-04-12T08:56:18.348Z</time></trkpt><trkpt lat="43.86032222993444" lon="10.845700016675861"><ele>138.33333333333334</ele><time>2026-04-12T08:56:21.348Z</time></trkpt><trkpt lat="43.86035404116039" lon="10.845822826486852"><ele>138.16666666666666</ele><time>2026-04-12T08:56:24.348Z</time></trkpt><trkpt lat="43.86037916943968" lon="10.845940491426333"><ele>138.0</ele><time>2026-04-12T08:56:27.348Z</time></trkpt><trkpt lat="43.860408756850155" lon="10.846050245103307"><ele>138.0</ele><time>2026-04-12T08:56:30.348Z</time></trkpt><trkpt lat="43.860441265064416" lon="10.846175282309545"><ele>138.0</ele><time>2026-04-12T08:56:33.348Z</time></trkpt><trkpt lat="43.86047932250283" lon="10.846255551102029"><ele>138.0</ele><time>2026-04-12T08:56:35.348Z</time></trkpt><trkpt lat="43.860553670890326" lon="10.846283579209743"><ele>138.0</ele><time>2026-04-12T08:56:37.347Z</time></trkpt><trkpt lat="43.86064525324235" lon="10.846266912845936"><ele>138.0</ele><time>2026-04-12T08:56:40.347Z</time></trkpt><trkpt lat="43.8607279633385" lon="10.846238953644974"><ele>138.0</ele><time>2026-04-12T08:56:43.347Z</time></trkpt><trkpt lat="43.860807556791" lon="10.846207304622292"><ele>138.0</ele><time>2026-04-12T08:56:46.347Z</time></trkpt><trkpt lat="43.86088707512285" lon="10.846162799273074"><ele>138.0</ele><time>2026-04-12T08:56:50.347Z</time></trkpt><trkpt lat="43.860938797597406" lon="10.846092813909625"><ele>138.0</ele><time>2026-04-12T08:56:54.347Z</time></trkpt><trkpt lat="43.86097275852055" lon="10.846014758881147"><ele>138.0</ele><time>2026-04-12T08:56:57.347Z</time></trkpt><trkpt lat="43.861024280757064" lon="10.845910798951792"><ele>138.0</ele><time>2026-04-12T08:57:01.347Z</time></trkpt><trkpt lat="43.86106314122643" lon="10.84580286450109"><ele>138.0</ele><time>2026-04-12T08:57:05.347Z</time></trkpt><trkpt lat="43.86109483544234" lon="10.845695027621145"><ele>138.42857142857144</ele><time>2026-04-12T08:57:09.347Z</time></trkpt><trkpt lat="43.8611276229628" lon="10.845774513938432"><ele>138.85714285714286</ele><time>2026-04-12T08:57:18.347Z</time></trkpt><trkpt lat="43.86112758355721" lon="10.845879387412232"><ele>139.28571428571428</ele><time>2026-04-12T08:57:23.347Z</time></trkpt><trkpt lat="43.86112931994327" lon="10.845970623332743"><ele>139.71428571428572</ele><time>2026-04-12T08:57:26.347Z</time></trkpt><trkpt lat="43.861126998627746" lon="10.846070900855292"><ele>140.14285714285714</ele><time>2026-04-12T08:57:29.347Z</time></trkpt><trkpt lat="43.86112152252338" lon="10.846164025598867"><ele>140.57142857142858</ele><time>2026-04-12T08:57:32.347Z</time></trkpt><trkpt lat="43.86111055266197" lon="10.846261174170014"><ele>141.0</ele><time>2026-04-12T08:57:35.347Z</time></trkpt><trkpt lat="43.861093717047005" lon="10.84635698205687"><ele>140.5</ele><time>2026-04-12T08:57:38.347Z</time></trkpt><trkpt lat="43.86108242276193" lon="10.846470731162148"><ele>140.0</ele><time>2026-04-12T08:57:42.347Z</time></trkpt><trkpt lat="43.86106064664899" lon="10.846564830840581"><ele>139.5</ele><time>2026-04-12T08:57:45.347Z</time></trkpt><trkpt lat="43.86101680564698" lon="10.846637503723557"><ele>139.0</ele><time>2026-04-12T08:57:47.347Z</time></trkpt><trkpt lat="43.860947062758115" lon="10.846718192125898"><ele>138.5</ele><time>2026-04-12T08:57:49.347Z</time></trkpt><trkpt lat="43.86088228347299" lon="10.846805233562225"><ele>138.0</ele><time>2026-04-12T08:57:51.347Z</time></trkpt><trkpt lat="43.8608090000626" lon="10.846881955977846"><ele>139.0</ele><time>2026-04-12T08:57:53.347Z</time></trkpt><trkpt lat="43.86075126586784" lon="10.846977215792245"><ele>140.0</ele><time>2026-04-12T08:57:55.347Z</time></trkpt><trkpt lat="43.86070069546897" lon="10.847078673702672"><ele>141.0</ele><time>2026-04-12T08:57:57.347Z</time></trkpt><trkpt lat="43.86067384907678" lon="10.84717917605198"><ele>142.0</ele><time>2026-04-12T08:57:59.347Z</time></trkpt><trkpt lat="43.86066800619883" lon="10.847275674711792"><ele>143.0</ele><time>2026-04-12T08:58:01.347Z</time></trkpt><trkpt lat="43.86065999303945" lon="10.847367851439325"><ele>144.0</ele><time>2026-04-12T08:58:03.347Z</time></trkpt><trkpt lat="43.86064983839864" lon="10.847458848140574"><ele>144.0</ele><time>2026-04-12T08:58:05.347Z</time></trkpt><trkpt lat="43.86064542666185" lon="10.847577968095017"><ele>144.0</ele><time>2026-04-12T08:58:08.347Z</time></trkpt><trkpt lat="43.860647731967425" lon="10.847667052135627"><ele>144.0</ele><time>2026-04-12T08:58:10.347Z</time></trkpt><trkpt lat="43.86068104333295" lon="10.847750811083376"><ele>144.0</ele><time>2026-04-12T08:58:12.347Z</time></trkpt><trkpt lat="43.86074664271079" lon="10.847836752189277"><ele>144.0</ele><time>2026-04-12T08:58:15.347Z</time></trkpt><trkpt lat="43.86080780765703" lon="10.847909416940087"><ele>144.0</ele><time>2026-04-12T08:58:18.347Z</time></trkpt><trkpt lat="43.860872690127366" lon="10.847969869919899"><ele>145.16666666666666</ele><time>2026-04-12T08:58:21.347Z</time></trkpt><trkpt lat="43.860917292996405" lon="10.848052569478103"><ele>146.33333333333334</ele><time>2026-04-12T08:58:24.347Z</time></trkpt><trkpt lat="43.8608913759162" lon="10.84816449524152"><ele>147.5</ele><time>2026-04-12T08:58:27.347Z</time></trkpt><trkpt lat="43.86082351739636" lon="10.848199288846747"><ele>148.66666666666669</ele><time>2026-04-12T08:58:29.347Z</time></trkpt><trkpt lat="43.86075215312067" lon="10.848192972086611"><ele>149.83333333333334</ele><time>2026-04-12T08:58:32.347Z</time></trkpt><trkpt lat="43.860663420704554" lon="10.848188695214061"><ele>151.0</ele><time>2026-04-12T08:58:35.347Z</time></trkpt><trkpt lat="43.86057498672885" lon="10.848156945543542"><ele>151.00000000000003</ele><time>2026-04-12T08:58:38.347Z</time></trkpt><trkpt lat="43.86049170729096" lon="10.848135652113728"><ele>151.0</ele><time>2026-04-12T08:58:41.347Z</time></trkpt><trkpt lat="43.86042125462852" lon="10.848090056589292"><ele>151.0</ele><time>2026-04-12T08:58:44.346Z</time></trkpt><trkpt lat="43.86035796770475" lon="10.84806622860914"><ele>151.0</ele><time>2026-04-12T08:58:47.346Z</time></trkpt><trkpt lat="43.8602802659644" lon="10.84805703625774"><ele>151.0</ele><time>2026-04-12T08:58:51.346Z</time></trkpt><trkpt lat="43.86021490162293" lon="10.848024335883224"><ele>151.00000000000003</ele><time>2026-04-12T08:58:55.346Z</time></trkpt><trkpt lat="43.86015689548717" lon="10.847974720034115"><ele>151.0</ele><time>2026-04-12T08:58:59.346Z</time></trkpt><trkpt lat="43.86010922310826" lon="10.8478777762541"><ele>151.00000000000003</ele><time>2026-04-12T08:59:05.346Z</time></trkpt><trkpt lat="43.8601357481813" lon="10.847795560963236"><ele>151.0</ele><time>2026-04-12T08:59:07.346Z</time></trkpt><trkpt lat="43.86013149949638" lon="10.847693879341454"><ele>151.0</ele><time>2026-04-12T08:59:11.346Z</time></trkpt><trkpt lat="43.860133933982674" lon="10.84760660368617"><ele>151.0</ele><time>2026-04-12T08:59:15.346Z</time></trkpt><trkpt lat="43.860045195851825" lon="10.847669903304958"><ele>151.0</ele><time>2026-04-12T08:59:21.346Z</time></trkpt><trkpt lat="43.860061135855524" lon="10.847762187243418"><ele>151.00000000000003</ele><time>2026-04-12T08:59:24.346Z</time></trkpt><trkpt lat="43.86005225303006" lon="10.84785001836428"><ele>151.0</ele><time>2026-04-12T08:59:28.346Z</time></trkpt><trkpt lat="43.86001171474557" lon="10.847937119260466"><ele>151.0</ele><time>2026-04-12T08:59:33.346Z</time></trkpt><trkpt lat="43.859983714148115" lon="10.8480468827886"><ele>151.0</ele><time>2026-04-12T08:59:37.346Z</time></trkpt><trkpt lat="43.86000938237465" lon="10.848132831116695"><ele>151.0</ele><time>2026-04-12T09:00:20.346Z</time></trkpt><trkpt lat="43.86006183971839" lon="10.84818902485078"><ele>151.0</ele><time>2026-04-12T09:00:23.346Z</time></trkpt><trkpt lat="43.86013802020982" lon="10.848230438761233"><ele>151.0</ele><time>2026-04-12T09:00:26.346Z</time></trkpt><trkpt lat="43.86020015064636" lon="10.848306005622009"><ele>151.0</ele><time>2026-04-12T09:00:29.346Z</time></trkpt><trkpt lat="43.860254947804044" lon="10.848375133551176"><ele>151.00000000000003</ele><time>2026-04-12T09:00:32.346Z</time></trkpt><trkpt lat="43.860296941567405" lon="10.84844057500057"><ele>151.0</ele><time>2026-04-12T09:00:35.346Z</time></trkpt><trkpt lat="43.86035082621201" lon="10.84852122782971"><ele>151.0</ele><time>2026-04-12T09:00:39.346Z</time></trkpt><trkpt lat="43.86040030826153" lon="10.84859508040386"><ele>151.0</ele><time>2026-04-12T09:00:43.346Z</time></trkpt><trkpt lat="43.860445337239845" lon="10.848661940172436"><ele>151.0</ele><time>2026-04-12T09:00:47.346Z</time></trkpt><trkpt lat="43.86048860974386" lon="10.848731431982412"><ele>151.00000000000003</ele><time>2026-04-12T09:00:51.345Z</time></trkpt><trkpt lat="43.860537340965024" lon="10.848795146107419"><ele>151.0</ele><time>2026-04-12T09:00:55.345Z</time></trkpt><trkpt lat="43.860582103317505" lon="10.848863599546156"><ele>152.71428571428572</ele><time>2026-04-12T09:00:59.345Z</time></trkpt><trkpt lat="43.86062821065016" lon="10.848933242579994"><ele>154.42857142857144</ele><time>2026-04-12T09:01:03.345Z</time></trkpt><trkpt lat="43.86067796421323" lon="10.84901424040352"><ele>156.14285714285717</ele><time>2026-04-12T09:01:08.345Z</time></trkpt><trkpt lat="43.86072764314643" lon="10.849071555065903"><ele>157.85714285714286</ele><time>2026-04-12T09:01:12.345Z</time></trkpt><trkpt lat="43.86076798769682" lon="10.849142270329862"><ele>159.57142857142856</ele><time>2026-04-12T09:01:16.345Z</time></trkpt><trkpt lat="43.86081713472507" lon="10.849205858094475"><ele>161.2857142857143</ele><time>2026-04-12T09:01:20.345Z</time></trkpt><trkpt lat="43.860864313052254" lon="10.849269401657109"><ele>163.0</ele><time>2026-04-12T09:01:24.345Z</time></trkpt><trkpt lat="43.86091717000267" lon="10.84935271928873"><ele>164.57142857142858</ele><time>2026-04-12T09:01:29.345Z</time></trkpt><trkpt lat="43.8609682455287" lon="10.849416402444103"><ele>166.14285714285714</ele><time>2026-04-12T09:01:33.345Z</time></trkpt><trkpt lat="43.86101600589877" lon="10.849487182850137"><ele>167.71428571428572</ele><time>2026-04-12T09:01:37.345Z</time></trkpt><trkpt lat="43.86106340610285" lon="10.849561741489621"><ele>169.28571428571428</ele><time>2026-04-12T09:01:41.345Z</time></trkpt><trkpt lat="43.861116738863814" lon="10.849633903845568"><ele>170.85714285714286</ele><time>2026-04-12T09:01:45.345Z</time></trkpt><trkpt lat="43.86116108220499" lon="10.84971204472828"><ele>172.42857142857142</ele><time>2026-04-12T09:01:49.345Z</time></trkpt><trkpt lat="43.86121346574739" lon="10.849788512036028"><ele>174.0</ele><time>2026-04-12T09:01:53.345Z</time></trkpt><trkpt lat="43.861273562135054" lon="10.849861220750094"><ele>174.0</ele><time>2026-04-12T09:01:57.345Z</time></trkpt><trkpt lat="43.86133267863162" lon="10.849933795367392"><ele>174.0</ele><time>2026-04-12T09:02:01.345Z</time></trkpt><trkpt lat="43.86139832128302" lon="10.85000335378551"><ele>174.0</ele><time>2026-04-12T09:02:05.345Z</time></trkpt><trkpt lat="43.861469775876" lon="10.850063344207431"><ele>174.0</ele><time>2026-04-12T09:02:09.345Z</time></trkpt><trkpt lat="43.861536897657665" lon="10.850122157207382"><ele>174.0</ele><time>2026-04-12T09:02:13.345Z</time></trkpt><trkpt lat="43.8616093594471" lon="10.850166211175187"><ele>174.0</ele><time>2026-04-12T09:02:17.345Z</time></trkpt><trkpt lat="43.86166944802485" lon="10.850197506024942"><ele>174.5</ele><time>2026-04-12T09:02:20.345Z</time></trkpt><trkpt lat="43.8617453239054" lon="10.85023897656061"><ele>175.0</ele><time>2026-04-12T09:02:24.345Z</time></trkpt><trkpt lat="43.86182519805627" lon="10.850263831283456"><ele>175.5</ele><time>2026-04-12T09:02:28.345Z</time></trkpt><trkpt lat="43.86190178705109" lon="10.850291328087856"><ele>176.0</ele><time>2026-04-12T09:02:32.345Z</time></trkpt><trkpt lat="43.86197922725672" lon="10.85031739870553"><ele>176.5</ele><time>2026-04-12T09:02:36.345Z</time></trkpt><trkpt lat="43.8620553248576" lon="10.85032638417964"><ele>177.0</ele><time>2026-04-12T09:02:40.345Z</time></trkpt><trkpt lat="43.86213492189108" lon="10.85033057699294"><ele>177.0</ele><time>2026-04-12T09:02:44.345Z</time></trkpt><trkpt lat="43.86221299488945" lon="10.850338611270121"><ele>177.0</ele><time>2026-04-12T09:02:48.345Z</time></trkpt><trkpt lat="43.86228894750328" lon="10.850349668361297"><ele>177.0</ele><time>2026-04-12T09:02:52.345Z</time></trkpt><trkpt lat="43.86236308169771" lon="10.850355373375244"><ele>177.0</ele><time>2026-04-12T09:02:56.344Z</time></trkpt><trkpt lat="43.86243285094124" lon="10.850367111341432"><ele>177.0</ele><time>2026-04-12T09:03:00.344Z</time></trkpt><trkpt lat="43.86249970013345" lon="10.850373824966745"><ele>177.0</ele><time>2026-04-12T09:03:04.344Z</time></trkpt><trkpt lat="43.862570424194516" lon="10.850377892639633"><ele>177.0</ele><time>2026-04-12T09:03:08.344Z</time></trkpt><trkpt lat="43.86263934460126" lon="10.850373381152785"><ele>179.42857142857144</ele><time>2026-04-12T09:03:12.344Z</time></trkpt><trkpt lat="43.862702247093445" lon="10.850395898519341"><ele>181.85714285714283</ele><time>2026-04-12T09:03:16.344Z</time></trkpt><trkpt lat="43.862780001712736" lon="10.850398204740086"><ele>184.28571428571428</ele><time>2026-04-12T09:03:21.344Z</time></trkpt><trkpt lat="43.862857725070704" lon="10.85040257335158"><ele>186.71428571428572</ele><time>2026-04-12T09:03:26.344Z</time></trkpt><trkpt lat="43.862929624843005" lon="10.850408962294683"><ele>189.14285714285717</ele><time>2026-04-12T09:03:31.344Z</time></trkpt><trkpt lat="43.862996042175176" lon="10.850417222092512"><ele>191.57142857142856</ele><time>2026-04-12T09:03:35.344Z</time></trkpt><trkpt lat="43.86305978669901" lon="10.850421869381972"><ele>194.0</ele><time>2026-04-12T09:03:39.344Z</time></trkpt><trkpt lat="43.863126194664495" lon="10.850421379932833"><ele>194.0</ele><time>2026-04-12T09:03:43.344Z</time></trkpt><trkpt lat="43.863200692666105" lon="10.850428893758481"><ele>194.0</ele><time>2026-04-12T09:03:48.344Z</time></trkpt><trkpt lat="43.863266377006696" lon="10.85043222907399"><ele>194.0</ele><time>2026-04-12T09:03:52.344Z</time></trkpt><trkpt lat="43.86334167207156" lon="10.850448562685354"><ele>194.0</ele><time>2026-04-12T09:03:57.344Z</time></trkpt><trkpt lat="43.86341574416144" lon="10.850460001146221"><ele>194.0</ele><time>2026-04-12T09:04:02.344Z</time></trkpt><trkpt lat="43.863490459706654" lon="10.850481785196589"><ele>194.0</ele><time>2026-04-12T09:04:07.344Z</time></trkpt><trkpt lat="43.863548617875686" lon="10.850527386025066"><ele>194.0</ele><time>2026-04-12T09:04:12.344Z</time></trkpt><trkpt lat="43.86361409870583" lon="10.850546174837424"><ele>196.42857142857142</ele><time>2026-04-12T09:04:16.344Z</time></trkpt><trkpt lat="43.86368853819558" lon="10.85058521635446"><ele>198.85714285714286</ele><time>2026-04-12T09:04:21.344Z</time></trkpt><trkpt lat="43.86375116983007" lon="10.850601580985247"><ele>201.28571428571428</ele><time>2026-04-12T09:04:25.344Z</time></trkpt><trkpt lat="43.86381440095633" lon="10.850622683835562"><ele>203.71428571428572</ele><time>2026-04-12T09:04:29.344Z</time></trkpt><trkpt lat="43.86388902460792" lon="10.85064401447563"><ele>206.14285714285717</ele><time>2026-04-12T09:04:34.344Z</time></trkpt><trkpt lat="43.863965067167" lon="10.850659246151944"><ele>208.57142857142858</ele><time>2026-04-12T09:04:39.344Z</time></trkpt><trkpt lat="43.864038165110216" lon="10.85068721801698"><ele>211.0</ele><time>2026-04-12T09:04:44.344Z</time></trkpt><trkpt lat="43.86410975318186" lon="10.850712292100685"><ele>211.0</ele><time>2026-04-12T09:04:49.344Z</time></trkpt><trkpt lat="43.8641822704435" lon="10.850717418184322"><ele>211.0</ele><time>2026-04-12T09:04:54.344Z</time></trkpt><trkpt lat="43.86425870973597" lon="10.850743081185424"><ele>211.0</ele><time>2026-04-12T09:04:59.344Z</time></trkpt><trkpt lat="43.86431701598919" lon="10.85078442366657"><ele>211.0</ele><time>2026-04-12T09:05:03.343Z</time></trkpt><trkpt lat="43.86438194942725" lon="10.850800744314547"><ele>211.0</ele><time>2026-04-12T09:05:07.343Z</time></trkpt><trkpt lat="43.86444618880687" lon="10.850818021921274"><ele>211.0</ele><time>2026-04-12T09:05:11.343Z</time></trkpt><trkpt lat="43.86451101172666" lon="10.850841235451156"><ele>211.0</ele><time>2026-04-12T09:05:15.343Z</time></trkpt><trkpt lat="43.86457965699924" lon="10.850857919899882"><ele>210.57142857142858</ele><time>2026-04-12T09:05:19.343Z</time></trkpt><trkpt lat="43.86464127840186" lon="10.850895895946172"><ele>210.14285714285717</ele><time>2026-04-12T09:05:23.343Z</time></trkpt><trkpt lat="43.86468516868936" lon="10.850980064835895"><ele>209.71428571428572</ele><time>2026-04-12T09:05:27.343Z</time></trkpt><trkpt lat="43.86472561249923" lon="10.851054196471793"><ele>209.28571428571428</ele><time>2026-04-12T09:05:31.343Z</time></trkpt><trkpt lat="43.86475530420826" lon="10.851149874982353"><ele>208.85714285714286</ele><time>2026-04-12T09:05:35.343Z</time></trkpt><trkpt lat="43.86476988634251" lon="10.851245695628517"><ele>208.42857142857142</ele><time>2026-04-12T09:05:39.343Z</time></trkpt><trkpt lat="43.86478350624587" lon="10.851339356361974"><ele>208.0</ele><time>2026-04-12T09:05:43.343Z</time></trkpt><trkpt lat="43.864811706888666" lon="10.851424909830152"><ele>209.7142857142857</ele><time>2026-04-12T09:05:47.343Z</time></trkpt><trkpt lat="43.864827737194545" lon="10.851517352230138"><ele>211.42857142857144</ele><time>2026-04-12T09:05:51.343Z</time></trkpt><trkpt lat="43.86485844996668" lon="10.851603771484834"><ele>213.14285714285714</ele><time>2026-04-12T09:05:55.343Z</time></trkpt><trkpt lat="43.864897632505844" lon="10.851678850736883"><ele>214.85714285714283</ele><time>2026-04-12T09:05:59.343Z</time></trkpt><trkpt lat="43.864941852901495" lon="10.85174671987249"><ele>216.57142857142856</ele><time>2026-04-12T09:06:03.343Z</time></trkpt><trkpt lat="43.864984789488815" lon="10.851819543842618"><ele>218.28571428571428</ele><time>2026-04-12T09:06:07.343Z</time></trkpt><trkpt lat="43.86503591830439" lon="10.851881289377861"><ele>220.0</ele><time>2026-04-12T09:06:11.343Z</time></trkpt><trkpt lat="43.8650864702425" lon="10.85194564146445"><ele>222.42857142857142</ele><time>2026-04-12T09:06:15.343Z</time></trkpt><trkpt lat="43.865135528236166" lon="10.852013451922069"><ele>224.85714285714283</ele><time>2026-04-12T09:06:19.343Z</time></trkpt><trkpt lat="43.86518756266771" lon="10.85207443377926"><ele>227.28571428571428</ele><time>2026-04-12T09:06:23.343Z</time></trkpt><trkpt lat="43.86524095838558" lon="10.852135056843217"><ele>229.7142857142857</ele><time>2026-04-12T09:06:27.343Z</time></trkpt><trkpt lat="43.86529673898054" lon="10.852194277590048"><ele>232.14285714285714</ele><time>2026-04-12T09:06:31.343Z</time></trkpt><trkpt lat="43.86535576662385" lon="10.852245575766318"><ele>234.57142857142853</ele><time>2026-04-12T09:06:35.343Z</time></trkpt><trkpt lat="43.865426965967146" lon="10.852293665658914"><ele>236.99999999999997</ele><time>2026-04-12T09:06:40.343Z</time></trkpt><trkpt lat="43.865493676543046" lon="10.852342710236629"><ele>236.99999999999997</ele><time>2026-04-12T09:06:44.343Z</time></trkpt><trkpt lat="43.86555304126172" lon="10.852388898855578"><ele>237.0</ele><time>2026-04-12T09:06:48.343Z</time></trkpt><trkpt lat="43.865615360694015" lon="10.852426207938073"><ele>236.99999999999997</ele><time>2026-04-12T09:06:52.343Z</time></trkpt><trkpt lat="43.86566931792111" lon="10.852482625046617"><ele>236.99999999999997</ele><time>2026-04-12T09:06:56.343Z</time></trkpt><trkpt lat="43.865722522198524" lon="10.852541617633937"><ele>237.0</ele><time>2026-04-12T09:07:00.343Z</time></trkpt><trkpt lat="43.865774569842365" lon="10.852607213172133"><ele>236.99999999999997</ele><time>2026-04-12T09:07:04.343Z</time></trkpt><trkpt lat="43.865817230619655" lon="10.852683864904561"><ele>236.99999999999997</ele><time>2026-04-12T09:07:08.341Z</time></trkpt><trkpt lat="43.86585773237974" lon="10.852769142653216"><ele>238.1428571428571</ele><time>2026-04-12T09:07:12.341Z</time></trkpt><trkpt lat="43.86589556563154" lon="10.85285016480377"><ele>239.28571428571428</ele><time>2026-04-12T09:07:16.341Z</time></trkpt><trkpt lat="43.86592320490225" lon="10.852938053065126"><ele>240.42857142857142</ele><time>2026-04-12T09:07:20.341Z</time></trkpt><trkpt lat="43.86595973911021" lon="10.853022360576833"><ele>241.57142857142856</ele><time>2026-04-12T09:07:24.341Z</time></trkpt><trkpt lat="43.86599688154002" lon="10.85309789035668"><ele>242.71428571428572</ele><time>2026-04-12T09:07:28.341Z</time></trkpt><trkpt lat="43.86603457254445" lon="10.853178492081538"><ele>243.85714285714286</ele><time>2026-04-12T09:07:32.341Z</time></trkpt><trkpt lat="43.86607657105352" lon="10.853261902665132"><ele>245.0</ele><time>2026-04-12T09:07:36.341Z</time></trkpt><trkpt lat="43.86610687274083" lon="10.853344690271824"><ele>245.0</ele><time>2026-04-12T09:07:40.341Z</time></trkpt><trkpt lat="43.866136632016094" lon="10.853427938856472"><ele>245.0</ele><time>2026-04-12T09:07:44.341Z</time></trkpt><trkpt lat="43.8661755914602" lon="10.853505742985918"><ele>245.0</ele><time>2026-04-12T09:07:48.341Z</time></trkpt><trkpt lat="43.86620382888016" lon="10.853595835353246"><ele>245.0</ele><time>2026-04-12T09:07:52.341Z</time></trkpt><trkpt lat="43.866243247378854" lon="10.853672758712827"><ele>245.0</ele><time>2026-04-12T09:07:56.341Z</time></trkpt><trkpt lat="43.86626788190567" lon="10.853757849702653"><ele>245.0</ele><time>2026-04-12T09:08:00.341Z</time></trkpt><trkpt lat="43.86631131662994" lon="10.853838606555136"><ele>245.0</ele><time>2026-04-12T09:08:04.341Z</time></trkpt><trkpt lat="43.866351564756556" lon="10.853914744085396"><ele>247.14285714285714</ele><time>2026-04-12T09:08:08.341Z</time></trkpt><trkpt lat="43.866396106617046" lon="10.853990193587574"><ele>249.28571428571428</ele><time>2026-04-12T09:08:12.341Z</time></trkpt><trkpt lat="43.8664363022898" lon="10.854065382640314"><ele>251.42857142857144</ele><time>2026-04-12T09:08:16.341Z</time></trkpt><trkpt lat="43.866480687915114" lon="10.854138955622098"><ele>253.57142857142858</ele><time>2026-04-12T09:08:20.341Z</time></trkpt><trkpt lat="43.86652012881647" lon="10.854220935304568"><ele>255.71428571428572</ele><time>2026-04-12T09:08:24.341Z</time></trkpt><trkpt lat="43.86654635558213" lon="10.854314962212099"><ele>257.8571428571429</ele><time>2026-04-12T09:08:28.341Z</time></trkpt><trkpt lat="43.866575767892336" lon="10.854408469764943"><ele>260.0</ele><time>2026-04-12T09:08:32.341Z</time></trkpt><trkpt lat="43.86659113921268" lon="10.854512412723379"><ele>259.7142857142857</ele><time>2026-04-12T09:08:36.341Z</time></trkpt><trkpt lat="43.866612623679764" lon="10.854614247742234"><ele>259.42857142857144</ele><time>2026-04-12T09:08:40.341Z</time></trkpt><trkpt lat="43.86662881683315" lon="10.854715568058692"><ele>259.1428571428571</ele><time>2026-04-12T09:08:44.341Z</time></trkpt><trkpt lat="43.86664737222829" lon="10.85481517649559"><ele>258.8571428571429</ele><time>2026-04-12T09:08:48.341Z</time></trkpt><trkpt lat="43.86666575702623" lon="10.854915652326792"><ele>258.57142857142856</ele><time>2026-04-12T09:08:52.341Z</time></trkpt><trkpt lat="43.866679318620974" lon="10.85501621935556"><ele>258.2857142857143</ele><time>2026-04-12T09:08:56.341Z</time></trkpt><trkpt lat="43.86669263492509" lon="10.855117654870751"><ele>258.0</ele><time>2026-04-12T09:09:00.341Z</time></trkpt><trkpt lat="43.86671481360047" lon="10.855220587533676"><ele>257.99999999999994</ele><time>2026-04-12T09:09:04.341Z</time></trkpt><trkpt lat="43.86674314216434" lon="10.855322722145623"><ele>258.0</ele><time>2026-04-12T09:09:08.341Z</time></trkpt><trkpt lat="43.86678058705089" lon="10.855415670747872"><ele>258.0</ele><time>2026-04-12T09:09:12.34Z</time></trkpt><trkpt lat="43.86683694008329" lon="10.855494634832365"><ele>258.0</ele><time>2026-04-12T09:09:16.34Z</time></trkpt><trkpt lat="43.86687829677657" lon="10.85556133450838"><ele>258.0</ele><time>2026-04-12T09:09:19.34Z</time></trkpt><trkpt lat="43.86692158694749" lon="10.855628476276827"><ele>257.99999999999994</ele><time>2026-04-12T09:09:22.34Z</time></trkpt><trkpt lat="43.86697285348107" lon="10.855695812437625"><ele>258.0</ele><time>2026-04-12T09:09:25.34Z</time></trkpt><trkpt lat="43.867024998064295" lon="10.855783099903949"><ele>256.8</ele><time>2026-04-12T09:09:28.34Z</time></trkpt><trkpt lat="43.867109404987964" lon="10.855836299560623"><ele>255.60000000000002</ele><time>2026-04-12T09:09:31.34Z</time></trkpt><trkpt lat="43.86717103266836" lon="10.855887107346291"><ele>254.39999999999998</ele><time>2026-04-12T09:09:33.34Z</time></trkpt><trkpt lat="43.86724779778742" lon="10.855932895546475"><ele>253.2</ele><time>2026-04-12T09:09:35.34Z</time></trkpt><trkpt lat="43.867340677692496" lon="10.855983980339811"><ele>252.0</ele><time>2026-04-12T09:09:37.34Z</time></trkpt><trkpt lat="43.86746202189883" lon="10.856022987088387"><ele>252.0</ele><time>2026-04-12T09:09:39.34Z</time></trkpt><trkpt lat="43.867530559104914" lon="10.856034710651095"><ele>252.0</ele><time>2026-04-12T09:09:40.34Z</time></trkpt><trkpt lat="43.867602905892475" lon="10.856046880913802"><ele>252.0</ele><time>2026-04-12T09:09:41.34Z</time></trkpt><trkpt lat="43.86768602182753" lon="10.856060961602246"><ele>252.0</ele><time>2026-04-12T09:09:42.34Z</time></trkpt><trkpt lat="43.86776131123262" lon="10.856107801445235"><ele>252.0</ele><time>2026-04-12T09:09:43.34Z</time></trkpt><trkpt lat="43.86783946006882" lon="10.856143300205908"><ele>252.0</ele><time>2026-04-12T09:09:44.34Z</time></trkpt><trkpt lat="43.86792472929936" lon="10.856164747652409"><ele>252.2</ele><time>2026-04-12T09:09:45.34Z</time></trkpt><trkpt lat="43.868003683906714" lon="10.856212469168375"><ele>252.39999999999998</ele><time>2026-04-12T09:09:46.34Z</time></trkpt><trkpt lat="43.86808937670797" lon="10.856255058808161"><ele>252.60000000000002</ele><time>2026-04-12T09:09:47.34Z</time></trkpt><trkpt lat="43.868180065422195" lon="10.856291731103008"><ele>252.8</ele><time>2026-04-12T09:09:48.34Z</time></trkpt><trkpt lat="43.86826995276865" lon="10.85630751108573"><ele>253.0</ele><time>2026-04-12T09:09:49.34Z</time></trkpt><trkpt lat="43.86836250264806" lon="10.856305856205603"><ele>253.8</ele><time>2026-04-12T09:09:50.34Z</time></trkpt><trkpt lat="43.868454596749686" lon="10.856285879720467"><ele>254.60000000000002</ele><time>2026-04-12T09:09:51.34Z</time></trkpt><trkpt lat="43.86854917872482" lon="10.856265537736263"><ele>255.39999999999998</ele><time>2026-04-12T09:09:52.34Z</time></trkpt><trkpt lat="43.86864341648119" lon="10.856243387781536"><ele>256.2</ele><time>2026-04-12T09:09:53.34Z</time></trkpt><trkpt lat="43.868742280756464" lon="10.856216423782225"><ele>257.0</ele><time>2026-04-12T09:09:54.34Z</time></trkpt><trkpt lat="43.8688452708132" lon="10.856230398739324"><ele>257.0</ele><time>2026-04-12T09:09:55.34Z</time></trkpt><trkpt lat="43.868948762218636" lon="10.856242937807057"><ele>257.0</ele><time>2026-04-12T09:09:56.34Z</time></trkpt><trkpt lat="43.86904268528759" lon="10.856285047888393"><ele>257.0</ele><time>2026-04-12T09:09:57.34Z</time></trkpt><trkpt lat="43.86914281269983" lon="10.856315790419114"><ele>257.0</ele><time>2026-04-12T09:09:58.34Z</time></trkpt><trkpt lat="43.86922241629452" lon="10.856398191439157"><ele>257.0</ele><time>2026-04-12T09:09:59.34Z</time></trkpt><trkpt lat="43.869274973972" lon="10.856513379079079"><ele>257.0</ele><time>2026-04-12T09:10:00.34Z</time></trkpt><trkpt lat="43.869263453851765" lon="10.856656236285879"><ele>257.0</ele><time>2026-04-12T09:10:01.34Z</time></trkpt><trkpt lat="43.86924732984655" lon="10.85676870826829"><ele>257.0</ele><time>2026-04-12T09:10:02.34Z</time></trkpt><trkpt lat="43.86924910244403" lon="10.856882877673517"><ele>257.0</ele><time>2026-04-12T09:10:03.34Z</time></trkpt><trkpt lat="43.869246358274076" lon="10.85699029257426"><ele>257.0</ele><time>2026-04-12T09:10:04.34Z</time></trkpt><trkpt lat="43.869252384315764" lon="10.857102656777972"><ele>257.0</ele><time>2026-04-12T09:10:05.34Z</time></trkpt><trkpt lat="43.86927226848791" lon="10.85721029017157"><ele>258.4</ele><time>2026-04-12T09:10:06.34Z</time></trkpt><trkpt lat="43.869312507559385" lon="10.857325249027454"><ele>259.79999999999995</ele><time>2026-04-12T09:10:07.34Z</time></trkpt><trkpt lat="43.869373138504024" lon="10.857436769676584"><ele>261.2</ele><time>2026-04-12T09:10:08.34Z</time></trkpt><trkpt lat="43.869456324076985" lon="10.85753675770681"><ele>262.59999999999997</ele><time>2026-04-12T09:10:09.34Z</time></trkpt><trkpt lat="43.869550137747005" lon="10.85761997738206"><ele>264.0</ele><time>2026-04-12T09:10:10.34Z</time></trkpt><trkpt lat="43.86964833336798" lon="10.857694132672027"><ele>260.2</ele><time>2026-04-12T09:10:11.34Z</time></trkpt><trkpt lat="43.869740900409276" lon="10.85776888499065"><ele>256.4</ele><time>2026-04-12T09:10:12.34Z</time></trkpt><trkpt lat="43.869832908098594" lon="10.857846315237301"><ele>252.6</ele><time>2026-04-12T09:10:13.34Z</time></trkpt><trkpt lat="43.86992185620815" lon="10.857924150773103"><ele>248.8</ele><time>2026-04-12T09:10:14.34Z</time></trkpt><trkpt lat="43.870005960013316" lon="10.858000525885837"><ele>245.0</ele><time>2026-04-12T09:10:15.34Z</time></trkpt><trkpt lat="43.87008782753464" lon="10.85807494058608"><ele>247.66666666666669</ele><time>2026-04-12T09:10:16.34Z</time></trkpt><trkpt lat="43.87016795335701" lon="10.858144127774514"><ele>250.33333333333334</ele><time>2026-04-12T09:10:17.34Z</time></trkpt><trkpt lat="43.870247570361734" lon="10.858203054972476"><ele>253.0</ele><time>2026-04-12T09:10:18.34Z</time></trkpt><trkpt lat="43.8703214131707" lon="10.858272436783135"><ele>255.66666666666669</ele><time>2026-04-12T09:10:19.34Z</time></trkpt><trkpt lat="43.87037787163769" lon="10.858362656781951"><ele>258.3333333333333</ele><time>2026-04-12T09:10:20.34Z</time></trkpt><trkpt lat="43.8704344019152" lon="10.858437501484177"><ele>261.0</ele><time>2026-04-12T09:10:21.34Z</time></trkpt><trkpt lat="43.870479614399244" lon="10.858513940165576"><ele>264.0</ele><time>2026-04-12T09:10:22.34Z</time></trkpt><trkpt lat="43.87048863749331" lon="10.85861447444459"><ele>267.0</ele><time>2026-04-12T09:10:23.34Z</time></trkpt><trkpt lat="43.8704798191018" lon="10.858710455265985"><ele>270.0</ele><time>2026-04-12T09:10:24.34Z</time></trkpt><trkpt lat="43.870431126499106" lon="10.858773218823238"><ele>273.0</ele><time>2026-04-12T09:10:25.34Z</time></trkpt><trkpt lat="43.870349393817676" lon="10.858843364164397"><ele>276.0</ele><time>2026-04-12T09:10:27.34Z</time></trkpt><trkpt lat="43.87027207999085" lon="10.858878530492616"><ele>279.0</ele><time>2026-04-12T09:10:29.34Z</time></trkpt><trkpt lat="43.87019878050278" lon="10.85890059636978"><ele>278.99999999999994</ele><time>2026-04-12T09:10:31.34Z</time></trkpt><trkpt lat="43.87013211050083" lon="10.858922505086511"><ele>279.0</ele><time>2026-04-12T09:10:33.34Z</time></trkpt><trkpt lat="43.87006422490421" lon="10.858926642777321"><ele>279.0</ele><time>2026-04-12T09:10:35.34Z</time></trkpt><trkpt lat="43.869998584020585" lon="10.858942274931945"><ele>279.0</ele><time>2026-04-12T09:10:37.34Z</time></trkpt><trkpt lat="43.86993336378394" lon="10.858950040616925"><ele>279.0</ele><time>2026-04-12T09:10:39.34Z</time></trkpt><trkpt lat="43.86986379001734" lon="10.858937271201322"><ele>278.99999999999994</ele><time>2026-04-12T09:10:41.34Z</time></trkpt><trkpt lat="43.86979738274562" lon="10.858937636522558"><ele>279.0</ele><time>2026-04-12T09:10:43.34Z</time></trkpt><trkpt lat="43.869732225880384" lon="10.85893066598457"><ele>276.71428571428567</ele><time>2026-04-12T09:10:45.34Z</time></trkpt><trkpt lat="43.869666910272244" lon="10.858944006371479"><ele>274.42857142857144</ele><time>2026-04-12T09:10:47.34Z</time></trkpt><trkpt lat="43.86960350812024" lon="10.858940974406156"><ele>272.1428571428571</ele><time>2026-04-12T09:10:49.34Z</time></trkpt><trkpt lat="43.86954160253378" lon="10.858924571633157"><ele>269.85714285714283</ele><time>2026-04-12T09:10:51.34Z</time></trkpt><trkpt lat="43.86948349808912" lon="10.85896274330092"><ele>267.57142857142856</ele><time>2026-04-12T09:10:53.34Z</time></trkpt><trkpt lat="43.86939775129381" lon="10.858981975214249"><ele>265.2857142857143</ele><time>2026-04-12T09:10:56.34Z</time></trkpt><trkpt lat="43.86933582683073" lon="10.85901058778744"><ele>263.0</ele><time>2026-04-12T09:10:59.34Z</time></trkpt><trkpt lat="43.869336600387996" lon="10.859146297064557"><ele>263.0</ele><time>2026-04-12T09:11:00.34Z</time></trkpt><trkpt lat="43.86934382051567" lon="10.859267055105827"><ele>263.0</ele><time>2026-04-12T09:11:03.34Z</time></trkpt><trkpt lat="43.869385906234136" lon="10.859367358128475"><ele>263.0</ele><time>2026-04-12T09:11:06.34Z</time></trkpt><trkpt lat="43.869448063398444" lon="10.85944486149503"><ele>263.0</ele><time>2026-04-12T09:11:09.34Z</time></trkpt><trkpt lat="43.869509773153794" lon="10.859526544963549"><ele>263.0</ele><time>2026-04-12T09:11:12.34Z</time></trkpt><trkpt lat="43.86957589986866" lon="10.859606752027416"><ele>263.0</ele><time>2026-04-12T09:11:15.34Z</time></trkpt><trkpt lat="43.869636906541984" lon="10.859690623177382"><ele>265.0</ele><time>2026-04-12T09:11:18.339Z</time></trkpt><trkpt lat="43.86969467807344" lon="10.859783615871825"><ele>267.0</ele><time>2026-04-12T09:11:21.339Z</time></trkpt><trkpt lat="43.86975637480367" lon="10.859870324136008"><ele>269.0</ele><time>2026-04-12T09:11:24.339Z</time></trkpt><trkpt lat="43.86980721244598" lon="10.859970793633206"><ele>271.0</ele><time>2026-04-12T09:11:27.339Z</time></trkpt><trkpt lat="43.86981964676024" lon="10.860108735787653"><ele>273.0</ele><time>2026-04-12T09:11:30.339Z</time></trkpt><trkpt lat="43.8698120855364" lon="10.860209482032026"><ele>275.0</ele><time>2026-04-12T09:11:32.339Z</time></trkpt><trkpt lat="43.869763679819734" lon="10.860280583833672"><ele>275.8571428571429</ele><time>2026-04-12T09:11:34.339Z</time></trkpt><trkpt lat="43.86971218825989" lon="10.860333055614499"><ele>276.7142857142857</ele><time>2026-04-12T09:11:36.339Z</time></trkpt><trkpt lat="43.8696480850607" lon="10.860369355863309"><ele>277.57142857142856</ele><time>2026-04-12T09:11:38.339Z</time></trkpt><trkpt lat="43.869598325668356" lon="10.860438244925689"><ele>278.42857142857144</ele><time>2026-04-12T09:11:40.339Z</time></trkpt><trkpt lat="43.86954210907876" lon="10.860483003064656"><ele>279.2857142857143</ele><time>2026-04-12T09:11:42.339Z</time></trkpt><trkpt lat="43.869481288052704" lon="10.86052795570082"><ele>280.14285714285717</ele><time>2026-04-12T09:11:44.339Z</time></trkpt><trkpt lat="43.869432500690195" lon="10.860590855599545"><ele>281.0</ele><time>2026-04-12T09:11:46.339Z</time></trkpt><trkpt lat="43.86938991829213" lon="10.860664314080022"><ele>281.0</ele><time>2026-04-12T09:11:48.339Z</time></trkpt><trkpt lat="43.86936094546805" lon="10.860785592044861"><ele>281.0</ele><time>2026-04-12T09:11:51.339Z</time></trkpt><trkpt lat="43.869367709311526" lon="10.860878617701369"><ele>281.0</ele><time>2026-04-12T09:11:53.339Z</time></trkpt><trkpt lat="43.86938333411398" lon="10.860966578275592"><ele>281.0</ele><time>2026-04-12T09:11:55.339Z</time></trkpt><trkpt lat="43.86941205497107" lon="10.861087203270086"><ele>281.0</ele><time>2026-04-12T09:11:58.339Z</time></trkpt><trkpt lat="43.86945687757999" lon="10.861199103373636"><ele>281.0</ele><time>2026-04-12T09:12:01.339Z</time></trkpt><trkpt lat="43.869491425324" lon="10.861279145541207"><ele>279.33333333333337</ele><time>2026-04-12T09:12:03.339Z</time></trkpt><trkpt lat="43.86952875322215" lon="10.861359427045269"><ele>277.6666666666667</ele><time>2026-04-12T09:12:05.339Z</time></trkpt><trkpt lat="43.86958128359841" lon="10.861436638449979"><ele>276.0</ele><time>2026-04-12T09:12:07.339Z</time></trkpt><trkpt lat="43.86964348422853" lon="10.861511687461983"><ele>274.3333333333333</ele><time>2026-04-12T09:12:09.339Z</time></trkpt><trkpt lat="43.869711831494556" lon="10.861582601949824"><ele>272.66666666666663</ele><time>2026-04-12T09:12:11.339Z</time></trkpt><trkpt lat="43.86978622686001" lon="10.861648166321679"><ele>271.0</ele><time>2026-04-12T09:12:13.339Z</time></trkpt><trkpt lat="43.86986678199293" lon="10.861711595227169"><ele>271.0</ele><time>2026-04-12T09:12:15.339Z</time></trkpt><trkpt lat="43.86994968303043" lon="10.861770151569464"><ele>271.0</ele><time>2026-04-12T09:12:17.339Z</time></trkpt><trkpt lat="43.870030613963074" lon="10.8618395577745"><ele>271.0</ele><time>2026-04-12T09:12:19.339Z</time></trkpt><trkpt lat="43.870110855132445" lon="10.861913010170335"><ele>271.0</ele><time>2026-04-12T09:12:21.339Z</time></trkpt><trkpt lat="43.87019119128944" lon="10.861980826182652"><ele>271.0</ele><time>2026-04-12T09:12:23.339Z</time></trkpt><trkpt lat="43.870269574641696" lon="10.862045963323895"><ele>272.5</ele><time>2026-04-12T09:12:25.339Z</time></trkpt><trkpt lat="43.87034564746465" lon="10.86211974291961"><ele>274.0</ele><time>2026-04-12T09:12:27.339Z</time></trkpt><trkpt lat="43.87041917482106" lon="10.862190136900152"><ele>275.5</ele><time>2026-04-12T09:12:29.339Z</time></trkpt><trkpt lat="43.870487981091685" lon="10.862264953673963"><ele>277.0</ele><time>2026-04-12T09:12:31.339Z</time></trkpt><trkpt lat="43.87054184723552" lon="10.86235866323606"><ele>278.5</ele><time>2026-04-12T09:12:33.339Z</time></trkpt><trkpt lat="43.87056389663493" lon="10.862471667303884"><ele>280.0</ele><time>2026-04-12T09:12:35.339Z</time></trkpt><trkpt lat="43.87052736654824" lon="10.862572738125543"><ele>280.3333333333333</ele><time>2026-04-12T09:12:37.339Z</time></trkpt><trkpt lat="43.87051733376172" lon="10.862669395984591"><ele>280.66666666666663</ele><time>2026-04-12T09:12:39.339Z</time></trkpt><trkpt lat="43.87049204471925" lon="10.862749750528886"><ele>281.0</ele><time>2026-04-12T09:12:41.339Z</time></trkpt><trkpt lat="43.87045334104763" lon="10.862863163165049"><ele>281.3333333333333</ele><time>2026-04-12T09:12:44.339Z</time></trkpt><trkpt lat="43.8704186151902" lon="10.862970238811464"><ele>281.6666666666667</ele><time>2026-04-12T09:12:47.339Z</time></trkpt><trkpt lat="43.87037351891717" lon="10.863050840956676"><ele>282.0</ele><time>2026-04-12T09:12:50.339Z</time></trkpt><trkpt lat="43.87031824426119" lon="10.863124882274557"><ele>282.0</ele><time>2026-04-12T09:12:53.339Z</time></trkpt><trkpt lat="43.870265879973864" lon="10.863201326078089"><ele>282.0</ele><time>2026-04-12T09:12:56.339Z</time></trkpt><trkpt lat="43.87022059854208" lon="10.863272094055706"><ele>282.0</ele><time>2026-04-12T09:12:59.339Z</time></trkpt><trkpt lat="43.87018047653962" lon="10.863347465618453"><ele>282.0</ele><time>2026-04-12T09:13:02.339Z</time></trkpt><trkpt lat="43.870154136476316" lon="10.863432250236048"><ele>282.0</ele><time>2026-04-12T09:13:05.339Z</time></trkpt><trkpt lat="43.87014747118381" lon="10.863527209500875"><ele>282.0</ele><time>2026-04-12T09:13:08.339Z</time></trkpt><trkpt lat="43.870154688589295" lon="10.86361891692281"><ele>282.0</ele><time>2026-04-12T09:13:11.339Z</time></trkpt><trkpt lat="43.87017432994526" lon="10.86371990085753"><ele>282.1666666666667</ele><time>2026-04-12T09:13:14.339Z</time></trkpt><trkpt lat="43.87019579132593" lon="10.863818674068895"><ele>282.3333333333333</ele><time>2026-04-12T09:13:17.339Z</time></trkpt><trkpt lat="43.87022523891215" lon="10.863914183739356"><ele>282.5</ele><time>2026-04-12T09:13:20.339Z</time></trkpt><trkpt lat="43.87025709640617" lon="10.864018782621853"><ele>282.66666666666663</ele><time>2026-04-12T09:13:23.339Z</time></trkpt><trkpt lat="43.87029148949201" lon="10.864122996040969"><ele>282.8333333333333</ele><time>2026-04-12T09:13:26.338Z</time></trkpt><trkpt lat="43.870325114489724" lon="10.864236062965261"><ele>283.0</ele><time>2026-04-12T09:13:29.338Z</time></trkpt><trkpt lat="43.870348243861415" lon="10.864322834691947"><ele>281.4</ele><time>2026-04-12T09:13:31.338Z</time></trkpt><trkpt lat="43.870377998822015" lon="10.864427483826871"><ele>279.8</ele><time>2026-04-12T09:13:33.338Z</time></trkpt><trkpt lat="43.87041571281031" lon="10.864540587117379"><ele>278.2</ele><time>2026-04-12T09:13:35.338Z</time></trkpt><trkpt lat="43.87045859525439" lon="10.864668912856333"><ele>276.6</ele><time>2026-04-12T09:13:37.338Z</time></trkpt><trkpt lat="43.870502587326584" lon="10.864809838733333"><ele>275.0</ele><time>2026-04-12T09:13:39.338Z</time></trkpt><trkpt lat="43.87054676188159" lon="10.864957314142737"><ele>274.5</ele><time>2026-04-12T09:13:41.338Z</time></trkpt><trkpt lat="43.870591520001554" lon="10.865114182486083"><ele>274.0</ele><time>2026-04-12T09:13:43.338Z</time></trkpt><trkpt lat="43.8706362014105" lon="10.86527605551087"><ele>273.5</ele><time>2026-04-12T09:13:45.338Z</time></trkpt><trkpt lat="43.87065459471731" lon="10.865361394770432"><ele>273.0</ele><time>2026-04-12T09:13:46.338Z</time></trkpt><trkpt lat="43.87066126024158" lon="10.865448534534416"><ele>272.5</ele><time>2026-04-12T09:13:47.338Z</time></trkpt><trkpt lat="43.87065753269056" lon="10.865538578371634"><ele>272.0</ele><time>2026-04-12T09:13:48.338Z</time></trkpt><trkpt lat="43.870647523427266" lon="10.865627727418795"><ele>272.0</ele><time>2026-04-12T09:13:49.338Z</time></trkpt><trkpt lat="43.87062488926265" lon="10.8657102763049"><ele>272.0</ele><time>2026-04-12T09:13:50.338Z</time></trkpt><trkpt lat="43.870556042126005" lon="10.865857063001975"><ele>272.0</ele><time>2026-04-12T09:13:52.338Z</time></trkpt><trkpt lat="43.870476400661104" lon="10.865975248262995"><ele>272.0</ele><time>2026-04-12T09:13:54.338Z</time></trkpt><trkpt lat="43.87038563481142" lon="10.866067101375245"><ele>272.0</ele><time>2026-04-12T09:13:56.338Z</time></trkpt><trkpt lat="43.87028987172649" lon="10.866132953510386"><ele>271.6666666666667</ele><time>2026-04-12T09:13:58.338Z</time></trkpt><trkpt lat="43.87019702071275" lon="10.866188691694338"><ele>271.33333333333337</ele><time>2026-04-12T09:14:00.338Z</time></trkpt><trkpt lat="43.87010954148759" lon="10.866217739641302"><ele>271.0</ele><time>2026-04-12T09:14:02.338Z</time></trkpt><trkpt lat="43.870027680308276" lon="10.866241444553555"><ele>270.6666666666667</ele><time>2026-04-12T09:14:04.338Z</time></trkpt><trkpt lat="43.86996000221872" lon="10.866268436206248"><ele>270.3333333333333</ele><time>2026-04-12T09:14:06.338Z</time></trkpt><trkpt lat="43.86989938880008" lon="10.866293905382987"><ele>270.0</ele><time>2026-04-12T09:14:08.338Z</time></trkpt><trkpt lat="43.8698110839565" lon="10.86632073317133"><ele>271.0</ele><time>2026-04-12T09:14:11.338Z</time></trkpt><trkpt lat="43.86973221898062" lon="10.866363071818888"><ele>272.0</ele><time>2026-04-12T09:14:14.338Z</time></trkpt><trkpt lat="43.86966052165401" lon="10.866427494077845"><ele>273.0</ele><time>2026-04-12T09:14:17.338Z</time></trkpt><trkpt lat="43.869594379253314" lon="10.86650220004341"><ele>274.0</ele><time>2026-04-12T09:14:20.338Z</time></trkpt><trkpt lat="43.86954048787209" lon="10.866596914894144"><ele>275.0</ele><time>2026-04-12T09:14:23.338Z</time></trkpt><trkpt lat="43.86949262545795" lon="10.866705188462277"><ele>276.0</ele><time>2026-04-12T09:14:26.338Z</time></trkpt><trkpt lat="43.86946691479249" lon="10.866785651790249"><ele>276.14285714285717</ele><time>2026-04-12T09:14:28.338Z</time></trkpt><trkpt lat="43.86944074201571" lon="10.866867063125754"><ele>276.28571428571433</ele><time>2026-04-12T09:14:30.338Z</time></trkpt><trkpt lat="43.86941735738055" lon="10.866952485368627"><ele>276.42857142857144</ele><time>2026-04-12T09:14:32.338Z</time></trkpt><trkpt lat="43.86938981787929" lon="10.867036225712019"><ele>276.57142857142856</ele><time>2026-04-12T09:14:34.338Z</time></trkpt><trkpt lat="43.86935320313569" lon="10.867120781119121"><ele>276.71428571428567</ele><time>2026-04-12T09:14:36.338Z</time></trkpt><trkpt lat="43.86931107726388" lon="10.86719999690888"><ele>276.85714285714283</ele><time>2026-04-12T09:14:38.338Z</time></trkpt><trkpt lat="43.869266970272406" lon="10.867276426890642"><ele>277.0</ele><time>2026-04-12T09:14:40.338Z</time></trkpt><trkpt lat="43.86922379906668" lon="10.867349099924066"><ele>277.0</ele><time>2026-04-12T09:14:42.338Z</time></trkpt><trkpt lat="43.86917995450549" lon="10.867417555393994"><ele>277.0</ele><time>2026-04-12T09:14:44.338Z</time></trkpt><trkpt lat="43.86913851870081" lon="10.86748427784027"><ele>277.0</ele><time>2026-04-12T09:14:46.338Z</time></trkpt><trkpt lat="43.869080798593636" lon="10.867584178913924"><ele>277.0</ele><time>2026-04-12T09:14:49.338Z</time></trkpt><trkpt lat="43.869028166344634" lon="10.867690148061477"><ele>277.0</ele><time>2026-04-12T09:14:52.338Z</time></trkpt><trkpt lat="43.868975591763466" lon="10.86779010906173"><ele>277.0</ele><time>2026-04-12T09:14:55.338Z</time></trkpt><trkpt lat="43.86892078004291" lon="10.867889250365282"><ele>277.8333333333333</ele><time>2026-04-12T09:14:58.338Z</time></trkpt><trkpt lat="43.86887968929558" lon="10.867994642228338"><ele>278.66666666666663</ele><time>2026-04-12T09:15:01.338Z</time></trkpt><trkpt lat="43.86883647270991" lon="10.868100753547363"><ele>279.5</ele><time>2026-04-12T09:15:04.338Z</time></trkpt><trkpt lat="43.86879144095989" lon="10.868196793862008"><ele>280.3333333333333</ele><time>2026-04-12T09:15:07.338Z</time></trkpt><trkpt lat="43.86874928734914" lon="10.868299791459009"><ele>281.1666666666667</ele><time>2026-04-12T09:15:10.338Z</time></trkpt><trkpt lat="43.86871069863394" lon="10.868405380417125"><ele>282.0</ele><time>2026-04-12T09:15:13.338Z</time></trkpt><trkpt lat="43.86867238211241" lon="10.868511888151042"><ele>282.0</ele><time>2026-04-12T09:15:16.338Z</time></trkpt><trkpt lat="43.86863346510624" lon="10.868616821204103"><ele>282.0</ele><time>2026-04-12T09:15:19.338Z</time></trkpt><trkpt lat="43.8685899819414" lon="10.868724284548616"><ele>282.0</ele><time>2026-04-12T09:15:22.338Z</time></trkpt><trkpt lat="43.86854130023787" lon="10.868833109553027"><ele>282.0</ele><time>2026-04-12T09:15:25.338Z</time></trkpt><trkpt lat="43.868491017941885" lon="10.868943576601133"><ele>282.0</ele><time>2026-04-12T09:15:28.338Z</time></trkpt><trkpt lat="43.868433332048994" lon="10.869047901093618"><ele>282.0</ele><time>2026-04-12T09:15:31.337Z</time></trkpt><trkpt lat="43.868376290028195" lon="10.869149272608375"><ele>282.0</ele><time>2026-04-12T09:15:34.336Z</time></trkpt><trkpt lat="43.86833533045661" lon="10.86921973615942"><ele>282.0</ele><time>2026-04-12T09:15:36.336Z</time></trkpt><trkpt lat="43.868290684024785" lon="10.869293532238423"><ele>282.0</ele><time>2026-04-12T09:15:38.336Z</time></trkpt><trkpt lat="43.86824818881872" lon="10.869372684762215"><ele>282.0</ele><time>2026-04-12T09:15:40.336Z</time></trkpt><trkpt lat="43.86820221638612" lon="10.869453738330442"><ele>282.0</ele><time>2026-04-12T09:15:42.336Z</time></trkpt><trkpt lat="43.86815049207279" lon="10.86953945868696"><ele>282.0</ele><time>2026-04-12T09:15:44.336Z</time></trkpt><trkpt lat="43.868096390625105" lon="10.869629033323358"><ele>282.0</ele><time>2026-04-12T09:15:46.336Z</time></trkpt><trkpt lat="43.86803775487434" lon="10.869726920900144"><ele>282.0</ele><time>2026-04-12T09:15:48.336Z</time></trkpt><trkpt lat="43.86798183144377" lon="10.869836375559762"><ele>282.0</ele><time>2026-04-12T09:15:50.336Z</time></trkpt><trkpt lat="43.86792806129535" lon="10.86995309940056"><ele>282.0</ele><time>2026-04-12T09:15:52.336Z</time></trkpt><trkpt lat="43.867868787491496" lon="10.870068739053373"><ele>281.6666666666667</ele><time>2026-04-12T09:15:54.336Z</time></trkpt><trkpt lat="43.86781192170319" lon="10.87018294479619"><ele>281.3333333333333</ele><time>2026-04-12T09:15:56.336Z</time></trkpt><trkpt lat="43.86775894884438" lon="10.870293077838106"><ele>281.0</ele><time>2026-04-12T09:15:58.336Z</time></trkpt><trkpt lat="43.86771888401157" lon="10.87040065707722"><ele>280.66666666666663</ele><time>2026-04-12T09:16:00.336Z</time></trkpt><trkpt lat="43.867694529831454" lon="10.870501047201039"><ele>280.3333333333333</ele><time>2026-04-12T09:16:02.336Z</time></trkpt><trkpt lat="43.8676916340992" lon="10.87059992515436"><ele>280.0</ele><time>2026-04-12T09:16:04.336Z</time></trkpt><trkpt lat="43.86770211807499" lon="10.870696467925468"><ele>280.0</ele><time>2026-04-12T09:16:06.336Z</time></trkpt><trkpt lat="43.86771624672776" lon="10.870782198008357"><ele>280.0</ele><time>2026-04-12T09:16:08.336Z</time></trkpt><trkpt lat="43.8677347957479" lon="10.870901237691793"><ele>280.0</ele><time>2026-04-12T09:16:11.336Z</time></trkpt><trkpt lat="43.867781308637745" lon="10.870990170547472"><ele>280.0</ele><time>2026-04-12T09:16:14.336Z</time></trkpt><trkpt lat="43.867818492261186" lon="10.871082758220801"><ele>280.0</ele><time>2026-04-12T09:16:17.336Z</time></trkpt><trkpt lat="43.86785654121218" lon="10.871173339076847"><ele>280.0</ele><time>2026-04-12T09:16:20.336Z</time></trkpt><trkpt lat="43.86789801130882" lon="10.8712547800699"><ele>281.57142857142856</ele><time>2026-04-12T09:16:23.336Z</time></trkpt><trkpt lat="43.867937914338" lon="10.871336315191927"><ele>283.1428571428571</ele><time>2026-04-12T09:16:26.336Z</time></trkpt><trkpt lat="43.86798648139905" lon="10.871415085061797"><ele>284.7142857142857</ele><time>2026-04-12T09:16:29.337Z</time></trkpt><trkpt lat="43.86803111979738" lon="10.871493846904007"><ele>286.2857142857143</ele><time>2026-04-12T09:16:32.337Z</time></trkpt><trkpt lat="43.8680694817323" lon="10.87157125863369"><ele>287.85714285714283</ele><time>2026-04-12T09:16:35.337Z</time></trkpt><trkpt lat="43.86812217010413" lon="10.871668834538285"><ele>289.42857142857144</ele><time>2026-04-12T09:16:39.337Z</time></trkpt><trkpt lat="43.86816123595529" lon="10.871747411916063"><ele>291.0</ele><time>2026-04-12T09:16:42.337Z</time></trkpt><trkpt lat="43.868191119144335" lon="10.871837378663983"><ele>292.1666666666667</ele><time>2026-04-12T09:16:45.337Z</time></trkpt><trkpt lat="43.86822171562555" lon="10.871937664050392"><ele>293.3333333333333</ele><time>2026-04-12T09:16:48.337Z</time></trkpt><trkpt lat="43.868245966959165" lon="10.872052108468687"><ele>294.5</ele><time>2026-04-12T09:16:51.337Z</time></trkpt><trkpt lat="43.86826674192264" lon="10.87214592656192"><ele>295.66666666666663</ele><time>2026-04-12T09:16:53.337Z</time></trkpt><trkpt lat="43.86827623622362" lon="10.872276584613045"><ele>296.8333333333333</ele><time>2026-04-12T09:16:55.337Z</time></trkpt><trkpt lat="43.86831156565895" lon="10.872424664034753"><ele>298.0</ele><time>2026-04-12T09:16:57.337Z</time></trkpt><trkpt lat="43.868340725241815" lon="10.872506638003916"><ele>299.6</ele><time>2026-04-12T09:16:58.337Z</time></trkpt><trkpt lat="43.868380583188525" lon="10.872674883546258"><ele>301.20000000000005</ele><time>2026-04-12T09:17:00.337Z</time></trkpt><trkpt lat="43.868306450548815" lon="10.872763915185688"><ele>302.8</ele><time>2026-04-12T09:17:01.337Z</time></trkpt><trkpt lat="43.868331147301696" lon="10.872899328845925"><ele>304.40000000000003</ele><time>2026-04-12T09:17:03.337Z</time></trkpt><trkpt lat="43.86837007978441" lon="10.872970266244193"><ele>306.0</ele><time>2026-04-12T09:17:06.337Z</time></trkpt><trkpt lat="43.868417697969655" lon="10.87304019393426"><ele>306.0</ele><time>2026-04-12T09:17:10.337Z</time></trkpt><trkpt lat="43.86839065056426" lon="10.873131379904468"><ele>306.0</ele><time>2026-04-12T09:17:14.337Z</time></trkpt><trkpt lat="43.86837612945394" lon="10.873227268034462"><ele>306.0</ele><time>2026-04-12T09:17:19.337Z</time></trkpt><trkpt lat="43.86832447871593" lon="10.873301220974449"><ele>306.0</ele><time>2026-04-12T09:17:24.337Z</time></trkpt><trkpt lat="43.86825474827645" lon="10.873296402706924"><ele>306.0</ele><time>2026-04-12T09:17:28.337Z</time></trkpt><trkpt lat="43.86821371873395" lon="10.873215711906214"><ele>306.0</ele><time>2026-04-12T09:17:32.337Z</time></trkpt><trkpt lat="43.86818307243287" lon="10.873139188251875"><ele>306.0</ele><time>2026-04-12T09:17:36.335Z</time></trkpt><trkpt lat="43.86814460031447" lon="10.873057561175901"><ele>306.0</ele><time>2026-04-12T09:17:40.335Z</time></trkpt><trkpt lat="43.86811587435366" lon="10.872975952737487"><ele>306.0</ele><time>2026-04-12T09:17:44.335Z</time></trkpt><trkpt lat="43.86805265122571" lon="10.872927405995933"><ele>306.0</ele><time>2026-04-12T09:17:48.335Z</time></trkpt><trkpt lat="43.86799038800872" lon="10.872975610663762"><ele>306.0</ele><time>2026-04-12T09:17:52.335Z</time></trkpt><trkpt lat="43.8679687768229" lon="10.873078526456208"><ele>306.0</ele><time>2026-04-12T09:17:56.335Z</time></trkpt><trkpt lat="43.86796935113418" lon="10.873179655678067"><ele>306.0</ele><time>2026-04-12T09:18:00.335Z</time></trkpt><trkpt lat="43.867978597533714" lon="10.873278226902372"><ele>306.0</ele><time>2026-04-12T09:18:04.335Z</time></trkpt><trkpt lat="43.867981760314954" lon="10.873379745680513"><ele>308.7142857142857</ele><time>2026-04-12T09:18:08.335Z</time></trkpt><trkpt lat="43.86798286204653" lon="10.87347825310487"><ele>311.42857142857144</ele><time>2026-04-12T09:18:12.335Z</time></trkpt><trkpt lat="43.868022239343766" lon="10.873556844572628"><ele>314.1428571428571</ele><time>2026-04-12T09:18:16.335Z</time></trkpt><trkpt lat="43.868084701008854" lon="10.873595158088396"><ele>316.8571428571429</ele><time>2026-04-12T09:18:20.335Z</time></trkpt><trkpt lat="43.86814995702696" lon="10.873613751881"><ele>319.5714285714286</ele><time>2026-04-12T09:18:24.335Z</time></trkpt><trkpt lat="43.86821550628057" lon="10.873634768452348"><ele>322.2857142857143</ele><time>2026-04-12T09:18:28.335Z</time></trkpt><trkpt lat="43.868277908659046" lon="10.873660996028299"><ele>325.0</ele><time>2026-04-12T09:18:32.335Z</time></trkpt><trkpt lat="43.86833553895713" lon="10.873712254321104"><ele>325.0</ele><time>2026-04-12T09:18:36.335Z</time></trkpt><trkpt lat="43.8683748835253" lon="10.873788791870208"><ele>325.0</ele><time>2026-04-12T09:18:40.335Z</time></trkpt><trkpt lat="43.868419441937405" lon="10.873859570491929"><ele>325.0</ele><time>2026-04-12T09:18:44.335Z</time></trkpt><trkpt lat="43.868458774769486" lon="10.873929121439163"><ele>325.0</ele><time>2026-04-12T09:18:48.335Z</time></trkpt><trkpt lat="43.868519631072694" lon="10.874000534977485"><ele>325.0</ele><time>2026-04-12T09:18:53.335Z</time></trkpt><trkpt lat="43.86854805250494" lon="10.874083654116957"><ele>325.0</ele><time>2026-04-12T09:18:57.335Z</time></trkpt><trkpt lat="43.868589020238055" lon="10.874161925072093"><ele>325.0</ele><time>2026-04-12T09:19:01.335Z</time></trkpt><trkpt lat="43.86861707420629" lon="10.874252197365935"><ele>323.1428571428571</ele><time>2026-04-12T09:19:05.336Z</time></trkpt><trkpt lat="43.86865181630263" lon="10.874326248124973"><ele>321.28571428571433</ele><time>2026-04-12T09:19:09.336Z</time></trkpt><trkpt lat="43.86867195574069" lon="10.874421925766269"><ele>319.42857142857144</ele><time>2026-04-12T09:19:14.336Z</time></trkpt><trkpt lat="43.86868605233485" lon="10.874507225959693"><ele>317.57142857142856</ele><time>2026-04-12T09:19:18.336Z</time></trkpt><trkpt lat="43.86865898704678" lon="10.87459005668159"><ele>315.71428571428567</ele><time>2026-04-12T09:19:22.336Z</time></trkpt><trkpt lat="43.86861197950374" lon="10.874650209210579"><ele>313.8571428571429</ele><time>2026-04-12T09:19:26.336Z</time></trkpt><trkpt lat="43.868542281443354" lon="10.874619995479668"><ele>312.0</ele><time>2026-04-12T09:19:31.336Z</time></trkpt><trkpt lat="43.868471757403874" lon="10.874577307114835"><ele>313.8571428571429</ele><time>2026-04-12T09:19:36.336Z</time></trkpt><trkpt lat="43.86841959730782" lon="10.874525343505239"><ele>315.71428571428567</ele><time>2026-04-12T09:19:40.336Z</time></trkpt><trkpt lat="43.86836813618693" lon="10.874465284497548"><ele>317.57142857142856</ele><time>2026-04-12T09:19:44.334Z</time></trkpt><trkpt lat="43.86831865859634" lon="10.874405158082238"><ele>319.42857142857144</ele><time>2026-04-12T09:19:48.334Z</time></trkpt><trkpt lat="43.86825576594382" lon="10.874391860808407"><ele>321.28571428571433</ele><time>2026-04-12T09:19:52.334Z</time></trkpt><trkpt lat="43.86820685610441" lon="10.874312603436138"><ele>323.1428571428571</ele><time>2026-04-12T09:19:57.334Z</time></trkpt><trkpt lat="43.86814619773869" lon="10.87427210844281"><ele>325.0</ele><time>2026-04-12T09:20:01.334Z</time></trkpt><trkpt lat="43.868089229881896" lon="10.874226577599057"><ele>325.0</ele><time>2026-04-12T09:20:05.334Z</time></trkpt><trkpt lat="43.86802867180968" lon="10.874198524673957"><ele>325.0</ele><time>2026-04-12T09:20:09.334Z</time></trkpt><trkpt lat="43.867953612680736" lon="10.87420248393477"><ele>325.0</ele><time>2026-04-12T09:20:14.334Z</time></trkpt><trkpt lat="43.867912697465144" lon="10.8742722272467"><ele>325.0</ele><time>2026-04-12T09:20:18.334Z</time></trkpt><trkpt lat="43.86790227333072" lon="10.87436635072963"><ele>325.0</ele><time>2026-04-12T09:20:22.334Z</time></trkpt><trkpt lat="43.867930322587696" lon="10.874450068474914"><ele>325.0</ele><time>2026-04-12T09:20:26.334Z</time></trkpt><trkpt lat="43.86796404507273" lon="10.874527197709257"><ele>325.0</ele><time>2026-04-12T09:20:30.334Z</time></trkpt><trkpt lat="43.86800350356244" lon="10.874606295049245"><ele>326.4285714285714</ele><time>2026-04-12T09:20:34.334Z</time></trkpt><trkpt lat="43.8680226300504" lon="10.874697289362853"><ele>327.8571428571429</ele><time>2026-04-12T09:20:38.334Z</time></trkpt><trkpt lat="43.868037258971306" lon="10.87478687404377"><ele>329.2857142857143</ele><time>2026-04-12T09:20:42.334Z</time></trkpt><trkpt lat="43.86805593038288" lon="10.874876175850716"><ele>330.71428571428567</ele><time>2026-04-12T09:20:46.334Z</time></trkpt><trkpt lat="43.86805954400359" lon="10.874972625791745"><ele>332.1428571428571</ele><time>2026-04-12T09:20:50.334Z</time></trkpt><trkpt lat="43.86804027291393" lon="10.875064010024234"><ele>333.57142857142856</ele><time>2026-04-12T09:20:54.334Z</time></trkpt><trkpt lat="43.86800702754542" lon="10.875152721446334"><ele>335.0</ele><time>2026-04-12T09:20:58.334Z</time></trkpt><trkpt lat="43.86797345730441" lon="10.875239067640129"><ele>335.2857142857143</ele><time>2026-04-12T09:21:02.334Z</time></trkpt><trkpt lat="43.867932370789525" lon="10.875328489079335"><ele>335.57142857142856</ele><time>2026-04-12T09:21:06.334Z</time></trkpt><trkpt lat="43.867887517999556" lon="10.875426519629146"><ele>335.8571428571429</ele><time>2026-04-12T09:21:10.334Z</time></trkpt><trkpt lat="43.86785218530421" lon="10.875532692506345"><ele>336.1428571428571</ele><time>2026-04-12T09:21:14.334Z</time></trkpt><trkpt lat="43.86782068907022" lon="10.875612070535436"><ele>336.42857142857144</ele><time>2026-04-12T09:21:17.334Z</time></trkpt><trkpt lat="43.86777948731309" lon="10.875681657183074"><ele>336.7142857142857</ele><time>2026-04-12T09:21:20.334Z</time></trkpt><trkpt lat="43.867755189119926" lon="10.875764966940054"><ele>337.0</ele><time>2026-04-12T09:21:23.334Z</time></trkpt><trkpt lat="43.867730637601866" lon="10.875857835560184"><ele>336.3333333333333</ele><time>2026-04-12T09:21:26.334Z</time></trkpt><trkpt lat="43.86773395740039" lon="10.87594997452739"><ele>335.66666666666663</ele><time>2026-04-12T09:21:29.334Z</time></trkpt><trkpt lat="43.867730548673414" lon="10.876062706544978"><ele>335.0</ele><time>2026-04-12T09:21:33.334Z</time></trkpt><trkpt lat="43.86773417206725" lon="10.876174289170152"><ele>334.3333333333333</ele><time>2026-04-12T09:21:37.334Z</time></trkpt><trkpt lat="43.86773999816883" lon="10.87628534322491"><ele>333.6666666666667</ele><time>2026-04-12T09:21:41.334Z</time></trkpt><trkpt lat="43.86773373665873" lon="10.876399804461593"><ele>333.0</ele><time>2026-04-12T09:21:45.334Z</time></trkpt><trkpt lat="43.86772360384094" lon="10.876509606320653"><ele>333.0</ele><time>2026-04-12T09:21:49.333Z</time></trkpt><trkpt lat="43.86768835367186" lon="10.876592872083037"><ele>333.0</ele><time>2026-04-12T09:21:52.333Z</time></trkpt><trkpt lat="43.867700927492606" lon="10.876701812602885"><ele>333.0</ele><time>2026-04-12T09:21:56.333Z</time></trkpt><trkpt lat="43.86769084358957" lon="10.876812669586808"><ele>333.0</ele><time>2026-04-12T09:22:00.333Z</time></trkpt><trkpt lat="43.86768049817274" lon="10.876925906665955"><ele>333.0</ele><time>2026-04-12T09:22:04.333Z</time></trkpt><trkpt lat="43.86768471497127" lon="10.877014919177581"><ele>333.0</ele><time>2026-04-12T09:22:07.333Z</time></trkpt><trkpt lat="43.8676816186312" lon="10.877102843992997"><ele>333.0</ele><time>2026-04-12T09:22:10.333Z</time></trkpt><trkpt lat="43.86767946382311" lon="10.877219947922725"><ele>332.1666666666667</ele><time>2026-04-12T09:22:14.333Z</time></trkpt><trkpt lat="43.86767916663077" lon="10.877332047766414"><ele>331.3333333333333</ele><time>2026-04-12T09:22:18.333Z</time></trkpt><trkpt lat="43.867674046492034" lon="10.877444173414839"><ele>330.5</ele><time>2026-04-12T09:22:22.333Z</time></trkpt><trkpt lat="43.86762297329999" lon="10.87753457709513"><ele>329.66666666666663</ele><time>2026-04-12T09:22:26.333Z</time></trkpt><trkpt lat="43.86755899503633" lon="10.877497919256212"><ele>328.8333333333333</ele><time>2026-04-12T09:22:29.333Z</time></trkpt><trkpt lat="43.86749616633712" lon="10.877463547969358"><ele>328.0</ele><time>2026-04-12T09:22:32.333Z</time></trkpt><trkpt lat="43.86742733352955" lon="10.877448360703251"><ele>331.8333333333333</ele><time>2026-04-12T09:22:35.333Z</time></trkpt><trkpt lat="43.8673709536729" lon="10.877370839047723"><ele>335.66666666666663</ele><time>2026-04-12T09:22:38.333Z</time></trkpt><trkpt lat="43.86729046231701" lon="10.877348521846237"><ele>339.5</ele><time>2026-04-12T09:22:41.333Z</time></trkpt><trkpt lat="43.867219361520974" lon="10.877301243558502"><ele>343.3333333333333</ele><time>2026-04-12T09:22:44.333Z</time></trkpt><trkpt lat="43.86714802036191" lon="10.877258441508841"><ele>347.1666666666667</ele><time>2026-04-12T09:22:47.333Z</time></trkpt><trkpt lat="43.86707227498088" lon="10.87722164137345"><ele>351.0</ele><time>2026-04-12T09:22:50.333Z</time></trkpt><trkpt lat="43.8670063220321" lon="10.877205981759944"><ele>351.0</ele><time>2026-04-12T09:22:53.333Z</time></trkpt><trkpt lat="43.866942245509414" lon="10.877242432564548"><ele>351.0</ele><time>2026-04-12T09:22:56.333Z</time></trkpt><trkpt lat="43.86688119861401" lon="10.87720100319994"><ele>351.0</ele><time>2026-04-12T09:22:59.333Z</time></trkpt><trkpt lat="43.86680117423285" lon="10.877224958850086"><ele>351.0</ele><time>2026-04-12T09:23:03.333Z</time></trkpt><trkpt lat="43.86674478885751" lon="10.87727209106056"><ele>351.0</ele><time>2026-04-12T09:23:08.333Z</time></trkpt><trkpt lat="43.86676735229658" lon="10.877644201886557"><ele>350.3333333333333</ele><time>2026-04-12T09:23:12.333Z</time></trkpt><trkpt lat="43.8667540252989" lon="10.87772959668907"><ele>349.6666666666667</ele><time>2026-04-12T09:23:15.333Z</time></trkpt><trkpt lat="43.866716000235286" lon="10.877829126395124"><ele>349.0</ele><time>2026-04-12T09:23:19.333Z</time></trkpt><trkpt lat="43.86665497369588" lon="10.877887862620968"><ele>348.33333333333337</ele><time>2026-04-12T09:23:22.333Z</time></trkpt><trkpt lat="43.866589091110676" lon="10.877923984437835"><ele>347.6666666666667</ele><time>2026-04-12T09:23:25.333Z</time></trkpt><trkpt lat="43.8664915878277" lon="10.877942703797345"><ele>347.0</ele><time>2026-04-12T09:23:28.333Z</time></trkpt><trkpt lat="43.8664199354705" lon="10.877938989931858"><ele>347.0</ele><time>2026-04-12T09:23:30.333Z</time></trkpt><trkpt lat="43.86634411704284" lon="10.877940895381064"><ele>347.0</ele><time>2026-04-12T09:23:32.333Z</time></trkpt><trkpt lat="43.86628079763474" lon="10.877947777584962"><ele>347.0</ele><time>2026-04-12T09:23:34.333Z</time></trkpt><trkpt lat="43.866208083153666" lon="10.878011043440416"><ele>347.0</ele><time>2026-04-12T09:23:37.333Z</time></trkpt><trkpt lat="43.86615921440159" lon="10.878091445576347"><ele>347.0</ele><time>2026-04-12T09:23:40.333Z</time></trkpt><trkpt lat="43.86612731064707" lon="10.878186834736631"><ele>347.0</ele><time>2026-04-12T09:23:42.333Z</time></trkpt><trkpt lat="43.86611449689328" lon="10.878305344971707"><ele>347.0</ele><time>2026-04-12T09:23:44.333Z</time></trkpt><trkpt lat="43.86609519391903" lon="10.878420323710527"><ele>347.0</ele><time>2026-04-12T09:23:46.333Z</time></trkpt><trkpt lat="43.86608277839802" lon="10.878536095646009"><ele>347.0</ele><time>2026-04-12T09:23:48.333Z</time></trkpt><trkpt lat="43.86606549128684" lon="10.878659934391196"><ele>347.0</ele><time>2026-04-12T09:23:50.333Z</time></trkpt><trkpt lat="43.866050608103464" lon="10.878776545558232"><ele>347.0</ele><time>2026-04-12T09:23:52.333Z</time></trkpt><trkpt lat="43.86603227953424" lon="10.878931223593884"><ele>343.8</ele><time>2026-04-12T09:23:54.332Z</time></trkpt><trkpt lat="43.86604557123464" lon="10.879063358519266"><ele>340.6</ele><time>2026-04-12T09:23:56.332Z</time></trkpt><trkpt lat="43.866041601319196" lon="10.879196752632762"><ele>337.40000000000003</ele><time>2026-04-12T09:23:58.332Z</time></trkpt><trkpt lat="43.866016504235446" lon="10.879332046204853"><ele>334.20000000000005</ele><time>2026-04-12T09:24:00.332Z</time></trkpt><trkpt lat="43.86598374018371" lon="10.87946029518128"><ele>331.0</ele><time>2026-04-12T09:24:02.332Z</time></trkpt><trkpt lat="43.865921192183166" lon="10.879561037817432"><ele>337.6</ele><time>2026-04-12T09:24:04.332Z</time></trkpt><trkpt lat="43.865899511143816" lon="10.879694299256277"><ele>344.20000000000005</ele><time>2026-04-12T09:24:06.332Z</time></trkpt><trkpt lat="43.865875859020214" lon="10.87981620518865"><ele>350.79999999999995</ele><time>2026-04-12T09:24:08.332Z</time></trkpt><trkpt lat="43.865843403941874" lon="10.879932690375735"><ele>357.4</ele><time>2026-04-12T09:24:10.332Z</time></trkpt><trkpt lat="43.86584307117473" lon="10.880059613602933"><ele>364.0</ele><time>2026-04-12T09:24:12.332Z</time></trkpt><trkpt lat="43.86586471966076" lon="10.880182361832825"><ele>364.0</ele><time>2026-04-12T09:24:14.332Z</time></trkpt><trkpt lat="43.86588686888279" lon="10.88031098391909"><ele>364.0</ele><time>2026-04-12T09:24:16.332Z</time></trkpt><trkpt lat="43.86589859802382" lon="10.880413506051383"><ele>364.0</ele><time>2026-04-12T09:24:18.332Z</time></trkpt><trkpt lat="43.86589732206575" lon="10.88053162900632"><ele>364.0</ele><time>2026-04-12T09:24:20.332Z</time></trkpt><trkpt lat="43.86589872491668" lon="10.880660797990608"><ele>364.0</ele><time>2026-04-12T09:24:22.332Z</time></trkpt><trkpt lat="43.865901094030434" lon="10.880776432726634"><ele>364.0</ele><time>2026-04-12T09:24:24.332Z</time></trkpt><trkpt lat="43.86589007448448" lon="10.880900011560627"><ele>362.42857142857144</ele><time>2026-04-12T09:24:26.332Z</time></trkpt><trkpt lat="43.86588352672524" lon="10.881006127113855"><ele>360.8571428571429</ele><time>2026-04-12T09:24:28.332Z</time></trkpt><trkpt lat="43.86588434789797" lon="10.88110847775841"><ele>359.2857142857143</ele><time>2026-04-12T09:24:30.332Z</time></trkpt><trkpt lat="43.865882855152684" lon="10.881210543216193"><ele>357.7142857142857</ele><time>2026-04-12T09:24:32.332Z</time></trkpt><trkpt lat="43.86587375876878" lon="10.88131202728298"><ele>356.14285714285717</ele><time>2026-04-12T09:24:34.332Z</time></trkpt><trkpt lat="43.86585263668165" lon="10.881409882125473"><ele>354.57142857142856</ele><time>2026-04-12T09:24:36.332Z</time></trkpt><trkpt lat="43.86581762414144" lon="10.881494174250902"><ele>353.0</ele><time>2026-04-12T09:24:38.332Z</time></trkpt><trkpt lat="43.86578485703247" lon="10.881576711406627"><ele>353.0</ele><time>2026-04-12T09:24:40.332Z</time></trkpt><trkpt lat="43.86574427991904" lon="10.881677306173067"><ele>353.0</ele><time>2026-04-12T09:24:42.332Z</time></trkpt><trkpt lat="43.865690454639335" lon="10.88178986776646"><ele>353.0</ele><time>2026-04-12T09:24:44.332Z</time></trkpt><trkpt lat="43.865621105124966" lon="10.881880009633285"><ele>353.0</ele><time>2026-04-12T09:24:46.332Z</time></trkpt><trkpt lat="43.865534048654354" lon="10.881911470978674"><ele>353.0</ele><time>2026-04-12T09:24:48.332Z</time></trkpt><trkpt lat="43.86546852697184" lon="10.88193189202882"><ele>353.0</ele><time>2026-04-12T09:24:49.332Z</time></trkpt><trkpt lat="43.865411552692834" lon="10.881970964234446"><ele>352.0</ele><time>2026-04-12T09:24:50.332Z</time></trkpt><trkpt lat="43.86530790531" lon="10.882057715987417"><ele>351.0</ele><time>2026-04-12T09:24:52.332Z</time></trkpt><trkpt lat="43.86521765368992" lon="10.882134965183324"><ele>350.0</ele><time>2026-04-12T09:24:54.332Z</time></trkpt><trkpt lat="43.86514089747086" lon="10.882167652092344"><ele>349.0</ele><time>2026-04-12T09:24:56.332Z</time></trkpt><trkpt lat="43.86506666245303" lon="10.882179457801216"><ele>348.0</ele><time>2026-04-12T09:24:58.332Z</time></trkpt><trkpt lat="43.86498373500914" lon="10.882197592904204"><ele>348.0</ele><time>2026-04-12T09:25:00.332Z</time></trkpt><trkpt lat="43.86486721652038" lon="10.88221865793295"><ele>348.0</ele><time>2026-04-12T09:25:02.332Z</time></trkpt><trkpt lat="43.86480426798893" lon="10.882240356520745"><ele>348.0</ele><time>2026-04-12T09:25:03.332Z</time></trkpt><trkpt lat="43.86473955821876" lon="10.882270569411096"><ele>348.0</ele><time>2026-04-12T09:25:04.332Z</time></trkpt><trkpt lat="43.86465283232152" lon="10.882293737474635"><ele>348.0</ele><time>2026-04-12T09:25:05.332Z</time></trkpt><trkpt lat="43.86456361581229" lon="10.882352879061111"><ele>348.0</ele><time>2026-04-12T09:25:07.332Z</time></trkpt><trkpt lat="43.864476336156415" lon="10.88228528919992"><ele>348.0</ele><time>2026-04-12T09:25:08.332Z</time></trkpt><trkpt lat="43.86439273811815" lon="10.882345378453623"><ele>348.0</ele><time>2026-04-12T09:25:10.332Z</time></trkpt><trkpt lat="43.86432429051528" lon="10.882394577848432"><ele>348.0</ele><time>2026-04-12T09:25:12.332Z</time></trkpt><trkpt lat="43.86425841304975" lon="10.882441929875311"><ele>348.0</ele><time>2026-04-12T09:25:14.332Z</time></trkpt><trkpt lat="43.8641960144651" lon="10.882493022623892"><ele>348.0</ele><time>2026-04-12T09:25:17.332Z</time></trkpt><trkpt lat="43.8641209581726" lon="10.88252002691083"><ele>348.0</ele><time>2026-04-12T09:25:21.332Z</time></trkpt><trkpt lat="43.864047475089855" lon="10.882535185329735"><ele>348.5</ele><time>2026-04-12T09:25:24.332Z</time></trkpt><trkpt lat="43.86395969766703" lon="10.882547013905777"><ele>349.0</ele><time>2026-04-12T09:25:27.332Z</time></trkpt><trkpt lat="43.86386481558743" lon="10.882556692973113"><ele>349.5</ele><time>2026-04-12T09:25:30.332Z</time></trkpt><trkpt lat="43.86377969239609" lon="10.882554275129912"><ele>350.0</ele><time>2026-04-12T09:25:33.332Z</time></trkpt><trkpt lat="43.86370782911671" lon="10.882517956937557"><ele>350.5</ele><time>2026-04-12T09:25:38.332Z</time></trkpt><trkpt lat="43.86364176266854" lon="10.882496087928224"><ele>351.0</ele><time>2026-04-12T09:25:40.332Z</time></trkpt><trkpt lat="43.86355191843587" lon="10.882450616471079"><ele>351.0</ele><time>2026-04-12T09:25:43.332Z</time></trkpt><trkpt lat="43.863477602023316" lon="10.882425023609755"><ele>351.0</ele><time>2026-04-12T09:25:45.332Z</time></trkpt><trkpt lat="43.863422858408725" lon="10.882359427916166"><ele>351.0</ele><time>2026-04-12T09:25:47.332Z</time></trkpt><trkpt lat="43.863354682036224" lon="10.882301638051706"><ele>351.0</ele><time>2026-04-12T09:25:49.332Z</time></trkpt><trkpt lat="43.8632924772121" lon="10.88223117758582"><ele>351.0</ele><time>2026-04-12T09:25:51.332Z</time></trkpt><trkpt lat="43.86323972700049" lon="10.882151729619089"><ele>351.0</ele><time>2026-04-12T09:25:53.332Z</time></trkpt><trkpt lat="43.86317856406616" lon="10.882048602696575"><ele>350.8</ele><time>2026-04-12T09:25:55.332Z</time></trkpt><trkpt lat="43.86311865434994" lon="10.881944025402094"><ele>350.6</ele><time>2026-04-12T09:25:57.332Z</time></trkpt><trkpt lat="43.863058424082304" lon="10.881836911921685"><ele>350.4</ele><time>2026-04-12T09:25:59.332Z</time></trkpt><trkpt lat="43.86299542943248" lon="10.881729380970839"><ele>350.2</ele><time>2026-04-12T09:26:01.331Z</time></trkpt><trkpt lat="43.862933063759336" lon="10.881627744616347"><ele>350.0</ele><time>2026-04-12T09:26:03.331Z</time></trkpt><trkpt lat="43.862858089885556" lon="10.881542897061278"><ele>350.0</ele><time>2026-04-12T09:26:05.331Z</time></trkpt><trkpt lat="43.86276238991117" lon="10.88148105272735"><ele>350.0</ele><time>2026-04-12T09:26:07.331Z</time></trkpt><trkpt lat="43.86266949799714" lon="10.881412606804039"><ele>350.0</ele><time>2026-04-12T09:26:09.331Z</time></trkpt><trkpt lat="43.86254689063061" lon="10.881407547751374"><ele>350.0</ele><time>2026-04-12T09:26:11.331Z</time></trkpt><trkpt lat="43.8624282904064" lon="10.881443261834649"><ele>346.4</ele><time>2026-04-12T09:26:13.331Z</time></trkpt><trkpt lat="43.86236617373538" lon="10.88146974471251"><ele>342.8</ele><time>2026-04-12T09:26:14.331Z</time></trkpt><trkpt lat="43.862307522483356" lon="10.881501900867425"><ele>339.20000000000005</ele><time>2026-04-12T09:26:15.331Z</time></trkpt><trkpt lat="43.86219795850665" lon="10.881581402446944"><ele>335.6</ele><time>2026-04-12T09:26:17.331Z</time></trkpt><trkpt lat="43.86208933470532" lon="10.881655913899305"><ele>332.0</ele><time>2026-04-12T09:26:19.331Z</time></trkpt><trkpt lat="43.862009722467626" lon="10.881718337065461"><ele>331.33333333333337</ele><time>2026-04-12T09:26:21.331Z</time></trkpt><trkpt lat="43.86194730638767" lon="10.881775876794652"><ele>330.6666666666667</ele><time>2026-04-12T09:26:23.331Z</time></trkpt><trkpt lat="43.86190616819336" lon="10.881885035731452"><ele>330.0</ele><time>2026-04-12T09:26:26.331Z</time></trkpt><trkpt lat="43.86186661908699" lon="10.881963397907064"><ele>329.3333333333333</ele><time>2026-04-12T09:26:28.331Z</time></trkpt><trkpt lat="43.86180893429278" lon="10.882059942275157"><ele>328.66666666666663</ele><time>2026-04-12T09:26:31.331Z</time></trkpt><trkpt lat="43.86177666827268" lon="10.88213709696762"><ele>328.0</ele><time>2026-04-12T09:26:33.331Z</time></trkpt><trkpt lat="43.8617419589362" lon="10.882229445123185"><ele>326.79999999999995</ele><time>2026-04-12T09:26:35.331Z</time></trkpt><trkpt lat="43.86169559454327" lon="10.882334699850942"><ele>325.6</ele><time>2026-04-12T09:26:38.331Z</time></trkpt><trkpt lat="43.86164481428406" lon="10.882432070942144"><ele>324.4</ele><time>2026-04-12T09:26:40.331Z</time></trkpt><trkpt lat="43.86159279577452" lon="10.882531142872905"><ele>323.20000000000005</ele><time>2026-04-12T09:26:42.331Z</time></trkpt><trkpt lat="43.861526600513365" lon="10.882687016856242"><ele>322.0</ele><time>2026-04-12T09:26:45.331Z</time></trkpt><trkpt lat="43.86149272952095" lon="10.882798710802078"><ele>320.6</ele><time>2026-04-12T09:26:47.331Z</time></trkpt><trkpt lat="43.86144369615571" lon="10.882918903882096"><ele>319.20000000000005</ele><time>2026-04-12T09:26:49.331Z</time></trkpt><trkpt lat="43.861397518828" lon="10.883057558897551"><ele>317.8</ele><time>2026-04-12T09:26:51.331Z</time></trkpt><trkpt lat="43.86137492865965" lon="10.883146819793955"><ele>316.4</ele><time>2026-04-12T09:26:52.331Z</time></trkpt><trkpt lat="43.86135128318396" lon="10.883230498517444"><ele>315.0</ele><time>2026-04-12T09:26:53.331Z</time></trkpt><trkpt lat="43.86128843229458" lon="10.883373155297763"><ele>313.4</ele><time>2026-04-12T09:26:55.331Z</time></trkpt><trkpt lat="43.86125542619161" lon="10.883478701616058"><ele>311.8</ele><time>2026-04-12T09:26:57.331Z</time></trkpt><trkpt lat="43.86123799867201" lon="10.88358518623984"><ele>310.2</ele><time>2026-04-12T09:26:59.331Z</time></trkpt><trkpt lat="43.86118056581641" lon="10.883715139835767"><ele>308.6</ele><time>2026-04-12T09:27:01.331Z</time></trkpt><trkpt lat="43.861138883745234" lon="10.88388284542883"><ele>307.0</ele><time>2026-04-12T09:27:03.331Z</time></trkpt><trkpt lat="43.861120935484024" lon="10.883976989525792"><ele>306.99999999999994</ele><time>2026-04-12T09:27:04.331Z</time></trkpt><trkpt lat="43.86110406067818" lon="10.884068005314976"><ele>307.0</ele><time>2026-04-12T09:27:05.331Z</time></trkpt><trkpt lat="43.86108726863544" lon="10.884156018763676"><ele>307.0</ele><time>2026-04-12T09:27:06.331Z</time></trkpt><trkpt lat="43.861062416806334" lon="10.884250588800226"><ele>307.0</ele><time>2026-04-12T09:27:07.331Z</time></trkpt><trkpt lat="43.861036624618855" lon="10.884342576574422"><ele>307.0</ele><time>2026-04-12T09:27:08.331Z</time></trkpt><trkpt lat="43.86100799003833" lon="10.884426755766802"><ele>306.99999999999994</ele><time>2026-04-12T09:27:09.331Z</time></trkpt><trkpt lat="43.86097581632404" lon="10.884514864021446"><ele>307.0</ele><time>2026-04-12T09:27:10.331Z</time></trkpt><trkpt lat="43.86094250806171" lon="10.884596593846632"><ele>307.3333333333333</ele><time>2026-04-12T09:27:11.331Z</time></trkpt><trkpt lat="43.860906812707434" lon="10.884677165771249"><ele>307.66666666666663</ele><time>2026-04-12T09:27:12.331Z</time></trkpt><trkpt lat="43.860867618545214" lon="10.884749880916274"><ele>308.0</ele><time>2026-04-12T09:27:13.331Z</time></trkpt><trkpt lat="43.860827553333046" lon="10.88481949878972"><ele>308.3333333333333</ele><time>2026-04-12T09:27:14.331Z</time></trkpt><trkpt lat="43.860747294747" lon="10.884941968110736"><ele>308.6666666666667</ele><time>2026-04-12T09:27:16.331Z</time></trkpt><trkpt lat="43.860677412137065" lon="10.885035232790313"><ele>309.0</ele><time>2026-04-12T09:27:18.331Z</time></trkpt><trkpt lat="43.86062997493496" lon="10.885107770543579"><ele>309.14285714285717</ele><time>2026-04-12T09:27:20.331Z</time></trkpt><trkpt lat="43.86056991533079" lon="10.88515028964191"><ele>309.2857142857143</ele><time>2026-04-12T09:27:22.331Z</time></trkpt><trkpt lat="43.86052488982587" lon="10.885225858845404"><ele>309.42857142857144</ele><time>2026-04-12T09:27:25.331Z</time></trkpt><trkpt lat="43.86049535214965" lon="10.885311371982162"><ele>309.57142857142856</ele><time>2026-04-12T09:27:28.331Z</time></trkpt><trkpt lat="43.860430142334536" lon="10.88533751097348"><ele>309.7142857142857</ele><time>2026-04-12T09:27:32.331Z</time></trkpt><trkpt lat="43.86036491009122" lon="10.885392745620674"><ele>309.8571428571429</ele><time>2026-04-12T09:27:35.331Z</time></trkpt><trkpt lat="43.86027130168662" lon="10.885416736231042"><ele>310.0</ele><time>2026-04-12T09:27:38.331Z</time></trkpt><trkpt lat="43.860220378969906" lon="10.88551462448656"><ele>310.0</ele><time>2026-04-12T09:27:41.331Z</time></trkpt><trkpt lat="43.86016560779378" lon="10.885567753465955"><ele>310.0</ele><time>2026-04-12T09:27:43.331Z</time></trkpt><trkpt lat="43.86012523656248" lon="10.885641893238091"><ele>310.0</ele><time>2026-04-12T09:27:45.331Z</time></trkpt><trkpt lat="43.860085732773825" lon="10.885720369745137"><ele>310.0</ele><time>2026-04-12T09:27:47.331Z</time></trkpt><trkpt lat="43.860045672654806" lon="10.885807883448786"><ele>310.0</ele><time>2026-04-12T09:27:49.331Z</time></trkpt><trkpt lat="43.86001516953216" lon="10.885895128192802"><ele>310.0</ele><time>2026-04-12T09:27:51.331Z</time></trkpt><trkpt lat="43.859984710319125" lon="10.885984064375474"><ele>310.0</ele><time>2026-04-12T09:27:53.331Z</time></trkpt><trkpt lat="43.85995507299175" lon="10.886070600692387"><ele>310.7142857142857</ele><time>2026-04-12T09:27:55.331Z</time></trkpt><trkpt lat="43.8599268806533" lon="10.886152917869278"><ele>311.42857142857144</ele><time>2026-04-12T09:27:57.331Z</time></trkpt><trkpt lat="43.85989679594911" lon="10.886240760455836"><ele>312.1428571428571</ele><time>2026-04-12T09:27:59.331Z</time></trkpt><trkpt lat="43.85991056759976" lon="10.88633501841145"><ele>312.8571428571429</ele><time>2026-04-12T09:28:01.331Z</time></trkpt><trkpt lat="43.85986896595156" lon="10.886437439686569"><ele>313.57142857142856</ele><time>2026-04-12T09:28:04.331Z</time></trkpt><trkpt lat="43.85982904339069" lon="10.886531798483821"><ele>314.2857142857143</ele><time>2026-04-12T09:28:07.329Z</time></trkpt><trkpt lat="43.85980337841819" lon="10.88662634690447"><ele>315.0</ele><time>2026-04-12T09:28:10.329Z</time></trkpt><trkpt lat="43.85978207567069" lon="10.88672378504587"><ele>315.0</ele><time>2026-04-12T09:28:13.329Z</time></trkpt><trkpt lat="43.85977307143141" lon="10.886823737117783"><ele>315.0</ele><time>2026-04-12T09:28:16.329Z</time></trkpt><trkpt lat="43.859779312033076" lon="10.886934028246708"><ele>315.0</ele><time>2026-04-12T09:28:20.329Z</time></trkpt><trkpt lat="43.85980474471024" lon="10.887034498485809"><ele>315.0</ele><time>2026-04-12T09:28:23.329Z</time></trkpt><trkpt lat="43.85984767369147" lon="10.887129491941433"><ele>315.0</ele><time>2026-04-12T09:28:26.329Z</time></trkpt><trkpt lat="43.859877491685516" lon="10.887219879936112"><ele>315.0</ele><time>2026-04-12T09:28:29.329Z</time></trkpt><trkpt lat="43.85989233506989" lon="10.88731363636465"><ele>315.0</ele><time>2026-04-12T09:28:32.329Z</time></trkpt><trkpt lat="43.859872682299965" lon="10.887414931092422"><ele>315.0</ele><time>2026-04-12T09:28:35.329Z</time></trkpt><trkpt lat="43.85983340222793" lon="10.887511473178034"><ele>315.0</ele><time>2026-04-12T09:28:38.329Z</time></trkpt><trkpt lat="43.85979485744576" lon="10.887610267315527"><ele>315.0</ele><time>2026-04-12T09:28:41.329Z</time></trkpt><trkpt lat="43.85975956272951" lon="10.887704331517671"><ele>315.0</ele><time>2026-04-12T09:28:44.329Z</time></trkpt><trkpt lat="43.8597353850781" lon="10.887794955046903"><ele>315.0</ele><time>2026-04-12T09:28:47.329Z</time></trkpt><trkpt lat="43.85972000668519" lon="10.887893253391617"><ele>315.1666666666667</ele><time>2026-04-12T09:28:50.329Z</time></trkpt><trkpt lat="43.8596987549965" lon="10.887978251480778"><ele>315.3333333333333</ele><time>2026-04-12T09:28:53.329Z</time></trkpt><trkpt lat="43.85966396348527" lon="10.888051409585266"><ele>315.5</ele><time>2026-04-12T09:28:56.329Z</time></trkpt><trkpt lat="43.85962409030568" lon="10.888135854070129"><ele>315.66666666666663</ele><time>2026-04-12T09:28:59.329Z</time></trkpt><trkpt lat="43.859538222349805" lon="10.888175639877758"><ele>315.8333333333333</ele><time>2026-04-12T09:29:02.329Z</time></trkpt><trkpt lat="43.85944702463733" lon="10.888177830727894"><ele>316.0</ele><time>2026-04-12T09:29:05.329Z</time></trkpt><trkpt lat="43.85937569848749" lon="10.888149116056184"><ele>315.3333333333333</ele><time>2026-04-12T09:29:07.329Z</time></trkpt><trkpt lat="43.85928009914778" lon="10.888113989155439"><ele>314.66666666666663</ele><time>2026-04-12T09:29:10.329Z</time></trkpt><trkpt lat="43.859205210549504" lon="10.888112843038282"><ele>314.0</ele><time>2026-04-12T09:29:12.329Z</time></trkpt><trkpt lat="43.85913566893565" lon="10.888118406772278"><ele>313.3333333333333</ele><time>2026-04-12T09:29:14.329Z</time></trkpt><trkpt lat="43.859048889376034" lon="10.888120789767248"><ele>312.6666666666667</ele><time>2026-04-12T09:29:16.329Z</time></trkpt><trkpt lat="43.858968660624406" lon="10.88811933611313"><ele>312.0</ele><time>2026-04-12T09:29:18.329Z</time></trkpt><trkpt lat="43.85889768782474" lon="10.88811679332166"><ele>312.0</ele><time>2026-04-12T09:29:20.329Z</time></trkpt><trkpt lat="43.85880265483847" lon="10.888150929633065"><ele>312.0</ele><time>2026-04-12T09:29:23.329Z</time></trkpt><trkpt lat="43.85874172371707" lon="10.888198005426473"><ele>312.0</ele><time>2026-04-12T09:29:25.329Z</time></trkpt><trkpt lat="43.85868351250641" lon="10.888235374885738"><ele>312.0</ele><time>2026-04-12T09:29:27.329Z</time></trkpt><trkpt lat="43.85861154876156" lon="10.888288449594706"><ele>312.0</ele><time>2026-04-12T09:29:29.329Z</time></trkpt><trkpt lat="43.85855981392004" lon="10.888342838049475"><ele>312.0</ele><time>2026-04-12T09:29:31.329Z</time></trkpt><trkpt lat="43.85849711833126" lon="10.888401163825385"><ele>309.4</ele><time>2026-04-12T09:29:33.329Z</time></trkpt><trkpt lat="43.85843278402016" lon="10.888481493956744"><ele>306.79999999999995</ele><time>2026-04-12T09:29:35.329Z</time></trkpt><trkpt lat="43.8583770206721" lon="10.888560363118355"><ele>304.2</ele><time>2026-04-12T09:29:37.329Z</time></trkpt><trkpt lat="43.85831817381319" lon="10.888637453171134"><ele>301.59999999999997</ele><time>2026-04-12T09:29:39.329Z</time></trkpt><trkpt lat="43.85825178750559" lon="10.888757672482503"><ele>299.0</ele><time>2026-04-12T09:29:41.329Z</time></trkpt><trkpt lat="43.858184185142434" lon="10.88889093330109"><ele>299.0</ele><time>2026-04-12T09:29:43.329Z</time></trkpt><trkpt lat="43.8581065944011" lon="10.889008260591412"><ele>299.0</ele><time>2026-04-12T09:29:45.329Z</time></trkpt><trkpt lat="43.858044611293835" lon="10.889124474159276"><ele>299.0</ele><time>2026-04-12T09:29:47.329Z</time></trkpt><trkpt lat="43.85799046185401" lon="10.889231629377568"><ele>299.0</ele><time>2026-04-12T09:29:49.329Z</time></trkpt><trkpt lat="43.85793566874918" lon="10.889327156207507"><ele>299.0</ele><time>2026-04-12T09:29:51.329Z</time></trkpt><trkpt lat="43.857885720362454" lon="10.889418742853113"><ele>299.1666666666667</ele><time>2026-04-12T09:29:53.329Z</time></trkpt><trkpt lat="43.85783708685851" lon="10.889506405936007"><ele>299.33333333333337</ele><time>2026-04-12T09:29:55.329Z</time></trkpt><trkpt lat="43.85778443206802" lon="10.889584713969695"><ele>299.5</ele><time>2026-04-12T09:29:57.329Z</time></trkpt><trkpt lat="43.85773873337262" lon="10.889658687991087"><ele>299.6666666666667</ele><time>2026-04-12T09:29:59.329Z</time></trkpt><trkpt lat="43.85768892603655" lon="10.889723784505504"><ele>299.8333333333333</ele><time>2026-04-12T09:30:01.329Z</time></trkpt><trkpt lat="43.85764140760612" lon="10.88978625027511"><ele>300.0</ele><time>2026-04-12T09:30:03.329Z</time></trkpt><trkpt lat="43.85758123494826" lon="10.889884098557191"><ele>300.0</ele><time>2026-04-12T09:30:06.329Z</time></trkpt><trkpt lat="43.85751885548745" lon="10.889975593287135"><ele>300.0</ele><time>2026-04-12T09:30:09.329Z</time></trkpt><trkpt lat="43.857456740403435" lon="10.890057948079654"><ele>300.0</ele><time>2026-04-12T09:30:12.328Z</time></trkpt><trkpt lat="43.85740029035792" lon="10.890136371783822"><ele>300.0</ele><time>2026-04-12T09:30:15.328Z</time></trkpt><trkpt lat="43.857345662172946" lon="10.890214371242834"><ele>300.0</ele><time>2026-04-12T09:30:18.328Z</time></trkpt><trkpt lat="43.857285373001844" lon="10.89029143691044"><ele>300.0</ele><time>2026-04-12T09:30:21.328Z</time></trkpt><trkpt lat="43.85723236243922" lon="10.890366591522515"><ele>301.0</ele><time>2026-04-12T09:30:24.328Z</time></trkpt><trkpt lat="43.85716277472437" lon="10.890428746682852"><ele>302.0</ele><time>2026-04-12T09:30:27.328Z</time></trkpt><trkpt lat="43.85711592887327" lon="10.890529013114518"><ele>303.0</ele><time>2026-04-12T09:30:30.328Z</time></trkpt><trkpt lat="43.857063166619014" lon="10.89059732658753"><ele>304.0</ele><time>2026-04-12T09:30:33.328Z</time></trkpt><trkpt lat="43.857011784523856" lon="10.890655827923561"><ele>305.0</ele><time>2026-04-12T09:30:36.328Z</time></trkpt><trkpt lat="43.856955738311946" lon="10.890727538954627"><ele>306.0</ele><time>2026-04-12T09:30:39.328Z</time></trkpt><trkpt lat="43.85689851615733" lon="10.890783938616146"><ele>306.0</ele><time>2026-04-12T09:30:42.328Z</time></trkpt><trkpt lat="43.85684561524576" lon="10.890853021660476"><ele>306.0</ele><time>2026-04-12T09:30:45.328Z</time></trkpt><trkpt lat="43.85679637868943" lon="10.890915566880361"><ele>306.0</ele><time>2026-04-12T09:30:48.328Z</time></trkpt><trkpt lat="43.85674791014483" lon="10.891007151732856"><ele>306.0</ele><time>2026-04-12T09:30:52.328Z</time></trkpt><trkpt lat="43.85670676309213" lon="10.891104379583714"><ele>306.0</ele><time>2026-04-12T09:30:56.328Z</time></trkpt><trkpt lat="43.85668193886149" lon="10.89121236194923"><ele>306.0</ele><time>2026-04-12T09:31:00.328Z</time></trkpt><trkpt lat="43.85667583511117" lon="10.891320519925804"><ele>307.0</ele><time>2026-04-12T09:31:04.328Z</time></trkpt><trkpt lat="43.85666977859254" lon="10.891430538255902"><ele>308.0</ele><time>2026-04-12T09:31:08.328Z</time></trkpt><trkpt lat="43.85665807952891" lon="10.891543088875007"><ele>309.0</ele><time>2026-04-12T09:31:12.328Z</time></trkpt><trkpt lat="43.85662732784194" lon="10.89162125258342"><ele>310.0</ele><time>2026-04-12T09:31:15.328Z</time></trkpt><trkpt lat="43.85660021711856" lon="10.891710988824624"><ele>311.0</ele><time>2026-04-12T09:31:18.328Z</time></trkpt><trkpt lat="43.856567471584675" lon="10.89178584645231"><ele>312.0</ele><time>2026-04-12T09:31:21.328Z</time></trkpt><trkpt lat="43.856527328897705" lon="10.891860817257129"><ele>313.0</ele><time>2026-04-12T09:31:24.328Z</time></trkpt><trkpt lat="43.85648492165256" lon="10.891932838048902"><ele>313.42857142857144</ele><time>2026-04-12T09:31:27.328Z</time></trkpt><trkpt lat="43.85645379979181" lon="10.892010359890744"><ele>313.8571428571429</ele><time>2026-04-12T09:31:30.328Z</time></trkpt><trkpt lat="43.85639150040178" lon="10.892088405110467"><ele>314.28571428571433</ele><time>2026-04-12T09:31:34.328Z</time></trkpt><trkpt lat="43.85636012059445" lon="10.892167887404039"><ele>314.7142857142857</ele><time>2026-04-12T09:31:37.328Z</time></trkpt><trkpt lat="43.85631887314058" lon="10.892238856911394"><ele>315.14285714285717</ele><time>2026-04-12T09:31:40.328Z</time></trkpt><trkpt lat="43.85626750047525" lon="10.892328678485223"><ele>315.5714285714286</ele><time>2026-04-12T09:31:44.328Z</time></trkpt><trkpt lat="43.85621305929005" lon="10.892407610935518"><ele>316.0</ele><time>2026-04-12T09:31:48.328Z</time></trkpt><trkpt lat="43.85616913773249" lon="10.892500884078228"><ele>317.16666666666663</ele><time>2026-04-12T09:31:52.328Z</time></trkpt><trkpt lat="43.856142296545784" lon="10.892595771530106"><ele>318.3333333333333</ele><time>2026-04-12T09:31:56.328Z</time></trkpt><trkpt lat="43.85610425698257" lon="10.892697672018812"><ele>319.5</ele><time>2026-04-12T09:32:00.328Z</time></trkpt><trkpt lat="43.856074975398876" lon="10.892794505124611"><ele>320.6666666666667</ele><time>2026-04-12T09:32:04.328Z</time></trkpt><trkpt lat="43.85603839474971" lon="10.892892556351494"><ele>321.83333333333337</ele><time>2026-04-12T09:32:08.328Z</time></trkpt><trkpt lat="43.856015902699305" lon="10.892993124303468"><ele>323.0</ele><time>2026-04-12T09:32:12.328Z</time></trkpt><trkpt lat="43.8560065918223" lon="10.893102051937039"><ele>323.0</ele><time>2026-04-12T09:32:16.328Z</time></trkpt><trkpt lat="43.85599176915649" lon="10.893205186628972"><ele>323.0</ele><time>2026-04-12T09:32:20.327Z</time></trkpt><trkpt lat="43.8559651859109" lon="10.89330906097487"><ele>323.0</ele><time>2026-04-12T09:32:24.327Z</time></trkpt><trkpt lat="43.855973003292156" lon="10.893411991660061"><ele>323.0</ele><time>2026-04-12T09:32:28.327Z</time></trkpt><trkpt lat="43.85598318264378" lon="10.893507333035357"><ele>323.0</ele><time>2026-04-12T09:32:32.327Z</time></trkpt><trkpt lat="43.856016750178924" lon="10.89360027643948"><ele>323.0</ele><time>2026-04-12T09:32:37.327Z</time></trkpt><trkpt lat="43.85607531846317" lon="10.893672410681006"><ele>324.6666666666667</ele><time>2026-04-12T09:32:41.327Z</time></trkpt><trkpt lat="43.85613173618793" lon="10.893757509854826"><ele>326.33333333333337</ele><time>2026-04-12T09:32:45.327Z</time></trkpt><trkpt lat="43.8561793648478" lon="10.893844542585924"><ele>328.0</ele><time>2026-04-12T09:32:49.327Z</time></trkpt><trkpt lat="43.85622980604076" lon="10.893934692340402"><ele>329.6666666666667</ele><time>2026-04-12T09:32:53.327Z</time></trkpt><trkpt lat="43.85626746430405" lon="10.894009281833771"><ele>331.3333333333333</ele><time>2026-04-12T09:32:56.327Z</time></trkpt><trkpt lat="43.85629686924032" lon="10.894088957307469"><ele>333.0</ele><time>2026-04-12T09:32:59.327Z</time></trkpt><trkpt lat="43.85634106801208" lon="10.894178934549192"><ele>334.1666666666667</ele><time>2026-04-12T09:33:03.327Z</time></trkpt><trkpt lat="43.85640021261239" lon="10.894260984996535"><ele>335.3333333333333</ele><time>2026-04-12T09:33:07.327Z</time></trkpt><trkpt lat="43.856467801733444" lon="10.894326572835796"><ele>336.5</ele><time>2026-04-12T09:33:11.327Z</time></trkpt><trkpt lat="43.85650908783782" lon="10.894392814408876"><ele>337.66666666666663</ele><time>2026-04-12T09:33:14.327Z</time></trkpt><trkpt lat="43.85656139686662" lon="10.894482435127674"><ele>338.8333333333333</ele><time>2026-04-12T09:33:18.327Z</time></trkpt><trkpt lat="43.8565992409536" lon="10.894577095520937"><ele>340.0</ele><time>2026-04-12T09:33:22.327Z</time></trkpt><trkpt lat="43.856638414288824" lon="10.894666371827695"><ele>340.0</ele><time>2026-04-12T09:33:26.327Z</time></trkpt><trkpt lat="43.8566751062446" lon="10.894755389215355"><ele>340.0</ele><time>2026-04-12T09:33:30.327Z</time></trkpt><trkpt lat="43.8567091087168" lon="10.894846596158484"><ele>340.0</ele><time>2026-04-12T09:33:34.327Z</time></trkpt><trkpt lat="43.85674067682022" lon="10.89492430889471"><ele>340.0</ele><time>2026-04-12T09:33:38.327Z</time></trkpt><trkpt lat="43.85676252673523" lon="10.895016160047803"><ele>340.0</ele><time>2026-04-12T09:33:42.327Z</time></trkpt><trkpt lat="43.856810950594166" lon="10.895096966052265"><ele>340.0</ele><time>2026-04-12T09:33:46.327Z</time></trkpt><trkpt lat="43.856831193496134" lon="10.895184269648968"><ele>340.0</ele><time>2026-04-12T09:33:50.327Z</time></trkpt><trkpt lat="43.85687667829237" lon="10.895267987105285"><ele>339.8571428571429</ele><time>2026-04-12T09:33:54.327Z</time></trkpt><trkpt lat="43.856910877327614" lon="10.895346749808445"><ele>339.71428571428567</ele><time>2026-04-12T09:33:58.327Z</time></trkpt><trkpt lat="43.85693492642161" lon="10.895436600098112"><ele>339.57142857142856</ele><time>2026-04-12T09:34:02.327Z</time></trkpt><trkpt lat="43.856968626433314" lon="10.89551861304232"><ele>339.42857142857144</ele><time>2026-04-12T09:34:06.327Z</time></trkpt><trkpt lat="43.857012517363" lon="10.895590790177561"><ele>339.28571428571433</ele><time>2026-04-12T09:34:10.327Z</time></trkpt><trkpt lat="43.857052911170506" lon="10.895672928919705"><ele>339.1428571428571</ele><time>2026-04-12T09:34:14.327Z</time></trkpt><trkpt lat="43.857077539043345" lon="10.895767337089008"><ele>339.0</ele><time>2026-04-12T09:34:18.327Z</time></trkpt><trkpt lat="43.85710836758366" lon="10.895850411739193"><ele>339.79999999999995</ele><time>2026-04-12T09:34:22.327Z</time></trkpt><trkpt lat="43.857121990904375" lon="10.89594062926022"><ele>340.59999999999997</ele><time>2026-04-12T09:34:26.326Z</time></trkpt><trkpt lat="43.857128634243324" lon="10.896048890337893"><ele>341.4</ele><time>2026-04-12T09:34:30.326Z</time></trkpt><trkpt lat="43.85707051205377" lon="10.896147632428509"><ele>342.2</ele><time>2026-04-12T09:34:33.326Z</time></trkpt><trkpt lat="43.856981224883945" lon="10.896216158089079"><ele>343.0</ele><time>2026-04-12T09:34:35.326Z</time></trkpt><trkpt lat="43.85687460026658" lon="10.896305391962139"><ele>344.4</ele><time>2026-04-12T09:34:37.326Z</time></trkpt><trkpt lat="43.85676829115665" lon="10.896400319568171"><ele>345.79999999999995</ele><time>2026-04-12T09:34:39.326Z</time></trkpt><trkpt lat="43.856687543511725" lon="10.89651117178402"><ele>347.2</ele><time>2026-04-12T09:34:41.326Z</time></trkpt><trkpt lat="43.85666801233833" lon="10.896655584425897"><ele>348.6</ele><time>2026-04-12T09:34:43.326Z</time></trkpt><trkpt lat="43.85668122135" lon="10.896787139585665"><ele>350.0</ele><time>2026-04-12T09:34:45.326Z</time></trkpt><trkpt lat="43.8566825183348" lon="10.896898389369792"><ele>350.6666666666667</ele><time>2026-04-12T09:34:47.326Z</time></trkpt><trkpt lat="43.85667906085286" lon="10.896989369599128"><ele>351.33333333333337</ele><time>2026-04-12T09:34:49.326Z</time></trkpt><trkpt lat="43.85667378222002" lon="10.897117047901881"><ele>352.0</ele><time>2026-04-12T09:34:52.326Z</time></trkpt><trkpt lat="43.85665866091446" lon="10.897216423033095"><ele>352.6666666666667</ele><time>2026-04-12T09:34:54.326Z</time></trkpt><trkpt lat="43.8566480956111" lon="10.89732683110618"><ele>353.3333333333333</ele><time>2026-04-12T09:34:56.326Z</time></trkpt><trkpt lat="43.85662256185109" lon="10.897437644213138"><ele>354.0</ele><time>2026-04-12T09:34:58.326Z</time></trkpt><trkpt lat="43.85661210444544" lon="10.897551400218068"><ele>352.5</ele><time>2026-04-12T09:35:00.326Z</time></trkpt><trkpt lat="43.85659641542224" lon="10.897671298625067"><ele>351.0</ele><time>2026-04-12T09:35:02.326Z</time></trkpt><trkpt lat="43.856581491199435" lon="10.897784661219768"><ele>349.5</ele><time>2026-04-12T09:35:04.326Z</time></trkpt><trkpt lat="43.85656900835411" lon="10.897899986319633"><ele>348.0</ele><time>2026-04-12T09:35:06.326Z</time></trkpt><trkpt lat="43.85653023591342" lon="10.898001221275306"><ele>346.5</ele><time>2026-04-12T09:35:08.326Z</time></trkpt><trkpt lat="43.856489869630344" lon="10.898075191357831"><ele>345.0</ele><time>2026-04-12T09:35:10.326Z</time></trkpt><trkpt lat="43.85643090570547" lon="10.898155385552357"><ele>345.0</ele><time>2026-04-12T09:35:13.326Z</time></trkpt><trkpt lat="43.856359585421885" lon="10.898213635037916"><ele>345.0</ele><time>2026-04-12T09:35:15.326Z</time></trkpt><trkpt lat="43.856260046322824" lon="10.898205604455676"><ele>345.0</ele><time>2026-04-12T09:35:17.326Z</time></trkpt><trkpt lat="43.856155839734434" lon="10.898229545139296"><ele>345.0</ele><time>2026-04-12T09:35:19.326Z</time></trkpt><trkpt lat="43.85605458880963" lon="10.898215531592541"><ele>345.0</ele><time>2026-04-12T09:35:21.326Z</time></trkpt><trkpt lat="43.8559484753032" lon="10.898201782802655"><ele>347.0</ele><time>2026-04-12T09:35:23.326Z</time></trkpt><trkpt lat="43.85584188940321" lon="10.898193313901764"><ele>349.0</ele><time>2026-04-12T09:35:25.326Z</time></trkpt><trkpt lat="43.85574138595453" lon="10.898198010540435"><ele>351.0</ele><time>2026-04-12T09:35:27.326Z</time></trkpt><trkpt lat="43.855666050949225" lon="10.898216739978281"><ele>353.0</ele><time>2026-04-12T09:35:29.326Z</time></trkpt><trkpt lat="43.855608490635305" lon="10.898288988745811"><ele>355.0</ele><time>2026-04-12T09:35:31.326Z</time></trkpt><trkpt lat="43.85559173102976" lon="10.89839113509343"><ele>357.0</ele><time>2026-04-12T09:35:33.326Z</time></trkpt><trkpt lat="43.8556083068708" lon="10.898496145097821"><ele>357.0</ele><time>2026-04-12T09:35:36.326Z</time></trkpt><trkpt lat="43.85558806870258" lon="10.898594358586184"><ele>357.0</ele><time>2026-04-12T09:35:40.326Z</time></trkpt><trkpt lat="43.855583493575644" lon="10.898689994609319"><ele>357.0</ele><time>2026-04-12T09:35:44.326Z</time></trkpt><trkpt lat="43.85557847917047" lon="10.898782644580102"><ele>357.0</ele><time>2026-04-12T09:35:48.326Z</time></trkpt><trkpt lat="43.85557292435799" lon="10.898870819332524"><ele>357.0</ele><time>2026-04-12T09:35:52.326Z</time></trkpt><trkpt lat="43.85556259607562" lon="10.898978086196852"><ele>357.0</ele><time>2026-04-12T09:35:57.326Z</time></trkpt><trkpt lat="43.85555171326331" lon="10.899069452513087"><ele>357.0</ele><time>2026-04-12T09:36:01.326Z</time></trkpt><trkpt lat="43.85553955008493" lon="10.899162284145156"><ele>357.1666666666667</ele><time>2026-04-12T09:36:05.326Z</time></trkpt><trkpt lat="43.855531551510225" lon="10.899252238335713"><ele>357.3333333333333</ele><time>2026-04-12T09:36:09.326Z</time></trkpt><trkpt lat="43.855523253256344" lon="10.899356491151206"><ele>357.5</ele><time>2026-04-12T09:36:14.326Z</time></trkpt><trkpt lat="43.855372695542094" lon="10.89932091379889"><ele>357.66666666666663</ele><time>2026-04-12T09:36:25.326Z</time></trkpt><trkpt lat="43.85529749576506" lon="10.899325620532315"><ele>357.8333333333333</ele><time>2026-04-12T09:36:31.325Z</time></trkpt><trkpt lat="43.85524182709162" lon="10.899375323585726"><ele>358.0</ele><time>2026-04-12T09:36:35.325Z</time></trkpt><trkpt lat="43.85518176219257" lon="10.899416182001564"><ele>359.28571428571433</ele><time>2026-04-12T09:36:39.325Z</time></trkpt><trkpt lat="43.85511925141237" lon="10.899434701104234"><ele>360.57142857142856</ele><time>2026-04-12T09:36:42.325Z</time></trkpt><trkpt lat="43.85503834684837" lon="10.89944469526814"><ele>361.8571428571429</ele><time>2026-04-12T09:36:46.325Z</time></trkpt><trkpt lat="43.85497302848631" lon="10.89945215102137"><ele>363.14285714285717</ele><time>2026-04-12T09:36:49.325Z</time></trkpt><trkpt lat="43.854912085481324" lon="10.89947879314918"><ele>364.42857142857144</ele><time>2026-04-12T09:36:52.325Z</time></trkpt><trkpt lat="43.85483593251053" lon="10.89952275871314"><ele>365.7142857142857</ele><time>2026-04-12T09:36:56.325Z</time></trkpt><trkpt lat="43.8547820754283" lon="10.899572644364518"><ele>367.0</ele><time>2026-04-12T09:37:01.325Z</time></trkpt><trkpt lat="43.8547357447971" lon="10.899650851097563"><ele>367.0</ele><time>2026-04-12T09:37:06.325Z</time></trkpt><trkpt lat="43.85479045637522" lon="10.89972480609513"><ele>367.0</ele><time>2026-04-12T09:37:11.325Z</time></trkpt><trkpt lat="43.85481972435891" lon="10.899802131270823"><ele>367.0</ele><time>2026-04-12T09:37:15.325Z</time></trkpt><trkpt lat="43.85480238914358" lon="10.899891514035996"><ele>367.0</ele><time>2026-04-12T09:37:20.325Z</time></trkpt><trkpt lat="43.85473318077405" lon="10.89986491484399"><ele>367.0</ele><time>2026-04-12T09:37:25.325Z</time></trkpt><trkpt lat="43.854668883883825" lon="10.899818511526233"><ele>367.0</ele><time>2026-04-12T09:37:29.325Z</time></trkpt><trkpt lat="43.854600720019306" lon="10.899781392467796"><ele>367.0</ele><time>2026-04-12T09:37:33.325Z</time></trkpt><trkpt lat="43.854539447999855" lon="10.899737229427643"><ele>367.0</ele><time>2026-04-12T09:37:38.325Z</time></trkpt><trkpt lat="43.8544806959202" lon="10.899700570906202"><ele>367.0</ele><time>2026-04-12T09:37:42.325Z</time></trkpt><trkpt lat="43.85442707682432" lon="10.899647628312179"><ele>367.0</ele><time>2026-04-12T09:37:46.325Z</time></trkpt><trkpt lat="43.854369605497794" lon="10.89960190293115"><ele>367.0</ele><time>2026-04-12T09:37:51.325Z</time></trkpt><trkpt lat="43.854306319626836" lon="10.899543153774239"><ele>367.0</ele><time>2026-04-12T09:37:56.325Z</time></trkpt><trkpt lat="43.854269207509844" lon="10.89945989896513"><ele>367.0</ele><time>2026-04-12T09:38:19.325Z</time></trkpt><trkpt lat="43.8542213013552" lon="10.899392639201508"><ele>367.0</ele><time>2026-04-12T09:38:27.325Z</time></trkpt><trkpt lat="43.854180178338005" lon="10.899325788200379"><ele>369.0</ele><time>2026-04-12T09:38:36.323Z</time></trkpt><trkpt lat="43.85414549617496" lon="10.899239875161133"><ele>371.0</ele><time>2026-04-12T09:38:45.323Z</time></trkpt><trkpt lat="43.854122519970915" lon="10.899150763406672"><ele>373.0</ele><time>2026-04-12T09:38:54.323Z</time></trkpt><trkpt lat="43.85405929928274" lon="10.899169201459786"><ele>375.0</ele><time>2026-04-12T09:39:02.323Z</time></trkpt><trkpt lat="43.85403605479478" lon="10.899250976097896"><ele>377.0</ele><time>2026-04-12T09:39:09.323Z</time></trkpt><trkpt lat="43.85402208304767" lon="10.89934072471063"><ele>379.0</ele><time>2026-04-12T09:39:18.323Z</time></trkpt><trkpt lat="43.854021654933725" lon="10.899431385583105"><ele>381.0</ele><time>2026-04-12T09:39:27.323Z</time></trkpt><trkpt lat="43.854000983490735" lon="10.899517633798096"><ele>381.0</ele><time>2026-04-12T09:39:34.323Z</time></trkpt><trkpt lat="43.85393471403655" lon="10.899561628412394"><ele>381.0</ele><time>2026-04-12T09:39:41.323Z</time></trkpt><trkpt lat="43.85387152307067" lon="10.899576824899558"><ele>381.0</ele><time>2026-04-12T09:39:48.323Z</time></trkpt><trkpt lat="43.853806741359826" lon="10.899581726852238"><ele>381.0</ele><time>2026-04-12T09:39:55.323Z</time></trkpt><trkpt lat="43.853736938665854" lon="10.899588990361561"><ele>381.0</ele><time>2026-04-12T09:40:04.323Z</time></trkpt><trkpt lat="43.85365864456258" lon="10.899585799263518"><ele>381.0</ele><time>2026-04-12T09:40:15.323Z</time></trkpt><trkpt lat="43.85359266529249" lon="10.899572059088955"><ele>381.0</ele><time>2026-04-12T09:40:24.323Z</time></trkpt><trkpt lat="43.853540748349" lon="10.899517194943272"><ele>381.0</ele><time>2026-04-12T09:40:38.323Z</time></trkpt><trkpt lat="43.85347834934337" lon="10.899483202539145"><ele>381.0</ele><time>2026-04-12T09:40:48.321Z</time></trkpt><trkpt lat="43.853419973834605" lon="10.899440163461195"><ele>381.0</ele><time>2026-04-12T09:40:55.321Z</time></trkpt><trkpt lat="43.85335533479557" lon="10.899402995734047"><ele>381.0</ele><time>2026-04-12T09:41:04.321Z</time></trkpt><trkpt lat="43.85328307997486" lon="10.899375430395452"><ele>381.0</ele><time>2026-04-12T09:41:13.321Z</time></trkpt><trkpt lat="43.85322323193448" lon="10.899345055601186"><ele>381.0</ele><time>2026-04-12T09:41:21.321Z</time></trkpt><trkpt lat="43.85316403950368" lon="10.899301717278645"><ele>381.0</ele><time>2026-04-12T09:41:29.321Z</time></trkpt><trkpt lat="43.853114693159334" lon="10.899247116811578"><ele>383.85714285714283</ele><time>2026-04-12T09:42:49.319Z</time></trkpt><trkpt lat="43.853053749713155" lon="10.8991944951668"><ele>386.7142857142857</ele><time>2026-04-12T09:42:56.319Z</time></trkpt><trkpt lat="43.85297953798341" lon="10.899153559253495"><ele>389.57142857142856</ele><time>2026-04-12T09:43:00.319Z</time></trkpt><trkpt lat="43.85292485857145" lon="10.899091529464052"><ele>392.42857142857144</ele><time>2026-04-12T09:43:03.319Z</time></trkpt><trkpt lat="43.85285945834681" lon="10.89903903665787"><ele>395.28571428571433</ele><time>2026-04-12T09:43:06.319Z</time></trkpt><trkpt lat="43.852812082861654" lon="10.898973196689207"><ele>398.14285714285717</ele><time>2026-04-12T09:43:09.319Z</time></trkpt><trkpt lat="43.85275505681486" lon="10.898898986754908"><ele>401.0</ele><time>2026-04-12T09:43:17.319Z</time></trkpt><trkpt lat="43.85269235296704" lon="10.898869287387619"><ele>400.99999999999994</ele><time>2026-04-12T09:43:20.319Z</time></trkpt><trkpt lat="43.85263597486908" lon="10.89891134512434"><ele>401.0</ele><time>2026-04-12T09:43:23.319Z</time></trkpt><trkpt lat="43.85257086757761" lon="10.898966005399902"><ele>401.0</ele><time>2026-04-12T09:43:25.319Z</time></trkpt><trkpt lat="43.85249134297261" lon="10.898981631796726"><ele>401.0</ele><time>2026-04-12T09:43:27.319Z</time></trkpt><trkpt lat="43.85242772806452" lon="10.898991121676197"><ele>400.99999999999994</ele><time>2026-04-12T09:43:29.319Z</time></trkpt><trkpt lat="43.85235018374287" lon="10.899037334082262"><ele>401.0</ele><time>2026-04-12T09:43:32.319Z</time></trkpt><trkpt lat="43.85227617602438" lon="10.899083176150802"><ele>401.20000000000005</ele><time>2026-04-12T09:43:35.319Z</time></trkpt><trkpt lat="43.85220386846496" lon="10.899117552317376"><ele>401.40000000000003</ele><time>2026-04-12T09:43:38.319Z</time></trkpt><trkpt lat="43.85213895316501" lon="10.89910789832973"><ele>401.6</ele><time>2026-04-12T09:43:40.319Z</time></trkpt><trkpt lat="43.85207583542624" lon="10.899110309348204"><ele>401.8</ele><time>2026-04-12T09:43:42.319Z</time></trkpt><trkpt lat="43.85199256012532" lon="10.899107451296436"><ele>402.0</ele><time>2026-04-12T09:43:45.319Z</time></trkpt><trkpt lat="43.85185163149483" lon="10.898892931412787"><ele>402.0</ele><time>2026-04-12T09:43:47.319Z</time></trkpt><trkpt lat="43.85179162766596" lon="10.898931623938532"><ele>402.0</ele><time>2026-04-12T09:43:49.319Z</time></trkpt><trkpt lat="43.85171590741882" lon="10.898978143948865"><ele>402.0</ele><time>2026-04-12T09:43:52.319Z</time></trkpt><trkpt lat="43.85163066679397" lon="10.899018075772485"><ele>402.0</ele><time>2026-04-12T09:43:56.319Z</time></trkpt><trkpt lat="43.85156461121567" lon="10.89902924769076"><ele>402.0</ele><time>2026-04-12T09:43:59.319Z</time></trkpt><trkpt lat="43.851495633516755" lon="10.899022922978125"><ele>402.0</ele><time>2026-04-12T09:44:02.319Z</time></trkpt><trkpt lat="43.85143409227858" lon="10.899003966499976"><ele>402.0</ele><time>2026-04-12T09:44:05.319Z</time></trkpt><trkpt lat="43.85136883242706" lon="10.89897102268655"><ele>402.2857142857143</ele><time>2026-04-12T09:44:08.319Z</time></trkpt><trkpt lat="43.85129887571518" lon="10.898919288974081"><ele>402.5714285714286</ele><time>2026-04-12T09:44:11.319Z</time></trkpt><trkpt lat="43.85123831453794" lon="10.898871168319625"><ele>402.8571428571429</ele><time>2026-04-12T09:44:13.319Z</time></trkpt><trkpt lat="43.851180743744315" lon="10.898825423762851"><ele>403.1428571428571</ele><time>2026-04-12T09:44:15.319Z</time></trkpt><trkpt lat="43.85111462393532" lon="10.898777849693293"><ele>403.42857142857144</ele><time>2026-04-12T09:44:17.319Z</time></trkpt><trkpt lat="43.851032612862326" lon="10.898746928147984"><ele>403.7142857142857</ele><time>2026-04-12T09:44:19.319Z</time></trkpt><trkpt lat="43.8509633644743" lon="10.898744492844559"><ele>404.0</ele><time>2026-04-12T09:44:21.319Z</time></trkpt><trkpt lat="43.85088430856853" lon="10.89876522206154"><ele>404.8333333333333</ele><time>2026-04-12T09:44:23.319Z</time></trkpt><trkpt lat="43.850811979180236" lon="10.898811951006456"><ele>405.66666666666663</ele><time>2026-04-12T09:44:25.319Z</time></trkpt><trkpt lat="43.85075663515235" lon="10.898862003702755"><ele>406.5</ele><time>2026-04-12T09:44:27.319Z</time></trkpt><trkpt lat="43.85070558506364" lon="10.898948420162817"><ele>407.33333333333337</ele><time>2026-04-12T09:44:30.319Z</time></trkpt><trkpt lat="43.850664895245544" lon="10.899050355744535"><ele>408.1666666666667</ele><time>2026-04-12T09:44:33.319Z</time></trkpt><trkpt lat="43.85061069579397" lon="10.89914935594959"><ele>409.0</ele><time>2026-04-12T09:44:36.319Z</time></trkpt><trkpt lat="43.850571418280076" lon="10.899219861787028"><ele>407.2857142857143</ele><time>2026-04-12T09:44:38.319Z</time></trkpt><trkpt lat="43.850530193538575" lon="10.899308316682319"><ele>405.5714285714286</ele><time>2026-04-12T09:44:40.319Z</time></trkpt><trkpt lat="43.850488960682796" lon="10.89939935604789"><ele>403.8571428571429</ele><time>2026-04-12T09:44:42.319Z</time></trkpt><trkpt lat="43.850446905927114" lon="10.899488862434387"><ele>402.1428571428571</ele><time>2026-04-12T09:44:44.319Z</time></trkpt><trkpt lat="43.85040325294994" lon="10.899573219824351"><ele>400.42857142857144</ele><time>2026-04-12T09:44:46.319Z</time></trkpt><trkpt lat="43.850357891092564" lon="10.89964040677589"><ele>398.7142857142857</ele><time>2026-04-12T09:44:48.319Z</time></trkpt><trkpt lat="43.85030950269713" lon="10.899704381328668"><ele>397.0</ele><time>2026-04-12T09:44:50.319Z</time></trkpt><trkpt lat="43.85025776718075" lon="10.8997656879275"><ele>397.00000000000006</ele><time>2026-04-12T09:44:52.319Z</time></trkpt><trkpt lat="43.850210021708826" lon="10.899839872570139"><ele>397.0</ele><time>2026-04-12T09:44:54.317Z</time></trkpt><trkpt lat="43.85014514022161" lon="10.899864186180528"><ele>397.0</ele><time>2026-04-12T09:44:56.317Z</time></trkpt><trkpt lat="43.85006174536206" lon="10.899910082214753"><ele>397.0</ele><time>2026-04-12T09:44:59.317Z</time></trkpt><trkpt lat="43.84998364890109" lon="10.899948944452163"><ele>397.00000000000006</ele><time>2026-04-12T09:45:02.317Z</time></trkpt><trkpt lat="43.84992879139294" lon="10.899996089624254"><ele>397.0</ele><time>2026-04-12T09:45:04.317Z</time></trkpt><trkpt lat="43.8498525674276" lon="10.900036225285476"><ele>396.33333333333337</ele><time>2026-04-12T09:45:06.317Z</time></trkpt><trkpt lat="43.84976934890872" lon="10.900094557395857"><ele>395.6666666666667</ele><time>2026-04-12T09:45:08.317Z</time></trkpt><trkpt lat="43.84969396051998" lon="10.900172045053644"><ele>395.0</ele><time>2026-04-12T09:45:10.317Z</time></trkpt><trkpt lat="43.84959354325523" lon="10.900248576509677"><ele>394.33333333333337</ele><time>2026-04-12T09:45:12.317Z</time></trkpt><trkpt lat="43.84953438644215" lon="10.900281908783732"><ele>393.6666666666667</ele><time>2026-04-12T09:45:13.317Z</time></trkpt><trkpt lat="43.84947250570341" lon="10.900309276031587"><ele>393.0</ele><time>2026-04-12T09:45:14.317Z</time></trkpt><trkpt lat="43.849403211916595" lon="10.900336387355576"><ele>393.0</ele><time>2026-04-12T09:45:15.317Z</time></trkpt><trkpt lat="43.84933144105842" lon="10.900357405207636"><ele>393.0</ele><time>2026-04-12T09:45:16.317Z</time></trkpt><trkpt lat="43.84925611195057" lon="10.900374207614266"><ele>393.0</ele><time>2026-04-12T09:45:17.317Z</time></trkpt><trkpt lat="43.849179282579115" lon="10.900384569096538"><ele>393.0</ele><time>2026-04-12T09:45:18.317Z</time></trkpt><trkpt lat="43.849095268289155" lon="10.900388452526528"><ele>393.0</ele><time>2026-04-12T09:45:19.317Z</time></trkpt><trkpt lat="43.84901549421979" lon="10.900389475919713"><ele>393.0</ele><time>2026-04-12T09:45:20.317Z</time></trkpt><trkpt lat="43.84893338514936" lon="10.900385974542845"><ele>393.1666666666667</ele><time>2026-04-12T09:45:21.317Z</time></trkpt><trkpt lat="43.84884362585881" lon="10.90038789262143"><ele>393.33333333333337</ele><time>2026-04-12T09:45:22.317Z</time></trkpt><trkpt lat="43.84875647890329" lon="10.900406119103511"><ele>393.5</ele><time>2026-04-12T09:45:23.317Z</time></trkpt><trkpt lat="43.84867218164685" lon="10.900438455385999"><ele>393.6666666666667</ele><time>2026-04-12T09:45:24.317Z</time></trkpt><trkpt lat="43.84858736427131" lon="10.900472979815234"><ele>393.83333333333337</ele><time>2026-04-12T09:45:25.317Z</time></trkpt><trkpt lat="43.848503008336394" lon="10.900509318535052"><ele>394.0</ele><time>2026-04-12T09:45:26.317Z</time></trkpt><trkpt lat="43.84841630603234" lon="10.900548001503882"><ele>394.33333333333337</ele><time>2026-04-12T09:45:27.317Z</time></trkpt><trkpt lat="43.84833006941978" lon="10.900587344680517"><ele>394.6666666666667</ele><time>2026-04-12T09:45:28.317Z</time></trkpt><trkpt lat="43.84824781016158" lon="10.900624873297872"><ele>395.0</ele><time>2026-04-12T09:45:29.317Z</time></trkpt><trkpt lat="43.848164504256886" lon="10.900662879414362"><ele>395.33333333333337</ele><time>2026-04-12T09:45:30.317Z</time></trkpt><trkpt lat="43.848075572462406" lon="10.900703452242238"><ele>395.6666666666667</ele><time>2026-04-12T09:45:31.317Z</time></trkpt><trkpt lat="43.847989550036296" lon="10.900733660477762"><ele>396.0</ele><time>2026-04-12T09:45:32.317Z</time></trkpt><trkpt lat="43.847896476853236" lon="10.900760901396712"><ele>396.0</ele><time>2026-04-12T09:45:33.317Z</time></trkpt><trkpt lat="43.84780426123731" lon="10.900790927508124"><ele>396.0</ele><time>2026-04-12T09:45:34.317Z</time></trkpt><trkpt lat="43.847710843988814" lon="10.900829313571183"><ele>396.0</ele><time>2026-04-12T09:45:35.317Z</time></trkpt><trkpt lat="43.84762510742236" lon="10.90090486074959"><ele>396.0</ele><time>2026-04-12T09:45:36.317Z</time></trkpt><trkpt lat="43.84752981750259" lon="10.900968578429461"><ele>396.0</ele><time>2026-04-12T09:45:37.317Z</time></trkpt><trkpt lat="43.84746307269193" lon="10.90105229295542"><ele>396.5</ele><time>2026-04-12T09:45:38.317Z</time></trkpt><trkpt lat="43.84739936868801" lon="10.90112706341783"><ele>397.0</ele><time>2026-04-12T09:45:39.317Z</time></trkpt><trkpt lat="43.847328046548085" lon="10.90118246774159"><ele>397.5</ele><time>2026-04-12T09:45:40.317Z</time></trkpt><trkpt lat="43.84726833108551" lon="10.90123961661071"><ele>398.0</ele><time>2026-04-12T09:45:41.317Z</time></trkpt><trkpt lat="43.84721361395997" lon="10.901289650450188"><ele>398.5</ele><time>2026-04-12T09:45:42.317Z</time></trkpt><trkpt lat="43.84713910166288" lon="10.901355156634622"><ele>399.0</ele><time>2026-04-12T09:45:44.317Z</time></trkpt><trkpt lat="43.847060127348556" lon="10.901420283013724"><ele>399.0</ele><time>2026-04-12T09:45:47.317Z</time></trkpt><trkpt lat="43.84699517500776" lon="10.90146861749061"><ele>399.0</ele><time>2026-04-12T09:45:50.317Z</time></trkpt><trkpt lat="43.84692026503862" lon="10.901520913074854"><ele>399.0</ele><time>2026-04-12T09:45:53.317Z</time></trkpt><trkpt lat="43.846865113605475" lon="10.901594234123012"><ele>399.0</ele><time>2026-04-12T09:45:56.317Z</time></trkpt><trkpt lat="43.84680890697446" lon="10.901648080511672"><ele>399.0</ele><time>2026-04-12T09:45:59.317Z</time></trkpt><trkpt lat="43.846758945520996" lon="10.90172313495776"><ele>399.0</ele><time>2026-04-12T09:46:02.317Z</time></trkpt><trkpt lat="43.846708476009" lon="10.901804154539949"><ele>400.8333333333333</ele><time>2026-04-12T09:46:05.317Z</time></trkpt><trkpt lat="43.846659717340366" lon="10.90189449914705"><ele>402.66666666666663</ele><time>2026-04-12T09:46:08.317Z</time></trkpt><trkpt lat="43.84660683926844" lon="10.901981017737349"><ele>404.5</ele><time>2026-04-12T09:46:11.317Z</time></trkpt><trkpt lat="43.846549945485606" lon="10.902066069217884"><ele>406.3333333333333</ele><time>2026-04-12T09:46:14.317Z</time></trkpt><trkpt lat="43.846492203988994" lon="10.902148288086437"><ele>408.16666666666663</ele><time>2026-04-12T09:46:17.317Z</time></trkpt><trkpt lat="43.84642842305313" lon="10.902225959262516"><ele>410.0</ele><time>2026-04-12T09:46:20.317Z</time></trkpt><trkpt lat="43.84636519139949" lon="10.902302498383516"><ele>409.99999999999994</ele><time>2026-04-12T09:46:23.317Z</time></trkpt><trkpt lat="43.84630549486861" lon="10.902381350822278"><ele>410.0</ele><time>2026-04-12T09:46:26.317Z</time></trkpt><trkpt lat="43.846241857993995" lon="10.902467896546842"><ele>410.0</ele><time>2026-04-12T09:46:29.317Z</time></trkpt><trkpt lat="43.8461676051491" lon="10.90254169404575"><ele>410.0</ele><time>2026-04-12T09:46:32.317Z</time></trkpt><trkpt lat="43.84611979307081" lon="10.90259859504343"><ele>409.99999999999994</ele><time>2026-04-12T09:46:34.317Z</time></trkpt><trkpt lat="43.84605912956115" lon="10.902684394944995"><ele>410.0</ele><time>2026-04-12T09:46:37.317Z</time></trkpt><trkpt lat="43.84599559900758" lon="10.902763956772722"><ele>407.66666666666663</ele><time>2026-04-12T09:46:40.317Z</time></trkpt><trkpt lat="43.84593259462145" lon="10.902832718023165"><ele>405.3333333333333</ele><time>2026-04-12T09:46:43.317Z</time></trkpt><trkpt lat="43.84588101195371" lon="10.90290553555281"><ele>403.0</ele><time>2026-04-12T09:46:46.317Z</time></trkpt><trkpt lat="43.845891470847285" lon="10.90300547446393"><ele>400.66666666666663</ele><time>2026-04-12T09:46:48.317Z</time></trkpt><trkpt lat="43.8458586214112" lon="10.903129769167748"><ele>398.3333333333333</ele><time>2026-04-12T09:46:51.317Z</time></trkpt><trkpt lat="43.84584895817052" lon="10.903251479799817"><ele>396.0</ele><time>2026-04-12T09:46:53.317Z</time></trkpt><trkpt lat="43.84585936438666" lon="10.903409285971573"><ele>395.7142857142857</ele><time>2026-04-12T09:46:55.317Z</time></trkpt><trkpt lat="43.84586978231154" lon="10.903496400753223"><ele>395.4285714285714</ele><time>2026-04-12T09:46:56.317Z</time></trkpt><trkpt lat="43.84588545323463" lon="10.903589503824103"><ele>395.1428571428571</ele><time>2026-04-12T09:46:57.317Z</time></trkpt><trkpt lat="43.845905016622226" lon="10.903687037389021"><ele>394.8571428571429</ele><time>2026-04-12T09:46:58.317Z</time></trkpt><trkpt lat="43.84592072716151" lon="10.903789188789181"><ele>394.57142857142856</ele><time>2026-04-12T09:46:59.317Z</time></trkpt><trkpt lat="43.84593045399873" lon="10.903899955308392"><ele>394.2857142857143</ele><time>2026-04-12T09:47:00.315Z</time></trkpt><trkpt lat="43.845941420164124" lon="10.904012355176802"><ele>394.0</ele><time>2026-04-12T09:47:01.315Z</time></trkpt><trkpt lat="43.84595627223286" lon="10.904136579495969"><ele>397.6</ele><time>2026-04-12T09:47:02.315Z</time></trkpt><trkpt lat="43.845981872452946" lon="10.904258185268253"><ele>401.2</ele><time>2026-04-12T09:47:03.315Z</time></trkpt><trkpt lat="43.846005622226244" lon="10.904376633683858"><ele>404.8</ele><time>2026-04-12T09:47:04.315Z</time></trkpt><trkpt lat="43.846008046859204" lon="10.904516424671794"><ele>408.40000000000003</ele><time>2026-04-12T09:47:05.315Z</time></trkpt><trkpt lat="43.846043526007776" lon="10.904641934468593"><ele>412.0</ele><time>2026-04-12T09:47:06.315Z</time></trkpt><trkpt lat="43.84604584782561" lon="10.904778715847701"><ele>412.00000000000006</ele><time>2026-04-12T09:47:07.315Z</time></trkpt><trkpt lat="43.84603059301723" lon="10.904905387038694"><ele>412.0</ele><time>2026-04-12T09:47:08.315Z</time></trkpt><trkpt lat="43.84596738076065" lon="10.905002454420108"><ele>412.0</ele><time>2026-04-12T09:47:09.315Z</time></trkpt><trkpt lat="43.845896588842436" lon="10.905086082533225"><ele>412.0</ele><time>2026-04-12T09:47:10.315Z</time></trkpt><trkpt lat="43.84582153971845" lon="10.905142863557423"><ele>412.00000000000006</ele><time>2026-04-12T09:47:11.315Z</time></trkpt><trkpt lat="43.845741692029506" lon="10.905175077521617"><ele>412.0</ele><time>2026-04-12T09:47:12.315Z</time></trkpt><trkpt lat="43.84567290130809" lon="10.905225363280286"><ele>413.20000000000005</ele><time>2026-04-12T09:47:13.315Z</time></trkpt><trkpt lat="43.845600637853494" lon="10.905245705296357"><ele>414.4</ele><time>2026-04-12T09:47:14.315Z</time></trkpt><trkpt lat="43.84553067505819" lon="10.905240709650602"><ele>415.6</ele><time>2026-04-12T09:47:15.315Z</time></trkpt><trkpt lat="43.84541131424652" lon="10.905246042039757"><ele>416.79999999999995</ele><time>2026-04-12T09:47:17.315Z</time></trkpt><trkpt lat="43.84531399669793" lon="10.90521934956681"><ele>418.0</ele><time>2026-04-12T09:47:19.315Z</time></trkpt><trkpt lat="43.84522746307465" lon="10.905196864617318"><ele>418.00000000000006</ele><time>2026-04-12T09:47:21.315Z</time></trkpt><trkpt lat="43.84513442361754" lon="10.905194619028936"><ele>418.0</ele><time>2026-04-12T09:47:23.315Z</time></trkpt><trkpt lat="43.84504733534568" lon="10.905216106554395"><ele>418.0</ele><time>2026-04-12T09:47:25.315Z</time></trkpt><trkpt lat="43.844971642199916" lon="10.905240863346727"><ele>418.0</ele><time>2026-04-12T09:47:27.315Z</time></trkpt><trkpt lat="43.844903452902905" lon="10.905289242775439"><ele>418.00000000000006</ele><time>2026-04-12T09:47:29.315Z</time></trkpt><trkpt lat="43.84483979279443" lon="10.905312006592421"><ele>418.0</ele><time>2026-04-12T09:47:31.315Z</time></trkpt><trkpt lat="43.844757379012435" lon="10.905312159156205"><ele>417.85714285714283</ele><time>2026-04-12T09:47:34.315Z</time></trkpt><trkpt lat="43.844679630413886" lon="10.905323472506238"><ele>417.71428571428567</ele><time>2026-04-12T09:47:37.315Z</time></trkpt><trkpt lat="43.84459299956683" lon="10.90536382633339"><ele>417.57142857142856</ele><time>2026-04-12T09:47:40.315Z</time></trkpt><trkpt lat="43.84452959504503" lon="10.905388133528172"><ele>417.42857142857144</ele><time>2026-04-12T09:47:42.315Z</time></trkpt><trkpt lat="43.8444619365399" lon="10.905420356817007"><ele>417.2857142857143</ele><time>2026-04-12T09:47:44.315Z</time></trkpt><trkpt lat="43.84438834501277" lon="10.90543382899618"><ele>417.14285714285717</ele><time>2026-04-12T09:47:46.315Z</time></trkpt><trkpt lat="43.84432701095567" lon="10.90546430585269"><ele>417.0</ele><time>2026-04-12T09:47:48.315Z</time></trkpt><trkpt lat="43.84424630480218" lon="10.9055184888644"><ele>416.5</ele><time>2026-04-12T09:47:51.315Z</time></trkpt><trkpt lat="43.84419067255047" lon="10.905592071232578"><ele>416.0</ele><time>2026-04-12T09:47:54.315Z</time></trkpt><trkpt lat="43.84413573898323" lon="10.905667877414364"><ele>415.5</ele><time>2026-04-12T09:47:57.315Z</time></trkpt><trkpt lat="43.84409999195768" lon="10.90576315012174"><ele>415.0</ele><time>2026-04-12T09:48:00.315Z</time></trkpt><trkpt lat="43.84406372384618" lon="10.905865425733307"><ele>414.5</ele><time>2026-04-12T09:48:03.315Z</time></trkpt><trkpt lat="43.844027319220366" lon="10.905939914710505"><ele>414.0</ele><time>2026-04-12T09:48:05.315Z</time></trkpt><trkpt lat="43.84398518681805" lon="10.906019244539163"><ele>414.0</ele><time>2026-04-12T09:48:07.315Z</time></trkpt><trkpt lat="43.8439305553362" lon="10.906083755700136"><ele>414.0</ele><time>2026-04-12T09:48:09.315Z</time></trkpt><trkpt lat="43.843883294980365" lon="10.90615549476511"><ele>414.0</ele><time>2026-04-12T09:48:11.315Z</time></trkpt><trkpt lat="43.843835600631124" lon="10.906230279214325"><ele>414.0</ele><time>2026-04-12T09:48:13.315Z</time></trkpt><trkpt lat="43.843801335711305" lon="10.906329032076728"><ele>414.0</ele><time>2026-04-12T09:48:15.315Z</time></trkpt><trkpt lat="43.843747003963884" lon="10.906407975923084"><ele>414.0</ele><time>2026-04-12T09:48:17.315Z</time></trkpt><trkpt lat="43.84371844996682" lon="10.906514140845365"><ele>414.0</ele><time>2026-04-12T09:48:19.315Z</time></trkpt><trkpt lat="43.84366928899327" lon="10.906611154601222"><ele>414.0</ele><time>2026-04-12T09:48:21.315Z</time></trkpt><trkpt lat="43.843618628681206" lon="10.906712138224242"><ele>414.0</ele><time>2026-04-12T09:48:23.315Z</time></trkpt><trkpt lat="43.84356694814871" lon="10.906819196957823"><ele>414.0</ele><time>2026-04-12T09:48:25.315Z</time></trkpt><trkpt lat="43.84350646117165" lon="10.906919893672638"><ele>414.0</ele><time>2026-04-12T09:48:27.315Z</time></trkpt><trkpt lat="43.84344239732763" lon="10.907023410609852"><ele>411.0</ele><time>2026-04-12T09:48:29.315Z</time></trkpt><trkpt lat="43.84338075005046" lon="10.907135458858248"><ele>408.0</ele><time>2026-04-12T09:48:31.315Z</time></trkpt><trkpt lat="43.84330865762065" lon="10.907249037999057"><ele>405.0</ele><time>2026-04-12T09:48:33.315Z</time></trkpt><trkpt lat="43.84322626790579" lon="10.90736756649898"><ele>402.0</ele><time>2026-04-12T09:48:35.315Z</time></trkpt><trkpt lat="43.843179833992416" lon="10.90743184469533"><ele>399.0</ele><time>2026-04-12T09:48:36.315Z</time></trkpt><trkpt lat="43.843131712935396" lon="10.907499629169829"><ele>399.0</ele><time>2026-04-12T09:48:37.315Z</time></trkpt><trkpt lat="43.84308752452117" lon="10.907566850638018"><ele>399.0</ele><time>2026-04-12T09:48:38.315Z</time></trkpt><trkpt lat="43.843044749103086" lon="10.907642626672095"><ele>399.0</ele><time>2026-04-12T09:48:39.315Z</time></trkpt><trkpt lat="43.84300175944251" lon="10.9077138970863"><ele>399.0</ele><time>2026-04-12T09:48:40.315Z</time></trkpt><trkpt lat="43.84295795169993" lon="10.907777984718203"><ele>399.0</ele><time>2026-04-12T09:48:41.315Z</time></trkpt><trkpt lat="43.84290623391749" lon="10.907829807578997"><ele>399.0</ele><time>2026-04-12T09:48:42.315Z</time></trkpt><trkpt lat="43.84281420631031" lon="10.907914208582016"><ele>399.0</ele><time>2026-04-12T09:48:44.315Z</time></trkpt><trkpt lat="43.84278730361612" lon="10.908061508570794"><ele>398.0</ele><time>2026-04-12T09:48:46.315Z</time></trkpt><trkpt lat="43.84281274347769" lon="10.908155271864114"><ele>397.0</ele><time>2026-04-12T09:48:47.315Z</time></trkpt><trkpt lat="43.842836752975515" lon="10.908242161822699"><ele>396.0</ele><time>2026-04-12T09:48:48.315Z</time></trkpt><trkpt lat="43.84285482216344" lon="10.908332709579474"><ele>395.0</ele><time>2026-04-12T09:48:49.315Z</time></trkpt><trkpt lat="43.84286183031347" lon="10.908423047759639"><ele>394.0</ele><time>2026-04-12T09:48:50.315Z</time></trkpt><trkpt lat="43.842860361479644" lon="10.908593579961138"><ele>393.0</ele><time>2026-04-12T09:48:52.315Z</time></trkpt><trkpt lat="43.84285281913997" lon="10.908726075128623"><ele>392.0</ele><time>2026-04-12T09:48:54.315Z</time></trkpt><trkpt lat="43.84273963949919" lon="10.90867568417601"><ele>391.0</ele><time>2026-04-12T09:48:58.315Z</time></trkpt><trkpt lat="43.842672979208245" lon="10.908622857390398"><ele>390.0</ele><time>2026-04-12T09:49:00.315Z</time></trkpt><trkpt lat="43.84263040034146" lon="10.908546237186686"><ele>389.0</ele><time>2026-04-12T09:49:02.315Z</time></trkpt><trkpt lat="43.84255751217871" lon="10.908493299556538"><ele>388.0</ele><time>2026-04-12T09:49:04.315Z</time></trkpt><trkpt lat="43.84249977193026" lon="10.90840136382572"><ele>387.0</ele><time>2026-04-12T09:49:06.314Z</time></trkpt><trkpt lat="43.84243121534969" lon="10.908328423561237"><ele>386.57142857142856</ele><time>2026-04-12T09:49:08.314Z</time></trkpt><trkpt lat="43.84237472319864" lon="10.908270424043694"><ele>386.14285714285717</ele><time>2026-04-12T09:49:10.314Z</time></trkpt><trkpt lat="43.84228991397944" lon="10.908264468069847"><ele>385.71428571428567</ele><time>2026-04-12T09:49:12.314Z</time></trkpt><trkpt lat="43.84221582392244" lon="10.908236475037725"><ele>385.2857142857143</ele><time>2026-04-12T09:49:14.314Z</time></trkpt><trkpt lat="43.84215424732952" lon="10.908194597727427"><ele>384.85714285714283</ele><time>2026-04-12T09:49:16.314Z</time></trkpt><trkpt lat="43.8420851085034" lon="10.90815023474264"><ele>384.4285714285714</ele><time>2026-04-12T09:49:18.313Z</time></trkpt><trkpt lat="43.842016255121806" lon="10.908118691853499"><ele>384.0</ele><time>2026-04-12T09:49:20.313Z</time></trkpt><trkpt lat="43.84194218816464" lon="10.908099435215236"><ele>384.0</ele><time>2026-04-12T09:49:22.313Z</time></trkpt><trkpt lat="43.84187387975254" lon="10.908067870296485"><ele>384.0</ele><time>2026-04-12T09:49:24.313Z</time></trkpt><trkpt lat="43.84180972847911" lon="10.90802697305206"><ele>384.0</ele><time>2026-04-12T09:49:26.313Z</time></trkpt><trkpt lat="43.84172359064013" lon="10.907979892587951"><ele>384.0</ele><time>2026-04-12T09:49:29.313Z</time></trkpt><trkpt lat="43.84165075322391" lon="10.907969583218291"><ele>384.0</ele><time>2026-04-12T09:49:31.313Z</time></trkpt><trkpt lat="43.84157907501528" lon="10.90792242811275"><ele>384.0</ele><time>2026-04-12T09:49:34.314Z</time></trkpt><trkpt lat="43.84150640630399" lon="10.907875690543607"><ele>382.8333333333333</ele><time>2026-04-12T09:49:37.314Z</time></trkpt><trkpt lat="43.8414317059875" lon="10.907811513726537"><ele>381.6666666666667</ele><time>2026-04-12T09:49:40.314Z</time></trkpt><trkpt lat="43.84136527073882" lon="10.907746294185792"><ele>380.5</ele><time>2026-04-12T09:49:42.314Z</time></trkpt><trkpt lat="43.84129646730708" lon="10.907672717370454"><ele>379.33333333333337</ele><time>2026-04-12T09:49:45.314Z</time></trkpt><trkpt lat="43.84124216538455" lon="10.907608154579764"><ele>378.1666666666667</ele><time>2026-04-12T09:49:48.314Z</time></trkpt><trkpt lat="43.84116858063563" lon="10.907519980170912"><ele>377.0</ele><time>2026-04-12T09:49:50.314Z</time></trkpt><trkpt lat="43.841108429484926" lon="10.907455297507498"><ele>377.0</ele><time>2026-04-12T09:49:52.314Z</time></trkpt><trkpt lat="43.8410263607609" lon="10.907368561921547"><ele>377.0</ele><time>2026-04-12T09:49:54.314Z</time></trkpt><trkpt lat="43.84095091547856" lon="10.907290674787502"><ele>377.0</ele><time>2026-04-12T09:49:56.314Z</time></trkpt><trkpt lat="43.8408827945672" lon="10.907222725489708"><ele>377.0</ele><time>2026-04-12T09:49:58.314Z</time></trkpt><trkpt lat="43.840813817511766" lon="10.907157432196318"><ele>377.0</ele><time>2026-04-12T09:50:00.314Z</time></trkpt><trkpt lat="43.840741128274566" lon="10.90709168681167"><ele>373.1666666666667</ele><time>2026-04-12T09:50:02.314Z</time></trkpt><trkpt lat="43.84067229294678" lon="10.907030653735863"><ele>369.33333333333337</ele><time>2026-04-12T09:50:04.314Z</time></trkpt><trkpt lat="43.84060025002503" lon="10.906970405315151"><ele>365.5</ele><time>2026-04-12T09:50:06.314Z</time></trkpt><trkpt lat="43.840529875961785" lon="10.906914941913458"><ele>361.6666666666667</ele><time>2026-04-12T09:50:08.314Z</time></trkpt><trkpt lat="43.84045745607038" lon="10.906861935562873"><ele>357.8333333333333</ele><time>2026-04-12T09:50:10.314Z</time></trkpt><trkpt lat="43.84038788673631" lon="10.906822139207852"><ele>354.0</ele><time>2026-04-12T09:50:12.314Z</time></trkpt><trkpt lat="43.840330367035506" lon="10.906786436891133"><ele>354.0</ele><time>2026-04-12T09:50:14.314Z</time></trkpt><trkpt lat="43.84025541600194" lon="10.906771780791685"><ele>354.0</ele><time>2026-04-12T09:50:16.314Z</time></trkpt><trkpt lat="43.84018641745797" lon="10.906755776282816"><ele>354.0</ele><time>2026-04-12T09:50:18.314Z</time></trkpt><trkpt lat="43.84011604892891" lon="10.906746553127874"><ele>354.0</ele><time>2026-04-12T09:50:20.314Z</time></trkpt><trkpt lat="43.84003908558343" lon="10.906739831210816"><ele>354.0</ele><time>2026-04-12T09:50:22.314Z</time></trkpt><trkpt lat="43.83996285020678" lon="10.906752511104498"><ele>354.0</ele><time>2026-04-12T09:50:25.314Z</time></trkpt><trkpt lat="43.83988613294157" lon="10.906777471161975"><ele>354.0</ele><time>2026-04-12T09:50:28.314Z</time></trkpt><trkpt lat="43.839795175986744" lon="10.906772662793658"><ele>351.6666666666667</ele><time>2026-04-12T09:50:31.314Z</time></trkpt><trkpt lat="43.83972149190582" lon="10.906780235751352"><ele>349.3333333333333</ele><time>2026-04-12T09:50:34.314Z</time></trkpt><trkpt lat="43.83965870067786" lon="10.906786689189753"><ele>347.0</ele><time>2026-04-12T09:50:37.314Z</time></trkpt><trkpt lat="43.8395879899643" lon="10.906790696399712"><ele>344.66666666666663</ele><time>2026-04-12T09:50:40.314Z</time></trkpt><trkpt lat="43.83949148129871" lon="10.906789778845736"><ele>342.3333333333333</ele><time>2026-04-12T09:50:43.314Z</time></trkpt><trkpt lat="43.83941823091701" lon="10.906785080422868"><ele>340.0</ele><time>2026-04-12T09:50:47.314Z</time></trkpt><trkpt lat="43.83934188337947" lon="10.906780183340452"><ele>337.14285714285717</ele><time>2026-04-12T09:50:50.314Z</time></trkpt><trkpt lat="43.83926639552271" lon="10.906775341397962"><ele>334.2857142857143</ele><time>2026-04-12T09:50:53.314Z</time></trkpt><trkpt lat="43.839202864435286" lon="10.906771635350617"><ele>331.42857142857144</ele><time>2026-04-12T09:50:55.314Z</time></trkpt><trkpt lat="43.83913318502192" lon="10.90676974060007"><ele>328.57142857142856</ele><time>2026-04-12T09:50:57.314Z</time></trkpt><trkpt lat="43.83906938362748" lon="10.906767839147323"><ele>325.7142857142857</ele><time>2026-04-12T09:50:59.314Z</time></trkpt><trkpt lat="43.838987091133795" lon="10.906768943471034"><ele>322.85714285714283</ele><time>2026-04-12T09:51:02.314Z</time></trkpt><trkpt lat="43.83890919352404" lon="10.906769988815276"><ele>320.0</ele><time>2026-04-12T09:51:07.314Z</time></trkpt><trkpt lat="43.83883981713625" lon="10.906784375136464"><ele>320.0</ele><time>2026-04-12T09:51:11.314Z</time></trkpt><trkpt lat="43.83876088149655" lon="10.906771306761053"><ele>320.0</ele><time>2026-04-12T09:51:14.312Z</time></trkpt><trkpt lat="43.83869726929958" lon="10.906788175669686"><ele>320.0</ele><time>2026-04-12T09:51:17.312Z</time></trkpt><trkpt lat="43.83862824044857" lon="10.906778406440775"><ele>320.0</ele><time>2026-04-12T09:51:20.312Z</time></trkpt><trkpt lat="43.8385408859992" lon="10.90679383352708"><ele>320.0</ele><time>2026-04-12T09:51:23.312Z</time></trkpt><trkpt lat="43.83844623319152" lon="10.90681479073681"><ele>320.0</ele><time>2026-04-12T09:51:26.312Z</time></trkpt><trkpt lat="43.83837366455955" lon="10.906831368045228"><ele>316.83333333333337</ele><time>2026-04-12T09:51:28.312Z</time></trkpt><trkpt lat="43.83828738389925" lon="10.90684781911746"><ele>313.6666666666667</ele><time>2026-04-12T09:51:30.312Z</time></trkpt><trkpt lat="43.83819724524398" lon="10.906861922853404"><ele>310.5</ele><time>2026-04-12T09:51:32.312Z</time></trkpt><trkpt lat="43.838113368307106" lon="10.906873160811962"><ele>307.3333333333333</ele><time>2026-04-12T09:51:34.312Z</time></trkpt><trkpt lat="43.83803678047374" lon="10.906897384241768"><ele>304.16666666666663</ele><time>2026-04-12T09:51:36.312Z</time></trkpt><trkpt lat="43.83795935935904" lon="10.906899841415836"><ele>301.0</ele><time>2026-04-12T09:51:38.312Z</time></trkpt><trkpt lat="43.83788993218155" lon="10.906906405259619"><ele>301.0</ele><time>2026-04-12T09:51:40.312Z</time></trkpt><trkpt lat="43.83780835654842" lon="10.906918906532844"><ele>301.0</ele><time>2026-04-12T09:51:42.312Z</time></trkpt><trkpt lat="43.83771182962666" lon="10.906957499652968"><ele>301.0</ele><time>2026-04-12T09:51:45.312Z</time></trkpt><trkpt lat="43.83766302490757" lon="10.907062146917603"><ele>301.0</ele><time>2026-04-12T09:51:48.312Z</time></trkpt><trkpt lat="43.83763321842372" lon="10.907151276509918"><ele>301.0</ele><time>2026-04-12T09:51:51.312Z</time></trkpt><trkpt lat="43.83759646204942" lon="10.907233858998447"><ele>301.0</ele><time>2026-04-12T09:51:53.312Z</time></trkpt><trkpt lat="43.837604685259564" lon="10.907327221711062"><ele>301.0</ele><time>2026-04-12T09:51:55.312Z</time></trkpt><trkpt lat="43.83767066380679" lon="10.907398779736218"><ele>301.0</ele><time>2026-04-12T09:51:57.312Z</time></trkpt><trkpt lat="43.83772864761305" lon="10.907454326632964"><ele>301.0</ele><time>2026-04-12T09:51:59.312Z</time></trkpt><trkpt lat="43.83779777739922" lon="10.907488340107497"><ele>301.0</ele><time>2026-04-12T09:52:01.312Z</time></trkpt><trkpt lat="43.8378821948917" lon="10.907497316469806"><ele>301.0</ele><time>2026-04-12T09:52:03.312Z</time></trkpt><trkpt lat="43.83795548388567" lon="10.907494368957988"><ele>301.0</ele><time>2026-04-12T09:52:05.312Z</time></trkpt><trkpt lat="43.83805473542877" lon="10.907498069341315"><ele>301.0</ele><time>2026-04-12T09:52:07.312Z</time></trkpt><trkpt lat="43.83813977560363" lon="10.907492522246333"><ele>301.0</ele><time>2026-04-12T09:52:09.312Z</time></trkpt><trkpt lat="43.83822407574521" lon="10.907474718332669"><ele>301.0</ele><time>2026-04-12T09:52:11.312Z</time></trkpt><trkpt lat="43.83819114676152" lon="10.907557091865224"><ele>301.0</ele><time>2026-04-12T09:52:21.312Z</time></trkpt><trkpt lat="43.838133905547956" lon="10.907638891939433"><ele>301.0</ele><time>2026-04-12T09:52:49.312Z</time></trkpt><trkpt lat="43.83813804275821" lon="10.907754716161561"><ele>301.0</ele><time>2026-04-12T09:52:51.312Z</time></trkpt><trkpt lat="43.83817768490125" lon="10.907845918929672"><ele>301.14285714285717</ele><time>2026-04-12T09:52:53.312Z</time></trkpt><trkpt lat="43.838175612931195" lon="10.907961313770551"><ele>301.2857142857143</ele><time>2026-04-12T09:52:56.312Z</time></trkpt><trkpt lat="43.838156696690966" lon="10.908051936188023"><ele>301.42857142857144</ele><time>2026-04-12T09:52:59.312Z</time></trkpt><trkpt lat="43.838161014330744" lon="10.908151626182345"><ele>301.57142857142856</ele><time>2026-04-12T09:53:02.312Z</time></trkpt><trkpt lat="43.83818204335793" lon="10.908251409001151"><ele>301.7142857142857</ele><time>2026-04-12T09:53:05.312Z</time></trkpt><trkpt lat="43.83818184959972" lon="10.90834899463541"><ele>301.8571428571429</ele><time>2026-04-12T09:53:08.312Z</time></trkpt><trkpt lat="43.838131792195455" lon="10.908422946798286"><ele>302.0</ele><time>2026-04-12T09:53:11.312Z</time></trkpt><trkpt lat="43.83807091023014" lon="10.908465725345055"><ele>300.42857142857144</ele><time>2026-04-12T09:53:14.312Z</time></trkpt><trkpt lat="43.83799683704329" lon="10.908473920347419"><ele>298.8571428571429</ele><time>2026-04-12T09:53:17.312Z</time></trkpt><trkpt lat="43.837929913359645" lon="10.908494900029607"><ele>297.2857142857143</ele><time>2026-04-12T09:53:20.31Z</time></trkpt><trkpt lat="43.83785936951729" lon="10.90850368570422"><ele>295.7142857142857</ele><time>2026-04-12T09:53:23.31Z</time></trkpt><trkpt lat="43.83779824434572" lon="10.90853557154048"><ele>294.1428571428571</ele><time>2026-04-12T09:53:26.31Z</time></trkpt><trkpt lat="43.837735116795734" lon="10.908578713985964"><ele>292.57142857142856</ele><time>2026-04-12T09:53:29.31Z</time></trkpt><trkpt lat="43.83767341381874" lon="10.908624550159406"><ele>291.0</ele><time>2026-04-12T09:53:32.31Z</time></trkpt><trkpt lat="43.83761784774773" lon="10.90867964826544"><ele>291.0</ele><time>2026-04-12T09:53:35.31Z</time></trkpt><trkpt lat="43.83757207345118" lon="10.908749129777405"><ele>291.0</ele><time>2026-04-12T09:53:38.31Z</time></trkpt><trkpt lat="43.837564984313126" lon="10.908853738586563"><ele>291.0</ele><time>2026-04-12T09:53:41.31Z</time></trkpt><trkpt lat="43.837571114219905" lon="10.908949173295264"><ele>291.0</ele><time>2026-04-12T09:53:44.31Z</time></trkpt><trkpt lat="43.837604151111805" lon="10.909042933619663"><ele>291.0</ele><time>2026-04-12T09:53:47.31Z</time></trkpt><trkpt lat="43.83764199733827" lon="10.909133693978026"><ele>291.0</ele><time>2026-04-12T09:53:50.31Z</time></trkpt><trkpt lat="43.83767939006612" lon="10.909227453057515"><ele>291.0</ele><time>2026-04-12T09:53:53.31Z</time></trkpt><trkpt lat="43.83771878769896" lon="10.909317171805155"><ele>293.1666666666667</ele><time>2026-04-12T09:53:56.31Z</time></trkpt><trkpt lat="43.83775989426977" lon="10.909407284435673"><ele>295.3333333333333</ele><time>2026-04-12T09:53:59.31Z</time></trkpt><trkpt lat="43.83779231882657" lon="10.909502592255652"><ele>297.5</ele><time>2026-04-12T09:54:02.31Z</time></trkpt><trkpt lat="43.83779208925669" lon="10.909618578041279"><ele>299.66666666666663</ele><time>2026-04-12T09:54:05.31Z</time></trkpt><trkpt lat="43.837722292032204" lon="10.909695036800173"><ele>301.8333333333333</ele><time>2026-04-12T09:54:08.31Z</time></trkpt><trkpt lat="43.83763395193894" lon="10.909714606116337"><ele>304.0</ele><time>2026-04-12T09:54:11.31Z</time></trkpt><trkpt lat="43.83757084749515" lon="10.909709686715328"><ele>304.0</ele><time>2026-04-12T09:54:13.31Z</time></trkpt><trkpt lat="43.83750408842028" lon="10.909707226962748"><ele>304.0</ele><time>2026-04-12T09:54:15.31Z</time></trkpt><trkpt lat="43.83743437440914" lon="10.909705558155267"><ele>304.0</ele><time>2026-04-12T09:54:17.31Z</time></trkpt><trkpt lat="43.83736433692558" lon="10.909704332099576"><ele>304.0</ele><time>2026-04-12T09:54:19.31Z</time></trkpt><trkpt lat="43.837292427545385" lon="10.909703027219752"><ele>304.0</ele><time>2026-04-12T09:54:21.31Z</time></trkpt><trkpt lat="43.83721714042711" lon="10.909707080522537"><ele>304.0</ele><time>2026-04-12T09:54:23.31Z</time></trkpt><trkpt lat="43.83714989123979" lon="10.909748325791064"><ele>304.0</ele><time>2026-04-12T09:54:25.31Z</time></trkpt><trkpt lat="43.837106304833846" lon="10.909829849024511"><ele>304.0</ele><time>2026-04-12T09:54:27.31Z</time></trkpt><trkpt lat="43.83709796695856" lon="10.909928991683968"><ele>304.0</ele><time>2026-04-12T09:54:29.31Z</time></trkpt><trkpt lat="43.83713041027046" lon="10.910017815782187"><ele>304.0</ele><time>2026-04-12T09:54:31.31Z</time></trkpt><trkpt lat="43.83719407050292" lon="10.910107304256819"><ele>304.0</ele><time>2026-04-12T09:54:34.31Z</time></trkpt><trkpt lat="43.83725906441587" lon="10.910176437679352"><ele>304.0</ele><time>2026-04-12T09:54:37.31Z</time></trkpt><trkpt lat="43.83732314928256" lon="10.91024465298273"><ele>304.0</ele><time>2026-04-12T09:54:40.31Z</time></trkpt><trkpt lat="43.83739137192448" lon="10.910310700877186"><ele>305.66666666666663</ele><time>2026-04-12T09:54:43.31Z</time></trkpt><trkpt lat="43.83746089036047" lon="10.910370987494293"><ele>307.3333333333333</ele><time>2026-04-12T09:54:46.31Z</time></trkpt><trkpt lat="43.83750625598804" lon="10.910471207586918"><ele>309.0</ele><time>2026-04-12T09:54:49.31Z</time></trkpt><trkpt lat="43.83748530033149" lon="10.910586261274371"><ele>310.6666666666667</ele><time>2026-04-12T09:54:52.31Z</time></trkpt><trkpt lat="43.837459881993034" lon="10.910668059222706"><ele>312.33333333333337</ele><time>2026-04-12T09:54:55.31Z</time></trkpt><trkpt lat="43.83742324690987" lon="10.910752409003743"><ele>314.0</ele><time>2026-04-12T09:54:57.31Z</time></trkpt><trkpt lat="43.83738580059039" lon="10.910846576192876"><ele>316.99999999999994</ele><time>2026-04-12T09:55:00.311Z</time></trkpt><trkpt lat="43.837341348983585" lon="10.91092145655991"><ele>320.0</ele><time>2026-04-12T09:55:03.311Z</time></trkpt><trkpt lat="43.83728385279769" lon="10.91098653509309"><ele>323.0</ele><time>2026-04-12T09:55:06.311Z</time></trkpt><trkpt lat="43.837221440213455" lon="10.911046969151666"><ele>326.0</ele><time>2026-04-12T09:55:09.311Z</time></trkpt><trkpt lat="43.83715629884671" lon="10.911095818905032"><ele>329.0</ele><time>2026-04-12T09:55:12.311Z</time></trkpt><trkpt lat="43.83709382185812" lon="10.911152085359612"><ele>331.99999999999994</ele><time>2026-04-12T09:55:15.311Z</time></trkpt><trkpt lat="43.83702683463487" lon="10.91119915547431"><ele>335.0</ele><time>2026-04-12T09:55:18.311Z</time></trkpt><trkpt lat="43.83696276158839" lon="10.911247117319942"><ele>334.99999999999994</ele><time>2026-04-12T09:55:21.311Z</time></trkpt><trkpt lat="43.836895174224495" lon="10.911296228856582"><ele>335.0</ele><time>2026-04-12T09:55:24.309Z</time></trkpt><trkpt lat="43.83683107801834" lon="10.911340497916765"><ele>335.0</ele><time>2026-04-12T09:55:27.309Z</time></trkpt><trkpt lat="43.83676757124277" lon="10.911386779485078"><ele>335.0</ele><time>2026-04-12T09:55:30.309Z</time></trkpt><trkpt lat="43.83670554863977" lon="10.911429697704836"><ele>335.0</ele><time>2026-04-12T09:55:33.309Z</time></trkpt><trkpt lat="43.83664667446301" lon="10.911477104813493"><ele>334.99999999999994</ele><time>2026-04-12T09:55:36.309Z</time></trkpt><trkpt lat="43.83660297202512" lon="10.911550221266284"><ele>335.0</ele><time>2026-04-12T09:55:39.309Z</time></trkpt><trkpt lat="43.83658542353085" lon="10.911643871574805"><ele>332.99999999999994</ele><time>2026-04-12T09:55:42.309Z</time></trkpt><trkpt lat="43.836611351901084" lon="10.911733251985307"><ele>331.0</ele><time>2026-04-12T09:55:45.309Z</time></trkpt><trkpt lat="43.836651780869595" lon="10.911814399003838"><ele>329.0</ele><time>2026-04-12T09:55:48.309Z</time></trkpt><trkpt lat="43.83669319988952" lon="10.911891163421117"><ele>327.0</ele><time>2026-04-12T09:55:51.309Z</time></trkpt><trkpt lat="43.83673615559068" lon="10.911965526423002"><ele>325.0</ele><time>2026-04-12T09:55:54.309Z</time></trkpt><trkpt lat="43.83677064111597" lon="10.912050863143488"><ele>322.99999999999994</ele><time>2026-04-12T09:55:57.309Z</time></trkpt><trkpt lat="43.836796108004464" lon="10.912139993621404"><ele>321.0</ele><time>2026-04-12T09:56:00.309Z</time></trkpt><trkpt lat="43.83680695329691" lon="10.912234489918879"><ele>320.99999999999994</ele><time>2026-04-12T09:56:03.309Z</time></trkpt><trkpt lat="43.836809358319435" lon="10.912334147189299"><ele>321.0</ele><time>2026-04-12T09:56:06.309Z</time></trkpt><trkpt lat="43.83679057975145" lon="10.912431011543736"><ele>321.0</ele><time>2026-04-12T09:56:09.309Z</time></trkpt><trkpt lat="43.83674434727995" lon="10.91251383923387"><ele>321.0</ele><time>2026-04-12T09:56:12.309Z</time></trkpt><trkpt lat="43.83671948223743" lon="10.912609532652237"><ele>321.0</ele><time>2026-04-12T09:56:15.309Z</time></trkpt><trkpt lat="43.83665840988253" lon="10.912673584113218"><ele>320.99999999999994</ele><time>2026-04-12T09:56:18.309Z</time></trkpt><trkpt lat="43.836625567569484" lon="10.91276009788502"><ele>321.0</ele><time>2026-04-12T09:56:21.309Z</time></trkpt><trkpt lat="43.83657148875295" lon="10.912815411479643"><ele>321.71428571428567</ele><time>2026-04-12T09:56:24.309Z</time></trkpt><trkpt lat="43.83653988997676" lon="10.912901272649236"><ele>322.42857142857144</ele><time>2026-04-12T09:56:27.309Z</time></trkpt><trkpt lat="43.83650744501896" lon="10.912987594451737"><ele>323.1428571428571</ele><time>2026-04-12T09:56:30.309Z</time></trkpt><trkpt lat="43.836497422064426" lon="10.913088428458513"><ele>323.85714285714283</ele><time>2026-04-12T09:56:33.309Z</time></trkpt><trkpt lat="43.83651015875434" lon="10.913191437247264"><ele>324.57142857142856</ele><time>2026-04-12T09:56:36.309Z</time></trkpt><trkpt lat="43.83654380095264" lon="10.913288045623945"><ele>325.2857142857143</ele><time>2026-04-12T09:56:39.309Z</time></trkpt><trkpt lat="43.83658690372237" lon="10.913374801496557"><ele>326.0</ele><time>2026-04-12T09:56:42.309Z</time></trkpt><trkpt lat="43.83662890613146" lon="10.913452384274963"><ele>326.0</ele><time>2026-04-12T09:56:45.309Z</time></trkpt><trkpt lat="43.836672282624924" lon="10.913533438388829"><ele>326.0</ele><time>2026-04-12T09:56:48.309Z</time></trkpt><trkpt lat="43.83671839958028" lon="10.913605502768188"><ele>326.0</ele><time>2026-04-12T09:56:51.309Z</time></trkpt><trkpt lat="43.83676603798608" lon="10.913673398263459"><ele>326.0</ele><time>2026-04-12T09:56:54.309Z</time></trkpt><trkpt lat="43.83681890664358" lon="10.913738788291273"><ele>326.0</ele><time>2026-04-12T09:56:57.309Z</time></trkpt><trkpt lat="43.8368751137619" lon="10.913797176826483"><ele>326.0</ele><time>2026-04-12T09:57:00.309Z</time></trkpt><trkpt lat="43.836933949704246" lon="10.913846267278766"><ele>326.0</ele><time>2026-04-12T09:57:03.309Z</time></trkpt><trkpt lat="43.837009072988664" lon="10.913904778425238"><ele>327.42857142857144</ele><time>2026-04-12T09:57:07.309Z</time></trkpt><trkpt lat="43.83707157561494" lon="10.913930575860846"><ele>328.85714285714283</ele><time>2026-04-12T09:57:10.309Z</time></trkpt><trkpt lat="43.837141938774735" lon="10.91394513859599"><ele>330.2857142857143</ele><time>2026-04-12T09:57:13.309Z</time></trkpt><trkpt lat="43.83721245218223" lon="10.913941038629783"><ele>331.7142857142857</ele><time>2026-04-12T09:57:16.309Z</time></trkpt><trkpt lat="43.83728210795279" lon="10.913925513865896"><ele>333.1428571428571</ele><time>2026-04-12T09:57:19.309Z</time></trkpt><trkpt lat="43.83734139126046" lon="10.913873801375654"><ele>334.57142857142856</ele><time>2026-04-12T09:57:22.309Z</time></trkpt><trkpt lat="43.83739446685437" lon="10.91381852933212"><ele>336.0</ele><time>2026-04-12T09:57:25.309Z</time></trkpt><trkpt lat="43.83746407883632" lon="10.913760483219011"><ele>336.0</ele><time>2026-04-12T09:57:28.309Z</time></trkpt><trkpt lat="43.837531331912515" lon="10.91372938460067"><ele>336.0</ele><time>2026-04-12T09:57:31.307Z</time></trkpt><trkpt lat="43.83760562118053" lon="10.913731277986678"><ele>336.0</ele><time>2026-04-12T09:57:34.307Z</time></trkpt><trkpt lat="43.83768353888948" lon="10.913763935322388"><ele>336.0</ele><time>2026-04-12T09:57:37.307Z</time></trkpt><trkpt lat="43.83775023138417" lon="10.913846902890027"><ele>336.0</ele><time>2026-04-12T09:57:40.307Z</time></trkpt><trkpt lat="43.83780302563446" lon="10.913948893928382"><ele>336.0</ele><time>2026-04-12T09:57:43.307Z</time></trkpt><trkpt lat="43.83782753900155" lon="10.914032718840593"><ele>336.14285714285717</ele><time>2026-04-12T09:57:45.307Z</time></trkpt><trkpt lat="43.83784878659345" lon="10.914122132294926"><ele>336.2857142857143</ele><time>2026-04-12T09:57:47.307Z</time></trkpt><trkpt lat="43.83787176277116" lon="10.914213964620181"><ele>336.42857142857144</ele><time>2026-04-12T09:57:49.307Z</time></trkpt><trkpt lat="43.83789141211182" lon="10.914303799336738"><ele>336.57142857142856</ele><time>2026-04-12T09:57:51.307Z</time></trkpt><trkpt lat="43.83790589324166" lon="10.914397444044571"><ele>336.7142857142857</ele><time>2026-04-12T09:57:53.307Z</time></trkpt><trkpt lat="43.83793271764058" lon="10.914487586765622"><ele>336.8571428571429</ele><time>2026-04-12T09:57:55.307Z</time></trkpt><trkpt lat="43.83797799420265" lon="10.91456393606725"><ele>337.0</ele><time>2026-04-12T09:57:57.307Z</time></trkpt><trkpt lat="43.83802854326926" lon="10.914631536765107"><ele>337.00000000000006</ele><time>2026-04-12T09:57:59.307Z</time></trkpt><trkpt lat="43.83808467731896" lon="10.914688932769536"><ele>337.0</ele><time>2026-04-12T09:58:01.307Z</time></trkpt><trkpt lat="43.83815202784347" lon="10.914725394688107"><ele>337.0</ele><time>2026-04-12T09:58:03.307Z</time></trkpt><trkpt lat="43.83822279927089" lon="10.91473969645317"><ele>337.0</ele><time>2026-04-12T09:58:05.307Z</time></trkpt><trkpt lat="43.838292632851285" lon="10.914740386884128"><ele>337.0</ele><time>2026-04-12T09:58:07.307Z</time></trkpt><trkpt lat="43.83835539964328" lon="10.914720476848794"><ele>337.00000000000006</ele><time>2026-04-12T09:58:09.307Z</time></trkpt><trkpt lat="43.83842686466911" lon="10.914704578900519"><ele>337.0</ele><time>2026-04-12T09:58:11.307Z</time></trkpt><trkpt lat="43.838495226625774" lon="10.91468400152832"><ele>339.7142857142857</ele><time>2026-04-12T09:58:13.307Z</time></trkpt><trkpt lat="43.838568493972375" lon="10.914656394889377"><ele>342.42857142857144</ele><time>2026-04-12T09:58:15.307Z</time></trkpt><trkpt lat="43.83863241977838" lon="10.914651030213697"><ele>345.1428571428571</ele><time>2026-04-12T09:58:17.307Z</time></trkpt><trkpt lat="43.83869457416409" lon="10.914665526047143"><ele>347.8571428571429</ele><time>2026-04-12T09:58:19.307Z</time></trkpt><trkpt lat="43.83875779349193" lon="10.914710720186639"><ele>350.57142857142856</ele><time>2026-04-12T09:58:21.307Z</time></trkpt><trkpt lat="43.838800003640685" lon="10.91477921659608"><ele>353.2857142857143</ele><time>2026-04-12T09:58:23.307Z</time></trkpt><trkpt lat="43.838839699031446" lon="10.914849262009461"><ele>356.0</ele><time>2026-04-12T09:58:25.307Z</time></trkpt><trkpt lat="43.838859355354444" lon="10.914974720441888"><ele>355.99999999999994</ele><time>2026-04-12T09:58:28.307Z</time></trkpt><trkpt lat="43.83890888038437" lon="10.915039103599467"><ele>356.0</ele><time>2026-04-12T09:58:30.307Z</time></trkpt><trkpt lat="43.838970535078815" lon="10.915145500058978"><ele>356.0</ele><time>2026-04-12T09:58:33.307Z</time></trkpt><trkpt lat="43.8390198129349" lon="10.91521279621468"><ele>356.0</ele><time>2026-04-12T09:58:35.307Z</time></trkpt><trkpt lat="43.83905627646815" lon="10.915298310158422"><ele>356.0</ele><time>2026-04-12T09:58:37.307Z</time></trkpt><trkpt lat="43.83907651867807" lon="10.91539474268832"><ele>355.99999999999994</ele><time>2026-04-12T09:58:39.307Z</time></trkpt><trkpt lat="43.839056148518324" lon="10.915487197334041"><ele>356.0</ele><time>2026-04-12T09:58:41.307Z</time></trkpt><trkpt lat="43.83903847614793" lon="10.915575051774352"><ele>355.71428571428567</ele><time>2026-04-12T09:58:43.307Z</time></trkpt><trkpt lat="43.83901804240014" lon="10.915670671146595"><ele>355.42857142857144</ele><time>2026-04-12T09:58:45.307Z</time></trkpt><trkpt lat="43.839002918103034" lon="10.915762129593253"><ele>355.1428571428571</ele><time>2026-04-12T09:58:47.307Z</time></trkpt><trkpt lat="43.83898983189342" lon="10.915856886829793"><ele>354.85714285714283</ele><time>2026-04-12T09:58:49.307Z</time></trkpt><trkpt lat="43.83898065269213" lon="10.915949530755105"><ele>354.57142857142856</ele><time>2026-04-12T09:58:51.307Z</time></trkpt><trkpt lat="43.83897695060997" lon="10.916045854401082"><ele>354.2857142857143</ele><time>2026-04-12T09:58:53.307Z</time></trkpt><trkpt lat="43.83898016930826" lon="10.91614398623929"><ele>354.0</ele><time>2026-04-12T09:58:55.307Z</time></trkpt><trkpt lat="43.838991352350774" lon="10.916245147548858"><ele>353.1666666666667</ele><time>2026-04-12T09:58:57.307Z</time></trkpt><trkpt lat="43.83901619893282" lon="10.916352912767461"><ele>352.3333333333333</ele><time>2026-04-12T09:58:59.307Z</time></trkpt><trkpt lat="43.839046500375645" lon="10.916459443152368"><ele>351.5</ele><time>2026-04-12T09:59:01.307Z</time></trkpt><trkpt lat="43.83908470942389" lon="10.91656894522444"><ele>350.66666666666663</ele><time>2026-04-12T09:59:03.307Z</time></trkpt><trkpt lat="43.83913300401295" lon="10.916675506881266"><ele>349.8333333333333</ele><time>2026-04-12T09:59:05.307Z</time></trkpt><trkpt lat="43.839183039941815" lon="10.916779174510046"><ele>349.0</ele><time>2026-04-12T09:59:07.307Z</time></trkpt><trkpt lat="43.839223665071685" lon="10.91686789522191"><ele>348.4</ele><time>2026-04-12T09:59:09.307Z</time></trkpt><trkpt lat="43.83927609034819" lon="10.916963936778798"><ele>347.79999999999995</ele><time>2026-04-12T09:59:12.307Z</time></trkpt><trkpt lat="43.83930997828939" lon="10.917054514577499"><ele>347.20000000000005</ele><time>2026-04-12T09:59:15.307Z</time></trkpt><trkpt lat="43.83916049531158" lon="10.917055136611902"><ele>346.6</ele><time>2026-04-12T09:59:21.307Z</time></trkpt><trkpt lat="43.83910063536953" lon="10.91701520989165"><ele>346.0</ele><time>2026-04-12T09:59:23.307Z</time></trkpt><trkpt lat="43.839026964868964" lon="10.91699913003715"><ele>346.0</ele><time>2026-04-12T09:59:25.307Z</time></trkpt><trkpt lat="43.83894857539056" lon="10.916994872951275"><ele>346.0</ele><time>2026-04-12T09:59:27.307Z</time></trkpt><trkpt lat="43.83888340098454" lon="10.917086820472017"><ele>346.0</ele><time>2026-04-12T09:59:29.307Z</time></trkpt><trkpt lat="43.83882475423038" lon="10.917231624372823"><ele>346.0</ele><time>2026-04-12T09:59:31.307Z</time></trkpt><trkpt lat="43.838785438801594" lon="10.917312592633438"><ele>346.0</ele><time>2026-04-12T09:59:32.307Z</time></trkpt><trkpt lat="43.838746322587355" lon="10.91738666132707"><ele>346.0</ele><time>2026-04-12T09:59:33.307Z</time></trkpt><trkpt lat="43.838711505005826" lon="10.917464758608757"><ele>346.0</ele><time>2026-04-12T09:59:34.307Z</time></trkpt><trkpt lat="43.83867490109732" lon="10.917551775590086"><ele>346.0</ele><time>2026-04-12T09:59:35.307Z</time></trkpt><trkpt lat="43.838640194912735" lon="10.917646000499122"><ele>346.0</ele><time>2026-04-12T09:59:36.305Z</time></trkpt><trkpt lat="43.838609384607224" lon="10.91774188380717"><ele>346.0</ele><time>2026-04-12T09:59:37.305Z</time></trkpt><trkpt lat="43.838567930565745" lon="10.917847776979821"><ele>346.0</ele><time>2026-04-12T09:59:38.305Z</time></trkpt><trkpt lat="43.83853204387111" lon="10.917954870305296"><ele>346.0</ele><time>2026-04-12T09:59:39.305Z</time></trkpt><trkpt lat="43.83849554006827" lon="10.918056619192138"><ele>345.8333333333333</ele><time>2026-04-12T09:59:40.305Z</time></trkpt><trkpt lat="43.83845951359723" lon="10.918161924014354"><ele>345.66666666666663</ele><time>2026-04-12T09:59:41.305Z</time></trkpt><trkpt lat="43.83843986940036" lon="10.918269071229709"><ele>345.5</ele><time>2026-04-12T09:59:42.305Z</time></trkpt><trkpt lat="43.83842763158877" lon="10.918380443889005"><ele>345.3333333333333</ele><time>2026-04-12T09:59:43.305Z</time></trkpt><trkpt lat="43.83841945868404" lon="10.918482368465261"><ele>345.1666666666667</ele><time>2026-04-12T09:59:44.305Z</time></trkpt><trkpt lat="43.83840827248863" lon="10.918583390290106"><ele>345.0</ele><time>2026-04-12T09:59:45.305Z</time></trkpt><trkpt lat="43.838394925885204" lon="10.91867985497973"><ele>345.0</ele><time>2026-04-12T09:59:46.305Z</time></trkpt><trkpt lat="43.83837931511619" lon="10.918771989862588"><ele>345.0</ele><time>2026-04-12T09:59:47.305Z</time></trkpt><trkpt lat="43.83836327367482" lon="10.918863421494427"><ele>345.0</ele><time>2026-04-12T09:59:48.305Z</time></trkpt><trkpt lat="43.83834747196605" lon="10.919029274509294"><ele>345.0</ele><time>2026-04-12T09:59:50.305Z</time></trkpt><trkpt lat="43.8383226112675" lon="10.919172407737552"><ele>345.0</ele><time>2026-04-12T09:59:52.305Z</time></trkpt><trkpt lat="43.838275520601485" lon="10.919291856266948"><ele>345.0</ele><time>2026-04-12T09:59:54.305Z</time></trkpt><trkpt lat="43.83817982845146" lon="10.919310292809453"><ele>345.0</ele><time>2026-04-12T09:59:58.305Z</time></trkpt><trkpt lat="43.838103754526905" lon="10.919286459791115"><ele>345.0</ele><time>2026-04-12T10:00:00.305Z</time></trkpt><trkpt lat="43.83802775509089" lon="10.919263748190534"><ele>345.0</ele><time>2026-04-12T10:00:02.305Z</time></trkpt><trkpt lat="43.83795142891878" lon="10.919236224398496"><ele>345.0</ele><time>2026-04-12T10:00:04.305Z</time></trkpt><trkpt lat="43.83787206013095" lon="10.919209505323233"><ele>345.0</ele><time>2026-04-12T10:00:06.305Z</time></trkpt><trkpt lat="43.83779195411718" lon="10.91918923300672"><ele>345.0</ele><time>2026-04-12T10:00:08.305Z</time></trkpt><trkpt lat="43.837711066157446" lon="10.919145993096475"><ele>345.0</ele><time>2026-04-12T10:00:10.305Z</time></trkpt><trkpt lat="43.837622756434236" lon="10.919135767873449"><ele>345.0</ele><time>2026-04-12T10:00:12.305Z</time></trkpt><trkpt lat="43.837538244801515" lon="10.919113580606197"><ele>345.0</ele><time>2026-04-12T10:00:14.305Z</time></trkpt><trkpt lat="43.83745498601918" lon="10.919092207856608"><ele>345.0</ele><time>2026-04-12T10:00:16.305Z</time></trkpt><trkpt lat="43.837372415152906" lon="10.919080956728473"><ele>345.0</ele><time>2026-04-12T10:00:18.305Z</time></trkpt><trkpt lat="43.83729318996837" lon="10.919087479740766"><ele>345.0</ele><time>2026-04-12T10:00:20.305Z</time></trkpt><trkpt lat="43.837213374615196" lon="10.919113164809342"><ele>345.0</ele><time>2026-04-12T10:00:22.305Z</time></trkpt><trkpt lat="43.83713603860988" lon="10.919153186934764"><ele>345.0</ele><time>2026-04-12T10:00:24.305Z</time></trkpt><trkpt lat="43.837067427943424" lon="10.919197651629203"><ele>345.0</ele><time>2026-04-12T10:00:26.305Z</time></trkpt><trkpt lat="43.83700315181938" lon="10.919252017402181"><ele>345.0</ele><time>2026-04-12T10:00:28.305Z</time></trkpt><trkpt lat="43.83693170310413" lon="10.919275823243877"><ele>345.0</ele><time>2026-04-12T10:00:30.305Z</time></trkpt><trkpt lat="43.83685437690462" lon="10.91926446247932"><ele>345.1666666666667</ele><time>2026-04-12T10:00:32.305Z</time></trkpt><trkpt lat="43.83678306692383" lon="10.919224129779092"><ele>345.3333333333333</ele><time>2026-04-12T10:00:34.305Z</time></trkpt><trkpt lat="43.836719001494984" lon="10.919167225045312"><ele>345.5</ele><time>2026-04-12T10:00:36.305Z</time></trkpt><trkpt lat="43.836660324112025" lon="10.919100824659736"><ele>345.66666666666663</ele><time>2026-04-12T10:00:38.305Z</time></trkpt><trkpt lat="43.83659402319037" lon="10.919056919896223"><ele>345.8333333333333</ele><time>2026-04-12T10:00:40.305Z</time></trkpt><trkpt lat="43.83652281908486" lon="10.9190198159996"><ele>346.0</ele><time>2026-04-12T10:00:42.305Z</time></trkpt><trkpt lat="43.836452020737184" lon="10.91900658375664"><ele>346.0</ele><time>2026-04-12T10:00:44.305Z</time></trkpt><trkpt lat="43.83638507658318" lon="10.919011698744821"><ele>346.0</ele><time>2026-04-12T10:00:46.305Z</time></trkpt><trkpt lat="43.83629253546606" lon="10.918993210798801"><ele>346.0</ele><time>2026-04-12T10:00:49.305Z</time></trkpt><trkpt lat="43.83622129331491" lon="10.919012826314075"><ele>346.0</ele><time>2026-04-12T10:00:51.305Z</time></trkpt><trkpt lat="43.83614323664559" lon="10.91901612614318"><ele>346.0</ele><time>2026-04-12T10:00:53.305Z</time></trkpt><trkpt lat="43.8360661321219" lon="10.919017823938507"><ele>346.0</ele><time>2026-04-12T10:00:55.305Z</time></trkpt><trkpt lat="43.83598736329237" lon="10.91900579112781"><ele>347.16666666666663</ele><time>2026-04-12T10:00:57.305Z</time></trkpt><trkpt lat="43.83591107841458" lon="10.918968205523974"><ele>348.3333333333333</ele><time>2026-04-12T10:00:59.305Z</time></trkpt><trkpt lat="43.83583774694099" lon="10.91892192383874"><ele>349.5</ele><time>2026-04-12T10:01:01.305Z</time></trkpt><trkpt lat="43.835775316918046" lon="10.918853458158436"><ele>350.6666666666667</ele><time>2026-04-12T10:01:03.305Z</time></trkpt><trkpt lat="43.83570154730816" lon="10.918813445399666"><ele>351.83333333333337</ele><time>2026-04-12T10:01:05.305Z</time></trkpt><trkpt lat="43.8356405158175" lon="10.918741921654613"><ele>353.0</ele><time>2026-04-12T10:01:07.305Z</time></trkpt><trkpt lat="43.835567899629396" lon="10.918702169747771"><ele>353.0</ele><time>2026-04-12T10:01:09.305Z</time></trkpt><trkpt lat="43.83549527686185" lon="10.918673256180579"><ele>353.0</ele><time>2026-04-12T10:01:11.305Z</time></trkpt><trkpt lat="43.835421684778424" lon="10.918654354320262"><ele>353.0</ele><time>2026-04-12T10:01:13.305Z</time></trkpt><trkpt lat="43.835357691231835" lon="10.918642047671877"><ele>353.0</ele><time>2026-04-12T10:01:15.305Z</time></trkpt><trkpt lat="43.835293367564" lon="10.91862967750175"><ele>353.0</ele><time>2026-04-12T10:01:17.305Z</time></trkpt><trkpt lat="43.83524059322694" lon="10.91883984571654"><ele>353.0</ele><time>2026-04-12T10:01:18.305Z</time></trkpt><trkpt lat="43.835177902823304" lon="10.91888547103485"><ele>352.6666666666667</ele><time>2026-04-12T10:01:20.305Z</time></trkpt><trkpt lat="43.83509162881929" lon="10.918941737823618"><ele>352.33333333333337</ele><time>2026-04-12T10:01:23.305Z</time></trkpt><trkpt lat="43.835034700496394" lon="10.918992984623198"><ele>352.0</ele><time>2026-04-12T10:01:25.305Z</time></trkpt><trkpt lat="43.83496697098458" lon="10.919029874184265"><ele>351.6666666666667</ele><time>2026-04-12T10:01:27.305Z</time></trkpt><trkpt lat="43.83490076704796" lon="10.919068645901474"><ele>351.3333333333333</ele><time>2026-04-12T10:01:29.305Z</time></trkpt><trkpt lat="43.83483345853735" lon="10.919112211971678"><ele>351.0</ele><time>2026-04-12T10:01:31.305Z</time></trkpt><trkpt lat="43.834769159558824" lon="10.919166211834979"><ele>351.0</ele><time>2026-04-12T10:01:33.305Z</time></trkpt><trkpt lat="43.83470133081869" lon="10.919208459136883"><ele>351.0</ele><time>2026-04-12T10:01:35.305Z</time></trkpt><trkpt lat="43.834638759685866" lon="10.919266115715713"><ele>351.0</ele><time>2026-04-12T10:01:37.305Z</time></trkpt><trkpt lat="43.834572613957455" lon="10.919323046566312"><ele>351.0</ele><time>2026-04-12T10:01:39.305Z</time></trkpt><trkpt lat="43.83451164815369" lon="10.919385080670803"><ele>351.0</ele><time>2026-04-12T10:01:41.305Z</time></trkpt><trkpt lat="43.834462307859354" lon="10.91947020431963"><ele>351.0</ele><time>2026-04-12T10:01:43.304Z</time></trkpt><trkpt lat="43.83442878889787" lon="10.919566783704381"><ele>352.3333333333333</ele><time>2026-04-12T10:01:45.304Z</time></trkpt><trkpt lat="43.83439420742106" lon="10.919661890359999"><ele>353.6666666666667</ele><time>2026-04-12T10:01:47.304Z</time></trkpt><trkpt lat="43.834368972681666" lon="10.919762076149118"><ele>355.0</ele><time>2026-04-12T10:01:49.304Z</time></trkpt><trkpt lat="43.83434950993091" lon="10.919858750594125"><ele>356.33333333333337</ele><time>2026-04-12T10:01:51.304Z</time></trkpt><trkpt lat="43.83434152946678" lon="10.919966424594085"><ele>357.6666666666667</ele><time>2026-04-12T10:01:53.304Z</time></trkpt><trkpt lat="43.83434268144964" lon="10.92007583531813"><ele>359.0</ele><time>2026-04-12T10:01:55.304Z</time></trkpt><trkpt lat="43.834365692770476" lon="10.920181667726473"><ele>359.0</ele><time>2026-04-12T10:01:57.304Z</time></trkpt><trkpt lat="43.834393675762776" lon="10.920285112462027"><ele>359.0</ele><time>2026-04-12T10:01:59.304Z</time></trkpt><trkpt lat="43.83443452843165" lon="10.920380456915293"><ele>359.0</ele><time>2026-04-12T10:02:01.304Z</time></trkpt><trkpt lat="43.83447955828766" lon="10.920470699972968"><ele>359.0</ele><time>2026-04-12T10:02:03.304Z</time></trkpt><trkpt lat="43.83452915036817" lon="10.920561399135337"><ele>359.0</ele><time>2026-04-12T10:02:05.304Z</time></trkpt><trkpt lat="43.83457621610841" lon="10.920651573942793"><ele>359.0</ele><time>2026-04-12T10:02:07.304Z</time></trkpt><trkpt lat="43.83462691711377" lon="10.920735559368282"><ele>359.0</ele><time>2026-04-12T10:02:09.304Z</time></trkpt><trkpt lat="43.834674519343324" lon="10.920827217762254"><ele>359.0</ele><time>2026-04-12T10:02:11.304Z</time></trkpt><trkpt lat="43.834720393749464" lon="10.92092295040982"><ele>359.0</ele><time>2026-04-12T10:02:13.304Z</time></trkpt><trkpt lat="43.83476751017089" lon="10.921018079309587"><ele>359.0</ele><time>2026-04-12T10:02:15.304Z</time></trkpt><trkpt lat="43.83481656654574" lon="10.921110847003021"><ele>359.0</ele><time>2026-04-12T10:02:17.304Z</time></trkpt><trkpt lat="43.83486742680156" lon="10.921200133773322"><ele>359.0</ele><time>2026-04-12T10:02:19.304Z</time></trkpt><trkpt lat="43.83491283517314" lon="10.921292026075292"><ele>359.33333333333337</ele><time>2026-04-12T10:02:21.304Z</time></trkpt><trkpt lat="43.83495874565713" lon="10.921384878944263"><ele>359.6666666666667</ele><time>2026-04-12T10:02:23.304Z</time></trkpt><trkpt lat="43.83500258318971" lon="10.921475072280261"><ele>360.0</ele><time>2026-04-12T10:02:25.304Z</time></trkpt><trkpt lat="43.83505029426296" lon="10.921564312076935"><ele>360.3333333333333</ele><time>2026-04-12T10:02:27.304Z</time></trkpt><trkpt lat="43.83509553847305" lon="10.921655136347848"><ele>360.66666666666663</ele><time>2026-04-12T10:02:29.304Z</time></trkpt><trkpt lat="43.83514346001748" lon="10.921747000567384"><ele>361.0</ele><time>2026-04-12T10:02:31.304Z</time></trkpt><trkpt lat="43.835189410812575" lon="10.9218397837555"><ele>361.0</ele><time>2026-04-12T10:02:33.304Z</time></trkpt><trkpt lat="43.835234685507686" lon="10.921937614192741"><ele>361.0</ele><time>2026-04-12T10:02:35.304Z</time></trkpt><trkpt lat="43.83527759629175" lon="10.922041657846682"><ele>361.0</ele><time>2026-04-12T10:02:37.304Z</time></trkpt><trkpt lat="43.835316242229084" lon="10.922141781417135"><ele>361.0</ele><time>2026-04-12T10:02:39.304Z</time></trkpt><trkpt lat="43.835347747266255" lon="10.92224878455723"><ele>361.0</ele><time>2026-04-12T10:02:41.304Z</time></trkpt><trkpt lat="43.83537555413457" lon="10.922360636409001"><ele>361.0</ele><time>2026-04-12T10:02:43.304Z</time></trkpt><trkpt lat="43.83539644884508" lon="10.922475225853349"><ele>359.8333333333333</ele><time>2026-04-12T10:02:45.304Z</time></trkpt><trkpt lat="43.83541184429644" lon="10.92258690753756"><ele>358.66666666666663</ele><time>2026-04-12T10:02:47.304Z</time></trkpt><trkpt lat="43.835432039033506" lon="10.922697355476163"><ele>357.5</ele><time>2026-04-12T10:02:49.304Z</time></trkpt><trkpt lat="43.83544699743192" lon="10.922807698175356"><ele>356.3333333333333</ele><time>2026-04-12T10:02:51.304Z</time></trkpt><trkpt lat="43.83546660414597" lon="10.922917917756596"><ele>355.1666666666667</ele><time>2026-04-12T10:02:53.304Z</time></trkpt><trkpt lat="43.83549570785856" lon="10.92302433468548"><ele>354.0</ele><time>2026-04-12T10:02:55.304Z</time></trkpt><trkpt lat="43.835536274850746" lon="10.923124342342192"><ele>354.0</ele><time>2026-04-12T10:02:57.304Z</time></trkpt><trkpt lat="43.83559139539193" lon="10.923208442506912"><ele>354.0</ele><time>2026-04-12T10:02:59.304Z</time></trkpt><trkpt lat="43.835653821897196" lon="10.923285807039598"><ele>354.0</ele><time>2026-04-12T10:03:01.304Z</time></trkpt><trkpt lat="43.835725673173876" lon="10.923351304956725"><ele>354.0</ele><time>2026-04-12T10:03:03.304Z</time></trkpt><trkpt lat="43.8358035358514" lon="10.92340917259429"><ele>354.0</ele><time>2026-04-12T10:03:05.304Z</time></trkpt><trkpt lat="43.83588534870299" lon="10.923453680783537"><ele>354.0</ele><time>2026-04-12T10:03:07.304Z</time></trkpt><trkpt lat="43.8359689125142" lon="10.923499540477334"><ele>354.1666666666667</ele><time>2026-04-12T10:03:09.304Z</time></trkpt><trkpt lat="43.83604938031192" lon="10.923546331549254"><ele>354.3333333333333</ele><time>2026-04-12T10:03:11.304Z</time></trkpt><trkpt lat="43.83613031513776" lon="10.923593281834421"><ele>354.5</ele><time>2026-04-12T10:03:13.304Z</time></trkpt><trkpt lat="43.83621005364708" lon="10.923642060448865"><ele>354.66666666666663</ele><time>2026-04-12T10:03:15.304Z</time></trkpt><trkpt lat="43.836288627846145" lon="10.92369015362442"><ele>354.8333333333333</ele><time>2026-04-12T10:03:17.304Z</time></trkpt><trkpt lat="43.836368605198324" lon="10.923738220762017"><ele>355.0</ele><time>2026-04-12T10:03:19.304Z</time></trkpt><trkpt lat="43.83644833745642" lon="10.923786993900329"><ele>355.0</ele><time>2026-04-12T10:03:21.304Z</time></trkpt><trkpt lat="43.83652499849068" lon="10.923825267697126"><ele>355.0</ele><time>2026-04-12T10:03:23.304Z</time></trkpt><trkpt lat="43.83659710850699" lon="10.923875053464535"><ele>355.0</ele><time>2026-04-12T10:03:25.304Z</time></trkpt><trkpt lat="43.83666763434176" lon="10.92395847146352"><ele>355.0</ele><time>2026-04-12T10:03:27.304Z</time></trkpt><trkpt lat="43.8367223992809" lon="10.92408212725113"><ele>355.0</ele><time>2026-04-12T10:03:29.304Z</time></trkpt><trkpt lat="43.83674129516981" lon="10.924227452279556"><ele>353.5</ele><time>2026-04-12T10:03:31.304Z</time></trkpt><trkpt lat="43.83672702673529" lon="10.924384210594456"><ele>352.0</ele><time>2026-04-12T10:03:33.304Z</time></trkpt><trkpt lat="43.8366923719945" lon="10.924529853835203"><ele>350.5</ele><time>2026-04-12T10:03:35.304Z</time></trkpt><trkpt lat="43.83666262131203" lon="10.924685517974089"><ele>349.0</ele><time>2026-04-12T10:03:37.304Z</time></trkpt><trkpt lat="43.836649134291676" lon="10.924848308120314"><ele>349.0</ele><time>2026-04-12T10:03:39.304Z</time></trkpt><trkpt lat="43.83664871838582" lon="10.925007617337277"><ele>349.0</ele><time>2026-04-12T10:03:41.304Z</time></trkpt><trkpt lat="43.836669794066914" lon="10.925162993136777"><ele>349.0</ele><time>2026-04-12T10:03:43.304Z</time></trkpt><trkpt lat="43.836711948666704" lon="10.925299370395537"><ele>349.0</ele><time>2026-04-12T10:03:45.304Z</time></trkpt><trkpt lat="43.836769070608995" lon="10.925421309158168"><ele>349.0</ele><time>2026-04-12T10:03:47.304Z</time></trkpt><trkpt lat="43.83682803871447" lon="10.925535246465683"><ele>351.6</ele><time>2026-04-12T10:03:49.302Z</time></trkpt><trkpt lat="43.83688689588234" lon="10.925648606945499"><ele>354.2</ele><time>2026-04-12T10:03:51.302Z</time></trkpt><trkpt lat="43.83694248245951" lon="10.92575989563462"><ele>356.8</ele><time>2026-04-12T10:03:53.302Z</time></trkpt><trkpt lat="43.836998956777784" lon="10.925865470596737"><ele>359.40000000000003</ele><time>2026-04-12T10:03:55.302Z</time></trkpt><trkpt lat="43.83705815398916" lon="10.92599860441276"><ele>362.0</ele><time>2026-04-12T10:03:57.302Z</time></trkpt><trkpt lat="43.83708686050347" lon="10.926143500873826"><ele>360.6</ele><time>2026-04-12T10:03:59.302Z</time></trkpt><trkpt lat="43.837053562875745" lon="10.92628566322833"><ele>359.20000000000005</ele><time>2026-04-12T10:04:01.302Z</time></trkpt><trkpt lat="43.83697890318283" lon="10.926384647329849"><ele>357.8</ele><time>2026-04-12T10:04:03.302Z</time></trkpt><trkpt lat="43.83689716130911" lon="10.926443263488473"><ele>356.4</ele><time>2026-04-12T10:04:05.302Z</time></trkpt><trkpt lat="43.83682361713081" lon="10.926521539328444"><ele>355.0</ele><time>2026-04-12T10:04:07.302Z</time></trkpt><trkpt lat="43.83674436785923" lon="10.926598892880364"><ele>355.0</ele><time>2026-04-12T10:04:09.302Z</time></trkpt><trkpt lat="43.83666341411083" lon="10.926663444238166"><ele>355.0</ele><time>2026-04-12T10:04:11.302Z</time></trkpt><trkpt lat="43.83658642107097" lon="10.926740318353552"><ele>355.0</ele><time>2026-04-12T10:04:13.302Z</time></trkpt><trkpt lat="43.836509670799856" lon="10.926811552407088"><ele>355.0</ele><time>2026-04-12T10:04:15.302Z</time></trkpt><trkpt lat="43.836436320210446" lon="10.926883677910311"><ele>355.0</ele><time>2026-04-12T10:04:17.302Z</time></trkpt><trkpt lat="43.83636713931475" lon="10.926963824203352"><ele>359.0</ele><time>2026-04-12T10:04:19.302Z</time></trkpt><trkpt lat="43.83631654683194" lon="10.927062561438452"><ele>363.0</ele><time>2026-04-12T10:04:21.302Z</time></trkpt><trkpt lat="43.83627084068236" lon="10.927177420451521"><ele>367.0</ele><time>2026-04-12T10:04:23.302Z</time></trkpt><trkpt lat="43.83621967486509" lon="10.927287902819854"><ele>371.0</ele><time>2026-04-12T10:04:25.302Z</time></trkpt><trkpt lat="43.83612581264844" lon="10.92733103488718"><ele>375.0</ele><time>2026-04-12T10:04:27.302Z</time></trkpt><trkpt lat="43.836025982295396" lon="10.927286278947037"><ele>375.0</ele><time>2026-04-12T10:04:29.302Z</time></trkpt><trkpt lat="43.83595969397758" lon="10.927186885433347"><ele>375.0</ele><time>2026-04-12T10:04:31.302Z</time></trkpt><trkpt lat="43.83589648165199" lon="10.927091422594387"><ele>375.0</ele><time>2026-04-12T10:04:33.302Z</time></trkpt><trkpt lat="43.83582588037508" lon="10.926996284897932"><ele>375.0</ele><time>2026-04-12T10:04:35.302Z</time></trkpt><trkpt lat="43.83575568683354" lon="10.926897751920283"><ele>375.0</ele><time>2026-04-12T10:04:37.302Z</time></trkpt><trkpt lat="43.83568168830721" lon="10.926803122967868"><ele>369.2</ele><time>2026-04-12T10:04:39.302Z</time></trkpt><trkpt lat="43.835601021796485" lon="10.926711509141004"><ele>363.4</ele><time>2026-04-12T10:04:41.302Z</time></trkpt><trkpt lat="43.83551547376539" lon="10.926636861748623"><ele>357.6</ele><time>2026-04-12T10:04:43.302Z</time></trkpt><trkpt lat="43.835415161099384" lon="10.926580786853924"><ele>351.8</ele><time>2026-04-12T10:04:45.302Z</time></trkpt><trkpt lat="43.83529530555254" lon="10.926553836772271"><ele>346.0</ele><time>2026-04-12T10:04:47.302Z</time></trkpt><trkpt lat="43.83516896509937" lon="10.926521599554542"><ele>347.2857142857143</ele><time>2026-04-12T10:04:49.302Z</time></trkpt><trkpt lat="43.835103624985614" lon="10.926502766519866"><ele>348.5714285714286</ele><time>2026-04-12T10:04:50.302Z</time></trkpt><trkpt lat="43.835035791290494" lon="10.92648832987451"><ele>349.8571428571429</ele><time>2026-04-12T10:04:51.302Z</time></trkpt><trkpt lat="43.83496670717549" lon="10.92646758411759"><ele>351.1428571428571</ele><time>2026-04-12T10:04:52.302Z</time></trkpt><trkpt lat="43.834897670007834" lon="10.926451944916133"><ele>352.42857142857144</ele><time>2026-04-12T10:04:53.302Z</time></trkpt><trkpt lat="43.834824969137166" lon="10.92643603697364"><ele>353.7142857142857</ele><time>2026-04-12T10:04:54.302Z</time></trkpt><trkpt lat="43.83475013404056" lon="10.92643243253628"><ele>355.0</ele><time>2026-04-12T10:04:55.302Z</time></trkpt><trkpt lat="43.8346750705528" lon="10.926431650465538"><ele>355.0</ele><time>2026-04-12T10:04:56.302Z</time></trkpt><trkpt lat="43.834600391805495" lon="10.926442366496616"><ele>355.0</ele><time>2026-04-12T10:04:57.302Z</time></trkpt><trkpt lat="43.8345259715656" lon="10.926460803454908"><ele>355.0</ele><time>2026-04-12T10:04:58.302Z</time></trkpt><trkpt lat="43.834450006185975" lon="10.926481213550646"><ele>355.0</ele><time>2026-04-12T10:04:59.302Z</time></trkpt><trkpt lat="43.83437289386115" lon="10.926503227637188"><ele>355.0</ele><time>2026-04-12T10:05:00.302Z</time></trkpt><trkpt lat="43.834295929295" lon="10.92652527842447"><ele>355.0</ele><time>2026-04-12T10:05:01.302Z</time></trkpt><trkpt lat="43.83421901307342" lon="10.926526597199638"><ele>353.5</ele><time>2026-04-12T10:05:02.302Z</time></trkpt><trkpt lat="43.83415088550573" lon="10.926558487181318"><ele>352.0</ele><time>2026-04-12T10:05:03.302Z</time></trkpt><trkpt lat="43.83408471604088" lon="10.926607867814294"><ele>350.5</ele><time>2026-04-12T10:05:04.302Z</time></trkpt><trkpt lat="43.834030965618304" lon="10.926671861746607"><ele>349.0</ele><time>2026-04-12T10:05:05.302Z</time></trkpt><trkpt lat="43.83401296053001" lon="10.926770972010518"><ele>347.5</ele><time>2026-04-12T10:05:06.302Z</time></trkpt><trkpt lat="43.83400794332553" lon="10.926858574369476"><ele>346.0</ele><time>2026-04-12T10:05:07.302Z</time></trkpt><trkpt lat="43.83404783055049" lon="10.92701611950195"><ele>346.0</ele><time>2026-04-12T10:05:09.302Z</time></trkpt><trkpt lat="43.83410796312301" lon="10.92714549009577"><ele>346.0</ele><time>2026-04-12T10:05:11.302Z</time></trkpt><trkpt lat="43.834163983396984" lon="10.927267443388343"><ele>346.0</ele><time>2026-04-12T10:05:13.302Z</time></trkpt><trkpt lat="43.83421509804603" lon="10.927395680685253"><ele>346.0</ele><time>2026-04-12T10:05:15.302Z</time></trkpt><trkpt lat="43.83425511733933" lon="10.92751863902227"><ele>346.0</ele><time>2026-04-12T10:05:17.302Z</time></trkpt><trkpt lat="43.834282864279906" lon="10.927644461333067"><ele>345.6</ele><time>2026-04-12T10:05:19.302Z</time></trkpt><trkpt lat="43.83429361073562" lon="10.92777455338751"><ele>345.20000000000005</ele><time>2026-04-12T10:05:21.302Z</time></trkpt><trkpt lat="43.834303867748744" lon="10.927906430717627"><ele>344.79999999999995</ele><time>2026-04-12T10:05:23.302Z</time></trkpt><trkpt lat="43.834305349190394" lon="10.928033293112936"><ele>344.4</ele><time>2026-04-12T10:05:25.302Z</time></trkpt><trkpt lat="43.83431179687445" lon="10.928164739746338"><ele>344.0</ele><time>2026-04-12T10:05:27.302Z</time></trkpt><trkpt lat="43.834311886209676" lon="10.928293154364164"><ele>351.2</ele><time>2026-04-12T10:05:29.302Z</time></trkpt><trkpt lat="43.8343214026607" lon="10.928426964237312"><ele>358.4</ele><time>2026-04-12T10:05:31.302Z</time></trkpt><trkpt lat="43.834327878114536" lon="10.928559407904855"><ele>365.6</ele><time>2026-04-12T10:05:33.302Z</time></trkpt><trkpt lat="43.834329720317335" lon="10.928694751738686"><ele>372.8</ele><time>2026-04-12T10:05:35.302Z</time></trkpt><trkpt lat="43.834335762805125" lon="10.928832184441868"><ele>380.0</ele><time>2026-04-12T10:05:37.302Z</time></trkpt><trkpt lat="43.83434211965666" lon="10.928969727619252"><ele>380.0</ele><time>2026-04-12T10:05:39.302Z</time></trkpt><trkpt lat="43.83434693748038" lon="10.929105129658879"><ele>380.0</ele><time>2026-04-12T10:05:41.302Z</time></trkpt><trkpt lat="43.834353747209256" lon="10.929246744010122"><ele>380.0</ele><time>2026-04-12T10:05:43.302Z</time></trkpt><trkpt lat="43.834334184389164" lon="10.92939078232514"><ele>380.0</ele><time>2026-04-12T10:05:45.302Z</time></trkpt><trkpt lat="43.83427049548903" lon="10.929526315324033"><ele>380.0</ele><time>2026-04-12T10:05:47.302Z</time></trkpt><trkpt lat="43.83416870991769" lon="10.929588571696572"><ele>377.6</ele><time>2026-04-12T10:05:49.302Z</time></trkpt><trkpt lat="43.83405178971976" lon="10.92960323406409"><ele>375.2</ele><time>2026-04-12T10:05:51.302Z</time></trkpt><trkpt lat="43.833936552121266" lon="10.929619378064366"><ele>372.79999999999995</ele><time>2026-04-12T10:05:53.302Z</time></trkpt><trkpt lat="43.83382767238607" lon="10.929688799216619"><ele>370.4</ele><time>2026-04-12T10:05:55.301Z</time></trkpt><trkpt lat="43.8337742976083" lon="10.92973906685146"><ele>368.0</ele><time>2026-04-12T10:05:56.301Z</time></trkpt><trkpt lat="43.833736538874646" lon="10.929809962162702"><ele>368.0</ele><time>2026-04-12T10:05:57.301Z</time></trkpt><trkpt lat="43.83371535820528" lon="10.929895681149736"><ele>368.0</ele><time>2026-04-12T10:05:58.301Z</time></trkpt><trkpt lat="43.83364046776624" lon="10.930040106814657"><ele>368.0</ele><time>2026-04-12T10:06:00.301Z</time></trkpt><trkpt lat="43.83360691182988" lon="10.930115436825849"><ele>368.0</ele><time>2026-04-12T10:06:01.301Z</time></trkpt><trkpt lat="43.83357792963567" lon="10.930196086690428"><ele>368.0</ele><time>2026-04-12T10:06:02.301Z</time></trkpt><trkpt lat="43.83351545055242" lon="10.930235855873326"><ele>368.0</ele><time>2026-04-12T10:06:03.301Z</time></trkpt><trkpt lat="43.83344461891156" lon="10.930246519863354"><ele>368.14285714285717</ele><time>2026-04-12T10:06:04.301Z</time></trkpt><trkpt lat="43.8333758381822" lon="10.93019714307679"><ele>368.2857142857143</ele><time>2026-04-12T10:06:05.301Z</time></trkpt><trkpt lat="43.833335177431636" lon="10.930112709611658"><ele>368.42857142857144</ele><time>2026-04-12T10:06:06.301Z</time></trkpt><trkpt lat="43.833318203200086" lon="10.93001408736395"><ele>368.57142857142856</ele><time>2026-04-12T10:06:07.301Z</time></trkpt><trkpt lat="43.83330969478715" lon="10.929917600819742"><ele>368.71428571428567</ele><time>2026-04-12T10:06:08.301Z</time></trkpt><trkpt lat="43.833299398350235" lon="10.929821867005819"><ele>368.85714285714283</ele><time>2026-04-12T10:06:09.301Z</time></trkpt><trkpt lat="43.8332803875303" lon="10.929724559829669"><ele>369.0</ele><time>2026-04-12T10:06:10.301Z</time></trkpt><trkpt lat="43.8332539146885" lon="10.929627206868775"><ele>367.1666666666667</ele><time>2026-04-12T10:06:11.301Z</time></trkpt><trkpt lat="43.83322865288751" lon="10.929532136060283"><ele>365.3333333333333</ele><time>2026-04-12T10:06:12.301Z</time></trkpt><trkpt lat="43.83319523616922" lon="10.929438505375465"><ele>363.5</ele><time>2026-04-12T10:06:13.301Z</time></trkpt><trkpt lat="43.83315945860489" lon="10.929343706757928"><ele>361.66666666666663</ele><time>2026-04-12T10:06:14.301Z</time></trkpt><trkpt lat="43.833117317283374" lon="10.929254232993754"><ele>359.8333333333333</ele><time>2026-04-12T10:06:15.301Z</time></trkpt><trkpt lat="43.833076849418205" lon="10.929162935882394"><ele>358.0</ele><time>2026-04-12T10:06:16.301Z</time></trkpt><trkpt lat="43.83304043134078" lon="10.92906883602422"><ele>356.0</ele><time>2026-04-12T10:06:17.301Z</time></trkpt><trkpt lat="43.8329993694661" lon="10.928977483361015"><ele>354.0</ele><time>2026-04-12T10:06:18.301Z</time></trkpt><trkpt lat="43.832946241193625" lon="10.928898720259799"><ele>352.0</ele><time>2026-04-12T10:06:19.301Z</time></trkpt><trkpt lat="43.832888732403646" lon="10.928823631466377"><ele>350.0</ele><time>2026-04-12T10:06:20.301Z</time></trkpt><trkpt lat="43.83282320154017" lon="10.928753968188825"><ele>348.0</ele><time>2026-04-12T10:06:21.301Z</time></trkpt><trkpt lat="43.83275723418367" lon="10.928692310387254"><ele>346.0</ele><time>2026-04-12T10:06:22.301Z</time></trkpt><trkpt lat="43.83268522994456" lon="10.92864117451571"><ele>345.0</ele><time>2026-04-12T10:06:23.301Z</time></trkpt><trkpt lat="43.83260758514913" lon="10.928590182887598"><ele>344.0</ele><time>2026-04-12T10:06:24.301Z</time></trkpt><trkpt lat="43.83253571893289" lon="10.928544076208293"><ele>343.0</ele><time>2026-04-12T10:06:25.301Z</time></trkpt><trkpt lat="43.83245939396468" lon="10.928489278865506"><ele>342.0</ele><time>2026-04-12T10:06:26.301Z</time></trkpt><trkpt lat="43.83238720177427" lon="10.928439909247901"><ele>341.0</ele><time>2026-04-12T10:06:27.301Z</time></trkpt><trkpt lat="43.83231246129308" lon="10.928380992886575"><ele>340.0</ele><time>2026-04-12T10:06:28.301Z</time></trkpt><trkpt lat="43.83224158290411" lon="10.928321678523462"><ele>340.0</ele><time>2026-04-12T10:06:29.301Z</time></trkpt><trkpt lat="43.83217061722239" lon="10.92826656239696"><ele>340.0</ele><time>2026-04-12T10:06:30.301Z</time></trkpt><trkpt lat="43.83207885227247" lon="10.928242790812986"><ele>340.0</ele><time>2026-04-12T10:06:31.301Z</time></trkpt><trkpt lat="43.832006509138154" lon="10.928169470309006"><ele>340.0</ele><time>2026-04-12T10:06:32.301Z</time></trkpt><trkpt lat="43.83199441680862" lon="10.928009880957347"><ele>340.0</ele><time>2026-04-12T10:06:33.301Z</time></trkpt><trkpt lat="43.83195245661164" lon="10.92791014889734"><ele>340.0</ele><time>2026-04-12T10:06:34.301Z</time></trkpt><trkpt lat="43.83190211981679" lon="10.927809082749295"><ele>340.0</ele><time>2026-04-12T10:06:35.301Z</time></trkpt><trkpt lat="43.83184947134834" lon="10.927710922790885"><ele>340.0</ele><time>2026-04-12T10:06:36.301Z</time></trkpt><trkpt lat="43.8317956933314" lon="10.927608877167144"><ele>340.0</ele><time>2026-04-12T10:06:37.301Z</time></trkpt><trkpt lat="43.83173641316543" lon="10.927504626232421"><ele>340.0</ele><time>2026-04-12T10:06:38.301Z</time></trkpt><trkpt lat="43.83167691872212" lon="10.927400280525662"><ele>340.0</ele><time>2026-04-12T10:06:39.301Z</time></trkpt><trkpt lat="43.831612160780764" lon="10.927300582037535"><ele>340.0</ele><time>2026-04-12T10:06:40.301Z</time></trkpt><trkpt lat="43.831532899855716" lon="10.92721889237529"><ele>340.0</ele><time>2026-04-12T10:06:41.301Z</time></trkpt><trkpt lat="43.83144005087038" lon="10.927163792427223"><ele>340.0</ele><time>2026-04-12T10:06:42.301Z</time></trkpt><trkpt lat="43.83133980647615" lon="10.927136118346802"><ele>340.0</ele><time>2026-04-12T10:06:43.301Z</time></trkpt><trkpt lat="43.83123996821043" lon="10.927112536244563"><ele>340.0</ele><time>2026-04-12T10:06:44.301Z</time></trkpt><trkpt lat="43.83113715826978" lon="10.927087314284181"><ele>340.0</ele><time>2026-04-12T10:06:45.301Z</time></trkpt><trkpt lat="43.83103262262736" lon="10.927067298043827"><ele>340.0</ele><time>2026-04-12T10:06:46.301Z</time></trkpt><trkpt lat="43.8309319341182" lon="10.927031082451322"><ele>340.0</ele><time>2026-04-12T10:06:47.301Z</time></trkpt><trkpt lat="43.83083403224993" lon="10.926976522226788"><ele>340.0</ele><time>2026-04-12T10:06:48.301Z</time></trkpt><trkpt lat="43.83074407599303" lon="10.92690012935885"><ele>337.6</ele><time>2026-04-12T10:06:49.301Z</time></trkpt><trkpt lat="43.8306578008131" lon="10.926817921195601"><ele>335.2</ele><time>2026-04-12T10:06:50.301Z</time></trkpt><trkpt lat="43.83057200871695" lon="10.92672957690886"><ele>332.79999999999995</ele><time>2026-04-12T10:06:51.301Z</time></trkpt><trkpt lat="43.83048508305007" lon="10.926644133692328"><ele>330.4</ele><time>2026-04-12T10:06:52.301Z</time></trkpt><trkpt lat="43.8303991516285" lon="10.92655609060695"><ele>328.0</ele><time>2026-04-12T10:06:53.301Z</time></trkpt><trkpt lat="43.83031077361371" lon="10.926470775710158"><ele>328.0</ele><time>2026-04-12T10:06:54.301Z</time></trkpt><trkpt lat="43.830223444788814" lon="10.926382896049452"><ele>328.0</ele><time>2026-04-12T10:06:55.301Z</time></trkpt><trkpt lat="43.83014078969028" lon="10.926288007722611"><ele>328.0</ele><time>2026-04-12T10:06:56.301Z</time></trkpt><trkpt lat="43.830063146667584" lon="10.926184211034926"><ele>328.0</ele><time>2026-04-12T10:06:57.301Z</time></trkpt><trkpt lat="43.82999165242492" lon="10.926067180501228"><ele>328.0</ele><time>2026-04-12T10:06:58.301Z</time></trkpt><trkpt lat="43.82994849290875" lon="10.925920946609727"><ele>327.0</ele><time>2026-04-12T10:06:59.301Z</time></trkpt><trkpt lat="43.829884743647256" lon="10.925799446537129"><ele>326.0</ele><time>2026-04-12T10:07:00.301Z</time></trkpt><trkpt lat="43.82981754306758" lon="10.925682174477721"><ele>325.0</ele><time>2026-04-12T10:07:01.301Z</time></trkpt><trkpt lat="43.82971936976065" lon="10.925602946002407"><ele>324.0</ele><time>2026-04-12T10:07:02.301Z</time></trkpt><trkpt lat="43.82960921944658" lon="10.925561565078418"><ele>323.0</ele><time>2026-04-12T10:07:03.301Z</time></trkpt><trkpt lat="43.829500967320826" lon="10.925533893300555"><ele>323.0</ele><time>2026-04-12T10:07:04.301Z</time></trkpt><trkpt lat="43.829396458497605" lon="10.925482305029456"><ele>323.0</ele><time>2026-04-12T10:07:05.301Z</time></trkpt><trkpt lat="43.82930746637094" lon="10.92538788357573"><ele>323.0</ele><time>2026-04-12T10:07:06.301Z</time></trkpt><trkpt lat="43.82921519223779" lon="10.925308506443601"><ele>323.0</ele><time>2026-04-12T10:07:07.301Z</time></trkpt><trkpt lat="43.8291124878372" lon="10.925245414180756"><ele>323.0</ele><time>2026-04-12T10:07:08.301Z</time></trkpt><trkpt lat="43.829028413247585" lon="10.925146287260308"><ele>321.59999999999997</ele><time>2026-04-12T10:07:09.301Z</time></trkpt><trkpt lat="43.82893863092248" lon="10.925062264014226"><ele>320.2</ele><time>2026-04-12T10:07:10.301Z</time></trkpt><trkpt lat="43.82884266149786" lon="10.92498202036733"><ele>318.8</ele><time>2026-04-12T10:07:11.301Z</time></trkpt><trkpt lat="43.8287521506503" lon="10.924898887857522"><ele>317.4</ele><time>2026-04-12T10:07:12.301Z</time></trkpt><trkpt lat="43.82865292510268" lon="10.924832670524678"><ele>316.0</ele><time>2026-04-12T10:07:13.301Z</time></trkpt><trkpt lat="43.82856201824937" lon="10.924747596374091"><ele>318.8</ele><time>2026-04-12T10:07:14.301Z</time></trkpt><trkpt lat="43.82847284737477" lon="10.924654576648418"><ele>321.6</ele><time>2026-04-12T10:07:15.301Z</time></trkpt><trkpt lat="43.82838432296115" lon="10.924564688768593"><ele>324.4</ele><time>2026-04-12T10:07:16.301Z</time></trkpt><trkpt lat="43.82829316657157" lon="10.924478291794953"><ele>327.2</ele><time>2026-04-12T10:07:17.301Z</time></trkpt><trkpt lat="43.82820408713132" lon="10.92438965866565"><ele>330.0</ele><time>2026-04-12T10:07:18.301Z</time></trkpt><trkpt lat="43.8281273033045" lon="10.924274571845835"><ele>325.4</ele><time>2026-04-12T10:07:19.301Z</time></trkpt><trkpt lat="43.828044714208474" lon="10.924173041716681"><ele>320.8</ele><time>2026-04-12T10:07:20.301Z</time></trkpt><trkpt lat="43.82796907824082" lon="10.924078048336822"><ele>316.2</ele><time>2026-04-12T10:07:21.301Z</time></trkpt><trkpt lat="43.827900165743436" lon="10.923992904809827"><ele>311.6</ele><time>2026-04-12T10:07:22.301Z</time></trkpt><trkpt lat="43.82784006681335" lon="10.92392414532516"><ele>307.0</ele><time>2026-04-12T10:07:23.301Z</time></trkpt><trkpt lat="43.82777165921599" lon="10.923858605241856"><ele>307.0</ele><time>2026-04-12T10:07:24.301Z</time></trkpt><trkpt lat="43.82768004727337" lon="10.923846097815096"><ele>307.0</ele><time>2026-04-12T10:07:25.301Z</time></trkpt><trkpt lat="43.82760578396289" lon="10.92380865220653"><ele>307.0</ele><time>2026-04-12T10:07:26.301Z</time></trkpt><trkpt lat="43.827526256596826" lon="10.923816901708646"><ele>307.0</ele><time>2026-04-12T10:07:27.301Z</time></trkpt><trkpt lat="43.82746007618195" lon="10.923891181031633"><ele>307.0</ele><time>2026-04-12T10:07:28.301Z</time></trkpt><trkpt lat="43.827411259176706" lon="10.923964538630145"><ele>307.0</ele><time>2026-04-12T10:07:29.301Z</time></trkpt><trkpt lat="43.82737334444978" lon="10.924043312410188"><ele>307.4285714285714</ele><time>2026-04-12T10:07:30.301Z</time></trkpt><trkpt lat="43.82738684329551" lon="10.924156220731566"><ele>307.85714285714283</ele><time>2026-04-12T10:07:31.301Z</time></trkpt><trkpt lat="43.82740442446527" lon="10.9242479829187"><ele>308.2857142857143</ele><time>2026-04-12T10:07:32.301Z</time></trkpt><trkpt lat="43.8274290381626" lon="10.924335779129034"><ele>308.71428571428567</ele><time>2026-04-12T10:07:33.301Z</time></trkpt><trkpt lat="43.827450393706016" lon="10.924422538005514"><ele>309.1428571428571</ele><time>2026-04-12T10:07:34.301Z</time></trkpt><trkpt lat="43.82746779578751" lon="10.92450711413028"><ele>309.57142857142856</ele><time>2026-04-12T10:07:35.301Z</time></trkpt><trkpt lat="43.827490851325585" lon="10.924594480824624"><ele>310.0</ele><time>2026-04-12T10:07:36.301Z</time></trkpt><trkpt lat="43.82750141251519" lon="10.924683029074457"><ele>310.6</ele><time>2026-04-12T10:07:37.301Z</time></trkpt><trkpt lat="43.82751003359548" lon="10.924773809556546"><ele>311.2</ele><time>2026-04-12T10:07:38.301Z</time></trkpt><trkpt lat="43.827506075489545" lon="10.924940778102874"><ele>311.8</ele><time>2026-04-12T10:07:40.301Z</time></trkpt><trkpt lat="43.82747745438227" lon="10.92510505020508"><ele>312.4</ele><time>2026-04-12T10:07:42.301Z</time></trkpt><trkpt lat="43.82742154958186" lon="10.925239203795808"><ele>313.0</ele><time>2026-04-12T10:07:44.301Z</time></trkpt><trkpt lat="43.827331508863416" lon="10.925327886393811"><ele>313.0</ele><time>2026-04-12T10:07:46.301Z</time></trkpt><trkpt lat="43.82725289042126" lon="10.925426259747807"><ele>313.0</ele><time>2026-04-12T10:07:48.301Z</time></trkpt><trkpt lat="43.82718824261656" lon="10.925537622966633"><ele>313.0</ele><time>2026-04-12T10:07:50.301Z</time></trkpt><trkpt lat="43.82712774455603" lon="10.925662493129336"><ele>313.0</ele><time>2026-04-12T10:07:52.301Z</time></trkpt><trkpt lat="43.827181873619644" lon="10.925825351536924"><ele>313.0</ele><time>2026-04-12T10:07:54.301Z</time></trkpt><trkpt lat="43.82723164663427" lon="10.925885355108111"><ele>311.5</ele><time>2026-04-12T10:07:55.301Z</time></trkpt><trkpt lat="43.827285458429245" lon="10.925940003873668"><ele>310.0</ele><time>2026-04-12T10:07:56.301Z</time></trkpt><trkpt lat="43.827332070973455" lon="10.926020110011786"><ele>308.5</ele><time>2026-04-12T10:07:57.301Z</time></trkpt><trkpt lat="43.827398646847485" lon="10.926071463950713"><ele>307.0</ele><time>2026-04-12T10:07:58.301Z</time></trkpt><trkpt lat="43.82745062796197" lon="10.92614917514839"><ele>305.5</ele><time>2026-04-12T10:07:59.301Z</time></trkpt><trkpt lat="43.82748607273788" lon="10.92624725682196"><ele>304.0</ele><time>2026-04-12T10:08:00.299Z</time></trkpt><trkpt lat="43.827499388864695" lon="10.926362813825248"><ele>304.0</ele><time>2026-04-12T10:08:01.299Z</time></trkpt><trkpt lat="43.82749576483686" lon="10.926478164310362"><ele>304.0</ele><time>2026-04-12T10:08:02.299Z</time></trkpt><trkpt lat="43.827480096732586" lon="10.926591186156301"><ele>304.0</ele><time>2026-04-12T10:08:03.299Z</time></trkpt><trkpt lat="43.827479923572746" lon="10.926704461187875"><ele>304.0</ele><time>2026-04-12T10:08:04.299Z</time></trkpt><trkpt lat="43.82748290410797" lon="10.926801373427036"><ele>304.0</ele><time>2026-04-12T10:08:05.299Z</time></trkpt><trkpt lat="43.82753936524231" lon="10.926880660216622"><ele>304.0</ele><time>2026-04-12T10:08:06.299Z</time></trkpt><trkpt lat="43.82764988247524" lon="10.926978537245372"><ele>306.0</ele><time>2026-04-12T10:08:08.299Z</time></trkpt><trkpt lat="43.82770697031319" lon="10.927063474202665"><ele>308.0</ele><time>2026-04-12T10:08:09.299Z</time></trkpt><trkpt lat="43.827731597602636" lon="10.927172880965998"><ele>310.0</ele><time>2026-04-12T10:08:10.299Z</time></trkpt><trkpt lat="43.82774856995467" lon="10.92729696617077"><ele>312.0</ele><time>2026-04-12T10:08:11.299Z</time></trkpt><trkpt lat="43.82772225497215" lon="10.927406267161437"><ele>314.0</ele><time>2026-04-12T10:08:12.299Z</time></trkpt><trkpt lat="43.82768880546087" lon="10.927517863181926"><ele>316.0</ele><time>2026-04-12T10:08:13.299Z</time></trkpt><trkpt lat="43.82766129095459" lon="10.927623639564867"><ele>316.0</ele><time>2026-04-12T10:08:14.299Z</time></trkpt><trkpt lat="43.82765233986835" lon="10.927741513581989"><ele>316.0</ele><time>2026-04-12T10:08:15.299Z</time></trkpt><trkpt lat="43.82766103191085" lon="10.927857329834046"><ele>316.0</ele><time>2026-04-12T10:08:16.299Z</time></trkpt><trkpt lat="43.827691915162134" lon="10.927976526306194"><ele>316.0</ele><time>2026-04-12T10:08:17.299Z</time></trkpt><trkpt lat="43.82773631094725" lon="10.928086388061088"><ele>316.0</ele><time>2026-04-12T10:08:18.299Z</time></trkpt><trkpt lat="43.82779561461501" lon="10.928181676535884"><ele>316.0</ele><time>2026-04-12T10:08:19.299Z</time></trkpt><trkpt lat="43.82786787997084" lon="10.92825935667463"><ele>316.0</ele><time>2026-04-12T10:08:20.299Z</time></trkpt><trkpt lat="43.82794371743203" lon="10.928324508848162"><ele>316.0</ele><time>2026-04-12T10:08:21.299Z</time></trkpt><trkpt lat="43.828005101739926" lon="10.92838369861641"><ele>316.0</ele><time>2026-04-12T10:08:22.299Z</time></trkpt><trkpt lat="43.82805433784725" lon="10.92854709485424"><ele>316.0</ele><time>2026-04-12T10:08:24.299Z</time></trkpt><trkpt lat="43.82803552476986" lon="10.928643137412424"><ele>316.0</ele><time>2026-04-12T10:08:25.299Z</time></trkpt><trkpt lat="43.827979714526876" lon="10.92871504840396"><ele>316.0</ele><time>2026-04-12T10:08:26.299Z</time></trkpt><trkpt lat="43.8279045876556" lon="10.928742432790473"><ele>316.5714285714286</ele><time>2026-04-12T10:08:27.299Z</time></trkpt><trkpt lat="43.827829517495864" lon="10.928736332739772"><ele>317.14285714285717</ele><time>2026-04-12T10:08:28.299Z</time></trkpt><trkpt lat="43.827760033684015" lon="10.928728125524454"><ele>317.7142857142857</ele><time>2026-04-12T10:08:29.299Z</time></trkpt><trkpt lat="43.827691878606004" lon="10.928724820015747"><ele>318.28571428571433</ele><time>2026-04-12T10:08:30.299Z</time></trkpt><trkpt lat="43.82762360012665" lon="10.928719060496913"><ele>318.8571428571429</ele><time>2026-04-12T10:08:31.299Z</time></trkpt><trkpt lat="43.827553947382434" lon="10.928702057209382"><ele>319.42857142857144</ele><time>2026-04-12T10:08:32.299Z</time></trkpt><trkpt lat="43.82748831917363" lon="10.928673761516063"><ele>320.0</ele><time>2026-04-12T10:08:33.299Z</time></trkpt><trkpt lat="43.82742327914324" lon="10.928626203581246"><ele>320.0</ele><time>2026-04-12T10:08:34.299Z</time></trkpt><trkpt lat="43.82736501360869" lon="10.928571579376388"><ele>320.0</ele><time>2026-04-12T10:08:35.299Z</time></trkpt><trkpt lat="43.82730836210545" lon="10.928512885044501"><ele>320.0</ele><time>2026-04-12T10:08:36.299Z</time></trkpt><trkpt lat="43.82725349832389" lon="10.928448576837411"><ele>320.0</ele><time>2026-04-12T10:08:37.299Z</time></trkpt><trkpt lat="43.8272025722844" lon="10.928382025835994"><ele>320.0</ele><time>2026-04-12T10:08:38.299Z</time></trkpt><trkpt lat="43.82714754478288" lon="10.92831814119984"><ele>320.0</ele><time>2026-04-12T10:08:39.299Z</time></trkpt><trkpt lat="43.82708817641734" lon="10.928254429071737"><ele>320.0</ele><time>2026-04-12T10:08:40.299Z</time></trkpt><trkpt lat="43.82703889602173" lon="10.928191722287547"><ele>317.57142857142856</ele><time>2026-04-12T10:08:41.299Z</time></trkpt><trkpt lat="43.82698167486502" lon="10.928133822385169"><ele>315.14285714285717</ele><time>2026-04-12T10:08:42.299Z</time></trkpt><trkpt lat="43.82692147706241" lon="10.928084081526075"><ele>312.7142857142857</ele><time>2026-04-12T10:08:43.299Z</time></trkpt><trkpt lat="43.82685556888203" lon="10.92803947583558"><ele>310.2857142857143</ele><time>2026-04-12T10:08:44.299Z</time></trkpt><trkpt lat="43.82678965941759" lon="10.928001618587086"><ele>307.85714285714283</ele><time>2026-04-12T10:08:45.299Z</time></trkpt><trkpt lat="43.82672353716382" lon="10.927963177420843"><ele>305.42857142857144</ele><time>2026-04-12T10:08:46.299Z</time></trkpt><trkpt lat="43.82665564682837" lon="10.927931226926317"><ele>303.0</ele><time>2026-04-12T10:08:47.299Z</time></trkpt><trkpt lat="43.82658855327878" lon="10.927901814188662"><ele>303.0</ele><time>2026-04-12T10:08:48.299Z</time></trkpt><trkpt lat="43.8265203009586" lon="10.92787512426411"><ele>303.0</ele><time>2026-04-12T10:08:49.299Z</time></trkpt><trkpt lat="43.82645297201539" lon="10.92785951096423"><ele>303.0</ele><time>2026-04-12T10:08:50.299Z</time></trkpt><trkpt lat="43.826384103300796" lon="10.927841429613727"><ele>303.0</ele><time>2026-04-12T10:08:51.299Z</time></trkpt><trkpt lat="43.826313733375194" lon="10.927820218168819"><ele>303.0</ele><time>2026-04-12T10:08:52.299Z</time></trkpt><trkpt lat="43.826246234426605" lon="10.927818108112916"><ele>303.0</ele><time>2026-04-12T10:08:53.299Z</time></trkpt><trkpt lat="43.826175620449305" lon="10.92782544053813"><ele>303.0</ele><time>2026-04-12T10:08:54.299Z</time></trkpt><trkpt lat="43.8261060373687" lon="10.927867832618482"><ele>303.0</ele><time>2026-04-12T10:08:55.299Z</time></trkpt><trkpt lat="43.82604889743122" lon="10.927936579281091"><ele>303.0</ele><time>2026-04-12T10:08:56.299Z</time></trkpt><trkpt lat="43.82600629638205" lon="10.928021930783137"><ele>303.0</ele><time>2026-04-12T10:08:57.299Z</time></trkpt><trkpt lat="43.825990063437516" lon="10.928124556043715"><ele>303.0</ele><time>2026-04-12T10:08:58.299Z</time></trkpt><trkpt lat="43.82599128253903" lon="10.928229108464658"><ele>303.0</ele><time>2026-04-12T10:08:59.299Z</time></trkpt><trkpt lat="43.82601261680532" lon="10.928328070341818"><ele>303.0</ele><time>2026-04-12T10:09:00.299Z</time></trkpt><trkpt lat="43.82603055950352" lon="10.928426482074334"><ele>304.14285714285717</ele><time>2026-04-12T10:09:01.299Z</time></trkpt><trkpt lat="43.826042447405285" lon="10.928526827807975"><ele>305.2857142857143</ele><time>2026-04-12T10:09:02.299Z</time></trkpt><trkpt lat="43.82605303303911" lon="10.928628486385502"><ele>306.42857142857144</ele><time>2026-04-12T10:09:03.299Z</time></trkpt><trkpt lat="43.826062087891835" lon="10.928730050629431"><ele>307.57142857142856</ele><time>2026-04-12T10:09:04.299Z</time></trkpt><trkpt lat="43.826067682382394" lon="10.92883247088002"><ele>308.7142857142857</ele><time>2026-04-12T10:09:05.299Z</time></trkpt><trkpt lat="43.82608200520454" lon="10.928935584330453"><ele>309.85714285714283</ele><time>2026-04-12T10:09:06.299Z</time></trkpt><trkpt lat="43.82609803037558" lon="10.929037836192904"><ele>311.0</ele><time>2026-04-12T10:09:07.299Z</time></trkpt><trkpt lat="43.82610669266258" lon="10.929138976213823"><ele>311.2857142857143</ele><time>2026-04-12T10:09:08.299Z</time></trkpt><trkpt lat="43.826119381727494" lon="10.929236419281098"><ele>311.5714285714286</ele><time>2026-04-12T10:09:09.299Z</time></trkpt><trkpt lat="43.82613363895356" lon="10.929338621430793"><ele>311.8571428571429</ele><time>2026-04-12T10:09:10.299Z</time></trkpt><trkpt lat="43.82614415550492" lon="10.929437315133098"><ele>312.1428571428571</ele><time>2026-04-12T10:09:11.299Z</time></trkpt><trkpt lat="43.82613671553137" lon="10.929540373711"><ele>312.42857142857144</ele><time>2026-04-12T10:09:12.299Z</time></trkpt><trkpt lat="43.82615651158253" lon="10.929641726488613"><ele>312.7142857142857</ele><time>2026-04-12T10:09:13.299Z</time></trkpt><trkpt lat="43.826142770463356" lon="10.929742197367679"><ele>313.0</ele><time>2026-04-12T10:09:14.299Z</time></trkpt><trkpt lat="43.82611171928297" lon="10.929839886244112"><ele>313.0</ele><time>2026-04-12T10:09:15.299Z</time></trkpt><trkpt lat="43.826058977612064" lon="10.929922082326204"><ele>313.0</ele><time>2026-04-12T10:09:16.299Z</time></trkpt><trkpt lat="43.82597708354297" lon="10.929942341485237"><ele>313.0</ele><time>2026-04-12T10:09:17.299Z</time></trkpt><trkpt lat="43.825901767416426" lon="10.929958071609528"><ele>313.0</ele><time>2026-04-12T10:09:18.299Z</time></trkpt><trkpt lat="43.82583140344221" lon="10.92996899202933"><ele>313.0</ele><time>2026-04-12T10:09:19.299Z</time></trkpt><trkpt lat="43.82576698325015" lon="10.929917197179662"><ele>313.0</ele><time>2026-04-12T10:09:20.299Z</time></trkpt><trkpt lat="43.82573379696012" lon="10.929832496481042"><ele>310.0</ele><time>2026-04-12T10:09:21.299Z</time></trkpt><trkpt lat="43.82570542364641" lon="10.92974972184303"><ele>307.0</ele><time>2026-04-12T10:09:22.299Z</time></trkpt><trkpt lat="43.82567759634262" lon="10.929667870393807"><ele>304.0</ele><time>2026-04-12T10:09:23.299Z</time></trkpt><trkpt lat="43.82561713228216" lon="10.929526739467697"><ele>301.0</ele><time>2026-04-12T10:09:25.299Z</time></trkpt><trkpt lat="43.8255598258489" lon="10.929399182947561"><ele>298.0</ele><time>2026-04-12T10:09:27.299Z</time></trkpt><trkpt lat="43.82550881645136" lon="10.929275217750751"><ele>296.4</ele><time>2026-04-12T10:09:29.299Z</time></trkpt><trkpt lat="43.825455507177566" lon="10.929150095229968"><ele>294.8</ele><time>2026-04-12T10:09:31.299Z</time></trkpt><trkpt lat="43.8254020655135" lon="10.929039908554062"><ele>293.2</ele><time>2026-04-12T10:09:33.299Z</time></trkpt><trkpt lat="43.825348847603834" lon="10.92892761606305"><ele>291.6</ele><time>2026-04-12T10:09:35.299Z</time></trkpt><trkpt lat="43.825294208068584" lon="10.928820584904356"><ele>290.0</ele><time>2026-04-12T10:09:37.299Z</time></trkpt><trkpt lat="43.825235865757364" lon="10.928718682796008"><ele>290.0</ele><time>2026-04-12T10:09:39.299Z</time></trkpt><trkpt lat="43.82517534130733" lon="10.928622303898704"><ele>290.0</ele><time>2026-04-12T10:09:41.299Z</time></trkpt><trkpt lat="43.82511487384692" lon="10.928525631516633"><ele>290.0</ele><time>2026-04-12T10:09:43.299Z</time></trkpt><trkpt lat="43.82505345982004" lon="10.928429002998165"><ele>290.0</ele><time>2026-04-12T10:09:45.299Z</time></trkpt><trkpt lat="43.824988284937376" lon="10.928336476538984"><ele>290.0</ele><time>2026-04-12T10:09:47.299Z</time></trkpt><trkpt lat="43.824924437356614" lon="10.928251833784264"><ele>290.1666666666667</ele><time>2026-04-12T10:09:49.299Z</time></trkpt><trkpt lat="43.82485477855809" lon="10.928179084784304"><ele>290.33333333333337</ele><time>2026-04-12T10:09:51.299Z</time></trkpt><trkpt lat="43.82478744281836" lon="10.928101635224317"><ele>290.5</ele><time>2026-04-12T10:09:53.299Z</time></trkpt><trkpt lat="43.82471678695269" lon="10.928037534812615"><ele>290.6666666666667</ele><time>2026-04-12T10:09:55.299Z</time></trkpt><trkpt lat="43.82464670876602" lon="10.927979520219012"><ele>290.8333333333333</ele><time>2026-04-12T10:09:57.299Z</time></trkpt><trkpt lat="43.82456726336076" lon="10.927949806884461"><ele>291.0</ele><time>2026-04-12T10:09:59.299Z</time></trkpt><trkpt lat="43.82448374976295" lon="10.927951115000587"><ele>291.0</ele><time>2026-04-12T10:10:01.299Z</time></trkpt><trkpt lat="43.824401164384255" lon="10.927981919504413"><ele>291.0</ele><time>2026-04-12T10:10:03.299Z</time></trkpt><trkpt lat="43.824323698356544" lon="10.928030274165048"><ele>291.0</ele><time>2026-04-12T10:10:05.299Z</time></trkpt><trkpt lat="43.82423910477962" lon="10.928064815277725"><ele>291.0</ele><time>2026-04-12T10:10:07.297Z</time></trkpt><trkpt lat="43.824149966655824" lon="10.928057237819575"><ele>291.0</ele><time>2026-04-12T10:10:09.297Z</time></trkpt><trkpt lat="43.82407626198983" lon="10.927982981295223"><ele>291.0</ele><time>2026-04-12T10:10:11.297Z</time></trkpt><trkpt lat="43.82401980726475" lon="10.92788318427889"><ele>290.8</ele><time>2026-04-12T10:10:13.297Z</time></trkpt><trkpt lat="43.823969936426934" lon="10.927775349866021"><ele>290.6</ele><time>2026-04-12T10:10:15.297Z</time></trkpt><trkpt lat="43.82392349006342" lon="10.927662725011295"><ele>290.4</ele><time>2026-04-12T10:10:17.297Z</time></trkpt><trkpt lat="43.82388275639659" lon="10.927544937503214"><ele>290.2</ele><time>2026-04-12T10:10:19.297Z</time></trkpt><trkpt lat="43.82384669804026" lon="10.927430995061867"><ele>290.0</ele><time>2026-04-12T10:10:21.297Z</time></trkpt><trkpt lat="43.823819540105994" lon="10.927313411356334"><ele>290.0</ele><time>2026-04-12T10:10:23.297Z</time></trkpt><trkpt lat="43.82379252546491" lon="10.92719796539805"><ele>290.0</ele><time>2026-04-12T10:10:25.297Z</time></trkpt><trkpt lat="43.82375104576052" lon="10.92708475928345"><ele>290.0</ele><time>2026-04-12T10:10:27.297Z</time></trkpt><trkpt lat="43.82370260819457" lon="10.926977414409285"><ele>290.0</ele><time>2026-04-12T10:10:29.297Z</time></trkpt><trkpt lat="43.82364327858937" lon="10.92687030631254"><ele>290.0</ele><time>2026-04-12T10:10:31.297Z</time></trkpt><trkpt lat="43.82357918363461" lon="10.926762819975398"><ele>292.2</ele><time>2026-04-12T10:10:33.297Z</time></trkpt><trkpt lat="43.82351754015391" lon="10.926661460031536"><ele>294.4</ele><time>2026-04-12T10:10:35.297Z</time></trkpt><trkpt lat="43.823451650090526" lon="10.926568194876523"><ele>296.6</ele><time>2026-04-12T10:10:37.297Z</time></trkpt><trkpt lat="43.82339448302082" lon="10.92647284144245"><ele>298.8</ele><time>2026-04-12T10:10:39.297Z</time></trkpt><trkpt lat="43.82333426984145" lon="10.926380962245158"><ele>301.0</ele><time>2026-04-12T10:10:41.297Z</time></trkpt><trkpt lat="43.823268496378375" lon="10.92630112715696"><ele>301.0</ele><time>2026-04-12T10:10:43.297Z</time></trkpt><trkpt lat="43.82319569074304" lon="10.9262261244463"><ele>301.0</ele><time>2026-04-12T10:10:45.297Z</time></trkpt><trkpt lat="43.823119524646444" lon="10.926147600955852"><ele>301.0</ele><time>2026-04-12T10:10:47.297Z</time></trkpt><trkpt lat="43.823046849549456" lon="10.926048213327947"><ele>301.0</ele><time>2026-04-12T10:10:49.297Z</time></trkpt><trkpt lat="43.82298525990227" lon="10.925946580687564"><ele>301.0</ele><time>2026-04-12T10:10:51.297Z</time></trkpt><trkpt lat="43.822924987386195" lon="10.92585611877387"><ele>301.0</ele><time>2026-04-12T10:10:53.297Z</time></trkpt><trkpt lat="43.82286509442362" lon="10.925745612758739"><ele>301.0</ele><time>2026-04-12T10:10:55.297Z</time></trkpt><trkpt lat="43.82281580714279" lon="10.925622775722749"><ele>301.0</ele><time>2026-04-12T10:10:57.297Z</time></trkpt><trkpt lat="43.822755031797215" lon="10.92551367009236"><ele>301.0</ele><time>2026-04-12T10:10:59.297Z</time></trkpt><trkpt lat="43.82268869934436" lon="10.92540660153756"><ele>301.0</ele><time>2026-04-12T10:11:01.297Z</time></trkpt><trkpt lat="43.82262657205736" lon="10.92529999178261"><ele>301.0</ele><time>2026-04-12T10:11:03.297Z</time></trkpt><trkpt lat="43.82256899989673" lon="10.925264176188259"><ele>301.0</ele><time>2026-04-12T10:11:04.297Z</time></trkpt><trkpt lat="43.82247326871407" lon="10.925196211822458"><ele>301.0</ele><time>2026-04-12T10:11:06.297Z</time></trkpt><trkpt lat="43.82241094785051" lon="10.925180803550623"><ele>301.0</ele><time>2026-04-12T10:11:07.297Z</time></trkpt><trkpt lat="43.8222893742635" lon="10.925187375072657"><ele>301.0</ele><time>2026-04-12T10:11:09.297Z</time></trkpt><trkpt lat="43.82217144490249" lon="10.925199094265508"><ele>301.0</ele><time>2026-04-12T10:11:11.297Z</time></trkpt><trkpt lat="43.822054205327476" lon="10.925206861427139"><ele>301.0</ele><time>2026-04-12T10:11:13.297Z</time></trkpt><trkpt lat="43.82193477168455" lon="10.925224310097722"><ele>301.0</ele><time>2026-04-12T10:11:15.297Z</time></trkpt><trkpt lat="43.82182028602507" lon="10.925273215287802"><ele>301.0</ele><time>2026-04-12T10:11:17.297Z</time></trkpt><trkpt lat="43.82172194998733" lon="10.925371147877435"><ele>297.75</ele><time>2026-04-12T10:11:19.297Z</time></trkpt><trkpt lat="43.82165394331666" lon="10.925508489462532"><ele>294.5</ele><time>2026-04-12T10:11:21.297Z</time></trkpt><trkpt lat="43.821586902723695" lon="10.925645422141676"><ele>291.25</ele><time>2026-04-12T10:11:23.297Z</time></trkpt><trkpt lat="43.82154239650871" lon="10.925804941045536"><ele>288.0</ele><time>2026-04-12T10:11:25.297Z</time></trkpt><trkpt lat="43.82153511185307" lon="10.925970179389692"><ele>287.4</ele><time>2026-04-12T10:11:27.297Z</time></trkpt><trkpt lat="43.82153931755377" lon="10.926057707392399"><ele>286.8</ele><time>2026-04-12T10:11:28.297Z</time></trkpt><trkpt lat="43.82155374406237" lon="10.92621990016633"><ele>286.2</ele><time>2026-04-12T10:11:30.297Z</time></trkpt><trkpt lat="43.82157669521244" lon="10.92637639252069"><ele>285.6</ele><time>2026-04-12T10:11:32.297Z</time></trkpt><trkpt lat="43.82162395232303" lon="10.92650613594005"><ele>285.0</ele><time>2026-04-12T10:11:34.297Z</time></trkpt><trkpt lat="43.82169508818417" lon="10.926617021613831"><ele>285.0</ele><time>2026-04-12T10:11:36.297Z</time></trkpt><trkpt lat="43.82177951037004" lon="10.926709846188317"><ele>285.0</ele><time>2026-04-12T10:11:38.297Z</time></trkpt><trkpt lat="43.82186382081454" lon="10.92680745625972"><ele>285.0</ele><time>2026-04-12T10:11:40.297Z</time></trkpt><trkpt lat="43.821947439148595" lon="10.926909096571968"><ele>285.0</ele><time>2026-04-12T10:11:42.297Z</time></trkpt><trkpt lat="43.82203025727483" lon="10.927015358787628"><ele>285.0</ele><time>2026-04-12T10:11:44.297Z</time></trkpt><trkpt lat="43.822074944311126" lon="10.92715841262911"><ele>286.5</ele><time>2026-04-12T10:11:46.297Z</time></trkpt><trkpt lat="43.82206936662961" lon="10.927316426074619"><ele>288.0</ele><time>2026-04-12T10:11:48.297Z</time></trkpt><trkpt lat="43.821996623778276" lon="10.927440241977653"><ele>289.5</ele><time>2026-04-12T10:11:50.297Z</time></trkpt><trkpt lat="43.82188484832052" lon="10.927496699280939"><ele>291.0</ele><time>2026-04-12T10:11:52.297Z</time></trkpt><trkpt lat="43.821766602857835" lon="10.92751305561136"><ele>291.0</ele><time>2026-04-12T10:11:54.297Z</time></trkpt><trkpt lat="43.82165113804118" lon="10.927528722097312"><ele>291.0</ele><time>2026-04-12T10:11:56.297Z</time></trkpt><trkpt lat="43.82153440761924" lon="10.927545853666428"><ele>291.0</ele><time>2026-04-12T10:11:58.297Z</time></trkpt><trkpt lat="43.821417931524984" lon="10.927557345503963"><ele>291.0</ele><time>2026-04-12T10:12:00.297Z</time></trkpt><trkpt lat="43.82131545101434" lon="10.927623634372392"><ele>294.75</ele><time>2026-04-12T10:12:02.297Z</time></trkpt><trkpt lat="43.82125468223886" lon="10.92776021435317"><ele>298.5</ele><time>2026-04-12T10:12:04.297Z</time></trkpt><trkpt lat="43.82124546380531" lon="10.927928782404468"><ele>302.25</ele><time>2026-04-12T10:12:06.297Z</time></trkpt><trkpt lat="43.821248023704065" lon="10.928099551595668"><ele>306.0</ele><time>2026-04-12T10:12:08.297Z</time></trkpt><trkpt lat="43.821246077467634" lon="10.92827408720156"><ele>306.0</ele><time>2026-04-12T10:12:10.297Z</time></trkpt><trkpt lat="43.82124410372585" lon="10.928365376452415"><ele>306.0</ele><time>2026-04-12T10:12:11.297Z</time></trkpt><trkpt lat="43.82121957605923" lon="10.928450390274122"><ele>306.0</ele><time>2026-04-12T10:12:12.296Z</time></trkpt><trkpt lat="43.82117407206186" lon="10.92851702262387"><ele>306.0</ele><time>2026-04-12T10:12:13.296Z</time></trkpt><trkpt lat="43.821103029196465" lon="10.928539373208306"><ele>306.0</ele><time>2026-04-12T10:12:14.296Z</time></trkpt><trkpt lat="43.82103201405346" lon="10.928511265118695"><ele>306.0</ele><time>2026-04-12T10:12:15.296Z</time></trkpt><trkpt lat="43.820973088012416" lon="10.928455998784228"><ele>306.0</ele><time>2026-04-12T10:12:16.296Z</time></trkpt><trkpt lat="43.82092284120281" lon="10.928389706615421"><ele>305.2857142857143</ele><time>2026-04-12T10:12:17.296Z</time></trkpt><trkpt lat="43.8208710541473" lon="10.92832838962499"><ele>304.57142857142856</ele><time>2026-04-12T10:12:18.296Z</time></trkpt><trkpt lat="43.82082175681163" lon="10.928263608215797"><ele>303.8571428571429</ele><time>2026-04-12T10:12:19.296Z</time></trkpt><trkpt lat="43.820770701184315" lon="10.928198137123472"><ele>303.1428571428571</ele><time>2026-04-12T10:12:20.296Z</time></trkpt><trkpt lat="43.82071907031531" lon="10.928135330318783"><ele>302.42857142857144</ele><time>2026-04-12T10:12:21.296Z</time></trkpt><trkpt lat="43.820671034515726" lon="10.928065399050032"><ele>301.7142857142857</ele><time>2026-04-12T10:12:22.296Z</time></trkpt><trkpt lat="43.82062360638059" lon="10.927991019545363"><ele>301.0</ele><time>2026-04-12T10:12:23.296Z</time></trkpt><trkpt lat="43.820594102367785" lon="10.927900755331475"><ele>301.0</ele><time>2026-04-12T10:12:24.296Z</time></trkpt><trkpt lat="43.82053992984693" lon="10.927832315931466"><ele>301.0</ele><time>2026-04-12T10:12:25.296Z</time></trkpt><trkpt lat="43.82050380041389" lon="10.927744903991496"><ele>301.0</ele><time>2026-04-12T10:12:26.296Z</time></trkpt><trkpt lat="43.820475517130994" lon="10.927651960219222"><ele>301.0</ele><time>2026-04-12T10:12:27.296Z</time></trkpt><trkpt lat="43.820452851809456" lon="10.927553152050457"><ele>301.0</ele><time>2026-04-12T10:12:28.296Z</time></trkpt><trkpt lat="43.82042859182301" lon="10.927457942284756"><ele>301.0</ele><time>2026-04-12T10:12:29.296Z</time></trkpt><trkpt lat="43.82040928670299" lon="10.927362298488262"><ele>301.0</ele><time>2026-04-12T10:12:30.296Z</time></trkpt><trkpt lat="43.820397556311384" lon="10.927260794551099"><ele>299.42857142857144</ele><time>2026-04-12T10:12:31.296Z</time></trkpt><trkpt lat="43.82036534392991" lon="10.927171778200291"><ele>297.8571428571429</ele><time>2026-04-12T10:12:32.296Z</time></trkpt><trkpt lat="43.8203273458153" lon="10.92708529087683"><ele>296.2857142857143</ele><time>2026-04-12T10:12:33.296Z</time></trkpt><trkpt lat="43.820277909582344" lon="10.927009199019192"><ele>294.7142857142857</ele><time>2026-04-12T10:12:34.296Z</time></trkpt><trkpt lat="43.82024152680673" lon="10.92692357387823"><ele>293.14285714285717</ele><time>2026-04-12T10:12:35.296Z</time></trkpt><trkpt lat="43.82019943765253" lon="10.926842250055234"><ele>291.57142857142856</ele><time>2026-04-12T10:12:36.296Z</time></trkpt><trkpt lat="43.820160377469676" lon="10.926757033549757"><ele>290.0</ele><time>2026-04-12T10:12:37.296Z</time></trkpt><trkpt lat="43.820121708635135" lon="10.926670415747395"><ele>290.0</ele><time>2026-04-12T10:12:38.296Z</time></trkpt><trkpt lat="43.82008662901519" lon="10.926580031615389"><ele>290.0</ele><time>2026-04-12T10:12:39.296Z</time></trkpt><trkpt lat="43.82004948282118" lon="10.926490140865702"><ele>290.0</ele><time>2026-04-12T10:12:40.296Z</time></trkpt><trkpt lat="43.82000820713188" lon="10.926402759524553"><ele>290.0</ele><time>2026-04-12T10:12:41.296Z</time></trkpt><trkpt lat="43.819966038194316" lon="10.926315777363122"><ele>290.0</ele><time>2026-04-12T10:12:42.296Z</time></trkpt><trkpt lat="43.81993193472292" lon="10.926226416807623"><ele>290.0</ele><time>2026-04-12T10:12:43.296Z</time></trkpt><trkpt lat="43.81989515122996" lon="10.926138574995475"><ele>290.0</ele><time>2026-04-12T10:12:44.296Z</time></trkpt><trkpt lat="43.81983734801341" lon="10.926014052598996"><ele>290.0</ele><time>2026-04-12T10:12:46.296Z</time></trkpt><trkpt lat="43.81980128517923" lon="10.925926396064936"><ele>290.0</ele><time>2026-04-12T10:12:49.296Z</time></trkpt><trkpt lat="43.81975397810997" lon="10.925854192365353"><ele>290.0</ele><time>2026-04-12T10:13:07.296Z</time></trkpt><trkpt lat="43.81969539508728" lon="10.925788435882028"><ele>290.0</ele><time>2026-04-12T10:13:09.296Z</time></trkpt><trkpt lat="43.819645950940796" lon="10.925687740481804"><ele>290.0</ele><time>2026-04-12T10:13:11.296Z</time></trkpt><trkpt lat="43.81958138983796" lon="10.925609994700213"><ele>290.0</ele><time>2026-04-12T10:13:13.296Z</time></trkpt><trkpt lat="43.819523161500186" lon="10.925517454946396"><ele>286.5</ele><time>2026-04-12T10:13:15.296Z</time></trkpt><trkpt lat="43.8194701016927" lon="10.92542701008696"><ele>283.0</ele><time>2026-04-12T10:13:17.296Z</time></trkpt><trkpt lat="43.819439362371156" lon="10.925327654444768"><ele>279.5</ele><time>2026-04-12T10:13:19.296Z</time></trkpt><trkpt lat="43.81948001800461" lon="10.92520496306682"><ele>276.0</ele><time>2026-04-12T10:13:21.296Z</time></trkpt><trkpt lat="43.8194888751886" lon="10.925073656867053"><ele>272.5</ele><time>2026-04-12T10:13:23.296Z</time></trkpt><trkpt lat="43.819512993553005" lon="10.924959622768103"><ele>269.0</ele><time>2026-04-12T10:13:25.296Z</time></trkpt><trkpt lat="43.81954250361402" lon="10.92484040782724"><ele>266.0</ele><time>2026-04-12T10:13:27.296Z</time></trkpt><trkpt lat="43.819570988266406" lon="10.924703412013104"><ele>263.0</ele><time>2026-04-12T10:13:29.296Z</time></trkpt><trkpt lat="43.81954309660545" lon="10.924545374124284"><ele>260.0</ele><time>2026-04-12T10:13:31.296Z</time></trkpt><trkpt lat="43.819506060459354" lon="10.924406891782384"><ele>257.0</ele><time>2026-04-12T10:13:33.296Z</time></trkpt><trkpt lat="43.8194641101973" lon="10.92427146943736"><ele>254.0</ele><time>2026-04-12T10:13:35.296Z</time></trkpt><trkpt lat="43.81942755313917" lon="10.924155650373843"><ele>253.0</ele><time>2026-04-12T10:13:37.296Z</time></trkpt><trkpt lat="43.81938637527912" lon="10.924033497882352"><ele>251.99999999999997</ele><time>2026-04-12T10:13:39.296Z</time></trkpt><trkpt lat="43.8193388734635" lon="10.923908887429484"><ele>250.99999999999997</ele><time>2026-04-12T10:13:41.296Z</time></trkpt><trkpt lat="43.819278988940304" lon="10.92378330726337"><ele>250.0</ele><time>2026-04-12T10:13:43.296Z</time></trkpt><trkpt lat="43.81921453151033" lon="10.923672407697758"><ele>249.0</ele><time>2026-04-12T10:13:45.296Z</time></trkpt><trkpt lat="43.819147293533504" lon="10.923595475874535"><ele>250.33333333333334</ele><time>2026-04-12T10:13:47.296Z</time></trkpt><trkpt lat="43.81908361821381" lon="10.923516868624429"><ele>251.66666666666669</ele><time>2026-04-12T10:13:49.296Z</time></trkpt><trkpt lat="43.81904694934991" lon="10.923433645161966"><ele>253.0</ele><time>2026-04-12T10:13:51.296Z</time></trkpt><trkpt lat="43.8190259378222" lon="10.92332210892261"><ele>254.33333333333334</ele><time>2026-04-12T10:13:53.296Z</time></trkpt><trkpt lat="43.818998301104585" lon="10.92323496275836"><ele>255.66666666666669</ele><time>2026-04-12T10:13:55.296Z</time></trkpt><trkpt lat="43.818981597566065" lon="10.923122557011014"><ele>257.0</ele><time>2026-04-12T10:13:57.296Z</time></trkpt><trkpt lat="43.81895158984256" lon="10.923020076620501"><ele>257.0</ele><time>2026-04-12T10:13:59.296Z</time></trkpt><trkpt lat="43.81891685585194" lon="10.922906040323065"><ele>257.0</ele><time>2026-04-12T10:14:01.296Z</time></trkpt><trkpt lat="43.818896880993336" lon="10.922793631004847"><ele>257.0</ele><time>2026-04-12T10:14:03.296Z</time></trkpt><trkpt lat="43.81890550397399" lon="10.922661790674212"><ele>257.0</ele><time>2026-04-12T10:14:05.296Z</time></trkpt><trkpt lat="43.81887440938372" lon="10.922532780944557"><ele>257.0</ele><time>2026-04-12T10:14:07.296Z</time></trkpt><trkpt lat="43.81880848384042" lon="10.922442014328272"><ele>255.00000000000003</ele><time>2026-04-12T10:14:09.296Z</time></trkpt><trkpt lat="43.818783014689004" lon="10.922358937685996"><ele>253.0</ele><time>2026-04-12T10:14:11.296Z</time></trkpt><trkpt lat="43.81873018802561" lon="10.92226636885545"><ele>251.0</ele><time>2026-04-12T10:14:14.296Z</time></trkpt><trkpt lat="43.81873229947901" lon="10.922174768189578"><ele>249.0</ele><time>2026-04-12T10:14:16.296Z</time></trkpt><trkpt lat="43.81873183196309" lon="10.922049833386952"><ele>247.00000000000003</ele><time>2026-04-12T10:14:18.295Z</time></trkpt><trkpt lat="43.818717262468176" lon="10.921930958342978"><ele>245.0</ele><time>2026-04-12T10:14:20.295Z</time></trkpt><trkpt lat="43.81871168052937" lon="10.921827241418155"><ele>245.00000000000003</ele><time>2026-04-12T10:14:22.295Z</time></trkpt><trkpt lat="43.81869751747716" lon="10.921736539589075"><ele>245.0</ele><time>2026-04-12T10:14:24.295Z</time></trkpt><trkpt lat="43.81868797825389" lon="10.921647217166354"><ele>245.0</ele><time>2026-04-12T10:14:26.295Z</time></trkpt><trkpt lat="43.81876699973881" lon="10.921584041699765"><ele>245.0</ele><time>2026-04-12T10:14:30.295Z</time></trkpt><trkpt lat="43.81883710534702" lon="10.921671134229419"><ele>245.00000000000003</ele><time>2026-04-12T10:14:32.295Z</time></trkpt><trkpt lat="43.8188945714386" lon="10.921727214068984"><ele>245.0</ele><time>2026-04-12T10:14:34.295Z</time></trkpt><trkpt lat="43.81894314813119" lon="10.921810024226687"><ele>245.00000000000003</ele><time>2026-04-12T10:14:37.295Z</time></trkpt><trkpt lat="43.819002206148106" lon="10.921919818132618"><ele>245.0</ele><time>2026-04-12T10:14:40.295Z</time></trkpt><trkpt lat="43.81903639898269" lon="10.92200838708539"><ele>245.0</ele><time>2026-04-12T10:14:42.295Z</time></trkpt><trkpt lat="43.81910985774832" lon="10.922035430171453"><ele>245.0</ele><time>2026-04-12T10:14:44.295Z</time></trkpt><trkpt lat="43.81917170060727" lon="10.921955579030543"><ele>245.00000000000003</ele><time>2026-04-12T10:14:46.295Z</time></trkpt><trkpt lat="43.81919335598402" lon="10.921828536489835"><ele>245.0</ele><time>2026-04-12T10:14:48.295Z</time></trkpt><trkpt lat="43.819193822117995" lon="10.921696652087562"><ele>243.16666666666669</ele><time>2026-04-12T10:14:50.295Z</time></trkpt><trkpt lat="43.81917139483346" lon="10.921607016779834"><ele>241.33333333333334</ele><time>2026-04-12T10:14:52.295Z</time></trkpt><trkpt lat="43.819147028220435" lon="10.921522342485487"><ele>239.5</ele><time>2026-04-12T10:14:54.295Z</time></trkpt><trkpt lat="43.819111453622874" lon="10.921410849309439"><ele>237.66666666666669</ele><time>2026-04-12T10:14:56.295Z</time></trkpt><trkpt lat="43.81907450737224" lon="10.921284415047714"><ele>235.83333333333334</ele><time>2026-04-12T10:14:58.295Z</time></trkpt><trkpt lat="43.819036661616394" lon="10.92114977601602"><ele>234.0</ele><time>2026-04-12T10:15:00.295Z</time></trkpt><trkpt lat="43.81899910579314" lon="10.921022058403286"><ele>232.2</ele><time>2026-04-12T10:15:02.295Z</time></trkpt><trkpt lat="43.818966252746364" lon="10.920898246419833"><ele>230.39999999999998</ele><time>2026-04-12T10:15:04.295Z</time></trkpt><trkpt lat="43.81894058124942" lon="10.920775885571537"><ele>228.6</ele><time>2026-04-12T10:15:06.295Z</time></trkpt><trkpt lat="43.81892565388322" lon="10.92063738849652"><ele>226.8</ele><time>2026-04-12T10:15:08.295Z</time></trkpt><trkpt lat="43.81891646553362" lon="10.920506520868011"><ele>225.0</ele><time>2026-04-12T10:15:10.295Z</time></trkpt><trkpt lat="43.81890344146736" lon="10.92037725738593"><ele>225.0</ele><time>2026-04-12T10:15:12.295Z</time></trkpt><trkpt lat="43.81889333714643" lon="10.920254643185848"><ele>225.0</ele><time>2026-04-12T10:15:14.295Z</time></trkpt><trkpt lat="43.81888154035673" lon="10.920137197051233"><ele>225.0</ele><time>2026-04-12T10:15:16.295Z</time></trkpt><trkpt lat="43.81886553602074" lon="10.92002254669263"><ele>225.0</ele><time>2026-04-12T10:15:18.295Z</time></trkpt><trkpt lat="43.81885152075425" lon="10.919906817043787"><ele>225.0</ele><time>2026-04-12T10:15:20.295Z</time></trkpt><trkpt lat="43.81883729232437" lon="10.919789255996017"><ele>225.0</ele><time>2026-04-12T10:15:22.295Z</time></trkpt><trkpt lat="43.818824920566094" lon="10.919682328230184"><ele>224.0</ele><time>2026-04-12T10:15:24.295Z</time></trkpt><trkpt lat="43.818834413151386" lon="10.919570040297168"><ele>223.0</ele><time>2026-04-12T10:15:26.295Z</time></trkpt><trkpt lat="43.81886514079655" lon="10.919446385798532"><ele>222.0</ele><time>2026-04-12T10:15:28.295Z</time></trkpt><trkpt lat="43.81890436274998" lon="10.91934464303998"><ele>221.0</ele><time>2026-04-12T10:15:30.295Z</time></trkpt><trkpt lat="43.81893595370616" lon="10.919257425032418"><ele>220.0</ele><time>2026-04-12T10:15:32.295Z</time></trkpt><trkpt lat="43.818976494676306" lon="10.919178300942281"><ele>219.0</ele><time>2026-04-12T10:15:34.295Z</time></trkpt><trkpt lat="43.81902467716367" lon="10.919102555463086"><ele>218.0</ele><time>2026-04-12T10:15:36.295Z</time></trkpt><trkpt lat="43.81907393196735" lon="10.919007164544059"><ele>216.99999999999997</ele><time>2026-04-12T10:15:39.295Z</time></trkpt><trkpt lat="43.81911901570136" lon="10.918908489907519"><ele>215.99999999999997</ele><time>2026-04-12T10:15:43.295Z</time></trkpt><trkpt lat="43.81917140952178" lon="10.91879284578401"><ele>215.0</ele><time>2026-04-12T10:15:46.295Z</time></trkpt><trkpt lat="43.819276508791475" lon="10.918729249440238"><ele>214.0</ele><time>2026-04-12T10:15:49.295Z</time></trkpt><trkpt lat="43.8193534954537" lon="10.91874021570511"><ele>210.85714285714286</ele><time>2026-04-12T10:15:52.295Z</time></trkpt><trkpt lat="43.81940156563924" lon="10.91881965239253"><ele>207.71428571428572</ele><time>2026-04-12T10:15:54.295Z</time></trkpt><trkpt lat="43.81943446224752" lon="10.918900958968269"><ele>204.57142857142856</ele><time>2026-04-12T10:15:56.295Z</time></trkpt><trkpt lat="43.81946650758752" lon="10.91900569421189"><ele>201.42857142857144</ele><time>2026-04-12T10:15:59.295Z</time></trkpt><trkpt lat="43.819491028984615" lon="10.91909038222214"><ele>198.28571428571428</ele><time>2026-04-12T10:16:01.295Z</time></trkpt><trkpt lat="43.81951324060551" lon="10.919172250043067"><ele>195.14285714285714</ele><time>2026-04-12T10:16:04.295Z</time></trkpt><trkpt lat="43.81956835621182" lon="10.91911749858392"><ele>192.0</ele><time>2026-04-12T10:16:09.295Z</time></trkpt><trkpt lat="43.819563553285484" lon="10.919029355395182"><ele>191.99999999999997</ele><time>2026-04-12T10:16:11.295Z</time></trkpt><trkpt lat="43.819567501936646" lon="10.918936552463379"><ele>192.0</ele><time>2026-04-12T10:16:13.295Z</time></trkpt><trkpt lat="43.8195665586842" lon="10.918840612883619"><ele>192.0</ele><time>2026-04-12T10:16:15.295Z</time></trkpt><trkpt lat="43.8195417063536" lon="10.91873109706697"><ele>192.0</ele><time>2026-04-12T10:16:18.295Z</time></trkpt><trkpt lat="43.81953269289378" lon="10.918633434715113"><ele>192.0</ele><time>2026-04-12T10:16:32.294Z</time></trkpt><trkpt lat="43.81952437054774" lon="10.91854545291772"><ele>191.99999999999997</ele><time>2026-04-12T10:16:44.294Z</time></trkpt><trkpt lat="43.819517441822796" lon="10.918445861880603"><ele>192.0</ele><time>2026-04-12T10:16:53.294Z</time></trkpt><trkpt lat="43.8195058718313" lon="10.918358828011621"><ele>193.57142857142856</ele><time>2026-04-12T10:16:56.294Z</time></trkpt><trkpt lat="43.8194900088977" lon="10.918268345642483"><ele>195.14285714285714</ele><time>2026-04-12T10:16:59.294Z</time></trkpt><trkpt lat="43.81945857459194" lon="10.918178048182298"><ele>196.71428571428572</ele><time>2026-04-12T10:17:02.294Z</time></trkpt><trkpt lat="43.81943243484711" lon="10.918077660106592"><ele>198.28571428571428</ele><time>2026-04-12T10:17:06.294Z</time></trkpt><trkpt lat="43.81939521301813" lon="10.917979227190179"><ele>199.85714285714286</ele><time>2026-04-12T10:17:10.294Z</time></trkpt><trkpt lat="43.81936576039268" lon="10.917896333937401"><ele>201.42857142857142</ele><time>2026-04-12T10:17:13.294Z</time></trkpt><trkpt lat="43.81934065764161" lon="10.917784015718787"><ele>203.0</ele><time>2026-04-12T10:17:16.294Z</time></trkpt><trkpt lat="43.819312087693945" lon="10.917693002303935"><ele>203.0</ele><time>2026-04-12T10:17:18.294Z</time></trkpt><trkpt lat="43.81927808030458" lon="10.917613466486527"><ele>203.0</ele><time>2026-04-12T10:17:20.294Z</time></trkpt><trkpt lat="43.819255537499096" lon="10.91753148837463"><ele>203.0</ele><time>2026-04-12T10:17:22.294Z</time></trkpt><trkpt lat="43.81922886274761" lon="10.917430473266949"><ele>203.0</ele><time>2026-04-12T10:17:26.294Z</time></trkpt><trkpt lat="43.8192114102588" lon="10.917309635336876"><ele>203.0</ele><time>2026-04-12T10:17:30.294Z</time></trkpt><trkpt lat="43.819191454311884" lon="10.917191631690335"><ele>203.0</ele><time>2026-04-12T10:17:33.294Z</time></trkpt><trkpt lat="43.81917049601709" lon="10.9171065210831"><ele>203.0</ele><time>2026-04-12T10:17:35.294Z</time></trkpt><trkpt lat="43.819136706429234" lon="10.917011168527896"><ele>200.50000000000003</ele><time>2026-04-12T10:17:37.294Z</time></trkpt><trkpt lat="43.819104134494935" lon="10.916912847801944"><ele>198.0</ele><time>2026-04-12T10:17:41.294Z</time></trkpt><trkpt lat="43.81907182616206" lon="10.916822850288874"><ele>195.5</ele><time>2026-04-12T10:17:45.294Z</time></trkpt><trkpt lat="43.81904154437516" lon="10.916719150971979"><ele>193.0</ele><time>2026-04-12T10:17:48.294Z</time></trkpt><trkpt lat="43.81901828851923" lon="10.916617900159878"><ele>190.5</ele><time>2026-04-12T10:17:52.294Z</time></trkpt><trkpt lat="43.818993361938126" lon="10.916518165221122"><ele>188.0</ele><time>2026-04-12T10:17:55.294Z</time></trkpt><trkpt lat="43.81895275219538" lon="10.916434918051412"><ele>185.66666666666666</ele><time>2026-04-12T10:18:13.294Z</time></trkpt><trkpt lat="43.81890767680956" lon="10.916331752369555"><ele>183.33333333333331</ele><time>2026-04-12T10:18:16.294Z</time></trkpt><trkpt lat="43.81884048342464" lon="10.916258926632555"><ele>181.0</ele><time>2026-04-12T10:18:19.294Z</time></trkpt><trkpt lat="43.81877443419997" lon="10.916184364261099"><ele>178.66666666666666</ele><time>2026-04-12T10:18:22.294Z</time></trkpt><trkpt lat="43.818717186786266" lon="10.916147965191461"><ele>176.33333333333334</ele><time>2026-04-12T10:18:24.294Z</time></trkpt><trkpt lat="43.81866696337108" lon="10.916094966631876"><ele>174.0</ele><time>2026-04-12T10:18:27.294Z</time></trkpt><trkpt lat="43.818595880131504" lon="10.91605190428955"><ele>174.0</ele><time>2026-04-12T10:18:30.293Z</time></trkpt><trkpt lat="43.81851044228977" lon="10.91604104333386"><ele>174.0</ele><time>2026-04-12T10:18:33.293Z</time></trkpt><trkpt lat="43.81842809454718" lon="10.91605691837818"><ele>174.0</ele><time>2026-04-12T10:18:36.293Z</time></trkpt><trkpt lat="43.81836322725503" lon="10.916064979870225"><ele>174.0</ele><time>2026-04-12T10:18:38.293Z</time></trkpt><trkpt lat="43.818295115191034" lon="10.916087847375781"><ele>174.0</ele><time>2026-04-12T10:18:40.293Z</time></trkpt><trkpt lat="43.81823733884095" lon="10.916133462396855"><ele>174.0</ele><time>2026-04-12T10:18:42.292Z</time></trkpt><trkpt lat="43.81818471138247" lon="10.91618183693644"><ele>174.0</ele><time>2026-04-12T10:18:44.292Z</time></trkpt><trkpt lat="43.81811821357522" lon="10.916256994254331"><ele>173.66666666666666</ele><time>2026-04-12T10:18:47.292Z</time></trkpt><trkpt lat="43.81805297347627" lon="10.91632646781776"><ele>173.33333333333334</ele><time>2026-04-12T10:18:50.292Z</time></trkpt><trkpt lat="43.81801635286562" lon="10.916406828233507"><ele>173.0</ele><time>2026-04-12T10:18:52.292Z</time></trkpt><trkpt lat="43.81800669928322" lon="10.916520202929258"><ele>172.66666666666669</ele><time>2026-04-12T10:18:54.293Z</time></trkpt><trkpt lat="43.81797847217849" lon="10.91661858682033"><ele>172.33333333333334</ele><time>2026-04-12T10:18:56.293Z</time></trkpt><trkpt lat="43.817896412709146" lon="10.916651831044916"><ele>172.0</ele><time>2026-04-12T10:18:59.293Z</time></trkpt><trkpt lat="43.817814230360625" lon="10.916605822295873"><ele>172.00000000000003</ele><time>2026-04-12T10:19:02.293Z</time></trkpt><trkpt lat="43.81775614120765" lon="10.916562809896382"><ele>172.0</ele><time>2026-04-12T10:19:04.293Z</time></trkpt><trkpt lat="43.81769759445175" lon="10.916490787963081"><ele>172.0</ele><time>2026-04-12T10:19:06.293Z</time></trkpt><trkpt lat="43.81764079448566" lon="10.916446396789935"><ele>172.0</ele><time>2026-04-12T10:19:08.293Z</time></trkpt><trkpt lat="43.81756277275037" lon="10.916401104342508"><ele>172.0</ele><time>2026-04-12T10:19:10.293Z</time></trkpt><trkpt lat="43.817487939836724" lon="10.916333997007353"><ele>172.00000000000003</ele><time>2026-04-12T10:19:12.293Z</time></trkpt><trkpt lat="43.8174272978648" lon="10.91630110392014"><ele>172.0</ele><time>2026-04-12T10:19:13.293Z</time></trkpt><trkpt lat="43.81736553788761" lon="10.91627440512557"><ele>170.57142857142858</ele><time>2026-04-12T10:19:14.293Z</time></trkpt><trkpt lat="43.8172990098333" lon="10.916262053757855"><ele>169.14285714285714</ele><time>2026-04-12T10:19:15.293Z</time></trkpt><trkpt lat="43.817239584984826" lon="10.916231716906317"><ele>167.71428571428572</ele><time>2026-04-12T10:19:16.293Z</time></trkpt><trkpt lat="43.81718588110908" lon="10.916177004150473"><ele>166.28571428571428</ele><time>2026-04-12T10:19:17.293Z</time></trkpt><trkpt lat="43.81713308983899" lon="10.916113259198347"><ele>164.85714285714286</ele><time>2026-04-12T10:19:18.293Z</time></trkpt><trkpt lat="43.81707910569799" lon="10.916056256602264"><ele>163.42857142857144</ele><time>2026-04-12T10:19:19.293Z</time></trkpt><trkpt lat="43.81701959194255" lon="10.916006407914283"><ele>162.0</ele><time>2026-04-12T10:19:20.293Z</time></trkpt><trkpt lat="43.81695647231869" lon="10.915970776876726"><ele>162.0</ele><time>2026-04-12T10:19:21.293Z</time></trkpt><trkpt lat="43.81685412664005" lon="10.91591033583225"><ele>162.0</ele><time>2026-04-12T10:19:23.293Z</time></trkpt><trkpt lat="43.81675203428724" lon="10.91591967921053"><ele>162.0</ele><time>2026-04-12T10:19:25.293Z</time></trkpt><trkpt lat="43.81667495980129" lon="10.915973357468035"><ele>162.0</ele><time>2026-04-12T10:19:27.293Z</time></trkpt><trkpt lat="43.81661240403241" lon="10.9160054909582"><ele>162.0</ele><time>2026-04-12T10:19:29.293Z</time></trkpt><trkpt lat="43.81654576926568" lon="10.915976343273108"><ele>162.0</ele><time>2026-04-12T10:19:32.293Z</time></trkpt><trkpt lat="43.816525369524115" lon="10.915820831792852"><ele>158.33333333333334</ele><time>2026-04-12T10:19:35.293Z</time></trkpt><trkpt lat="43.8164789618065" lon="10.915725352068565"><ele>154.66666666666666</ele><time>2026-04-12T10:19:38.293Z</time></trkpt><trkpt lat="43.81643551093936" lon="10.91564151870083"><ele>151.0</ele><time>2026-04-12T10:19:40.293Z</time></trkpt><trkpt lat="43.816388058032324" lon="10.915559071372392"><ele>147.33333333333331</ele><time>2026-04-12T10:19:42.293Z</time></trkpt><trkpt lat="43.81633589690304" lon="10.915473852391086"><ele>143.66666666666666</ele><time>2026-04-12T10:19:44.293Z</time></trkpt><trkpt lat="43.816288102374095" lon="10.915394742531388"><ele>140.0</ele><time>2026-04-12T10:19:46.293Z</time></trkpt><trkpt lat="43.81623025660137" lon="10.9152898760011"><ele>140.0</ele><time>2026-04-12T10:19:49.293Z</time></trkpt><trkpt lat="43.81618482327094" lon="10.915198916254704"><ele>140.0</ele><time>2026-04-12T10:19:51.293Z</time></trkpt><trkpt lat="43.81613065557148" lon="10.915086241810283"><ele>140.0</ele><time>2026-04-12T10:19:53.293Z</time></trkpt><trkpt lat="43.816062750149456" lon="10.914975258259563"><ele>140.0</ele><time>2026-04-12T10:19:55.293Z</time></trkpt><trkpt lat="43.81600557409834" lon="10.91484839713062"><ele>140.0</ele><time>2026-04-12T10:19:57.293Z</time></trkpt><trkpt lat="43.815940320142964" lon="10.914731296817852"><ele>137.83333333333331</ele><time>2026-04-12T10:19:59.293Z</time></trkpt><trkpt lat="43.815907277732855" lon="10.914643759563173"><ele>135.66666666666666</ele><time>2026-04-12T10:20:00.293Z</time></trkpt><trkpt lat="43.81586655035144" lon="10.914575788231312"><ele>133.5</ele><time>2026-04-12T10:20:01.293Z</time></trkpt><trkpt lat="43.815821453673585" lon="10.914501995093774"><ele>131.33333333333334</ele><time>2026-04-12T10:20:02.293Z</time></trkpt><trkpt lat="43.81573272388673" lon="10.914410725608098"><ele>129.16666666666669</ele><time>2026-04-12T10:20:04.293Z</time></trkpt><trkpt lat="43.815693148357695" lon="10.91431974486954"><ele>127.0</ele><time>2026-04-12T10:20:06.293Z</time></trkpt><trkpt lat="43.815646235593775" lon="10.914248354297776"><ele>125.50000000000001</ele><time>2026-04-12T10:20:08.293Z</time></trkpt><trkpt lat="43.81561470072136" lon="10.914162804664805"><ele>124.0</ele><time>2026-04-12T10:20:10.293Z</time></trkpt><trkpt lat="43.81558861916313" lon="10.914048676187884"><ele>122.5</ele><time>2026-04-12T10:20:12.293Z</time></trkpt><trkpt lat="43.81556838333101" lon="10.913947073053299"><ele>121.0</ele><time>2026-04-12T10:20:14.293Z</time></trkpt><trkpt lat="43.815513287357305" lon="10.913853579237"><ele>119.50000000000001</ele><time>2026-04-12T10:20:16.293Z</time></trkpt><trkpt lat="43.815470193028624" lon="10.913758070655213"><ele>118.0</ele><time>2026-04-12T10:20:18.293Z</time></trkpt><trkpt lat="43.81542253010649" lon="10.913645709979818"><ele>118.00000000000001</ele><time>2026-04-12T10:20:20.293Z</time></trkpt><trkpt lat="43.815383723532335" lon="10.913556802200022"><ele>118.0</ele><time>2026-04-12T10:20:22.293Z</time></trkpt><trkpt lat="43.81534770623906" lon="10.913462005218088"><ele>118.0</ele><time>2026-04-12T10:20:24.293Z</time></trkpt><trkpt lat="43.81530217700836" lon="10.913363369482044"><ele>118.0</ele><time>2026-04-12T10:20:26.293Z</time></trkpt><trkpt lat="43.81525318996111" lon="10.91324168854525"><ele>118.00000000000001</ele><time>2026-04-12T10:20:28.293Z</time></trkpt><trkpt lat="43.81521749916924" lon="10.913102926236654"><ele>118.0</ele><time>2026-04-12T10:20:30.293Z</time></trkpt><trkpt lat="43.81516962528681" lon="10.912971145632458"><ele>116.28571428571428</ele><time>2026-04-12T10:20:32.293Z</time></trkpt><trkpt lat="43.81514168903738" lon="10.912892366504442"><ele>114.57142857142858</ele><time>2026-04-12T10:20:33.293Z</time></trkpt><trkpt lat="43.8151080793599" lon="10.91279894263513"><ele>112.85714285714286</ele><time>2026-04-12T10:20:34.293Z</time></trkpt><trkpt lat="43.81506052357094" lon="10.912719798987567"><ele>111.14285714285714</ele><time>2026-04-12T10:20:35.293Z</time></trkpt><trkpt lat="43.81503802178485" lon="10.912617431014176"><ele>109.42857142857142</ele><time>2026-04-12T10:20:36.291Z</time></trkpt><trkpt lat="43.81500206847958" lon="10.912526786433487"><ele>107.71428571428572</ele><time>2026-04-12T10:20:37.291Z</time></trkpt><trkpt lat="43.81496655980454" lon="10.91243726286514"><ele>106.0</ele><time>2026-04-12T10:20:38.291Z</time></trkpt><trkpt lat="43.81492723182693" lon="10.912338110109436"><ele>104.50000000000001</ele><time>2026-04-12T10:20:39.291Z</time></trkpt><trkpt lat="43.8148870914787" lon="10.912236909152623"><ele>103.0</ele><time>2026-04-12T10:20:40.291Z</time></trkpt><trkpt lat="43.814846591665535" lon="10.91213480218799"><ele>101.5</ele><time>2026-04-12T10:20:41.291Z</time></trkpt><trkpt lat="43.81479705926312" lon="10.912041955805382"><ele>100.0</ele><time>2026-04-12T10:20:42.291Z</time></trkpt><trkpt lat="43.81476598986413" lon="10.911946410919343"><ele>98.50000000000001</ele><time>2026-04-12T10:20:43.291Z</time></trkpt><trkpt lat="43.81473978344426" lon="10.911856841687005"><ele>97.0</ele><time>2026-04-12T10:20:44.291Z</time></trkpt><trkpt lat="43.81473279848152" lon="10.911760099619318"><ele>94.8</ele><time>2026-04-12T10:20:45.291Z</time></trkpt><trkpt lat="43.814703710555165" lon="10.911681893822143"><ele>92.6</ele><time>2026-04-12T10:20:46.291Z</time></trkpt><trkpt lat="43.81462416159728" lon="10.911582223449376"><ele>90.39999999999999</ele><time>2026-04-12T10:20:48.291Z</time></trkpt><trkpt lat="43.814552799171615" lon="10.911487757978517"><ele>88.19999999999999</ele><time>2026-04-12T10:20:50.291Z</time></trkpt><trkpt lat="43.81446106157929" lon="10.911375305956831"><ele>86.0</ele><time>2026-04-12T10:20:52.291Z</time></trkpt><trkpt lat="43.81442894691381" lon="10.911293586628657"><ele>86.00000000000001</ele><time>2026-04-12T10:20:53.291Z</time></trkpt><trkpt lat="43.814385156421764" lon="10.911223593639344"><ele>86.0</ele><time>2026-04-12T10:20:54.291Z</time></trkpt><trkpt lat="43.81434039269692" lon="10.911151966708902"><ele>86.0</ele><time>2026-04-12T10:20:55.291Z</time></trkpt><trkpt lat="43.81429509812531" lon="10.911079490274457"><ele>86.0</ele><time>2026-04-12T10:20:56.291Z</time></trkpt><trkpt lat="43.81424801014376" lon="10.911004144225151"><ele>86.0</ele><time>2026-04-12T10:20:57.291Z</time></trkpt><trkpt lat="43.8142008952045" lon="10.910928755130714"><ele>86.00000000000001</ele><time>2026-04-12T10:20:58.291Z</time></trkpt><trkpt lat="43.81415289211741" lon="10.910851944721484"><ele>86.0</ele><time>2026-04-12T10:20:59.291Z</time></trkpt><trkpt lat="43.81410640243909" lon="10.910777556114482"><ele>86.57142857142858</ele><time>2026-04-12T10:21:00.291Z</time></trkpt><trkpt lat="43.81405875379664" lon="10.910702325436933"><ele>87.14285714285714</ele><time>2026-04-12T10:21:01.291Z</time></trkpt><trkpt lat="43.814010874088524" lon="10.910630476448128"><ele>87.71428571428572</ele><time>2026-04-12T10:21:02.291Z</time></trkpt><trkpt lat="43.81396077890182" lon="10.910556648022714"><ele>88.28571428571429</ele><time>2026-04-12T10:21:03.291Z</time></trkpt><trkpt lat="43.81391010099141" lon="10.910484936057912"><ele>88.85714285714286</ele><time>2026-04-12T10:21:04.291Z</time></trkpt><trkpt lat="43.813857273525144" lon="10.91041570106149"><ele>89.42857142857143</ele><time>2026-04-12T10:21:05.291Z</time></trkpt><trkpt lat="43.813803422364174" lon="10.91034695626658"><ele>90.0</ele><time>2026-04-12T10:21:06.291Z</time></trkpt><trkpt lat="43.81375133759742" lon="10.910282158678898"><ele>90.0</ele><time>2026-04-12T10:21:07.291Z</time></trkpt><trkpt lat="43.81369495279617" lon="10.910213726683073"><ele>90.0</ele><time>2026-04-12T10:21:08.291Z</time></trkpt><trkpt lat="43.81364478734275" lon="10.910152842887499"><ele>90.0</ele><time>2026-04-12T10:21:09.291Z</time></trkpt><trkpt lat="43.8135968937224" lon="10.91009471691261"><ele>90.0</ele><time>2026-04-12T10:21:10.291Z</time></trkpt><trkpt lat="43.81350196076052" lon="10.909987150303877"><ele>90.0</ele><time>2026-04-12T10:21:12.291Z</time></trkpt><trkpt lat="43.81340248864311" lon="10.909878103259357"><ele>90.0</ele><time>2026-04-12T10:21:14.291Z</time></trkpt><trkpt lat="43.81334876889645" lon="10.90983121107997"><ele>90.0</ele><time>2026-04-12T10:21:15.291Z</time></trkpt><trkpt lat="43.81324560699659" lon="10.909760951692219"><ele>90.0</ele><time>2026-04-12T10:21:17.291Z</time></trkpt><trkpt lat="43.813152007890096" lon="10.909685044702774"><ele>90.0</ele><time>2026-04-12T10:21:19.291Z</time></trkpt><trkpt lat="43.81305957314046" lon="10.909615958770894"><ele>90.0</ele><time>2026-04-12T10:21:21.291Z</time></trkpt><trkpt lat="43.81297810672442" lon="10.909544193332657"><ele>90.0</ele><time>2026-04-12T10:21:23.291Z</time></trkpt><trkpt lat="43.81289010610299" lon="10.909465199564455"><ele>90.0</ele><time>2026-04-12T10:21:25.291Z</time></trkpt><trkpt lat="43.81277218763945" lon="10.909424265431413"><ele>90.0</ele><time>2026-04-12T10:21:27.291Z</time></trkpt><trkpt lat="43.81266521312113" lon="10.909440810843202"><ele>90.0</ele><time>2026-04-12T10:21:29.291Z</time></trkpt><trkpt lat="43.812617499012994" lon="10.909506110388019"><ele>90.0</ele><time>2026-04-12T10:21:30.291Z</time></trkpt><trkpt lat="43.812601410644184" lon="10.909621177568507"><ele>90.0</ele><time>2026-04-12T10:21:31.291Z</time></trkpt><trkpt lat="43.81265197525538" lon="10.909743584885126"><ele>90.0</ele><time>2026-04-12T10:21:32.291Z</time></trkpt><trkpt lat="43.81267387111111" lon="10.909842184816029"><ele>90.0</ele><time>2026-04-12T10:21:33.291Z</time></trkpt><trkpt lat="43.812693799652855" lon="10.909940981462926"><ele>90.0</ele><time>2026-04-12T10:21:34.291Z</time></trkpt><trkpt lat="43.81269771479597" lon="10.910052822369662"><ele>90.0</ele><time>2026-04-12T10:21:35.291Z</time></trkpt><trkpt lat="43.8127145068901" lon="10.91016128633266"><ele>90.0</ele><time>2026-04-12T10:21:36.291Z</time></trkpt><trkpt lat="43.81274044206574" lon="10.910260240804869"><ele>90.5</ele><time>2026-04-12T10:21:37.291Z</time></trkpt><trkpt lat="43.81275670838077" lon="10.910423053757231"><ele>91.0</ele><time>2026-04-12T10:21:39.291Z</time></trkpt><trkpt lat="43.81276804823957" lon="10.910545828721645"><ele>91.5</ele><time>2026-04-12T10:21:41.291Z</time></trkpt><trkpt lat="43.812805783202485" lon="10.910640629878431"><ele>92.0</ele><time>2026-04-12T10:21:43.291Z</time></trkpt><trkpt lat="43.81274488996081" lon="10.910686151314211"><ele>92.5</ele><time>2026-04-12T10:21:46.291Z</time></trkpt><trkpt lat="43.812714530773086" lon="10.910594943717184"><ele>93.0</ele><time>2026-04-12T10:21:48.291Z</time></trkpt><trkpt lat="43.812657674941406" lon="10.910470588823081"><ele>91.5</ele><time>2026-04-12T10:21:50.291Z</time></trkpt><trkpt lat="43.81261668316181" lon="10.910399466845972"><ele>90.0</ele><time>2026-04-12T10:21:51.291Z</time></trkpt><trkpt lat="43.81257475454691" lon="10.910323383627372"><ele>88.5</ele><time>2026-04-12T10:21:52.291Z</time></trkpt><trkpt lat="43.812537755584806" lon="10.910252109681714"><ele>87.0</ele><time>2026-04-12T10:21:53.291Z</time></trkpt><trkpt lat="43.8124996758888" lon="10.910174917404222"><ele>85.5</ele><time>2026-04-12T10:21:54.291Z</time></trkpt><trkpt lat="43.81243780620823" lon="10.910053306740677"><ele>84.0</ele><time>2026-04-12T10:21:56.291Z</time></trkpt><trkpt lat="43.81238311996053" lon="10.909947103277979"><ele>82.83333333333333</ele><time>2026-04-12T10:21:58.291Z</time></trkpt><trkpt lat="43.81232964294018" lon="10.909851609580787"><ele>81.66666666666667</ele><time>2026-04-12T10:22:00.291Z</time></trkpt><trkpt lat="43.81227786715326" lon="10.909775233257337"><ele>80.5</ele><time>2026-04-12T10:22:02.291Z</time></trkpt><trkpt lat="43.81222315889939" lon="10.909712270653865"><ele>79.33333333333334</ele><time>2026-04-12T10:22:04.291Z</time></trkpt><trkpt lat="43.8121647158789" lon="10.909671520692386"><ele>78.16666666666667</ele><time>2026-04-12T10:22:06.291Z</time></trkpt><trkpt lat="43.8121060226613" lon="10.909628380908273"><ele>77.0</ele><time>2026-04-12T10:22:08.291Z</time></trkpt><trkpt lat="43.81203689283421" lon="10.909518951464413"><ele>77.0</ele><time>2026-04-12T10:22:10.291Z</time></trkpt><trkpt lat="43.81199119823256" lon="10.909401334168493"><ele>77.0</ele><time>2026-04-12T10:22:12.291Z</time></trkpt><trkpt lat="43.81194071318944" lon="10.90927290808362"><ele>77.0</ele><time>2026-04-12T10:22:14.291Z</time></trkpt><trkpt lat="43.81190374965919" lon="10.909121264832706"><ele>77.0</ele><time>2026-04-12T10:22:16.291Z</time></trkpt><trkpt lat="43.81185312229961" lon="10.908967734221669"><ele>77.0</ele><time>2026-04-12T10:22:18.291Z</time></trkpt><trkpt lat="43.81180631097443" lon="10.908811589606293"><ele>75.2</ele><time>2026-04-12T10:22:20.291Z</time></trkpt><trkpt lat="43.811755558202684" lon="10.908653290187791"><ele>73.4</ele><time>2026-04-12T10:22:22.291Z</time></trkpt><trkpt lat="43.81169717953862" lon="10.908503981415787"><ele>71.6</ele><time>2026-04-12T10:22:24.291Z</time></trkpt><trkpt lat="43.81162906444561" lon="10.908384331248714"><ele>69.8</ele><time>2026-04-12T10:22:26.291Z</time></trkpt><trkpt lat="43.81157991280459" lon="10.908294810404845"><ele>68.0</ele><time>2026-04-12T10:22:28.291Z</time></trkpt><trkpt lat="43.811545173564625" lon="10.908219920814439"><ele>68.0</ele><time>2026-04-12T10:22:30.291Z</time></trkpt><trkpt lat="43.81139566548793" lon="10.908303088863693"><ele>68.0</ele><time>2026-04-12T10:22:37.291Z</time></trkpt><trkpt lat="43.81135093097264" lon="10.908375086135772"><ele>68.0</ele><time>2026-04-12T10:22:40.292Z</time></trkpt><trkpt lat="43.81130569348259" lon="10.908438622649179"><ele>68.0</ele><time>2026-04-12T10:22:43.29Z</time></trkpt><trkpt lat="43.811272631468114" lon="10.908519398432801"><ele>68.0</ele><time>2026-04-12T10:22:46.29Z</time></trkpt><trkpt lat="43.81121219567815" lon="10.908553250594679"><ele>68.0</ele><time>2026-04-12T10:22:49.29Z</time></trkpt><trkpt lat="43.81120039313661" lon="10.9086509631444"><ele>68.0</ele><time>2026-04-12T10:22:52.29Z</time></trkpt><trkpt lat="43.81120595621496" lon="10.908766238044104"><ele>68.0</ele><time>2026-04-12T10:22:55.29Z</time></trkpt><trkpt lat="43.81118794497831" lon="10.908861660006595"><ele>68.0</ele><time>2026-04-12T10:22:58.29Z</time></trkpt><trkpt lat="43.811119339286805" lon="10.908926164086623"><ele>68.0</ele><time>2026-04-12T10:23:02.29Z</time></trkpt><trkpt lat="43.81106085264241" lon="10.908974630546869"><ele>68.0</ele><time>2026-04-12T10:23:05.29Z</time></trkpt><trkpt lat="43.811028832710385" lon="10.909055143574307"><ele>68.0</ele><time>2026-04-12T10:23:09.29Z</time></trkpt><trkpt lat="43.81102980206835" lon="10.909166891741934"><ele>68.5</ele><time>2026-04-12T10:23:13.29Z</time></trkpt><trkpt lat="43.811029125929586" lon="10.909276252982325"><ele>69.0</ele><time>2026-04-12T10:23:17.29Z</time></trkpt><trkpt lat="43.81102754484667" lon="10.909384835225463"><ele>69.5</ele><time>2026-04-12T10:23:21.29Z</time></trkpt><trkpt lat="43.811018894053376" lon="10.90949425165359"><ele>70.0</ele><time>2026-04-12T10:23:25.29Z</time></trkpt><trkpt lat="43.81100863670816" lon="10.909593768995228"><ele>70.5</ele><time>2026-04-12T10:23:29.29Z</time></trkpt><trkpt lat="43.810987595068944" lon="10.909691612672784"><ele>71.0</ele><time>2026-04-12T10:23:33.29Z</time></trkpt><trkpt lat="43.81095280846915" lon="10.909772862298285"><ele>71.0</ele><time>2026-04-12T10:23:37.29Z</time></trkpt><trkpt lat="43.810926850319376" lon="10.909855654953436"><ele>71.0</ele><time>2026-04-12T10:23:41.29Z</time></trkpt><trkpt lat="43.81095190686207" lon="10.909740195867295"><ele>71.0</ele><time>2026-04-12T10:24:25.29Z</time></trkpt><trkpt lat="43.81097662199835" lon="10.909621401728048"><ele>71.0</ele><time>2026-04-12T10:24:27.29Z</time></trkpt><trkpt lat="43.81100335334339" lon="10.909508509526955"><ele>71.0</ele><time>2026-04-12T10:24:30.29Z</time></trkpt><trkpt lat="43.81100821496082" lon="10.909407707360264"><ele>71.0</ele><time>2026-04-12T10:24:33.29Z</time></trkpt><trkpt lat="43.81101717220961" lon="10.90930844528054"><ele>70.5</ele><time>2026-04-12T10:24:36.29Z</time></trkpt><trkpt lat="43.811019948512495" lon="10.909204055901267"><ele>70.0</ele><time>2026-04-12T10:24:39.29Z</time></trkpt><trkpt lat="43.8110333871881" lon="10.909072321069926"><ele>69.5</ele><time>2026-04-12T10:24:42.29Z</time></trkpt><trkpt lat="43.81107796926184" lon="10.908952543352962"><ele>69.0</ele><time>2026-04-12T10:24:45.29Z</time></trkpt><trkpt lat="43.811136825566855" lon="10.908884071831086"><ele>68.5</ele><time>2026-04-12T10:24:47.29Z</time></trkpt><trkpt lat="43.811193766451396" lon="10.908832137096503"><ele>68.0</ele><time>2026-04-12T10:24:50.289Z</time></trkpt><trkpt lat="43.8112112857881" lon="10.908711173342693"><ele>67.99999999999999</ele><time>2026-04-12T10:24:53.289Z</time></trkpt><trkpt lat="43.81119866480674" lon="10.908598347601542"><ele>68.0</ele><time>2026-04-12T10:24:56.289Z</time></trkpt><trkpt lat="43.81123010123686" lon="10.908520272419237"><ele>68.0</ele><time>2026-04-12T10:24:59.289Z</time></trkpt><trkpt lat="43.81130256566704" lon="10.90849649230017"><ele>68.0</ele><time>2026-04-12T10:25:03.289Z</time></trkpt><trkpt lat="43.811331383228506" lon="10.908609021212873"><ele>68.0</ele><time>2026-04-12T10:25:09.289Z</time></trkpt><trkpt lat="43.81133020381456" lon="10.908700994477625"><ele>67.99999999999999</ele><time>2026-04-12T10:25:12.289Z</time></trkpt><trkpt lat="43.81133971637752" lon="10.90880258781019"><ele>68.0</ele><time>2026-04-12T10:25:17.289Z</time></trkpt><trkpt lat="43.81134145375066" lon="10.908913020752644"><ele>67.99999999999999</ele><time>2026-04-12T10:25:22.289Z</time></trkpt><trkpt lat="43.811328820147395" lon="10.909002511404069"><ele>68.0</ele><time>2026-04-12T10:25:26.289Z</time></trkpt><trkpt lat="43.81131556156675" lon="10.909095339126647"><ele>68.0</ele><time>2026-04-12T10:25:30.289Z</time></trkpt><trkpt lat="43.81130449752389" lon="10.909197818941113"><ele>68.0</ele><time>2026-04-12T10:25:34.289Z</time></trkpt><trkpt lat="43.81129049708081" lon="10.90929188701113"><ele>68.0</ele><time>2026-04-12T10:25:37.289Z</time></trkpt><trkpt lat="43.811274221092305" lon="10.90940489825207"><ele>67.99999999999999</ele><time>2026-04-12T10:25:40.289Z</time></trkpt><trkpt lat="43.81126227934967" lon="10.909516267747962"><ele>68.0</ele><time>2026-04-12T10:25:43.289Z</time></trkpt><trkpt lat="43.811241397933664" lon="10.909631700637256"><ele>68.42857142857142</ele><time>2026-04-12T10:25:46.289Z</time></trkpt><trkpt lat="43.81123130293761" lon="10.90972629466665"><ele>68.85714285714286</ele><time>2026-04-12T10:25:49.289Z</time></trkpt><trkpt lat="43.8112219468526" lon="10.909830059504092"><ele>69.28571428571428</ele><time>2026-04-12T10:25:53.289Z</time></trkpt><trkpt lat="43.81121189474373" lon="10.909930461697863"><ele>69.71428571428571</ele><time>2026-04-12T10:25:57.289Z</time></trkpt><trkpt lat="43.811204321494046" lon="10.910028418754276"><ele>70.14285714285714</ele><time>2026-04-12T10:26:01.289Z</time></trkpt><trkpt lat="43.8112133684502" lon="10.910134098747895"><ele>70.57142857142857</ele><time>2026-04-12T10:26:05.289Z</time></trkpt><trkpt lat="43.81121408072057" lon="10.910222651912902"><ele>71.0</ele><time>2026-04-12T10:26:10.289Z</time></trkpt><trkpt lat="43.81122209209689" lon="10.910311571199392"><ele>72.0</ele><time>2026-04-12T10:26:15.289Z</time></trkpt><trkpt lat="43.811218692816404" lon="10.910409283772143"><ele>73.0</ele><time>2026-04-12T10:26:21.289Z</time></trkpt><trkpt lat="43.811207644263575" lon="10.910505027955255"><ele>74.0</ele><time>2026-04-12T10:26:26.289Z</time></trkpt><trkpt lat="43.8112044584325" lon="10.910615520315933"><ele>75.0</ele><time>2026-04-12T10:26:31.289Z</time></trkpt><trkpt lat="43.811209904122684" lon="10.91070932218959"><ele>76.0</ele><time>2026-04-12T10:26:36.289Z</time></trkpt><trkpt lat="43.8112146551047" lon="10.910799546775582"><ele>77.0</ele><time>2026-04-12T10:26:49.289Z</time></trkpt><trkpt lat="43.81122715224333" lon="10.91089377857009"><ele>78.0</ele><time>2026-04-12T10:26:58.288Z</time></trkpt><trkpt lat="43.811235200052785" lon="10.910990616337294"><ele>79.57142857142857</ele><time>2026-04-12T10:27:08.288Z</time></trkpt><trkpt lat="43.81123444794693" lon="10.911088555613654"><ele>81.14285714285714</ele><time>2026-04-12T10:27:16.288Z</time></trkpt><trkpt lat="43.811229959881175" lon="10.911176713630104"><ele>82.71428571428571</ele><time>2026-04-12T10:27:23.288Z</time></trkpt><trkpt lat="43.811197496572895" lon="10.91126461460851"><ele>84.28571428571428</ele><time>2026-04-12T10:27:34.288Z</time></trkpt><trkpt lat="43.81113322383886" lon="10.91131204840872"><ele>85.85714285714286</ele><time>2026-04-12T10:27:42.288Z</time></trkpt><trkpt lat="43.81109201894002" lon="10.911394408706919"><ele>87.42857142857142</ele><time>2026-04-12T10:27:45.288Z</time></trkpt><trkpt lat="43.81105350980207" lon="10.91151256179827"><ele>89.0</ele><time>2026-04-12T10:27:48.288Z</time></trkpt><trkpt lat="43.81099655762297" lon="10.911648915567582"><ele>89.5</ele><time>2026-04-12T10:27:50.288Z</time></trkpt><trkpt lat="43.81095315190816" lon="10.91173745947863"><ele>90.0</ele><time>2026-04-12T10:27:51.288Z</time></trkpt><trkpt lat="43.81090798519416" lon="10.911832646731035"><ele>90.5</ele><time>2026-04-12T10:27:53.288Z</time></trkpt><trkpt lat="43.810867912714166" lon="10.911922079614184"><ele>91.0</ele><time>2026-04-12T10:27:55.288Z</time></trkpt><trkpt lat="43.81083454990798" lon="10.912007471551005"><ele>91.5</ele><time>2026-04-12T10:27:57.288Z</time></trkpt><trkpt lat="43.81081132098364" lon="10.912115380786055"><ele>92.0</ele><time>2026-04-12T10:27:59.288Z</time></trkpt><trkpt lat="43.81078626915299" lon="10.912229240123247"><ele>92.0</ele><time>2026-04-12T10:28:02.288Z</time></trkpt><trkpt lat="43.81071022613007" lon="10.91219624832614"><ele>92.0</ele><time>2026-04-12T10:28:07.288Z</time></trkpt><trkpt lat="43.810672312827144" lon="10.91212057713232"><ele>92.0</ele><time>2026-04-12T10:28:10.288Z</time></trkpt><trkpt lat="43.81065433942627" lon="10.912003062606223"><ele>92.0</ele><time>2026-04-12T10:28:13.288Z</time></trkpt><trkpt lat="43.81064365130049" lon="10.911897523348756"><ele>92.0</ele><time>2026-04-12T10:28:16.288Z</time></trkpt><trkpt lat="43.81063937448321" lon="10.91179372057869"><ele>92.0</ele><time>2026-04-12T10:28:19.288Z</time></trkpt><trkpt lat="43.81062026836584" lon="10.911702833268393"><ele>92.0</ele><time>2026-04-12T10:28:21.288Z</time></trkpt><trkpt lat="43.81060569218397" lon="10.911594173070121"><ele>92.0</ele><time>2026-04-12T10:28:24.288Z</time></trkpt><trkpt lat="43.81058724827749" lon="10.911491624947468"><ele>92.0</ele><time>2026-04-12T10:28:27.288Z</time></trkpt><trkpt lat="43.81060468407631" lon="10.911402667860287"><ele>92.0</ele><time>2026-04-12T10:28:30.288Z</time></trkpt><trkpt lat="43.81060200469811" lon="10.911313953675995"><ele>92.0</ele><time>2026-04-12T10:28:33.288Z</time></trkpt><trkpt lat="43.81059705886369" lon="10.911201827253683"><ele>92.0</ele><time>2026-04-12T10:28:37.288Z</time></trkpt><trkpt lat="43.81060994850699" lon="10.91109707667023"><ele>92.0</ele><time>2026-04-12T10:28:41.288Z</time></trkpt><trkpt lat="43.81061245272343" lon="10.910996410765856"><ele>91.33333333333334</ele><time>2026-04-12T10:28:45.288Z</time></trkpt><trkpt lat="43.810593735287156" lon="10.910899476781355"><ele>90.66666666666667</ele><time>2026-04-12T10:28:49.288Z</time></trkpt><trkpt lat="43.81058246284484" lon="10.910785957067212"><ele>90.0</ele><time>2026-04-12T10:28:53.288Z</time></trkpt><trkpt lat="43.810561373447946" lon="10.910700265978935"><ele>89.33333333333333</ele><time>2026-04-12T10:28:56.288Z</time></trkpt><trkpt lat="43.81051813080091" lon="10.910600785129457"><ele>88.66666666666666</ele><time>2026-04-12T10:28:59.288Z</time></trkpt><trkpt lat="43.81046734659951" lon="10.910537114305846"><ele>88.0</ele><time>2026-04-12T10:29:02.286Z</time></trkpt><trkpt lat="43.810361839548975" lon="10.910638626066806"><ele>88.0</ele><time>2026-04-12T10:29:05.286Z</time></trkpt><trkpt lat="43.810273252870914" lon="10.910648652659443"><ele>88.0</ele><time>2026-04-12T10:29:09.286Z</time></trkpt><trkpt lat="43.81019871196325" lon="10.91066691573337"><ele>88.0</ele><time>2026-04-12T10:29:12.286Z</time></trkpt><trkpt lat="43.81011831890066" lon="10.910689782645562"><ele>88.0</ele><time>2026-04-12T10:29:15.286Z</time></trkpt><trkpt lat="43.81004788514807" lon="10.91074107739338"><ele>88.0</ele><time>2026-04-12T10:29:18.286Z</time></trkpt><trkpt lat="43.80997248175488" lon="10.910754888704497"><ele>88.0</ele><time>2026-04-12T10:29:21.286Z</time></trkpt><trkpt lat="43.80989722302554" lon="10.910778137300762"><ele>89.5</ele><time>2026-04-12T10:29:24.286Z</time></trkpt><trkpt lat="43.80981845829558" lon="10.910796369963759"><ele>91.0</ele><time>2026-04-12T10:29:27.286Z</time></trkpt><trkpt lat="43.80974267405353" lon="10.910817568551309"><ele>92.5</ele><time>2026-04-12T10:29:30.286Z</time></trkpt><trkpt lat="43.80966608283242" lon="10.910840310563167"><ele>94.0</ele><time>2026-04-12T10:29:33.286Z</time></trkpt><trkpt lat="43.80959500994047" lon="10.910858430204112"><ele>95.50000000000001</ele><time>2026-04-12T10:29:36.286Z</time></trkpt><trkpt lat="43.80952209499704" lon="10.910875930062623"><ele>97.0</ele><time>2026-04-12T10:29:39.286Z</time></trkpt><trkpt lat="43.80945622935731" lon="10.910906149906"><ele>97.85714285714285</ele><time>2026-04-12T10:29:42.286Z</time></trkpt><trkpt lat="43.80940127549147" lon="10.910951391787012"><ele>98.71428571428572</ele><time>2026-04-12T10:29:45.286Z</time></trkpt><trkpt lat="43.80936113269662" lon="10.911029752751483"><ele>99.57142857142857</ele><time>2026-04-12T10:29:48.286Z</time></trkpt><trkpt lat="43.80933334752766" lon="10.91112122981543"><ele>100.42857142857142</ele><time>2026-04-12T10:29:51.286Z</time></trkpt><trkpt lat="43.809303719058505" lon="10.911210629767915"><ele>101.28571428571428</ele><time>2026-04-12T10:29:54.286Z</time></trkpt><trkpt lat="43.80927257650871" lon="10.911308522633146"><ele>102.14285714285714</ele><time>2026-04-12T10:29:57.286Z</time></trkpt><trkpt lat="43.809235573452455" lon="10.911401853578043"><ele>103.0</ele><time>2026-04-12T10:30:00.286Z</time></trkpt><trkpt lat="43.809202180901856" lon="10.911499371390626"><ele>103.42857142857142</ele><time>2026-04-12T10:30:03.286Z</time></trkpt><trkpt lat="43.80916798460652" lon="10.91159073885075"><ele>103.85714285714286</ele><time>2026-04-12T10:30:06.286Z</time></trkpt><trkpt lat="43.809126010124736" lon="10.911674070890522"><ele>104.28571428571428</ele><time>2026-04-12T10:30:09.286Z</time></trkpt><trkpt lat="43.809085216362725" lon="10.911752137618269"><ele>104.71428571428571</ele><time>2026-04-12T10:30:12.286Z</time></trkpt><trkpt lat="43.809035621991306" lon="10.911834540330828"><ele>105.14285714285714</ele><time>2026-04-12T10:30:15.286Z</time></trkpt><trkpt lat="43.808986613001245" lon="10.911904784560173"><ele>105.57142857142857</ele><time>2026-04-12T10:30:17.286Z</time></trkpt><trkpt lat="43.80893161189397" lon="10.911989538591126"><ele>106.0</ele><time>2026-04-12T10:30:19.286Z</time></trkpt><trkpt lat="43.80886345645457" lon="10.912071797958328"><ele>105.6</ele><time>2026-04-12T10:30:21.286Z</time></trkpt><trkpt lat="43.80878343302234" lon="10.912155872742135"><ele>105.19999999999999</ele><time>2026-04-12T10:30:23.286Z</time></trkpt><trkpt lat="43.808708504950815" lon="10.91224534231632"><ele>104.80000000000001</ele><time>2026-04-12T10:30:25.286Z</time></trkpt><trkpt lat="43.8086203648829" lon="10.912331523788675"><ele>104.4</ele><time>2026-04-12T10:30:27.286Z</time></trkpt><trkpt lat="43.808543468958135" lon="10.912412008881818"><ele>104.0</ele><time>2026-04-12T10:30:29.286Z</time></trkpt><trkpt lat="43.80847595474998" lon="10.912489838380074"><ele>104.0</ele><time>2026-04-12T10:30:31.286Z</time></trkpt><trkpt lat="43.808415356519" lon="10.912565725348855"><ele>104.0</ele><time>2026-04-12T10:30:33.286Z</time></trkpt><trkpt lat="43.808361362517346" lon="10.912647314876558"><ele>104.0</ele><time>2026-04-12T10:30:35.286Z</time></trkpt><trkpt lat="43.80830978751353" lon="10.9127415995703"><ele>104.0</ele><time>2026-04-12T10:30:37.286Z</time></trkpt><trkpt lat="43.8082464311972" lon="10.912847460411305"><ele>104.0</ele><time>2026-04-12T10:30:39.286Z</time></trkpt><trkpt lat="43.80817201815613" lon="10.912963633302272"><ele>105.2</ele><time>2026-04-12T10:30:41.286Z</time></trkpt><trkpt lat="43.80809534526035" lon="10.91307323163246"><ele>106.4</ele><time>2026-04-12T10:30:43.286Z</time></trkpt><trkpt lat="43.808025933264915" lon="10.913181148845727"><ele>107.6</ele><time>2026-04-12T10:30:45.286Z</time></trkpt><trkpt lat="43.8079549045929" lon="10.913277593191813"><ele>108.8</ele><time>2026-04-12T10:30:47.286Z</time></trkpt><trkpt lat="43.80789318974762" lon="10.913373998178063"><ele>110.0</ele><time>2026-04-12T10:30:49.286Z</time></trkpt><trkpt lat="43.80783723158471" lon="10.913467167923077"><ele>110.66666666666666</ele><time>2026-04-12T10:30:51.286Z</time></trkpt><trkpt lat="43.80778686216987" lon="10.913560222105133"><ele>111.33333333333333</ele><time>2026-04-12T10:30:53.286Z</time></trkpt><trkpt lat="43.80774567264294" lon="10.913664358348127"><ele>112.0</ele><time>2026-04-12T10:30:55.286Z</time></trkpt><trkpt lat="43.807716617479606" lon="10.913760696339093"><ele>112.66666666666666</ele><time>2026-04-12T10:30:57.286Z</time></trkpt><trkpt lat="43.80769212967816" lon="10.913854699699641"><ele>113.33333333333333</ele><time>2026-04-12T10:30:59.286Z</time></trkpt><trkpt lat="43.80768289744904" lon="10.913950331563031"><ele>114.0</ele><time>2026-04-12T10:31:01.286Z</time></trkpt><trkpt lat="43.807687450571976" lon="10.914038777247315"><ele>114.0</ele><time>2026-04-12T10:31:03.286Z</time></trkpt><trkpt lat="43.807707377798195" lon="10.914135459499125"><ele>114.0</ele><time>2026-04-12T10:31:05.286Z</time></trkpt><trkpt lat="43.80773627132726" lon="10.914245544187999"><ele>114.0</ele><time>2026-04-12T10:31:07.285Z</time></trkpt><trkpt lat="43.80779153700995" lon="10.914367065630227"><ele>114.0</ele><time>2026-04-12T10:31:09.285Z</time></trkpt><trkpt lat="43.8078283733771" lon="10.914439229099361"><ele>114.0</ele><time>2026-04-12T10:31:10.284Z</time></trkpt><trkpt lat="43.80787206728541" lon="10.914514248252212"><ele>114.0</ele><time>2026-04-12T10:31:11.284Z</time></trkpt><trkpt lat="43.80792104764249" lon="10.914598652900603"><ele>114.0</ele><time>2026-04-12T10:31:12.284Z</time></trkpt><trkpt lat="43.80797267026799" lon="10.914694927250846"><ele>114.0</ele><time>2026-04-12T10:31:13.284Z</time></trkpt><trkpt lat="43.80801467157381" lon="10.914792172277743"><ele>114.0</ele><time>2026-04-12T10:31:14.284Z</time></trkpt><trkpt lat="43.80803709160984" lon="10.914894293445837"><ele>114.0</ele><time>2026-04-12T10:31:15.284Z</time></trkpt><trkpt lat="43.808018222436765" lon="10.915003294569248"><ele>114.0</ele><time>2026-04-12T10:31:16.284Z</time></trkpt><trkpt lat="43.80795785103596" lon="10.915070825909524"><ele>114.0</ele><time>2026-04-12T10:31:17.284Z</time></trkpt><trkpt lat="43.80787859926471" lon="10.915085401259287"><ele>114.0</ele><time>2026-04-12T10:31:18.284Z</time></trkpt><trkpt lat="43.807804195122124" lon="10.915051309267568"><ele>114.0</ele><time>2026-04-12T10:31:20.284Z</time></trkpt><trkpt lat="43.80771285032527" lon="10.91504935910506"><ele>114.0</ele><time>2026-04-12T10:31:23.284Z</time></trkpt><trkpt lat="43.80762805071612" lon="10.915012764312078"><ele>114.0</ele><time>2026-04-12T10:31:26.284Z</time></trkpt><trkpt lat="43.807548442085356" lon="10.915005251166992"><ele>114.0</ele><time>2026-04-12T10:31:29.284Z</time></trkpt><trkpt lat="43.807466194978176" lon="10.915003897461514"><ele>114.0</ele><time>2026-04-12T10:31:32.284Z</time></trkpt><trkpt lat="43.80738381072639" lon="10.91501593543654"><ele>115.16666666666667</ele><time>2026-04-12T10:31:35.284Z</time></trkpt><trkpt lat="43.807310680648555" lon="10.915073912202551"><ele>116.33333333333334</ele><time>2026-04-12T10:31:38.284Z</time></trkpt><trkpt lat="43.80724856398084" lon="10.915138775774382"><ele>117.5</ele><time>2026-04-12T10:31:41.284Z</time></trkpt><trkpt lat="43.807203547904145" lon="10.91521152385688"><ele>118.66666666666667</ele><time>2026-04-12T10:31:44.284Z</time></trkpt><trkpt lat="43.8071669781227" lon="10.915301252588323"><ele>119.83333333333334</ele><time>2026-04-12T10:31:47.284Z</time></trkpt><trkpt lat="43.80712396806296" lon="10.915387104897494"><ele>121.0</ele><time>2026-04-12T10:31:50.284Z</time></trkpt><trkpt lat="43.80708989374414" lon="10.915482450052696"><ele>121.00000000000001</ele><time>2026-04-12T10:31:53.284Z</time></trkpt><trkpt lat="43.8070523132352" lon="10.91558344361861"><ele>121.0</ele><time>2026-04-12T10:31:56.284Z</time></trkpt><trkpt lat="43.80700530228138" lon="10.915692534833495"><ele>121.0</ele><time>2026-04-12T10:31:59.284Z</time></trkpt><trkpt lat="43.80697471169191" lon="10.915776088353836"><ele>121.0</ele><time>2026-04-12T10:32:01.284Z</time></trkpt><trkpt lat="43.80693421469854" lon="10.915856555793622"><ele>121.00000000000001</ele><time>2026-04-12T10:32:03.284Z</time></trkpt><trkpt lat="43.80689637183375" lon="10.915944614623193"><ele>121.0</ele><time>2026-04-12T10:32:05.284Z</time></trkpt><trkpt lat="43.80685714466699" lon="10.916037961166166"><ele>119.83333333333334</ele><time>2026-04-12T10:32:07.284Z</time></trkpt><trkpt lat="43.8068173152737" lon="10.91613318778884"><ele>118.66666666666667</ele><time>2026-04-12T10:32:09.284Z</time></trkpt><trkpt lat="43.806764692620725" lon="10.916219689868123"><ele>117.5</ele><time>2026-04-12T10:32:11.284Z</time></trkpt><trkpt lat="43.806732164565794" lon="10.916319340358745"><ele>116.33333333333334</ele><time>2026-04-12T10:32:13.284Z</time></trkpt><trkpt lat="43.806722321430485" lon="10.916429062577588"><ele>115.16666666666667</ele><time>2026-04-12T10:32:15.284Z</time></trkpt><trkpt lat="43.8067107112212" lon="10.916538164505454"><ele>114.0</ele><time>2026-04-12T10:32:17.284Z</time></trkpt><trkpt lat="43.806714899246636" lon="10.916642345561142"><ele>113.66666666666667</ele><time>2026-04-12T10:32:19.284Z</time></trkpt><trkpt lat="43.806736545889436" lon="10.916737190898678"><ele>113.33333333333334</ele><time>2026-04-12T10:32:21.285Z</time></trkpt><trkpt lat="43.8067680542561" lon="10.916841720625547"><ele>113.0</ele><time>2026-04-12T10:32:23.285Z</time></trkpt><trkpt lat="43.80679947219369" lon="10.91693845427973"><ele>112.66666666666667</ele><time>2026-04-12T10:32:25.285Z</time></trkpt><trkpt lat="43.806833561425826" lon="10.917030307490386"><ele>112.33333333333334</ele><time>2026-04-12T10:32:27.285Z</time></trkpt><trkpt lat="43.80687075580334" lon="10.91711739863269"><ele>112.0</ele><time>2026-04-12T10:32:29.285Z</time></trkpt><trkpt lat="43.80691454182931" lon="10.917201873741673"><ele>114.83333333333334</ele><time>2026-04-12T10:32:31.285Z</time></trkpt><trkpt lat="43.80697272738593" lon="10.917275104734575"><ele>117.66666666666667</ele><time>2026-04-12T10:32:33.285Z</time></trkpt><trkpt lat="43.807036902915975" lon="10.917339038149333"><ele>120.5</ele><time>2026-04-12T10:32:35.285Z</time></trkpt><trkpt lat="43.80709391314252" lon="10.91740643757246"><ele>123.33333333333334</ele><time>2026-04-12T10:32:37.285Z</time></trkpt><trkpt lat="43.807148372071545" lon="10.917480211513322"><ele>126.16666666666667</ele><time>2026-04-12T10:32:39.285Z</time></trkpt><trkpt lat="43.807187392885865" lon="10.917567021344695"><ele>129.0</ele><time>2026-04-12T10:32:41.285Z</time></trkpt><trkpt lat="43.8072059729894" lon="10.917662782099164"><ele>129.16666666666666</ele><time>2026-04-12T10:32:43.285Z</time></trkpt><trkpt lat="43.80720710907705" lon="10.917760368921487"><ele>129.33333333333334</ele><time>2026-04-12T10:32:45.285Z</time></trkpt><trkpt lat="43.80719443434097" lon="10.917853819338305"><ele>129.5</ele><time>2026-04-12T10:32:47.285Z</time></trkpt><trkpt lat="43.80717271742267" lon="10.917967340752561"><ele>129.66666666666669</ele><time>2026-04-12T10:32:50.285Z</time></trkpt><trkpt lat="43.807160306046605" lon="10.918065858061995"><ele>129.83333333333334</ele><time>2026-04-12T10:32:53.285Z</time></trkpt><trkpt lat="43.807153063929306" lon="10.91817730267697"><ele>130.0</ele><time>2026-04-12T10:32:56.285Z</time></trkpt><trkpt lat="43.807153824782795" lon="10.918284349308571"><ele>130.0</ele><time>2026-04-12T10:32:59.285Z</time></trkpt><trkpt lat="43.80717139933326" lon="10.918387174578653"><ele>130.0</ele><time>2026-04-12T10:33:02.285Z</time></trkpt><trkpt lat="43.80720416307815" lon="10.918485270484855"><ele>130.0</ele><time>2026-04-12T10:33:05.285Z</time></trkpt><trkpt lat="43.80724881920578" lon="10.918567224243152"><ele>130.0</ele><time>2026-04-12T10:33:08.285Z</time></trkpt><trkpt lat="43.80730427852393" lon="10.918634207468443"><ele>130.0</ele><time>2026-04-12T10:33:11.285Z</time></trkpt><trkpt lat="43.80737122583798" lon="10.918696877421796"><ele>130.0</ele><time>2026-04-12T10:33:14.283Z</time></trkpt><trkpt lat="43.80744729770186" lon="10.918759069280071"><ele>129.83333333333334</ele><time>2026-04-12T10:33:17.283Z</time></trkpt><trkpt lat="43.807527779799116" lon="10.918819779754871"><ele>129.66666666666669</ele><time>2026-04-12T10:33:20.283Z</time></trkpt><trkpt lat="43.80758263495622" lon="10.918862585885826"><ele>129.5</ele><time>2026-04-12T10:33:22.283Z</time></trkpt><trkpt lat="43.80764070110068" lon="10.918923326723688"><ele>129.33333333333334</ele><time>2026-04-12T10:33:24.283Z</time></trkpt><trkpt lat="43.80770439296359" lon="10.919031783604208"><ele>129.16666666666666</ele><time>2026-04-12T10:33:26.283Z</time></trkpt><trkpt lat="43.807768577497185" lon="10.919172322979191"><ele>129.0</ele><time>2026-04-12T10:33:28.283Z</time></trkpt><trkpt lat="43.80783127702199" lon="10.919318789399748"><ele>130.8</ele><time>2026-04-12T10:33:30.283Z</time></trkpt><trkpt lat="43.80783159137595" lon="10.919492846044696"><ele>132.60000000000002</ele><time>2026-04-12T10:33:32.283Z</time></trkpt><trkpt lat="43.8077503737827" lon="10.919578705343795"><ele>134.4</ele><time>2026-04-12T10:33:34.283Z</time></trkpt><trkpt lat="43.807684853619264" lon="10.919592586747891"><ele>136.20000000000002</ele><time>2026-04-12T10:33:36.283Z</time></trkpt><trkpt lat="43.80761694781892" lon="10.919625128273967"><ele>138.0</ele><time>2026-04-12T10:33:39.283Z</time></trkpt><trkpt lat="43.80754124213882" lon="10.919678330353062"><ele>138.0</ele><time>2026-04-12T10:33:42.283Z</time></trkpt><trkpt lat="43.807480266984065" lon="10.919763611048342"><ele>138.0</ele><time>2026-04-12T10:33:45.283Z</time></trkpt><trkpt lat="43.807424447769236" lon="10.919862836487091"><ele>138.0</ele><time>2026-04-12T10:33:48.283Z</time></trkpt><trkpt lat="43.807382372619614" lon="10.919934086422488"><ele>138.0</ele><time>2026-04-12T10:33:50.283Z</time></trkpt><trkpt lat="43.80731997619254" lon="10.919971585916343"><ele>138.0</ele><time>2026-04-12T10:33:52.283Z</time></trkpt><trkpt lat="43.80722771886778" lon="10.919980654375765"><ele>138.0</ele><time>2026-04-12T10:33:55.283Z</time></trkpt><trkpt lat="43.80713836233551" lon="10.919973109777859"><ele>138.0</ele><time>2026-04-12T10:33:58.283Z</time></trkpt><trkpt lat="43.807076694012295" lon="10.919954750002365"><ele>138.0</ele><time>2026-04-12T10:34:00.283Z</time></trkpt><trkpt lat="43.806995413399584" lon="10.919933032505645"><ele>138.0</ele><time>2026-04-12T10:34:03.283Z</time></trkpt><trkpt lat="43.80690885651516" lon="10.919907293912287"><ele>138.0</ele><time>2026-04-12T10:34:06.283Z</time></trkpt><trkpt lat="43.8068236210598" lon="10.919876045805347"><ele>138.0</ele><time>2026-04-12T10:34:09.283Z</time></trkpt><trkpt lat="43.80674132191699" lon="10.919845542940564"><ele>138.0</ele><time>2026-04-12T10:34:12.283Z</time></trkpt><trkpt lat="43.806659185778116" lon="10.91981905724809"><ele>139.33333333333334</ele><time>2026-04-12T10:34:15.283Z</time></trkpt><trkpt lat="43.806575421232026" lon="10.919784889511524"><ele>140.66666666666666</ele><time>2026-04-12T10:34:18.283Z</time></trkpt><trkpt lat="43.806495463267225" lon="10.91975320919337"><ele>142.0</ele><time>2026-04-12T10:34:21.283Z</time></trkpt><trkpt lat="43.80641141689856" lon="10.919726909110457"><ele>143.33333333333331</ele><time>2026-04-12T10:34:24.283Z</time></trkpt><trkpt lat="43.80632256984358" lon="10.919696726834667"><ele>144.66666666666666</ele><time>2026-04-12T10:34:27.283Z</time></trkpt><trkpt lat="43.80623332330708" lon="10.919664999508845"><ele>146.0</ele><time>2026-04-12T10:34:30.283Z</time></trkpt><trkpt lat="43.80616586820386" lon="10.919643231639808"><ele>146.0</ele><time>2026-04-12T10:34:32.283Z</time></trkpt><trkpt lat="43.80609508115227" lon="10.919613176366493"><ele>146.0</ele><time>2026-04-12T10:34:34.283Z</time></trkpt><trkpt lat="43.80602896906732" lon="10.919590770460571"><ele>146.0</ele><time>2026-04-12T10:34:36.283Z</time></trkpt><trkpt lat="43.80595115433037" lon="10.919563091545447"><ele>146.0</ele><time>2026-04-12T10:34:39.283Z</time></trkpt><trkpt lat="43.805881060683774" lon="10.91953289706085"><ele>146.0</ele><time>2026-04-12T10:34:42.283Z</time></trkpt><trkpt lat="43.80579373296892" lon="10.919504814953681"><ele>146.0</ele><time>2026-04-12T10:34:45.283Z</time></trkpt><trkpt lat="43.80571459636795" lon="10.919479828059162"><ele>146.0</ele><time>2026-04-12T10:34:47.283Z</time></trkpt><trkpt lat="43.80561987557416" lon="10.919451122823746"><ele>146.0</ele><time>2026-04-12T10:34:49.283Z</time></trkpt><trkpt lat="43.80554171129098" lon="10.919423769110432"><ele>146.0</ele><time>2026-04-12T10:34:51.283Z</time></trkpt><trkpt lat="43.8054664949587" lon="10.919365157493832"><ele>146.0</ele><time>2026-04-12T10:34:53.283Z</time></trkpt><trkpt lat="43.80539818103846" lon="10.919294062104262"><ele>146.0</ele><time>2026-04-12T10:34:55.283Z</time></trkpt><trkpt lat="43.8053766832672" lon="10.919194089623128"><ele>146.0</ele><time>2026-04-12T10:34:57.283Z</time></trkpt><trkpt lat="43.805325863405535" lon="10.919122710298158"><ele>143.8</ele><time>2026-04-12T10:35:01.283Z</time></trkpt><trkpt lat="43.80526918000637" lon="10.91907176316818"><ele>141.6</ele><time>2026-04-12T10:35:05.283Z</time></trkpt><trkpt lat="43.80520912859525" lon="10.919004448691384"><ele>139.4</ele><time>2026-04-12T10:35:11.283Z</time></trkpt><trkpt lat="43.80502094761445" lon="10.918906660856733"><ele>137.2</ele><time>2026-04-12T10:35:12.283Z</time></trkpt><trkpt lat="43.80498750227955" lon="10.918778621431539"><ele>135.0</ele><time>2026-04-12T10:35:17.283Z</time></trkpt><trkpt lat="43.80494499993575" lon="10.918386149386658"><ele>133.0</ele><time>2026-04-12T10:35:30.281Z</time></trkpt><trkpt lat="43.80488687964824" lon="10.918301597014752"><ele>131.0</ele><time>2026-04-12T10:35:33.281Z</time></trkpt><trkpt lat="43.80483801771741" lon="10.918246020429924"><ele>129.0</ele><time>2026-04-12T10:35:35.281Z</time></trkpt><trkpt lat="43.80479033798507" lon="10.918188158585137"><ele>127.0</ele><time>2026-04-12T10:35:37.281Z</time></trkpt><trkpt lat="43.804738850914774" lon="10.918119294623715"><ele>125.0</ele><time>2026-04-12T10:35:39.281Z</time></trkpt><trkpt lat="43.80467425108671" lon="10.918042228490972"><ele>123.0</ele><time>2026-04-12T10:35:42.281Z</time></trkpt><trkpt lat="43.80460718683919" lon="10.917958651509796"><ele>123.00000000000001</ele><time>2026-04-12T10:35:45.281Z</time></trkpt><trkpt lat="43.804560532287624" lon="10.917893653052142"><ele>123.0</ele><time>2026-04-12T10:35:48.281Z</time></trkpt><trkpt lat="43.80452136786726" lon="10.917823273332655"><ele>123.00000000000001</ele><time>2026-04-12T10:35:51.281Z</time></trkpt><trkpt lat="43.804471004878394" lon="10.917764527999385"><ele>123.00000000000001</ele><time>2026-04-12T10:35:55.281Z</time></trkpt><trkpt lat="43.8044145888027" lon="10.917715096642741"><ele>123.0</ele><time>2026-04-12T10:36:14.281Z</time></trkpt><trkpt lat="43.80436054236736" lon="10.917666343167511"><ele>123.00000000000001</ele><time>2026-04-12T10:36:22.282Z</time></trkpt><trkpt lat="43.80430129954599" lon="10.917629185843905"><ele>123.00000000000001</ele><time>2026-04-12T10:36:35.282Z</time></trkpt><trkpt lat="43.80424250182162" lon="10.917595430873522"><ele>120.85714285714288</ele><time>2026-04-12T10:36:38.282Z</time></trkpt><trkpt lat="43.80418513241154" lon="10.917559030977621"><ele>118.71428571428572</ele><time>2026-04-12T10:36:43.282Z</time></trkpt><trkpt lat="43.80412292444767" lon="10.917516623509062"><ele>116.57142857142858</ele><time>2026-04-12T10:36:47.282Z</time></trkpt><trkpt lat="43.804066016981174" lon="10.917478137192537"><ele>114.42857142857144</ele><time>2026-04-12T10:36:51.282Z</time></trkpt><trkpt lat="43.80401351018796" lon="10.917421556006243"><ele>112.28571428571428</ele><time>2026-04-12T10:36:53.282Z</time></trkpt><trkpt lat="43.803958956241445" lon="10.917375310595112"><ele>110.14285714285714</ele><time>2026-04-12T10:36:56.282Z</time></trkpt><trkpt lat="43.80389335507238" lon="10.917333072974964"><ele>108.0</ele><time>2026-04-12T10:36:59.282Z</time></trkpt><trkpt lat="43.80381520991655" lon="10.917271357279631"><ele>108.0</ele><time>2026-04-12T10:37:04.282Z</time></trkpt><trkpt lat="43.80376314736965" lon="10.917176239409043"><ele>108.0</ele><time>2026-04-12T10:37:07.282Z</time></trkpt><trkpt lat="43.80372384632148" lon="10.917103549558238"><ele>108.0</ele><time>2026-04-12T10:37:09.282Z</time></trkpt><trkpt lat="43.80367551395112" lon="10.917014315940872"><ele>108.0</ele><time>2026-04-12T10:37:12.282Z</time></trkpt><trkpt lat="43.80364726939955" lon="10.916912125761343"><ele>108.0</ele><time>2026-04-12T10:37:23.282Z</time></trkpt><trkpt lat="43.80360311136935" lon="10.916830712449846"><ele>108.0</ele><time>2026-04-12T10:37:25.28Z</time></trkpt><trkpt lat="43.80355734304102" lon="10.91674849967099"><ele>106.0</ele><time>2026-04-12T10:37:27.28Z</time></trkpt><trkpt lat="43.803504652969025" lon="10.91665449973089"><ele>104.0</ele><time>2026-04-12T10:37:29.28Z</time></trkpt><trkpt lat="43.80345773082906" lon="10.916572463542296"><ele>102.0</ele><time>2026-04-12T10:37:31.28Z</time></trkpt><trkpt lat="43.803402465333214" lon="10.916475840204003"><ele>100.0</ele><time>2026-04-12T10:37:33.28Z</time></trkpt><trkpt lat="43.80335651534069" lon="10.916395503620203"><ele>98.0</ele><time>2026-04-12T10:37:35.28Z</time></trkpt><trkpt lat="43.80329965157417" lon="10.916305650952234"><ele>96.0</ele><time>2026-04-12T10:37:38.28Z</time></trkpt><trkpt lat="43.80321260625328" lon="10.916259315464705"><ele>95.33333333333333</ele><time>2026-04-12T10:37:41.28Z</time></trkpt><trkpt lat="43.8031466455825" lon="10.916211630746183"><ele>94.66666666666667</ele><time>2026-04-12T10:37:44.28Z</time></trkpt><trkpt lat="43.80308460141238" lon="10.916196043324135"><ele>94.0</ele><time>2026-04-12T10:37:46.28Z</time></trkpt><trkpt lat="43.80301805364338" lon="10.916179522254888"><ele>93.33333333333334</ele><time>2026-04-12T10:37:48.28Z</time></trkpt><trkpt lat="43.802924716733656" lon="10.916162216170337"><ele>92.66666666666667</ele><time>2026-04-12T10:37:51.28Z</time></trkpt><trkpt lat="43.80285333710154" lon="10.916081566997633"><ele>92.0</ele><time>2026-04-12T10:37:54.28Z</time></trkpt><trkpt lat="43.80280981945608" lon="10.915999081653283"><ele>92.0</ele><time>2026-04-12T10:37:56.28Z</time></trkpt><trkpt lat="43.80275659523106" lon="10.915913207175718"><ele>92.0</ele><time>2026-04-12T10:37:58.28Z</time></trkpt><trkpt lat="43.80272232894961" lon="10.915830109463098"><ele>92.0</ele><time>2026-04-12T10:38:00.28Z</time></trkpt><trkpt lat="43.802616233763295" lon="10.915786617630454"><ele>92.0</ele><time>2026-04-12T10:38:02.28Z</time></trkpt><trkpt lat="43.80250362064942" lon="10.915735355877013"><ele>92.0</ele><time>2026-04-12T10:38:04.28Z</time></trkpt><trkpt lat="43.802398841111774" lon="10.915681136414069"><ele>88.8</ele><time>2026-04-12T10:38:06.28Z</time></trkpt><trkpt lat="43.802342500480044" lon="10.9156415461505"><ele>85.6</ele><time>2026-04-12T10:38:07.28Z</time></trkpt><trkpt lat="43.80224262397376" lon="10.915550215713838"><ele>82.39999999999999</ele><time>2026-04-12T10:38:09.28Z</time></trkpt><trkpt lat="43.802168008223745" lon="10.915407932791982"><ele>79.19999999999999</ele><time>2026-04-12T10:38:11.28Z</time></trkpt><trkpt lat="43.80210391423356" lon="10.915309646935205"><ele>76.0</ele><time>2026-04-12T10:38:13.28Z</time></trkpt><trkpt lat="43.80205435529074" lon="10.915229899411177"><ele>76.0</ele><time>2026-04-12T10:38:15.28Z</time></trkpt><trkpt lat="43.801991530015975" lon="10.915098736651634"><ele>76.0</ele><time>2026-04-12T10:38:16.28Z</time></trkpt><trkpt lat="43.801950799873104" lon="10.915005112735207"><ele>76.0</ele><time>2026-04-12T10:38:17.28Z</time></trkpt><trkpt lat="43.801921574042204" lon="10.914899938006036"><ele>76.0</ele><time>2026-04-12T10:38:18.28Z</time></trkpt><trkpt lat="43.80188746026656" lon="10.914785464859394"><ele>76.0</ele><time>2026-04-12T10:38:19.28Z</time></trkpt><trkpt lat="43.80186617956471" lon="10.914702852031347"><ele>76.0</ele><time>2026-04-12T10:38:20.28Z</time></trkpt><trkpt lat="43.801845071695865" lon="10.914617471169723"><ele>74.33333333333333</ele><time>2026-04-12T10:38:21.28Z</time></trkpt><trkpt lat="43.80180980924225" lon="10.914536331132027"><ele>72.66666666666666</ele><time>2026-04-12T10:38:22.28Z</time></trkpt><trkpt lat="43.801805744187796" lon="10.914440657073646"><ele>71.0</ele><time>2026-04-12T10:38:23.28Z</time></trkpt><trkpt lat="43.80177870043387" lon="10.914357912702483"><ele>69.33333333333333</ele><time>2026-04-12T10:38:24.28Z</time></trkpt><trkpt lat="43.80175870977786" lon="10.914211862766004"><ele>67.66666666666667</ele><time>2026-04-12T10:38:26.28Z</time></trkpt><trkpt lat="43.80173790065033" lon="10.914103353086423"><ele>66.0</ele><time>2026-04-12T10:38:28.28Z</time></trkpt><trkpt lat="43.80171680987357" lon="10.913993075278643"><ele>65.39999999999999</ele><time>2026-04-12T10:38:30.28Z</time></trkpt><trkpt lat="43.80168659301999" lon="10.913889265798668"><ele>64.8</ele><time>2026-04-12T10:38:32.28Z</time></trkpt><trkpt lat="43.80167315735423" lon="10.913755762174864"><ele>64.19999999999999</ele><time>2026-04-12T10:38:34.28Z</time></trkpt><trkpt lat="43.80164180754429" lon="10.913616036174012"><ele>63.599999999999994</ele><time>2026-04-12T10:38:36.28Z</time></trkpt><trkpt lat="43.80162370736627" lon="10.913475704883135"><ele>63.0</ele><time>2026-04-12T10:38:38.28Z</time></trkpt><trkpt lat="43.80157417134896" lon="10.913333946974541"><ele>63.0</ele><time>2026-04-12T10:38:40.28Z</time></trkpt><trkpt lat="43.80151247489305" lon="10.913222284910026"><ele>63.0</ele><time>2026-04-12T10:38:42.28Z</time></trkpt><trkpt lat="43.80140744575221" lon="10.913152734348268"><ele>63.0</ele><time>2026-04-12T10:38:44.28Z</time></trkpt><trkpt lat="43.80129391992851" lon="10.913089266803388"><ele>63.0</ele><time>2026-04-12T10:38:46.28Z</time></trkpt><trkpt lat="43.801187073274065" lon="10.913034541604603"><ele>63.0</ele><time>2026-04-12T10:38:48.28Z</time></trkpt><trkpt lat="43.801098588342846" lon="10.912991362793896"><ele>63.0</ele><time>2026-04-12T10:38:50.28Z</time></trkpt><trkpt lat="43.801076947136636" lon="10.912892275283278"><ele>63.0</ele><time>2026-04-12T10:38:52.28Z</time></trkpt><trkpt lat="43.80103191592408" lon="10.912721674689278"><ele>63.0</ele><time>2026-04-12T10:38:54.28Z</time></trkpt><trkpt lat="43.801011477074375" lon="10.912633329971902"><ele>63.0</ele><time>2026-04-12T10:38:55.28Z</time></trkpt><trkpt lat="43.800991426903394" lon="10.912542505911755"><ele>63.0</ele><time>2026-04-12T10:38:56.28Z</time></trkpt><trkpt lat="43.80097118164592" lon="10.91245079816161"><ele>61.714285714285715</ele><time>2026-04-12T10:38:57.28Z</time></trkpt><trkpt lat="43.80095080069368" lon="10.912358475708748"><ele>60.42857142857143</ele><time>2026-04-12T10:38:58.28Z</time></trkpt><trkpt lat="43.800930913309735" lon="10.912268389024161"><ele>59.14285714285714</ele><time>2026-04-12T10:38:59.28Z</time></trkpt><trkpt lat="43.800911702537114" lon="10.912181367281953"><ele>57.85714285714286</ele><time>2026-04-12T10:39:00.28Z</time></trkpt><trkpt lat="43.800892397927264" lon="10.91209392051434"><ele>56.57142857142857</ele><time>2026-04-12T10:39:01.28Z</time></trkpt><trkpt lat="43.80087262446188" lon="10.912008410508784"><ele>55.285714285714285</ele><time>2026-04-12T10:39:02.28Z</time></trkpt><trkpt lat="43.80085302537785" lon="10.911924523367842"><ele>54.0</ele><time>2026-04-12T10:39:03.28Z</time></trkpt><trkpt lat="43.800816659034034" lon="10.911761187893811"><ele>53.25</ele><time>2026-04-12T10:39:05.28Z</time></trkpt><trkpt lat="43.80079034510069" lon="10.911605465220127"><ele>52.5</ele><time>2026-04-12T10:39:07.28Z</time></trkpt><trkpt lat="43.80078041340573" lon="10.911447837447897"><ele>51.75</ele><time>2026-04-12T10:39:09.28Z</time></trkpt><trkpt lat="43.80077424545754" lon="10.911282685172964"><ele>51.0</ele><time>2026-04-12T10:39:11.28Z</time></trkpt><trkpt lat="43.800771562435166" lon="10.91111607962568"><ele>51.0</ele><time>2026-04-12T10:39:13.28Z</time></trkpt><trkpt lat="43.80077428347428" lon="10.910941078125338"><ele>51.0</ele><time>2026-04-12T10:39:15.28Z</time></trkpt><trkpt lat="43.800767049046634" lon="10.91076958758496"><ele>51.0</ele><time>2026-04-12T10:39:17.28Z</time></trkpt><trkpt lat="43.800777687267164" lon="10.91067961294343"><ele>51.0</ele><time>2026-04-12T10:39:18.28Z</time></trkpt><trkpt lat="43.80081195857249" lon="10.910518598714742"><ele>51.0</ele><time>2026-04-12T10:39:20.28Z</time></trkpt><trkpt lat="43.800816050276026" lon="10.91043143913659"><ele>50.8</ele><time>2026-04-12T10:39:21.28Z</time></trkpt><trkpt lat="43.800802692087416" lon="10.910252343193065"><ele>50.599999999999994</ele><time>2026-04-12T10:39:23.28Z</time></trkpt><trkpt lat="43.80078862204905" lon="10.910162706218545"><ele>50.4</ele><time>2026-04-12T10:39:24.28Z</time></trkpt><trkpt lat="43.80077231591327" lon="10.910076747695845"><ele>50.2</ele><time>2026-04-12T10:39:25.28Z</time></trkpt><trkpt lat="43.80075249378403" lon="10.909993643041815"><ele>50.0</ele><time>2026-04-12T10:39:26.28Z</time></trkpt><trkpt lat="43.800703176108335" lon="10.909831139254381"><ele>50.0</ele><time>2026-04-12T10:39:28.28Z</time></trkpt><trkpt lat="43.80064656761713" lon="10.909676131665831"><ele>50.0</ele><time>2026-04-12T10:39:30.279Z</time></trkpt><trkpt lat="43.800615583335805" lon="10.909596437443502"><ele>50.0</ele><time>2026-04-12T10:39:31.279Z</time></trkpt><trkpt lat="43.80055291225129" lon="10.909439988371332"><ele>50.0</ele><time>2026-04-12T10:39:33.279Z</time></trkpt><trkpt lat="43.80052092931697" lon="10.909361862511606"><ele>50.0</ele><time>2026-04-12T10:39:34.279Z</time></trkpt><trkpt lat="43.80048843368094" lon="10.909283397415587"><ele>51.0</ele><time>2026-04-12T10:39:35.279Z</time></trkpt><trkpt lat="43.8004539238986" lon="10.90920716198168"><ele>52.0</ele><time>2026-04-12T10:39:36.279Z</time></trkpt><trkpt lat="43.80041478923223" lon="10.909130921536574"><ele>53.0</ele><time>2026-04-12T10:39:37.279Z</time></trkpt><trkpt lat="43.800375191066586" lon="10.90906146142595"><ele>54.0</ele><time>2026-04-12T10:39:38.279Z</time></trkpt><trkpt lat="43.80032636019347" lon="10.908993481509928"><ele>54.99999999999999</ele><time>2026-04-12T10:39:39.279Z</time></trkpt><trkpt lat="43.80027658034133" lon="10.908932522807667"><ele>56.0</ele><time>2026-04-12T10:39:40.279Z</time></trkpt><trkpt lat="43.800228959019215" lon="10.908873634694306"><ele>57.0</ele><time>2026-04-12T10:39:41.279Z</time></trkpt><trkpt lat="43.800181970504084" lon="10.90881162522469"><ele>56.0</ele><time>2026-04-12T10:39:42.279Z</time></trkpt><trkpt lat="43.80009018702572" lon="10.908690501078286"><ele>55.0</ele><time>2026-04-12T10:39:44.279Z</time></trkpt><trkpt lat="43.800041960478204" lon="10.908626857973546"><ele>54.0</ele><time>2026-04-12T10:39:45.279Z</time></trkpt><trkpt lat="43.79999604839998" lon="10.90856626922525"><ele>53.0</ele><time>2026-04-12T10:39:46.279Z</time></trkpt><trkpt lat="43.799946364648484" lon="10.908503236390358"><ele>52.0</ele><time>2026-04-12T10:39:47.279Z</time></trkpt><trkpt lat="43.79985374419266" lon="10.908386292419161"><ele>51.0</ele><time>2026-04-12T10:39:49.279Z</time></trkpt><trkpt lat="43.79976382827722" lon="10.908272762882076"><ele>51.0</ele><time>2026-04-12T10:39:51.279Z</time></trkpt><trkpt lat="43.79967314078514" lon="10.908152677563733"><ele>51.0</ele><time>2026-04-12T10:39:53.279Z</time></trkpt><trkpt lat="43.79959361465232" lon="10.908028183191995"><ele>51.0</ele><time>2026-04-12T10:39:55.279Z</time></trkpt><trkpt lat="43.799519363037255" lon="10.907893404200076"><ele>51.0</ele><time>2026-04-12T10:39:57.279Z</time></trkpt><trkpt lat="43.79945112129751" lon="10.907753332082011"><ele>51.0</ele><time>2026-04-12T10:39:59.279Z</time></trkpt><trkpt lat="43.79939022298197" lon="10.90761277878635"><ele>51.0</ele><time>2026-04-12T10:40:01.279Z</time></trkpt><trkpt lat="43.79933730240427" lon="10.907462762338781"><ele>51.0</ele><time>2026-04-12T10:40:03.279Z</time></trkpt><trkpt lat="43.79930396105215" lon="10.90738835616513"><ele>51.0</ele><time>2026-04-12T10:40:04.279Z</time></trkpt><trkpt lat="43.799258146261096" lon="10.907323867675068"><ele>51.0</ele><time>2026-04-12T10:40:05.279Z</time></trkpt><trkpt lat="43.79916079430037" lon="10.90722428673484"><ele>50.199999999999996</ele><time>2026-04-12T10:40:07.279Z</time></trkpt><trkpt lat="43.79909491737396" lon="10.90708157489526"><ele>49.4</ele><time>2026-04-12T10:40:09.279Z</time></trkpt><trkpt lat="43.7990333665305" lon="10.906933526663837"><ele>48.6</ele><time>2026-04-12T10:40:11.279Z</time></trkpt><trkpt lat="43.799027214452316" lon="10.90684583313249"><ele>47.8</ele><time>2026-04-12T10:40:12.279Z</time></trkpt><trkpt lat="43.799027819094846" lon="10.906756633053982"><ele>47.0</ele><time>2026-04-12T10:40:13.279Z</time></trkpt><trkpt lat="43.79901539942154" lon="10.906597228393279"><ele>46.8</ele><time>2026-04-12T10:40:15.279Z</time></trkpt><trkpt lat="43.7990038580594" lon="10.9064512876317"><ele>46.6</ele><time>2026-04-12T10:40:17.279Z</time></trkpt><trkpt lat="43.7989800258603" lon="10.906305622041346"><ele>46.4</ele><time>2026-04-12T10:40:19.279Z</time></trkpt><trkpt lat="43.798963499422136" lon="10.906160311237722"><ele>46.199999999999996</ele><time>2026-04-12T10:40:21.279Z</time></trkpt><trkpt lat="43.79891528279415" lon="10.906031464860744"><ele>46.0</ele><time>2026-04-12T10:40:23.279Z</time></trkpt><trkpt lat="43.79886962649364" lon="10.905893044253153"><ele>46.4</ele><time>2026-04-12T10:40:25.279Z</time></trkpt><trkpt lat="43.79882045965643" lon="10.905770464974712"><ele>46.8</ele><time>2026-04-12T10:40:27.279Z</time></trkpt><trkpt lat="43.79879488890829" lon="10.905669641622982"><ele>47.199999999999996</ele><time>2026-04-12T10:40:29.279Z</time></trkpt><trkpt lat="43.79865363309334" lon="10.905702554850745"><ele>47.599999999999994</ele><time>2026-04-12T10:40:33.279Z</time></trkpt><trkpt lat="43.79857260029112" lon="10.905765976486268"><ele>48.0</ele><time>2026-04-12T10:40:35.279Z</time></trkpt><trkpt lat="43.798485293442354" lon="10.905835458044749"><ele>47.2</ele><time>2026-04-12T10:40:37.279Z</time></trkpt><trkpt lat="43.798385116111334" lon="10.905898911297975"><ele>46.4</ele><time>2026-04-12T10:40:39.279Z</time></trkpt><trkpt lat="43.79827939268231" lon="10.905960325865959"><ele>45.6</ele><time>2026-04-12T10:40:41.279Z</time></trkpt><trkpt lat="43.79817988125589" lon="10.906017968534819"><ele>44.800000000000004</ele><time>2026-04-12T10:40:43.279Z</time></trkpt><trkpt lat="43.798082944455615" lon="10.906078228230154"><ele>44.0</ele><time>2026-04-12T10:40:45.279Z</time></trkpt><trkpt lat="43.79798679835146" lon="10.906133092521141"><ele>44.0</ele><time>2026-04-12T10:40:47.279Z</time></trkpt><trkpt lat="43.797899046813136" lon="10.906183537968795"><ele>44.0</ele><time>2026-04-12T10:40:49.279Z</time></trkpt><trkpt lat="43.79781308765352" lon="10.906232575569941"><ele>44.0</ele><time>2026-04-12T10:40:51.279Z</time></trkpt><trkpt lat="43.79772943253448" lon="10.90627953352822"><ele>44.0</ele><time>2026-04-12T10:40:53.279Z</time></trkpt><trkpt lat="43.79765179195357" lon="10.90633032891243"><ele>44.0</ele><time>2026-04-12T10:40:55.279Z</time></trkpt><trkpt lat="43.79757979837903" lon="10.906370783095197"><ele>44.0</ele><time>2026-04-12T10:40:57.279Z</time></trkpt><trkpt lat="43.79751252899008" lon="10.906408974484291"><ele>45.142857142857146</ele><time>2026-04-12T10:40:59.279Z</time></trkpt><trkpt lat="43.79744808808088" lon="10.906444577168212"><ele>46.285714285714285</ele><time>2026-04-12T10:41:01.279Z</time></trkpt><trkpt lat="43.79738151810861" lon="10.906475979384366"><ele>47.42857142857143</ele><time>2026-04-12T10:41:03.279Z</time></trkpt><trkpt lat="43.79731467995409" lon="10.906503407099578"><ele>48.57142857142857</ele><time>2026-04-12T10:41:05.279Z</time></trkpt><trkpt lat="43.797239425306465" lon="10.90652988904349"><ele>49.714285714285715</ele><time>2026-04-12T10:41:07.279Z</time></trkpt><trkpt lat="43.79716867715865" lon="10.906546016563361"><ele>50.857142857142854</ele><time>2026-04-12T10:41:09.279Z</time></trkpt><trkpt lat="43.797097042870554" lon="10.906554232453441"><ele>52.0</ele><time>2026-04-12T10:41:11.279Z</time></trkpt><trkpt lat="43.797024323819954" lon="10.906556099370924"><ele>51.99999999999999</ele><time>2026-04-12T10:41:13.279Z</time></trkpt><trkpt lat="43.79695212898057" lon="10.906559087185748"><ele>52.0</ele><time>2026-04-12T10:41:15.279Z</time></trkpt><trkpt lat="43.79684833438947" lon="10.906540386740689"><ele>52.0</ele><time>2026-04-12T10:41:18.279Z</time></trkpt><trkpt lat="43.79677609247442" lon="10.90652220949926"><ele>52.0</ele><time>2026-04-12T10:41:20.279Z</time></trkpt><trkpt lat="43.7967100440375" lon="10.906510525534655"><ele>51.99999999999999</ele><time>2026-04-12T10:41:22.279Z</time></trkpt><trkpt lat="43.79661833909647" lon="10.906490844870406"><ele>52.0</ele><time>2026-04-12T10:41:25.279Z</time></trkpt><trkpt lat="43.79653602553114" lon="10.906458160918811"><ele>52.57142857142857</ele><time>2026-04-12T10:41:28.279Z</time></trkpt><trkpt lat="43.79647137165221" lon="10.906434024558692"><ele>53.142857142857146</ele><time>2026-04-12T10:41:30.279Z</time></trkpt><trkpt lat="43.796384712252795" lon="10.906393818612349"><ele>53.714285714285715</ele><time>2026-04-12T10:41:33.279Z</time></trkpt><trkpt lat="43.796320061704265" lon="10.906379428727034"><ele>54.285714285714285</ele><time>2026-04-12T10:41:35.279Z</time></trkpt><trkpt lat="43.796255662050875" lon="10.906363570848988"><ele>54.85714285714286</ele><time>2026-04-12T10:41:37.277Z</time></trkpt><trkpt lat="43.796186568066815" lon="10.906349821534178"><ele>55.42857142857143</ele><time>2026-04-12T10:41:39.277Z</time></trkpt><trkpt lat="43.796112027570835" lon="10.906327774050222"><ele>56.0</ele><time>2026-04-12T10:41:41.277Z</time></trkpt><trkpt lat="43.79603378008208" lon="10.906301897618594"><ele>55.0</ele><time>2026-04-12T10:41:43.277Z</time></trkpt><trkpt lat="43.795949405570255" lon="10.90628378516035"><ele>53.99999999999999</ele><time>2026-04-12T10:41:45.277Z</time></trkpt><trkpt lat="43.79585403963498" lon="10.906257260863656"><ele>53.0</ele><time>2026-04-12T10:41:47.277Z</time></trkpt><trkpt lat="43.795749680446455" lon="10.90624100671847"><ele>52.0</ele><time>2026-04-12T10:41:49.277Z</time></trkpt><trkpt lat="43.79562829007467" lon="10.906246547144992"><ele>51.0</ele><time>2026-04-12T10:41:51.277Z</time></trkpt><trkpt lat="43.79555888325274" lon="10.9062557688491"><ele>51.0</ele><time>2026-04-12T10:41:52.277Z</time></trkpt><trkpt lat="43.79548812615591" lon="10.906277430566371"><ele>51.0</ele><time>2026-04-12T10:41:53.277Z</time></trkpt><trkpt lat="43.79541331198595" lon="10.906301101631566"><ele>51.0</ele><time>2026-04-12T10:41:54.277Z</time></trkpt><trkpt lat="43.79533226914962" lon="10.90633270575836"><ele>51.0</ele><time>2026-04-12T10:41:55.277Z</time></trkpt><trkpt lat="43.79525431141734" lon="10.906364794863292"><ele>51.0</ele><time>2026-04-12T10:41:56.277Z</time></trkpt><trkpt lat="43.79516542677717" lon="10.906401659087058"><ele>51.0</ele><time>2026-04-12T10:41:57.277Z</time></trkpt><trkpt lat="43.79507078054532" lon="10.906434609425517"><ele>50.0</ele><time>2026-04-12T10:41:58.277Z</time></trkpt><trkpt lat="43.794971391402235" lon="10.906474001423993"><ele>49.0</ele><time>2026-04-12T10:41:59.277Z</time></trkpt><trkpt lat="43.79486479478158" lon="10.906520937727135"><ele>48.0</ele><time>2026-04-12T10:42:00.277Z</time></trkpt><trkpt lat="43.79475457082425" lon="10.906565309406012"><ele>47.0</ele><time>2026-04-12T10:42:01.277Z</time></trkpt><trkpt lat="43.79464514212104" lon="10.906616037109176"><ele>46.0</ele><time>2026-04-12T10:42:02.277Z</time></trkpt><trkpt lat="43.79453415227259" lon="10.90666456181158"><ele>46.0</ele><time>2026-04-12T10:42:03.277Z</time></trkpt><trkpt lat="43.79442424182544" lon="10.906723404245204"><ele>46.0</ele><time>2026-04-12T10:42:04.277Z</time></trkpt><trkpt lat="43.79431929532159" lon="10.906798656490839"><ele>46.0</ele><time>2026-04-12T10:42:05.277Z</time></trkpt><trkpt lat="43.79421983795473" lon="10.90688604926193"><ele>46.0</ele><time>2026-04-12T10:42:06.277Z</time></trkpt><trkpt lat="43.794127493935676" lon="10.906981371867277"><ele>46.199999999999996</ele><time>2026-04-12T10:42:07.277Z</time></trkpt><trkpt lat="43.794047950667704" lon="10.907091286154511"><ele>46.4</ele><time>2026-04-12T10:42:08.277Z</time></trkpt><trkpt lat="43.79398362099896" lon="10.907214321316589"><ele>46.6</ele><time>2026-04-12T10:42:09.277Z</time></trkpt><trkpt lat="43.79393100466498" lon="10.907344187960614"><ele>46.8</ele><time>2026-04-12T10:42:10.277Z</time></trkpt><trkpt lat="43.793890725410826" lon="10.907474550614015"><ele>47.0</ele><time>2026-04-12T10:42:11.277Z</time></trkpt><trkpt lat="43.79385869783016" lon="10.907598715020084"><ele>47.0</ele><time>2026-04-12T10:42:12.277Z</time></trkpt><trkpt lat="43.793832211273305" lon="10.907725588808201"><ele>47.0</ele><time>2026-04-12T10:42:13.277Z</time></trkpt><trkpt lat="43.7938087877741" lon="10.907842403443885"><ele>47.0</ele><time>2026-04-12T10:42:14.277Z</time></trkpt><trkpt lat="43.793784585951116" lon="10.907957707240934"><ele>47.0</ele><time>2026-04-12T10:42:15.277Z</time></trkpt><trkpt lat="43.79376352782789" lon="10.908070225046647"><ele>47.0</ele><time>2026-04-12T10:42:16.277Z</time></trkpt><trkpt lat="43.79373990496085" lon="10.90816854364993"><ele>47.0</ele><time>2026-04-12T10:42:17.277Z</time></trkpt><trkpt lat="43.79371215996943" lon="10.908267563856205"><ele>47.0</ele><time>2026-04-12T10:42:18.277Z</time></trkpt><trkpt lat="43.7936913831804" lon="10.908357319830095"><ele>47.0</ele><time>2026-04-12T10:42:19.277Z</time></trkpt><trkpt lat="43.793675121002" lon="10.908450920294484"><ele>47.0</ele><time>2026-04-12T10:42:20.277Z</time></trkpt><trkpt lat="43.79366310526193" lon="10.908539296213378"><ele>47.0</ele><time>2026-04-12T10:42:21.277Z</time></trkpt><trkpt lat="43.79366033123022" lon="10.908629448468155"><ele>47.0</ele><time>2026-04-12T10:42:22.277Z</time></trkpt><trkpt lat="43.79365760505046" lon="10.908717361711947"><ele>47.0</ele><time>2026-04-12T10:42:23.277Z</time></trkpt><trkpt lat="43.79365696523106" lon="10.908883619713619"><ele>47.5</ele><time>2026-04-12T10:42:25.277Z</time></trkpt><trkpt lat="43.79366057512541" lon="10.909046806512649"><ele>48.0</ele><time>2026-04-12T10:42:27.277Z</time></trkpt><trkpt lat="43.79365594824567" lon="10.909206466595473"><ele>48.5</ele><time>2026-04-12T10:42:29.277Z</time></trkpt><trkpt lat="43.7936601598887" lon="10.90936353357446"><ele>49.0</ele><time>2026-04-12T10:42:31.277Z</time></trkpt><trkpt lat="43.79365247794699" lon="10.909517763953486"><ele>49.6</ele><time>2026-04-12T10:42:33.277Z</time></trkpt><trkpt lat="43.793634573689445" lon="10.909666964225378"><ele>50.2</ele><time>2026-04-12T10:42:35.277Z</time></trkpt><trkpt lat="43.79360673601874" lon="10.909817346980944"><ele>50.800000000000004</ele><time>2026-04-12T10:42:37.277Z</time></trkpt><trkpt lat="43.7935607906754" lon="10.909955056398184"><ele>51.400000000000006</ele><time>2026-04-12T10:42:39.277Z</time></trkpt><trkpt lat="43.79350838450315" lon="10.910087299124612"><ele>52.0</ele><time>2026-04-12T10:42:41.277Z</time></trkpt><trkpt lat="43.793443547013204" lon="10.91020339513765"><ele>52.400000000000006</ele><time>2026-04-12T10:42:43.277Z</time></trkpt><trkpt lat="43.79337244741038" lon="10.910319515278362"><ele>52.800000000000004</ele><time>2026-04-12T10:42:45.277Z</time></trkpt><trkpt lat="43.79329297105095" lon="10.910422325542845"><ele>53.2</ele><time>2026-04-12T10:42:47.277Z</time></trkpt><trkpt lat="43.79320981816201" lon="10.91051741900101"><ele>53.6</ele><time>2026-04-12T10:42:49.277Z</time></trkpt><trkpt lat="43.79313041014535" lon="10.910614916226704"><ele>54.0</ele><time>2026-04-12T10:42:51.277Z</time></trkpt><trkpt lat="43.7930513792472" lon="10.910707646002896"><ele>54.0</ele><time>2026-04-12T10:42:53.277Z</time></trkpt><trkpt lat="43.792975526137155" lon="10.910793723642614"><ele>54.00000000000001</ele><time>2026-04-12T10:42:55.277Z</time></trkpt><trkpt lat="43.79290653433728" lon="10.910875530829626"><ele>54.00000000000001</ele><time>2026-04-12T10:42:57.277Z</time></trkpt><trkpt lat="43.79284103845113" lon="10.91095730466432"><ele>54.0</ele><time>2026-04-12T10:42:59.277Z</time></trkpt><trkpt lat="43.79277015346679" lon="10.911031529134169"><ele>54.0</ele><time>2026-04-12T10:43:01.277Z</time></trkpt><trkpt lat="43.79270108663586" lon="10.911117626616827"><ele>54.400000000000006</ele><time>2026-04-12T10:43:03.277Z</time></trkpt><trkpt lat="43.79262799159748" lon="10.911206622795325"><ele>54.800000000000004</ele><time>2026-04-12T10:43:05.277Z</time></trkpt><trkpt lat="43.7925511732808" lon="10.911284515052508"><ele>55.199999999999996</ele><time>2026-04-12T10:43:07.277Z</time></trkpt><trkpt lat="43.792475747545836" lon="10.911371225934227"><ele>55.599999999999994</ele><time>2026-04-12T10:43:09.277Z</time></trkpt><trkpt lat="43.79239721313538" lon="10.911457532644942"><ele>56.0</ele><time>2026-04-12T10:43:11.278Z</time></trkpt><trkpt lat="43.79231790224605" lon="10.911540901466926"><ele>56.0</ele><time>2026-04-12T10:43:13.278Z</time></trkpt><trkpt lat="43.79224366931435" lon="10.911626840242974"><ele>55.99999999999999</ele><time>2026-04-12T10:43:15.278Z</time></trkpt><trkpt lat="43.79217200629677" lon="10.911709086544974"><ele>55.99999999999999</ele><time>2026-04-12T10:43:17.278Z</time></trkpt><trkpt lat="43.79210511552828" lon="10.911790971241846"><ele>56.0</ele><time>2026-04-12T10:43:19.278Z</time></trkpt><trkpt lat="43.792032631202076" lon="10.911864593626905"><ele>56.0</ele><time>2026-04-12T10:43:21.278Z</time></trkpt><trkpt lat="43.791961963447534" lon="10.911940021664082"><ele>56.16666666666667</ele><time>2026-04-12T10:43:23.278Z</time></trkpt><trkpt lat="43.791895326299105" lon="10.912017177727378"><ele>56.333333333333336</ele><time>2026-04-12T10:43:25.278Z</time></trkpt><trkpt lat="43.79183256966632" lon="10.912091440457676"><ele>56.5</ele><time>2026-04-12T10:43:27.278Z</time></trkpt><trkpt lat="43.79177094904106" lon="10.912161294699276"><ele>56.66666666666667</ele><time>2026-04-12T10:43:29.278Z</time></trkpt><trkpt lat="43.79171376065371" lon="10.912233851511415"><ele>56.833333333333336</ele><time>2026-04-12T10:43:31.278Z</time></trkpt><trkpt lat="43.79165601418254" lon="10.91229879176486"><ele>57.0</ele><time>2026-04-12T10:43:33.278Z</time></trkpt><trkpt lat="43.79160131116071" lon="10.912363373832713"><ele>57.285714285714285</ele><time>2026-04-12T10:43:35.278Z</time></trkpt><trkpt lat="43.79154598355576" lon="10.912423029496379"><ele>57.57142857142857</ele><time>2026-04-12T10:43:37.278Z</time></trkpt><trkpt lat="43.79149505861567" lon="10.912488607413332"><ele>57.857142857142854</ele><time>2026-04-12T10:43:39.278Z</time></trkpt><trkpt lat="43.791438732942254" lon="10.91254819771311"><ele>58.14285714285714</ele><time>2026-04-12T10:43:41.276Z</time></trkpt><trkpt lat="43.79138537259143" lon="10.9126095301552"><ele>58.42857142857143</ele><time>2026-04-12T10:43:43.276Z</time></trkpt><trkpt lat="43.79133086977283" lon="10.912669094032053"><ele>58.71428571428571</ele><time>2026-04-12T10:43:45.276Z</time></trkpt><trkpt lat="43.79127894311878" lon="10.912733417245887"><ele>59.0</ele><time>2026-04-12T10:43:47.276Z</time></trkpt><trkpt lat="43.79122828010884" lon="10.91279078799297"><ele>59.00000000000001</ele><time>2026-04-12T10:43:49.276Z</time></trkpt><trkpt lat="43.7911800795327" lon="10.912848891297482"><ele>59.0</ele><time>2026-04-12T10:43:51.276Z</time></trkpt><trkpt lat="43.79110868164105" lon="10.912928432711409"><ele>59.0</ele><time>2026-04-12T10:43:54.276Z</time></trkpt><trkpt lat="43.79103931398184" lon="10.913008162321187"><ele>59.0</ele><time>2026-04-12T10:43:57.276Z</time></trkpt><trkpt lat="43.790979876925014" lon="10.913083457801482"><ele>59.00000000000001</ele><time>2026-04-12T10:44:00.276Z</time></trkpt><trkpt lat="43.79092716278213" lon="10.913137759624117"><ele>59.0</ele><time>2026-04-12T10:44:02.276Z</time></trkpt><trkpt lat="43.790876282489805" lon="10.91319264164753"><ele>58.857142857142854</ele><time>2026-04-12T10:44:04.276Z</time></trkpt><trkpt lat="43.790825742029405" lon="10.91325152722129"><ele>58.71428571428572</ele><time>2026-04-12T10:44:06.276Z</time></trkpt><trkpt lat="43.79077571413397" lon="10.913309437140882"><ele>58.57142857142858</ele><time>2026-04-12T10:44:08.276Z</time></trkpt><trkpt lat="43.790725198912284" lon="10.91336933573136"><ele>58.42857142857143</ele><time>2026-04-12T10:44:10.276Z</time></trkpt><trkpt lat="43.79067518702296" lon="10.913423436396204"><ele>58.28571428571429</ele><time>2026-04-12T10:44:12.276Z</time></trkpt><trkpt lat="43.79062656163853" lon="10.913484903243361"><ele>58.14285714285715</ele><time>2026-04-12T10:44:14.276Z</time></trkpt><trkpt lat="43.79054675215738" lon="10.913528784213295"><ele>58.00000000000001</ele><time>2026-04-12T10:44:17.276Z</time></trkpt><trkpt lat="43.790442497905644" lon="10.913336767675847"><ele>58.00000000000001</ele><time>2026-04-12T10:44:22.276Z</time></trkpt><trkpt lat="43.79038963788824" lon="10.91327239727683"><ele>58.0</ele><time>2026-04-12T10:44:24.276Z</time></trkpt><trkpt lat="43.79033725334186" lon="10.91320541870294"><ele>58.00000000000001</ele><time>2026-04-12T10:44:26.276Z</time></trkpt><trkpt lat="43.790289875970124" lon="10.913144995126434"><ele>58.00000000000001</ele><time>2026-04-12T10:44:28.276Z</time></trkpt><trkpt lat="43.7902361568864" lon="10.913075899215261"><ele>58.0</ele><time>2026-04-12T10:44:30.276Z</time></trkpt><trkpt lat="43.79018695057954" lon="10.913012607817432"><ele>58.00000000000001</ele><time>2026-04-12T10:44:32.276Z</time></trkpt><trkpt lat="43.79012460288146" lon="10.912923951703544"><ele>58.00000000000001</ele><time>2026-04-12T10:44:35.276Z</time></trkpt><trkpt lat="43.790069327816525" lon="10.912824665638995"><ele>58.28571428571429</ele><time>2026-04-12T10:44:38.276Z</time></trkpt><trkpt lat="43.79001175863467" lon="10.912731530530701"><ele>58.57142857142857</ele><time>2026-04-12T10:44:41.276Z</time></trkpt><trkpt lat="43.78996545186867" lon="10.912668614087718"><ele>58.85714285714286</ele><time>2026-04-12T10:44:43.276Z</time></trkpt><trkpt lat="43.78991022169725" lon="10.912599696357873"><ele>59.142857142857146</ele><time>2026-04-12T10:44:45.276Z</time></trkpt><trkpt lat="43.789854229804945" lon="10.912544312928047"><ele>59.42857142857143</ele><time>2026-04-12T10:44:47.276Z</time></trkpt><trkpt lat="43.78979161454291" lon="10.9125116797106"><ele>59.714285714285715</ele><time>2026-04-12T10:44:49.276Z</time></trkpt><trkpt lat="43.789724332532806" lon="10.912502167547926"><ele>60.0</ele><time>2026-04-12T10:44:51.276Z</time></trkpt><trkpt lat="43.78965524442303" lon="10.912554123801298"><ele>60.0</ele><time>2026-04-12T10:44:53.276Z</time></trkpt><trkpt lat="43.78958474265211" lon="10.912551056831264"><ele>60.0</ele><time>2026-04-12T10:44:55.276Z</time></trkpt><trkpt lat="43.789522175101965" lon="10.91256808737822"><ele>60.0</ele><time>2026-04-12T10:44:57.276Z</time></trkpt><trkpt lat="43.78945995705621" lon="10.91258502705268"><ele>60.0</ele><time>2026-04-12T10:44:59.276Z</time></trkpt><trkpt lat="43.78937613335255" lon="10.912607845232555"><ele>60.0</ele><time>2026-04-12T10:45:02.276Z</time></trkpt><trkpt lat="43.78937064736801" lon="10.912762611520435"><ele>60.0</ele><time>2026-04-12T10:45:03.276Z</time></trkpt><trkpt lat="43.78928468094993" lon="10.912816905276758"><ele>60.2</ele><time>2026-04-12T10:45:06.276Z</time></trkpt><trkpt lat="43.7892145197622" lon="10.912797880003527"><ele>60.4</ele><time>2026-04-12T10:45:08.276Z</time></trkpt><trkpt lat="43.78914827953475" lon="10.91272153467625"><ele>60.599999999999994</ele><time>2026-04-12T10:45:10.276Z</time></trkpt><trkpt lat="43.78907098071952" lon="10.912643238618346"><ele>60.8</ele><time>2026-04-12T10:45:12.276Z</time></trkpt><trkpt lat="43.78898221058147" lon="10.912556775505596"><ele>61.0</ele><time>2026-04-12T10:45:14.276Z</time></trkpt><trkpt lat="43.78888124204718" lon="10.912450267790579"><ele>60.99999999999999</ele><time>2026-04-12T10:45:16.276Z</time></trkpt><trkpt lat="43.78877785805513" lon="10.912347997078843"><ele>61.0</ele><time>2026-04-12T10:45:18.276Z</time></trkpt><trkpt lat="43.78872878579484" lon="10.912288592686336"><ele>61.0</ele><time>2026-04-12T10:45:19.276Z</time></trkpt><trkpt lat="43.78867397053601" lon="10.912225115601121"><ele>61.0</ele><time>2026-04-12T10:45:20.276Z</time></trkpt><trkpt lat="43.788622054450414" lon="10.912165001106004"><ele>60.99999999999999</ele><time>2026-04-12T10:45:21.276Z</time></trkpt><trkpt lat="43.78856689216442" lon="10.91210009308142"><ele>61.0</ele><time>2026-04-12T10:45:22.276Z</time></trkpt><trkpt lat="43.788477506657784" lon="10.91199559317659"><ele>60.28571428571428</ele><time>2026-04-12T10:45:24.276Z</time></trkpt><trkpt lat="43.788409095749" lon="10.911934072189887"><ele>59.57142857142857</ele><time>2026-04-12T10:45:25.276Z</time></trkpt><trkpt lat="43.78835378306624" lon="10.911862803976112"><ele>58.857142857142854</ele><time>2026-04-12T10:45:26.276Z</time></trkpt><trkpt lat="43.788300170695145" lon="10.911798912134099"><ele>58.14285714285714</ele><time>2026-04-12T10:45:27.276Z</time></trkpt><trkpt lat="43.78824875718752" lon="10.911742012618584"><ele>57.42857142857143</ele><time>2026-04-12T10:45:28.276Z</time></trkpt><trkpt lat="43.7881888232845" lon="10.911680407584038"><ele>56.714285714285715</ele><time>2026-04-12T10:45:29.276Z</time></trkpt><trkpt lat="43.78813159062781" lon="10.91161546427651"><ele>56.0</ele><time>2026-04-12T10:45:30.276Z</time></trkpt><trkpt lat="43.78808133578076" lon="10.91155673488467"><ele>56.00000000000001</ele><time>2026-04-12T10:45:31.276Z</time></trkpt><trkpt lat="43.788025893650214" lon="10.91149320875996"><ele>56.0</ele><time>2026-04-12T10:45:32.276Z</time></trkpt><trkpt lat="43.7879696485993" lon="10.911431254564313"><ele>56.0</ele><time>2026-04-12T10:45:33.276Z</time></trkpt><trkpt lat="43.78791536409548" lon="10.91138107849961"><ele>56.0</ele><time>2026-04-12T10:45:34.276Z</time></trkpt><trkpt lat="43.78782920739425" lon="10.911285818692113"><ele>56.00000000000001</ele><time>2026-04-12T10:45:36.276Z</time></trkpt><trkpt lat="43.787744810055294" lon="10.91118997578451"><ele>56.0</ele><time>2026-04-12T10:45:38.276Z</time></trkpt><trkpt lat="43.78764929761079" lon="10.911094321663219"><ele>54.8</ele><time>2026-04-12T10:45:40.276Z</time></trkpt><trkpt lat="43.78753934259808" lon="10.911023681876667"><ele>53.599999999999994</ele><time>2026-04-12T10:45:42.276Z</time></trkpt><trkpt lat="43.78743977594715" lon="10.910994373186915"><ele>52.4</ele><time>2026-04-12T10:45:44.276Z</time></trkpt><trkpt lat="43.7873452110298" lon="10.910974700207928"><ele>51.2</ele><time>2026-04-12T10:45:46.276Z</time></trkpt><trkpt lat="43.787276199655345" lon="10.910950482681546"><ele>50.0</ele><time>2026-04-12T10:45:48.275Z</time></trkpt><trkpt lat="43.78718973727539" lon="10.910923033721241"><ele>50.0</ele><time>2026-04-12T10:45:50.275Z</time></trkpt><trkpt lat="43.78712358587387" lon="10.910914984097603"><ele>50.0</ele><time>2026-04-12T10:45:52.275Z</time></trkpt><trkpt lat="43.78702909324737" lon="10.910892727938844"><ele>50.0</ele><time>2026-04-12T10:45:54.275Z</time></trkpt><trkpt lat="43.78694294307465" lon="10.910883060912646"><ele>50.0</ele><time>2026-04-12T10:45:56.275Z</time></trkpt><trkpt lat="43.78683452519177" lon="10.910853283266219"><ele>50.0</ele><time>2026-04-12T10:45:58.275Z</time></trkpt><trkpt lat="43.78672110315282" lon="10.910815328688258"><ele>49.16666666666667</ele><time>2026-04-12T10:46:00.275Z</time></trkpt><trkpt lat="43.78659630701474" lon="10.910778610542707"><ele>48.333333333333336</ele><time>2026-04-12T10:46:02.275Z</time></trkpt><trkpt lat="43.786530547617" lon="10.910760997280875"><ele>47.5</ele><time>2026-04-12T10:46:03.275Z</time></trkpt><trkpt lat="43.78646573653953" lon="10.91073881511381"><ele>46.66666666666667</ele><time>2026-04-12T10:46:04.275Z</time></trkpt><trkpt lat="43.78634699062242" lon="10.910714452981765"><ele>45.833333333333336</ele><time>2026-04-12T10:46:06.275Z</time></trkpt><trkpt lat="43.786283116367265" lon="10.91070060342886"><ele>45.0</ele><time>2026-04-12T10:46:07.275Z</time></trkpt><trkpt lat="43.7862188119024" lon="10.910681176140839"><ele>45.0</ele><time>2026-04-12T10:46:08.275Z</time></trkpt><trkpt lat="43.786097964755115" lon="10.9106684348574"><ele>45.0</ele><time>2026-04-12T10:46:10.275Z</time></trkpt><trkpt lat="43.78603551191212" lon="10.910655410196114"><ele>45.0</ele><time>2026-04-12T10:46:11.275Z</time></trkpt><trkpt lat="43.78591562309193" lon="10.910619850511404"><ele>45.0</ele><time>2026-04-12T10:46:13.275Z</time></trkpt><trkpt lat="43.785803698594805" lon="10.910591854283942"><ele>45.0</ele><time>2026-04-12T10:46:15.275Z</time></trkpt><trkpt lat="43.78569528186626" lon="10.910564406014107"><ele>44.5</ele><time>2026-04-12T10:46:17.275Z</time></trkpt><trkpt lat="43.785592965854974" lon="10.910542296420292"><ele>44.0</ele><time>2026-04-12T10:46:19.275Z</time></trkpt><trkpt lat="43.78549403503374" lon="10.910522619158662"><ele>43.5</ele><time>2026-04-12T10:46:21.275Z</time></trkpt><trkpt lat="43.78541493586975" lon="10.910492070161263"><ele>43.0</ele><time>2026-04-12T10:46:23.275Z</time></trkpt><trkpt lat="43.785339567929924" lon="10.910478217008238"><ele>42.5</ele><time>2026-04-12T10:46:25.275Z</time></trkpt><trkpt lat="43.78527274219527" lon="10.910461284571426"><ele>42.0</ele><time>2026-04-12T10:46:27.275Z</time></trkpt><trkpt lat="43.785193941841236" lon="10.910456025505892"><ele>42.0</ele><time>2026-04-12T10:46:29.275Z</time></trkpt><trkpt lat="43.78511335863109" lon="10.91047513444299"><ele>42.0</ele><time>2026-04-12T10:46:31.275Z</time></trkpt><trkpt lat="43.78504402539113" lon="10.910529922529218"><ele>42.0</ele><time>2026-04-12T10:46:33.275Z</time></trkpt><trkpt lat="43.784972586851616" lon="10.910584913021365"><ele>42.0</ele><time>2026-04-12T10:46:35.275Z</time></trkpt><trkpt lat="43.78490380867493" lon="10.910629294334456"><ele>42.0</ele><time>2026-04-12T10:46:37.275Z</time></trkpt><trkpt lat="43.78483122718865" lon="10.910673189193048"><ele>42.0</ele><time>2026-04-12T10:46:39.275Z</time></trkpt><trkpt lat="43.7847556776524" lon="10.91070264695566"><ele>42.0</ele><time>2026-04-12T10:46:41.275Z</time></trkpt><trkpt lat="43.78468513530044" lon="10.910742528393625"><ele>42.0</ele><time>2026-04-12T10:46:43.275Z</time></trkpt><trkpt lat="43.784613030398184" lon="10.91078478597586"><ele>42.0</ele><time>2026-04-12T10:46:45.275Z</time></trkpt><trkpt lat="43.78454477909803" lon="10.910822779453149"><ele>42.0</ele><time>2026-04-12T10:46:47.275Z</time></trkpt><trkpt lat="43.78448063677123" lon="10.910858884668496"><ele>42.0</ele><time>2026-04-12T10:46:49.275Z</time></trkpt><trkpt lat="43.784420617851794" lon="10.91088905087708"><ele>42.0</ele><time>2026-04-12T10:46:51.275Z</time></trkpt><trkpt lat="43.78434639133241" lon="10.910895609995777"><ele>42.0</ele><time>2026-04-12T10:46:54.275Z</time></trkpt><trkpt lat="43.784282168572986" lon="10.910893917389235"><ele>43.142857142857146</ele><time>2026-04-12T10:46:58.275Z</time></trkpt><trkpt lat="43.78422061089268" lon="10.91087229859408"><ele>44.285714285714285</ele><time>2026-04-12T10:47:02.275Z</time></trkpt><trkpt lat="43.7841508132429" lon="10.910834644919426"><ele>45.42857142857143</ele><time>2026-04-12T10:47:06.275Z</time></trkpt><trkpt lat="43.78408832887589" lon="10.910768650459664"><ele>46.57142857142857</ele><time>2026-04-12T10:47:10.275Z</time></trkpt><trkpt lat="43.78404173262659" lon="10.910697425861258"><ele>47.714285714285715</ele><time>2026-04-12T10:47:14.275Z</time></trkpt><trkpt lat="43.78398903517748" lon="10.910628667113281"><ele>48.85714285714286</ele><time>2026-04-12T10:47:18.275Z</time></trkpt><trkpt lat="43.78393420103521" lon="10.910556056450547"><ele>50.0</ele><time>2026-04-12T10:47:23.275Z</time></trkpt><trkpt lat="43.783889453858656" lon="10.91049005927407"><ele>50.00000000000001</ele><time>2026-04-12T10:47:27.275Z</time></trkpt><trkpt lat="43.783843250874654" lon="10.91042959082415"><ele>50.0</ele><time>2026-04-12T10:47:31.275Z</time></trkpt><trkpt lat="43.78378835340851" lon="10.910368498276009"><ele>50.0</ele><time>2026-04-12T10:47:35.275Z</time></trkpt><trkpt lat="43.7837261732075" lon="10.910308194032975"><ele>50.0</ele><time>2026-04-12T10:47:39.275Z</time></trkpt><trkpt lat="43.78363989746886" lon="10.910357050744533"><ele>50.00000000000001</ele><time>2026-04-12T10:47:44.275Z</time></trkpt><trkpt lat="43.783596950613656" lon="10.910433920700601"><ele>50.0</ele><time>2026-04-12T10:47:48.275Z</time></trkpt><trkpt lat="43.78356174089559" lon="10.910529501338903"><ele>51.142857142857146</ele><time>2026-04-12T10:47:52.275Z</time></trkpt><trkpt lat="43.78351179339138" lon="10.910610875484393"><ele>52.28571428571429</ele><time>2026-04-12T10:47:56.274Z</time></trkpt><trkpt lat="43.78346659718672" lon="10.910695270787597"><ele>53.42857142857143</ele><time>2026-04-12T10:48:00.274Z</time></trkpt><trkpt lat="43.78341556677699" lon="10.910767572703119"><ele>54.57142857142858</ele><time>2026-04-12T10:48:04.274Z</time></trkpt><trkpt lat="43.78336012326065" lon="10.91083861657051"><ele>55.714285714285715</ele><time>2026-04-12T10:48:08.274Z</time></trkpt><trkpt lat="43.783293412058136" lon="10.910877279559449"><ele>56.85714285714287</ele><time>2026-04-12T10:48:12.274Z</time></trkpt><trkpt lat="43.78322446647513" lon="10.910903648826515"><ele>58.00000000000001</ele><time>2026-04-12T10:48:16.274Z</time></trkpt><trkpt lat="43.78315007185087" lon="10.910924528471266"><ele>58.99999999999999</ele><time>2026-04-12T10:48:20.274Z</time></trkpt><trkpt lat="43.78307064811146" lon="10.91093406508565"><ele>60.0</ele><time>2026-04-12T10:48:24.274Z</time></trkpt><trkpt lat="43.78299129357537" lon="10.91094185084251"><ele>61.0</ele><time>2026-04-12T10:48:28.274Z</time></trkpt><trkpt lat="43.78291031410162" lon="10.910948126684524"><ele>62.0</ele><time>2026-04-12T10:48:32.274Z</time></trkpt><trkpt lat="43.782832491164754" lon="10.910950882315683"><ele>62.99999999999999</ele><time>2026-04-12T10:48:36.274Z</time></trkpt><trkpt lat="43.782749449685106" lon="10.910952396474505"><ele>64.0</ele><time>2026-04-12T10:48:40.274Z</time></trkpt><trkpt lat="43.78266967078615" lon="10.910959067356536"><ele>64.71428571428571</ele><time>2026-04-12T10:48:44.274Z</time></trkpt><trkpt lat="43.7825871552966" lon="10.910969338059028"><ele>65.42857142857142</ele><time>2026-04-12T10:48:48.274Z</time></trkpt><trkpt lat="43.78252420764511" lon="10.910977841017003"><ele>66.14285714285714</ele><time>2026-04-12T10:48:51.274Z</time></trkpt><trkpt lat="43.78245757790579" lon="10.910980946017364"><ele>66.85714285714286</ele><time>2026-04-12T10:48:54.274Z</time></trkpt><trkpt lat="43.78239022725508" lon="10.91098143478608"><ele>67.57142857142858</ele><time>2026-04-12T10:48:57.274Z</time></trkpt><trkpt lat="43.78232516132373" lon="10.910989532165228"><ele>68.28571428571429</ele><time>2026-04-12T10:49:00.274Z</time></trkpt><trkpt lat="43.78225721556884" lon="10.910991090573413"><ele>69.0</ele><time>2026-04-12T10:49:03.274Z</time></trkpt><trkpt lat="43.78218911131636" lon="10.910997428899977"><ele>69.0</ele><time>2026-04-12T10:49:06.274Z</time></trkpt><trkpt lat="43.78212078923898" lon="10.911007409503805"><ele>69.0</ele><time>2026-04-12T10:49:09.274Z</time></trkpt><trkpt lat="43.782049334173266" lon="10.911016955375478"><ele>69.0</ele><time>2026-04-12T10:49:12.274Z</time></trkpt><trkpt lat="43.781978930540326" lon="10.91101963841521"><ele>69.0</ele><time>2026-04-12T10:49:15.274Z</time></trkpt><trkpt lat="43.78190509623958" lon="10.911034008380547"><ele>69.0</ele><time>2026-04-12T10:49:18.274Z</time></trkpt><trkpt lat="43.78183641672101" lon="10.911043102555377"><ele>69.0</ele><time>2026-04-12T10:49:21.274Z</time></trkpt><trkpt lat="43.781767124087374" lon="10.911043910216208"><ele>69.0</ele><time>2026-04-12T10:49:24.274Z</time></trkpt><trkpt lat="43.781698180430915" lon="10.911052598656312"><ele>69.57142857142857</ele><time>2026-04-12T10:49:27.274Z</time></trkpt><trkpt lat="43.781628788627266" lon="10.911055001566833"><ele>70.14285714285715</ele><time>2026-04-12T10:49:30.274Z</time></trkpt><trkpt lat="43.7815603501073" lon="10.911070077080602"><ele>70.71428571428572</ele><time>2026-04-12T10:49:33.274Z</time></trkpt><trkpt lat="43.781488662560314" lon="10.911071856860286"><ele>71.28571428571429</ele><time>2026-04-12T10:49:36.274Z</time></trkpt><trkpt lat="43.78141784064126" lon="10.911079740649537"><ele>71.85714285714286</ele><time>2026-04-12T10:49:39.274Z</time></trkpt><trkpt lat="43.78134696552747" lon="10.911091539739227"><ele>72.42857142857143</ele><time>2026-04-12T10:49:42.274Z</time></trkpt><trkpt lat="43.78127161449386" lon="10.911091906459287"><ele>73.0</ele><time>2026-04-12T10:49:45.274Z</time></trkpt><trkpt lat="43.781202381164356" lon="10.91109784336828"><ele>73.0</ele><time>2026-04-12T10:49:48.274Z</time></trkpt><trkpt lat="43.78113236328391" lon="10.911102518816211"><ele>73.0</ele><time>2026-04-12T10:49:51.274Z</time></trkpt><trkpt lat="43.78105936331105" lon="10.91111428387041"><ele>73.0</ele><time>2026-04-12T10:49:54.274Z</time></trkpt><trkpt lat="43.7809881317496" lon="10.911118090538217"><ele>73.0</ele><time>2026-04-12T10:49:57.274Z</time></trkpt><trkpt lat="43.78091320830538" lon="10.911122361296231"><ele>73.0</ele><time>2026-04-12T10:50:00.272Z</time></trkpt><trkpt lat="43.780834904256494" lon="10.911126375824134"><ele>73.0</ele><time>2026-04-12T10:50:03.272Z</time></trkpt><trkpt lat="43.78075221981038" lon="10.911141171694561"><ele>73.66666666666666</ele><time>2026-04-12T10:50:06.272Z</time></trkpt><trkpt lat="43.78069402803084" lon="10.911102701188065"><ele>74.33333333333333</ele><time>2026-04-12T10:50:08.272Z</time></trkpt><trkpt lat="43.78061166592266" lon="10.911106833563668"><ele>75.0</ele><time>2026-04-12T10:50:11.272Z</time></trkpt><trkpt lat="43.78052682337072" lon="10.911111090393437"><ele>75.66666666666667</ele><time>2026-04-12T10:50:14.272Z</time></trkpt><trkpt lat="43.78044067674872" lon="10.91111541265276"><ele>76.33333333333334</ele><time>2026-04-12T10:50:17.272Z</time></trkpt><trkpt lat="43.78035908649551" lon="10.911119506303816"><ele>77.0</ele><time>2026-04-12T10:50:20.272Z</time></trkpt><trkpt lat="43.780276709069504" lon="10.911146116526622"><ele>77.0</ele><time>2026-04-12T10:50:23.272Z</time></trkpt><trkpt lat="43.780186221457555" lon="10.911139335257547"><ele>77.0</ele><time>2026-04-12T10:50:26.272Z</time></trkpt><trkpt lat="43.78010264236185" lon="10.911173923230253"><ele>77.0</ele><time>2026-04-12T10:50:29.272Z</time></trkpt><trkpt lat="43.7800330462488" lon="10.911228455546938"><ele>77.0</ele><time>2026-04-12T10:50:32.272Z</time></trkpt><trkpt lat="43.7800104921282" lon="10.911318704554974"><ele>77.0</ele><time>2026-04-12T10:50:34.272Z</time></trkpt><trkpt lat="43.77995823476684" lon="10.911391707891651"><ele>77.0</ele><time>2026-04-12T10:50:36.272Z</time></trkpt><trkpt lat="43.779892353989936" lon="10.91149490264934"><ele>76.83333333333334</ele><time>2026-04-12T10:50:38.272Z</time></trkpt><trkpt lat="43.779811918459" lon="10.91161347778737"><ele>76.66666666666667</ele><time>2026-04-12T10:50:40.272Z</time></trkpt><trkpt lat="43.779768087509105" lon="10.911686214264549"><ele>76.5</ele><time>2026-04-12T10:50:41.272Z</time></trkpt><trkpt lat="43.77972138159111" lon="10.911757529006904"><ele>76.33333333333333</ele><time>2026-04-12T10:50:42.272Z</time></trkpt><trkpt lat="43.77967318078106" lon="10.91183602123057"><ele>76.16666666666666</ele><time>2026-04-12T10:50:43.272Z</time></trkpt><trkpt lat="43.77962665261341" lon="10.911915020040501"><ele>76.0</ele><time>2026-04-12T10:50:44.272Z</time></trkpt><trkpt lat="43.77957813934523" lon="10.911997001265377"><ele>75.66666666666666</ele><time>2026-04-12T10:50:45.272Z</time></trkpt><trkpt lat="43.779528510583894" lon="10.91207084118705"><ele>75.33333333333333</ele><time>2026-04-12T10:50:46.272Z</time></trkpt><trkpt lat="43.77947827003436" lon="10.912146342409264"><ele>75.0</ele><time>2026-04-12T10:50:47.272Z</time></trkpt><trkpt lat="43.779426729880214" lon="10.91222629793057"><ele>74.66666666666667</ele><time>2026-04-12T10:50:48.272Z</time></trkpt><trkpt lat="43.779373344302115" lon="10.912302782066888"><ele>74.33333333333334</ele><time>2026-04-12T10:50:49.272Z</time></trkpt><trkpt lat="43.77930452957184" lon="10.912352911387408"><ele>74.0</ele><time>2026-04-12T10:50:50.272Z</time></trkpt><trkpt lat="43.779237691799764" lon="10.912399706617668"><ele>74.0</ele><time>2026-04-12T10:50:51.272Z</time></trkpt><trkpt lat="43.7791758376189" lon="10.912465663614173"><ele>74.0</ele><time>2026-04-12T10:50:52.272Z</time></trkpt><trkpt lat="43.779108176123856" lon="10.912507674553657"><ele>74.0</ele><time>2026-04-12T10:50:53.272Z</time></trkpt><trkpt lat="43.77904423926034" lon="10.912548285655026"><ele>74.0</ele><time>2026-04-12T10:50:54.272Z</time></trkpt><trkpt lat="43.77897624801406" lon="10.912589952052588"><ele>74.0</ele><time>2026-04-12T10:50:55.272Z</time></trkpt><trkpt lat="43.778904578221834" lon="10.912609650168022"><ele>74.0</ele><time>2026-04-12T10:50:56.272Z</time></trkpt><trkpt lat="43.77883826172622" lon="10.912647370691026"><ele>74.0</ele><time>2026-04-12T10:50:57.272Z</time></trkpt><trkpt lat="43.778781447428095" lon="10.912700888283794"><ele>73.85714285714286</ele><time>2026-04-12T10:50:58.272Z</time></trkpt><trkpt lat="43.7787195008636" lon="10.912733404853881"><ele>73.71428571428571</ele><time>2026-04-12T10:50:59.272Z</time></trkpt><trkpt lat="43.77866115628266" lon="10.912770676941872"><ele>73.57142857142857</ele><time>2026-04-12T10:51:00.272Z</time></trkpt><trkpt lat="43.77860072143817" lon="10.912806006932218"><ele>73.42857142857143</ele><time>2026-04-12T10:51:01.272Z</time></trkpt><trkpt lat="43.7785339531894" lon="10.91282391491302"><ele>73.28571428571429</ele><time>2026-04-12T10:51:02.272Z</time></trkpt><trkpt lat="43.77847696057999" lon="10.91288466678303"><ele>73.14285714285714</ele><time>2026-04-12T10:51:03.272Z</time></trkpt><trkpt lat="43.77841267925019" lon="10.91292689800407"><ele>73.0</ele><time>2026-04-12T10:51:04.272Z</time></trkpt><trkpt lat="43.778339941916116" lon="10.912954294599645"><ele>72.0</ele><time>2026-04-12T10:51:05.272Z</time></trkpt><trkpt lat="43.778283748404505" lon="10.913016018568085"><ele>71.0</ele><time>2026-04-12T10:51:06.272Z</time></trkpt><trkpt lat="43.778172596065495" lon="10.913039425863653"><ele>70.0</ele><time>2026-04-12T10:51:08.272Z</time></trkpt><trkpt lat="43.77807455348371" lon="10.912950425223752"><ele>69.0</ele><time>2026-04-12T10:51:10.272Z</time></trkpt><trkpt lat="43.77800060380614" lon="10.912849780735588"><ele>68.0</ele><time>2026-04-12T10:51:12.272Z</time></trkpt><trkpt lat="43.77792332065373" lon="10.912771426979834"><ele>68.0</ele><time>2026-04-12T10:51:14.272Z</time></trkpt><trkpt lat="43.777846334141465" lon="10.912692234093774"><ele>68.0</ele><time>2026-04-12T10:51:16.272Z</time></trkpt><trkpt lat="43.77777013132684" lon="10.912613151120436"><ele>68.0</ele><time>2026-04-12T10:51:18.272Z</time></trkpt><trkpt lat="43.777693276818454" lon="10.912532298178421"><ele>68.0</ele><time>2026-04-12T10:51:20.272Z</time></trkpt><trkpt lat="43.77761528505945" lon="10.912449592963078"><ele>68.0</ele><time>2026-04-12T10:51:22.272Z</time></trkpt><trkpt lat="43.77753762657111" lon="10.912364098924181"><ele>69.2</ele><time>2026-04-12T10:51:24.272Z</time></trkpt><trkpt lat="43.777458087187206" lon="10.912284509682612"><ele>70.4</ele><time>2026-04-12T10:51:26.272Z</time></trkpt><trkpt lat="43.77737686402406" lon="10.912201240873372"><ele>71.60000000000001</ele><time>2026-04-12T10:51:28.272Z</time></trkpt><trkpt lat="43.77729625867483" lon="10.912120840389727"><ele>72.8</ele><time>2026-04-12T10:51:30.272Z</time></trkpt><trkpt lat="43.77721700873893" lon="10.912032408921899"><ele>74.0</ele><time>2026-04-12T10:51:32.272Z</time></trkpt><trkpt lat="43.77714021238076" lon="10.91195054840658"><ele>74.0</ele><time>2026-04-12T10:51:34.272Z</time></trkpt><trkpt lat="43.777060414815786" lon="10.911870716391208"><ele>74.0</ele><time>2026-04-12T10:51:36.272Z</time></trkpt><trkpt lat="43.77698027647994" lon="10.911794405854804"><ele>74.0</ele><time>2026-04-12T10:51:38.272Z</time></trkpt><trkpt lat="43.77690200350457" lon="10.911711729373213"><ele>74.0</ele><time>2026-04-12T10:51:40.272Z</time></trkpt><trkpt lat="43.776820109356294" lon="10.911628661691765"><ele>74.0</ele><time>2026-04-12T10:51:42.272Z</time></trkpt><trkpt lat="43.77673647428314" lon="10.911543804543745"><ele>73.8</ele><time>2026-04-12T10:51:44.272Z</time></trkpt><trkpt lat="43.77665583695792" lon="10.91145939191358"><ele>73.60000000000001</ele><time>2026-04-12T10:51:46.272Z</time></trkpt><trkpt lat="43.77657636449366" lon="10.911373947532264"><ele>73.4</ele><time>2026-04-12T10:51:48.272Z</time></trkpt><trkpt lat="43.776495692097896" lon="10.911285209026097"><ele>73.2</ele><time>2026-04-12T10:51:50.272Z</time></trkpt><trkpt lat="43.7764143146833" lon="10.911199992965836"><ele>73.0</ele><time>2026-04-12T10:51:52.272Z</time></trkpt><trkpt lat="43.77633226056171" lon="10.911117301072927"><ele>73.0</ele><time>2026-04-12T10:51:54.272Z</time></trkpt><trkpt lat="43.776251916755804" lon="10.911035340876387"><ele>73.0</ele><time>2026-04-12T10:51:56.272Z</time></trkpt><trkpt lat="43.776169859309455" lon="10.910948555791585"><ele>73.0</ele><time>2026-04-12T10:51:58.272Z</time></trkpt><trkpt lat="43.776087875203665" lon="10.910866756737388"><ele>73.0</ele><time>2026-04-12T10:52:00.272Z</time></trkpt><trkpt lat="43.77600450793497" lon="10.91078081550714"><ele>73.0</ele><time>2026-04-12T10:52:02.272Z</time></trkpt><trkpt lat="43.77592414777058" lon="10.910692947710672"><ele>73.4</ele><time>2026-04-12T10:52:04.272Z</time></trkpt><trkpt lat="43.77584453402249" lon="10.910608266761546"><ele>73.8</ele><time>2026-04-12T10:52:06.271Z</time></trkpt><trkpt lat="43.77576678269546" lon="10.91052728894547"><ele>74.2</ele><time>2026-04-12T10:52:08.271Z</time></trkpt><trkpt lat="43.775688230022354" lon="10.910444229808935"><ele>74.6</ele><time>2026-04-12T10:52:10.271Z</time></trkpt><trkpt lat="43.77561078382088" lon="10.91036504710335"><ele>75.0</ele><time>2026-04-12T10:52:12.271Z</time></trkpt><trkpt lat="43.77553365666822" lon="10.91028500242141"><ele>75.0</ele><time>2026-04-12T10:52:14.271Z</time></trkpt><trkpt lat="43.77545683859668" lon="10.910204986293982"><ele>75.0</ele><time>2026-04-12T10:52:16.271Z</time></trkpt><trkpt lat="43.7753786509041" lon="10.910127966789641"><ele>75.0</ele><time>2026-04-12T10:52:18.271Z</time></trkpt><trkpt lat="43.775300797947416" lon="10.91004734187647"><ele>75.0</ele><time>2026-04-12T10:52:20.271Z</time></trkpt><trkpt lat="43.77522353693409" lon="10.909963465366173"><ele>75.0</ele><time>2026-04-12T10:52:22.271Z</time></trkpt><trkpt lat="43.77514488180015" lon="10.909882870493924"><ele>75.0</ele><time>2026-04-12T10:52:24.271Z</time></trkpt><trkpt lat="43.77506603143028" lon="10.909805256723871"><ele>75.0</ele><time>2026-04-12T10:52:26.271Z</time></trkpt><trkpt lat="43.7749920019992" lon="10.90972474019293"><ele>75.0</ele><time>2026-04-12T10:52:28.271Z</time></trkpt><trkpt lat="43.77491807376864" lon="10.909651928308094"><ele>75.0</ele><time>2026-04-12T10:52:30.271Z</time></trkpt><trkpt lat="43.77484639351432" lon="10.909572073413587"><ele>75.0</ele><time>2026-04-12T10:52:32.271Z</time></trkpt><trkpt lat="43.77477208640962" lon="10.9094960369893"><ele>75.0</ele><time>2026-04-12T10:52:34.271Z</time></trkpt><trkpt lat="43.774699043768905" lon="10.909420809168504"><ele>75.0</ele><time>2026-04-12T10:52:36.271Z</time></trkpt><trkpt lat="43.77462691914079" lon="10.909345072688094"><ele>75.0</ele><time>2026-04-12T10:52:38.271Z</time></trkpt><trkpt lat="43.77455423317608" lon="10.909272282860302"><ele>75.0</ele><time>2026-04-12T10:52:40.271Z</time></trkpt><trkpt lat="43.774482003848355" lon="10.909197811223414"><ele>75.0</ele><time>2026-04-12T10:52:42.271Z</time></trkpt><trkpt lat="43.774409672408396" lon="10.909120247833213"><ele>75.4</ele><time>2026-04-12T10:52:44.271Z</time></trkpt><trkpt lat="43.774336646759444" lon="10.909046027321773"><ele>75.8</ele><time>2026-04-12T10:52:46.271Z</time></trkpt><trkpt lat="43.774262756408135" lon="10.908965747223075"><ele>76.2</ele><time>2026-04-12T10:52:48.271Z</time></trkpt><trkpt lat="43.77419328113985" lon="10.908882821903081"><ele>76.6</ele><time>2026-04-12T10:52:50.271Z</time></trkpt><trkpt lat="43.77412769665312" lon="10.908793371796241"><ele>77.0</ele><time>2026-04-12T10:52:52.271Z</time></trkpt><trkpt lat="43.774062868905" lon="10.908701163770212"><ele>77.0</ele><time>2026-04-12T10:52:54.271Z</time></trkpt><trkpt lat="43.7739981463351" lon="10.908610794014471"><ele>77.0</ele><time>2026-04-12T10:52:56.271Z</time></trkpt><trkpt lat="43.773943202066015" lon="10.908510200983285"><ele>77.0</ele><time>2026-04-12T10:52:58.271Z</time></trkpt><trkpt lat="43.77388847897107" lon="10.908406845834303"><ele>77.0</ele><time>2026-04-12T10:53:00.271Z</time></trkpt><trkpt lat="43.77383573303649" lon="10.90830083391518"><ele>77.0</ele><time>2026-04-12T10:53:02.271Z</time></trkpt><trkpt lat="43.773779272662615" lon="10.908197720583434"><ele>76.4</ele><time>2026-04-12T10:53:04.271Z</time></trkpt><trkpt lat="43.77372788054892" lon="10.90809151120511"><ele>75.80000000000001</ele><time>2026-04-12T10:53:06.271Z</time></trkpt><trkpt lat="43.77367775920407" lon="10.907985820967838"><ele>75.2</ele><time>2026-04-12T10:53:08.271Z</time></trkpt><trkpt lat="43.77362630574837" lon="10.907877630106606"><ele>74.60000000000001</ele><time>2026-04-12T10:53:10.271Z</time></trkpt><trkpt lat="43.77356886774428" lon="10.907779092966848"><ele>74.0</ele><time>2026-04-12T10:53:12.271Z</time></trkpt><trkpt lat="43.77351135750159" lon="10.907670018714828"><ele>75.2</ele><time>2026-04-12T10:53:14.271Z</time></trkpt><trkpt lat="43.77345804501855" lon="10.907557640885715"><ele>76.4</ele><time>2026-04-12T10:53:16.271Z</time></trkpt><trkpt lat="43.773404049599044" lon="10.907444105134353"><ele>77.6</ele><time>2026-04-12T10:53:18.271Z</time></trkpt><trkpt lat="43.7733440668811" lon="10.907326583171743"><ele>78.8</ele><time>2026-04-12T10:53:20.271Z</time></trkpt><trkpt lat="43.77328196228121" lon="10.907205809170378"><ele>80.0</ele><time>2026-04-12T10:53:22.271Z</time></trkpt><trkpt lat="43.77322039027664" lon="10.907079865513678"><ele>80.0</ele><time>2026-04-12T10:53:24.271Z</time></trkpt><trkpt lat="43.773160017999025" lon="10.906952907615814"><ele>80.0</ele><time>2026-04-12T10:53:26.271Z</time></trkpt><trkpt lat="43.77309616535815" lon="10.906827142724286"><ele>80.0</ele><time>2026-04-12T10:53:28.271Z</time></trkpt><trkpt lat="43.77303326077341" lon="10.906701195069274"><ele>80.0</ele><time>2026-04-12T10:53:30.271Z</time></trkpt><trkpt lat="43.77297043102501" lon="10.906573146690606"><ele>80.0</ele><time>2026-04-12T10:53:32.271Z</time></trkpt><trkpt lat="43.77290484310071" lon="10.906449972960518"><ele>79.2</ele><time>2026-04-12T10:53:34.271Z</time></trkpt><trkpt lat="43.77284659523234" lon="10.906324791582618"><ele>78.4</ele><time>2026-04-12T10:53:36.271Z</time></trkpt><trkpt lat="43.7727847589362" lon="10.906194947571654"><ele>77.6</ele><time>2026-04-12T10:53:38.271Z</time></trkpt><trkpt lat="43.772724553979636" lon="10.906061874158675"><ele>76.8</ele><time>2026-04-12T10:53:40.271Z</time></trkpt><trkpt lat="43.77266315564628" lon="10.905927763723472"><ele>76.0</ele><time>2026-04-12T10:53:42.271Z</time></trkpt><trkpt lat="43.77260915030231" lon="10.905795843953578"><ele>75.8</ele><time>2026-04-12T10:53:44.271Z</time></trkpt><trkpt lat="43.77255032887697" lon="10.905664580986471"><ele>75.6</ele><time>2026-04-12T10:53:46.271Z</time></trkpt><trkpt lat="43.77249749379662" lon="10.905535234803551"><ele>75.4</ele><time>2026-04-12T10:53:48.271Z</time></trkpt><trkpt lat="43.77244372753826" lon="10.905409253811266"><ele>75.2</ele><time>2026-04-12T10:53:50.271Z</time></trkpt><trkpt lat="43.77239275844073" lon="10.905282781126772"><ele>75.0</ele><time>2026-04-12T10:53:52.271Z</time></trkpt><trkpt lat="43.77234186022773" lon="10.905155029516921"><ele>74.6</ele><time>2026-04-12T10:53:54.271Z</time></trkpt><trkpt lat="43.77228792486413" lon="10.905032015855395"><ele>74.2</ele><time>2026-04-12T10:53:56.271Z</time></trkpt><trkpt lat="43.772237330116155" lon="10.90490558834987"><ele>73.8</ele><time>2026-04-12T10:53:58.271Z</time></trkpt><trkpt lat="43.77218449633402" lon="10.90478279524994"><ele>73.4</ele><time>2026-04-12T10:54:00.271Z</time></trkpt><trkpt lat="43.772133657014116" lon="10.904659324304625"><ele>73.0</ele><time>2026-04-12T10:54:02.271Z</time></trkpt><trkpt lat="43.7720799702716" lon="10.904529300227503"><ele>73.0</ele><time>2026-04-12T10:54:04.271Z</time></trkpt><trkpt lat="43.772026303032504" lon="10.904409342167733"><ele>73.0</ele><time>2026-04-12T10:54:06.271Z</time></trkpt><trkpt lat="43.77197301250823" lon="10.904280816295659"><ele>73.0</ele><time>2026-04-12T10:54:08.271Z</time></trkpt><trkpt lat="43.77192110878974" lon="10.904156238098652"><ele>73.0</ele><time>2026-04-12T10:54:10.27Z</time></trkpt><trkpt lat="43.771863372475785" lon="10.904033785748593"><ele>73.0</ele><time>2026-04-12T10:54:12.27Z</time></trkpt><trkpt lat="43.771807163590175" lon="10.903903906201833"><ele>73.0</ele><time>2026-04-12T10:54:14.27Z</time></trkpt><trkpt lat="43.77175105759124" lon="10.903771815016666"><ele>73.0</ele><time>2026-04-12T10:54:16.27Z</time></trkpt><trkpt lat="43.77169782068556" lon="10.903645955399751"><ele>73.0</ele><time>2026-04-12T10:54:18.27Z</time></trkpt><trkpt lat="43.77163660118862" lon="10.90351229749582"><ele>73.0</ele><time>2026-04-12T10:54:20.27Z</time></trkpt><trkpt lat="43.77158632422327" lon="10.903381349229829"><ele>73.0</ele><time>2026-04-12T10:54:22.27Z</time></trkpt><trkpt lat="43.77153168929382" lon="10.90325715433932"><ele>74.6</ele><time>2026-04-12T10:54:24.27Z</time></trkpt><trkpt lat="43.77148015663185" lon="10.903133623291788"><ele>76.19999999999999</ele><time>2026-04-12T10:54:26.27Z</time></trkpt><trkpt lat="43.771428887209616" lon="10.903017488277106"><ele>77.8</ele><time>2026-04-12T10:54:28.27Z</time></trkpt><trkpt lat="43.77138118542371" lon="10.902902024244225"><ele>79.39999999999999</ele><time>2026-04-12T10:54:30.27Z</time></trkpt><trkpt lat="43.771333481360486" lon="10.902791426081036"><ele>81.0</ele><time>2026-04-12T10:54:32.27Z</time></trkpt><trkpt lat="43.77129047389199" lon="10.90268477135567"><ele>81.66666666666667</ele><time>2026-04-12T10:54:34.27Z</time></trkpt><trkpt lat="43.771248329469294" lon="10.902576531523609"><ele>82.33333333333333</ele><time>2026-04-12T10:54:36.27Z</time></trkpt><trkpt lat="43.771203271459896" lon="10.90247179239493"><ele>83.0</ele><time>2026-04-12T10:54:38.27Z</time></trkpt><trkpt lat="43.77116028708287" lon="10.90236678875164"><ele>83.66666666666666</ele><time>2026-04-12T10:54:40.27Z</time></trkpt><trkpt lat="43.77111832321343" lon="10.902265948522528"><ele>84.33333333333333</ele><time>2026-04-12T10:54:42.27Z</time></trkpt><trkpt lat="43.77107689790703" lon="10.902167951692059"><ele>85.0</ele><time>2026-04-12T10:54:44.27Z</time></trkpt><trkpt lat="43.77103847500168" lon="10.90207359330906"><ele>84.5</ele><time>2026-04-12T10:54:46.27Z</time></trkpt><trkpt lat="43.770998539063974" lon="10.901978669291937"><ele>84.0</ele><time>2026-04-12T10:54:48.27Z</time></trkpt><trkpt lat="43.770961450815676" lon="10.90188608686753"><ele>83.5</ele><time>2026-04-12T10:54:50.27Z</time></trkpt><trkpt lat="43.770922054194756" lon="10.901796600621187"><ele>83.0</ele><time>2026-04-12T10:54:52.27Z</time></trkpt><trkpt lat="43.77087838847735" lon="10.901703120209087"><ele>82.5</ele><time>2026-04-12T10:54:54.27Z</time></trkpt><trkpt lat="43.77084007250116" lon="10.901609099822416"><ele>82.0</ele><time>2026-04-12T10:54:56.27Z</time></trkpt><trkpt lat="43.77079817872554" lon="10.901517411583258"><ele>82.0</ele><time>2026-04-12T10:54:58.27Z</time></trkpt><trkpt lat="43.77075905636302" lon="10.901421319308344"><ele>82.0</ele><time>2026-04-12T10:55:00.27Z</time></trkpt><trkpt lat="43.770716847428105" lon="10.90132858066348"><ele>82.0</ele><time>2026-04-12T10:55:02.27Z</time></trkpt><trkpt lat="43.770675208243716" lon="10.901234112304449"><ele>82.0</ele><time>2026-04-12T10:55:04.27Z</time></trkpt><trkpt lat="43.77063157855419" lon="10.901141504518698"><ele>82.0</ele><time>2026-04-12T10:55:06.27Z</time></trkpt><trkpt lat="43.77058670572955" lon="10.901051029533328"><ele>82.0</ele><time>2026-04-12T10:55:08.27Z</time></trkpt><trkpt lat="43.77054710456026" lon="10.900956291338863"><ele>81.85714285714285</ele><time>2026-04-12T10:55:10.27Z</time></trkpt><trkpt lat="43.770504757337655" lon="10.900862547058502"><ele>81.71428571428571</ele><time>2026-04-12T10:55:12.27Z</time></trkpt><trkpt lat="43.770461553374794" lon="10.900774079422709"><ele>81.57142857142857</ele><time>2026-04-12T10:55:14.27Z</time></trkpt><trkpt lat="43.7704231820226" lon="10.90068365381544"><ele>81.42857142857142</ele><time>2026-04-12T10:55:16.27Z</time></trkpt><trkpt lat="43.7703882423953" lon="10.900596825814308"><ele>81.28571428571428</ele><time>2026-04-12T10:55:18.27Z</time></trkpt><trkpt lat="43.77034872638157" lon="10.900514361100436"><ele>81.14285714285714</ele><time>2026-04-12T10:55:20.27Z</time></trkpt><trkpt lat="43.77031301619215" lon="10.9004263870659"><ele>81.0</ele><time>2026-04-12T10:55:22.27Z</time></trkpt><trkpt lat="43.77027477259252" lon="10.900343958303104"><ele>81.0</ele><time>2026-04-12T10:55:24.27Z</time></trkpt><trkpt lat="43.77024052523946" lon="10.900263473133288"><ele>81.0</ele><time>2026-04-12T10:55:26.27Z</time></trkpt><trkpt lat="43.77020280322061" lon="10.90018365132925"><ele>81.0</ele><time>2026-04-12T10:55:28.27Z</time></trkpt><trkpt lat="43.77016708772323" lon="10.90010606075592"><ele>81.0</ele><time>2026-04-12T10:55:30.27Z</time></trkpt><trkpt lat="43.77012926463945" lon="10.900029864843512"><ele>81.0</ele><time>2026-04-12T10:55:32.27Z</time></trkpt><trkpt lat="43.770094631564405" lon="10.899954253441665"><ele>81.0</ele><time>2026-04-12T10:55:34.27Z</time></trkpt><trkpt lat="43.77005075216902" lon="10.899851105911798"><ele>81.0</ele><time>2026-04-12T10:55:37.27Z</time></trkpt><trkpt lat="43.77000037768675" lon="10.899753799487085"><ele>81.83333333333333</ele><time>2026-04-12T10:55:40.27Z</time></trkpt><trkpt lat="43.769965673792385" lon="10.899662099021425"><ele>82.66666666666667</ele><time>2026-04-12T10:55:43.27Z</time></trkpt><trkpt lat="43.77005472056863" lon="10.899600438423175"><ele>83.5</ele><time>2026-04-12T10:55:50.27Z</time></trkpt><trkpt lat="43.7699834581143" lon="10.89960324935483"><ele>84.33333333333334</ele><time>2026-04-12T11:00:18.267Z</time></trkpt><trkpt lat="43.76996508584093" lon="10.899687208056708"><ele>85.16666666666667</ele><time>2026-04-12T11:00:33.266Z</time></trkpt><trkpt lat="43.76998266371497" lon="10.89980396648457"><ele>86.0</ele><time>2026-04-12T11:00:37.266Z</time></trkpt><trkpt lat="43.77003259335483" lon="10.899914832767912"><ele>86.0</ele><time>2026-04-12T11:00:40.266Z</time></trkpt><trkpt lat="43.770076847893" lon="10.900002480356017"><ele>86.0</ele><time>2026-04-12T11:00:42.266Z</time></trkpt><trkpt lat="43.770125152457275" lon="10.900106327501662"><ele>86.0</ele><time>2026-04-12T11:00:44.266Z</time></trkpt><trkpt lat="43.77018000422443" lon="10.900218577239665"><ele>86.0</ele><time>2026-04-12T11:00:46.266Z</time></trkpt><trkpt lat="43.77023774774634" lon="10.900334035986958"><ele>86.0</ele><time>2026-04-12T11:00:48.266Z</time></trkpt><trkpt lat="43.77029344878277" lon="10.900465595636087"><ele>85.16666666666667</ele><time>2026-04-12T11:00:50.266Z</time></trkpt><trkpt lat="43.770338260692924" lon="10.900572923415215"><ele>84.33333333333334</ele><time>2026-04-12T11:00:52.266Z</time></trkpt><trkpt lat="43.77030762659336" lon="10.900659912543015"><ele>83.5</ele><time>2026-04-12T11:00:54.266Z</time></trkpt><trkpt lat="43.77022576213354" lon="10.900679945007008"><ele>82.66666666666667</ele><time>2026-04-12T11:00:56.266Z</time></trkpt><trkpt lat="43.77015208075534" lon="10.900756832866575"><ele>81.83333333333333</ele><time>2026-04-12T11:00:59.266Z</time></trkpt><trkpt lat="43.77008283305965" lon="10.900830455959774"><ele>81.0</ele><time>2026-04-12T11:01:01.266Z</time></trkpt><trkpt lat="43.770297002186346" lon="10.900797931224778"><ele>81.0</ele><time>2026-04-12T11:01:05.266Z</time></trkpt></trkseg></trk></gpx>